<?xml version='1.0' encoding='UTF-8'?><gpx version="1.1" creator="JPX - https://github.com/jenetics/jpx" xmlns="http://www.topografix.com/GPX/1/1"><trk><trkseg><trkpt lat="42.7790234" lon="12.4144289"><ele>331.0</ele><time>2026-05-03T08:33:58.278Z</time></trkpt><trkpt lat="42.7789117" lon="12.4143675"><ele>331.0</ele><time>2026-05-03T08:34:00.284Z</time></trkpt><trkpt lat="42.7788416" lon="12.4145195"><ele>331.0</ele><time>2026-05-03T08:34:02.276Z</time></trkpt><trkpt lat="42.7788152" lon="12.4146358"><ele>331.0</ele><time>2026-05-03T08:34:03.27Z</time></trkpt><trkpt lat="42.7787558" lon="12.4147763"><ele>330.20000000000005</ele><time>2026-05-03T08:34:04.259Z</time></trkpt><trkpt lat="42.7786977" lon="12.4149239"><ele>329.40000000000003</ele><time>2026-05-03T08:34:05.268Z</time></trkpt><trkpt lat="42.7786452" lon="12.4150552"><ele>328.6</ele><time>2026-05-03T08:34:06.27Z</time></trkpt><trkpt lat="42.7785951" lon="12.415183"><ele>327.8</ele><time>2026-05-03T08:34:07.26Z</time></trkpt><trkpt lat="42.7785434" lon="12.415302"><ele>327.0</ele><time>2026-05-03T08:34:08.263Z</time></trkpt><trkpt lat="42.7784889" lon="12.415416"><ele>327.20000000000005</ele><time>2026-05-03T08:34:09.271Z</time></trkpt><trkpt lat="42.7784363" lon="12.4155357"><ele>327.4</ele><time>2026-05-03T08:34:10.263Z</time></trkpt><trkpt lat="42.7783897" lon="12.4156471"><ele>327.6</ele><time>2026-05-03T08:34:11.262Z</time></trkpt><trkpt lat="42.778344" lon="12.4157536"><ele>327.79999999999995</ele><time>2026-05-03T08:34:12.256Z</time></trkpt><trkpt lat="42.7783028" lon="12.4158537"><ele>328.0</ele><time>2026-05-03T08:34:13.261Z</time></trkpt><trkpt lat="42.7782646" lon="12.41595"><ele>328.0</ele><time>2026-05-03T08:34:14.269Z</time></trkpt><trkpt lat="42.7782253" lon="12.4160513"><ele>328.0</ele><time>2026-05-03T08:34:15.28Z</time></trkpt><trkpt lat="42.7781845" lon="12.4161471"><ele>328.0</ele><time>2026-05-03T08:34:16.263Z</time></trkpt><trkpt lat="42.7781464" lon="12.4162398"><ele>328.0</ele><time>2026-05-03T08:34:17.273Z</time></trkpt><trkpt lat="42.7781062" lon="12.4163261"><ele>328.0</ele><time>2026-05-03T08:34:18.267Z</time></trkpt><trkpt lat="42.7780593" lon="12.4164169"><ele>328.0</ele><time>2026-05-03T08:34:19.271Z</time></trkpt><trkpt lat="42.7779999" lon="12.4165222"><ele>326.0</ele><time>2026-05-03T08:34:20.277Z</time></trkpt><trkpt lat="42.7779179" lon="12.4166354"><ele>324.0</ele><time>2026-05-03T08:34:21.256Z</time></trkpt><trkpt lat="42.7778133" lon="12.4167354"><ele>322.0</ele><time>2026-05-03T08:34:22.259Z</time></trkpt><trkpt lat="42.7776725" lon="12.4168098"><ele>320.0</ele><time>2026-05-03T08:34:23.265Z</time></trkpt><trkpt lat="42.7775174" lon="12.416853"><ele>319.25</ele><time>2026-05-03T08:34:24.253Z</time></trkpt><trkpt lat="42.777366" lon="12.4168795"><ele>318.5</ele><time>2026-05-03T08:34:25.265Z</time></trkpt><trkpt lat="42.7772314" lon="12.4168959"><ele>317.75</ele><time>2026-05-03T08:34:26.258Z</time></trkpt><trkpt lat="42.7771106" lon="12.4169086"><ele>317.0</ele><time>2026-05-03T08:34:27.255Z</time></trkpt><trkpt lat="42.7769986" lon="12.4169324"><ele>317.0</ele><time>2026-05-03T08:34:28.285Z</time></trkpt><trkpt lat="42.7768973" lon="12.416968"><ele>317.0</ele><time>2026-05-03T08:34:29.265Z</time></trkpt><trkpt lat="42.7768129" lon="12.4170681"><ele>317.0</ele><time>2026-05-03T08:34:30.271Z</time></trkpt><trkpt lat="42.7767544" lon="12.4172146"><ele>317.0</ele><time>2026-05-03T08:34:31.276Z</time></trkpt><trkpt lat="42.7767275" lon="12.4173593"><ele>317.0</ele><time>2026-05-03T08:34:32.263Z</time></trkpt><trkpt lat="42.7767256" lon="12.4175031"><ele>315.0</ele><time>2026-05-03T08:34:33.27Z</time></trkpt><trkpt lat="42.7767443" lon="12.4176485"><ele>313.0</ele><time>2026-05-03T08:34:34.278Z</time></trkpt><trkpt lat="42.7767694" lon="12.4177872"><ele>311.0</ele><time>2026-05-03T08:34:35.263Z</time></trkpt><trkpt lat="42.7767919" lon="12.4179174"><ele>309.0</ele><time>2026-05-03T08:34:36.29Z</time></trkpt><trkpt lat="42.7768184" lon="12.4180357"><ele>307.0</ele><time>2026-05-03T08:34:37.286Z</time></trkpt><trkpt lat="42.7768418" lon="12.4181451"><ele>307.3333333333333</ele><time>2026-05-03T08:34:38.272Z</time></trkpt><trkpt lat="42.7768663" lon="12.4182459"><ele>307.66666666666663</ele><time>2026-05-03T08:34:39.268Z</time></trkpt><trkpt lat="42.7768887" lon="12.4183465"><ele>308.0</ele><time>2026-05-03T08:34:40.272Z</time></trkpt><trkpt lat="42.7769114" lon="12.4184345"><ele>308.3333333333333</ele><time>2026-05-03T08:34:41.255Z</time></trkpt><trkpt lat="42.7769541" lon="12.4185769"><ele>308.6666666666667</ele><time>2026-05-03T08:34:43.277Z</time></trkpt><trkpt lat="42.7769003" lon="12.4186687"><ele>309.0</ele><time>2026-05-03T08:34:46.263Z</time></trkpt><trkpt lat="42.7768303" lon="12.4186972"><ele>308.1666666666667</ele><time>2026-05-03T08:34:48.291Z</time></trkpt><trkpt lat="42.7767294" lon="12.4187376"><ele>307.3333333333333</ele><time>2026-05-03T08:34:50.263Z</time></trkpt><trkpt lat="42.7766567" lon="12.418765"><ele>306.5</ele><time>2026-05-03T08:34:51.281Z</time></trkpt><trkpt lat="42.7765697" lon="12.4187921"><ele>305.66666666666663</ele><time>2026-05-03T08:34:52.275Z</time></trkpt><trkpt lat="42.7764833" lon="12.4188193"><ele>304.8333333333333</ele><time>2026-05-03T08:34:53.262Z</time></trkpt><trkpt lat="42.7764066" lon="12.4188387"><ele>304.0</ele><time>2026-05-03T08:34:54.265Z</time></trkpt><trkpt lat="42.7763437" lon="12.4188423"><ele>304.0</ele><time>2026-05-03T08:34:55.264Z</time></trkpt><trkpt lat="42.7762346" lon="12.4187796"><ele>304.0</ele><time>2026-05-03T08:34:57.294Z</time></trkpt><trkpt lat="42.7761809" lon="12.4187321"><ele>304.0</ele><time>2026-05-03T08:34:58.262Z</time></trkpt><trkpt lat="42.7761218" lon="12.4186899"><ele>304.0</ele><time>2026-05-03T08:34:59.272Z</time></trkpt><trkpt lat="42.776055" lon="12.4186478"><ele>304.0</ele><time>2026-05-03T08:35:00.275Z</time></trkpt><trkpt lat="42.775992" lon="12.4186051"><ele>304.0</ele><time>2026-05-03T08:35:01.257Z</time></trkpt><trkpt lat="42.7758874" lon="12.4185467"><ele>300.4</ele><time>2026-05-03T08:35:03.278Z</time></trkpt><trkpt lat="42.7757895" lon="12.4185039"><ele>296.79999999999995</ele><time>2026-05-03T08:35:05.276Z</time></trkpt><trkpt lat="42.7757001" lon="12.4184453"><ele>293.20000000000005</ele><time>2026-05-03T08:35:07.264Z</time></trkpt><trkpt lat="42.7756257" lon="12.4183813"><ele>289.6</ele><time>2026-05-03T08:35:09.257Z</time></trkpt><trkpt lat="42.7755591" lon="12.4183005"><ele>286.0</ele><time>2026-05-03T08:35:11.27Z</time></trkpt><trkpt lat="42.7755055" lon="12.4182019"><ele>286.0</ele><time>2026-05-03T08:35:13.259Z</time></trkpt><trkpt lat="42.7754614" lon="12.4180895"><ele>286.0</ele><time>2026-05-03T08:35:15.272Z</time></trkpt><trkpt lat="42.775362" lon="12.418008"><ele>286.0</ele><time>2026-05-03T08:35:17.268Z</time></trkpt><trkpt lat="42.7752963" lon="12.4179869"><ele>286.0</ele><time>2026-05-03T08:35:18.287Z</time></trkpt><trkpt lat="42.775226" lon="12.4179681"><ele>286.0</ele><time>2026-05-03T08:35:19.265Z</time></trkpt><trkpt lat="42.7751578" lon="12.4179501"><ele>286.0</ele><time>2026-05-03T08:35:20.261Z</time></trkpt><trkpt lat="42.7750935" lon="12.4179211"><ele>280.40000000000003</ele><time>2026-05-03T08:35:21.266Z</time></trkpt><trkpt lat="42.7750012" lon="12.4178439"><ele>274.8</ele><time>2026-05-03T08:35:23.284Z</time></trkpt><trkpt lat="42.7749308" lon="12.4177544"><ele>269.20000000000005</ele><time>2026-05-03T08:35:25.267Z</time></trkpt><trkpt lat="42.774868" lon="12.4176689"><ele>263.6</ele><time>2026-05-03T08:35:27.261Z</time></trkpt><trkpt lat="42.7747696" lon="12.4176435"><ele>258.0</ele><time>2026-05-03T08:35:29.263Z</time></trkpt><trkpt lat="42.7747013" lon="12.417668"><ele>258.0</ele><time>2026-05-03T08:35:31.287Z</time></trkpt><trkpt lat="42.7746347" lon="12.4176814"><ele>258.0</ele><time>2026-05-03T08:35:34.256Z</time></trkpt><trkpt lat="42.774699" lon="12.4176884"><ele>258.0</ele><time>2026-05-03T08:36:02.259Z</time></trkpt><trkpt lat="42.7748313" lon="12.4176754"><ele>258.0</ele><time>2026-05-03T08:36:04.275Z</time></trkpt><trkpt lat="42.7748945" lon="12.4177015"><ele>258.0</ele><time>2026-05-03T08:36:05.257Z</time></trkpt><trkpt lat="42.7749846" lon="12.4177828"><ele>258.0</ele><time>2026-05-03T08:36:07.268Z</time></trkpt><trkpt lat="42.7750602" lon="12.4179145"><ele>258.0</ele><time>2026-05-03T08:36:09.259Z</time></trkpt><trkpt lat="42.7751271" lon="12.4179545"><ele>258.0</ele><time>2026-05-03T08:36:10.269Z</time></trkpt><trkpt lat="42.7752145" lon="12.4179814"><ele>258.0</ele><time>2026-05-03T08:36:11.266Z</time></trkpt><trkpt lat="42.7753257" lon="12.4180176"><ele>258.0</ele><time>2026-05-03T08:36:12.258Z</time></trkpt><trkpt lat="42.7754384" lon="12.4180621"><ele>258.0</ele><time>2026-05-03T08:36:13.31Z</time></trkpt><trkpt lat="42.7755063" lon="12.4181252"><ele>261.99999999999994</ele><time>2026-05-03T08:36:14.255Z</time></trkpt><trkpt lat="42.7755554" lon="12.4181981"><ele>266.0</ele><time>2026-05-03T08:36:15.267Z</time></trkpt><trkpt lat="42.7755923" lon="12.4182873"><ele>270.0</ele><time>2026-05-03T08:36:16.261Z</time></trkpt><trkpt lat="42.7756291" lon="12.4183869"><ele>274.0</ele><time>2026-05-03T08:36:17.256Z</time></trkpt><trkpt lat="42.7756727" lon="12.4184705"><ele>278.0</ele><time>2026-05-03T08:36:18.274Z</time></trkpt><trkpt lat="42.7757304" lon="12.4185142"><ele>281.99999999999994</ele><time>2026-05-03T08:36:19.266Z</time></trkpt><trkpt lat="42.7757969" lon="12.4185432"><ele>286.0</ele><time>2026-05-03T08:36:20.261Z</time></trkpt><trkpt lat="42.775869" lon="12.4185762"><ele>285.99999999999994</ele><time>2026-05-03T08:36:21.261Z</time></trkpt><trkpt lat="42.7759328" lon="12.4186084"><ele>286.0</ele><time>2026-05-03T08:36:22.294Z</time></trkpt><trkpt lat="42.7760067" lon="12.4186449"><ele>286.0</ele><time>2026-05-03T08:36:23.261Z</time></trkpt><trkpt lat="42.7760808" lon="12.4186947"><ele>286.0</ele><time>2026-05-03T08:36:24.263Z</time></trkpt><trkpt lat="42.7761513" lon="12.4187519"><ele>286.0</ele><time>2026-05-03T08:36:25.269Z</time></trkpt><trkpt lat="42.7762155" lon="12.4188021"><ele>285.99999999999994</ele><time>2026-05-03T08:36:26.273Z</time></trkpt><trkpt lat="42.7762708" lon="12.4188446"><ele>286.0</ele><time>2026-05-03T08:36:27.261Z</time></trkpt><trkpt lat="42.7764074" lon="12.4188649"><ele>287.8</ele><time>2026-05-03T08:36:29.265Z</time></trkpt><trkpt lat="42.7765032" lon="12.4188409"><ele>289.6</ele><time>2026-05-03T08:36:30.257Z</time></trkpt><trkpt lat="42.7766202" lon="12.418804"><ele>291.4</ele><time>2026-05-03T08:36:31.272Z</time></trkpt><trkpt lat="42.7767358" lon="12.4187604"><ele>293.2</ele><time>2026-05-03T08:36:32.275Z</time></trkpt><trkpt lat="42.776826" lon="12.4187154"><ele>295.0</ele><time>2026-05-03T08:36:33.259Z</time></trkpt><trkpt lat="42.7768856" lon="12.4186849"><ele>296.8</ele><time>2026-05-03T08:36:34.265Z</time></trkpt><trkpt lat="42.776839" lon="12.4185956"><ele>298.6</ele><time>2026-05-03T08:36:49.292Z</time></trkpt><trkpt lat="42.7767987" lon="12.4185175"><ele>300.4</ele><time>2026-05-03T08:36:51.272Z</time></trkpt><trkpt lat="42.7767658" lon="12.4183901"><ele>302.2</ele><time>2026-05-03T08:36:53.254Z</time></trkpt><trkpt lat="42.7767335" lon="12.4182285"><ele>304.0</ele><time>2026-05-03T08:36:55.266Z</time></trkpt><trkpt lat="42.7767106" lon="12.4181205"><ele>304.0</ele><time>2026-05-03T08:36:56.258Z</time></trkpt><trkpt lat="42.7766847" lon="12.4179883"><ele>304.0</ele><time>2026-05-03T08:36:57.271Z</time></trkpt><trkpt lat="42.7766579" lon="12.4178538"><ele>304.0</ele><time>2026-05-03T08:36:58.261Z</time></trkpt><trkpt lat="42.7766373" lon="12.4177262"><ele>304.0</ele><time>2026-05-03T08:36:59.26Z</time></trkpt><trkpt lat="42.7766327" lon="12.4175937"><ele>304.0</ele><time>2026-05-03T08:37:00.261Z</time></trkpt><trkpt lat="42.7766271" lon="12.4174715"><ele>304.5</ele><time>2026-05-03T08:37:01.269Z</time></trkpt><trkpt lat="42.7766268" lon="12.4173711"><ele>305.0</ele><time>2026-05-03T08:37:02.257Z</time></trkpt><trkpt lat="42.7766518" lon="12.4172071"><ele>305.5</ele><time>2026-05-03T08:37:04.265Z</time></trkpt><trkpt lat="42.77667" lon="12.4171224"><ele>306.0</ele><time>2026-05-03T08:37:05.258Z</time></trkpt><trkpt lat="42.7766936" lon="12.4170379"><ele>306.5</ele><time>2026-05-03T08:37:06.267Z</time></trkpt><trkpt lat="42.7767192" lon="12.4169478"><ele>307.0</ele><time>2026-05-03T08:37:07.259Z</time></trkpt><trkpt lat="42.776745" lon="12.4168589"><ele>305.25</ele><time>2026-05-03T08:37:08.274Z</time></trkpt><trkpt lat="42.7767786" lon="12.4167746"><ele>303.5</ele><time>2026-05-03T08:37:09.258Z</time></trkpt><trkpt lat="42.7768607" lon="12.4166471"><ele>301.75</ele><time>2026-05-03T08:37:11.27Z</time></trkpt><trkpt lat="42.7769314" lon="12.4165218"><ele>300.0</ele><time>2026-05-03T08:37:13.259Z</time></trkpt><trkpt lat="42.7770169" lon="12.4163663"><ele>302.6</ele><time>2026-05-03T08:37:16.275Z</time></trkpt><trkpt lat="42.7770606" lon="12.4162876"><ele>305.2</ele><time>2026-05-03T08:37:18.273Z</time></trkpt><trkpt lat="42.7769904" lon="12.4161796"><ele>307.8</ele><time>2026-05-03T08:37:21.302Z</time></trkpt><trkpt lat="42.7769383" lon="12.4160822"><ele>310.4</ele><time>2026-05-03T08:37:23.256Z</time></trkpt><trkpt lat="42.7769114" lon="12.4159594"><ele>313.0</ele><time>2026-05-03T08:37:25.284Z</time></trkpt><trkpt lat="42.7769356" lon="12.4158318"><ele>313.0</ele><time>2026-05-03T08:37:27.297Z</time></trkpt><trkpt lat="42.7769806" lon="12.4157265"><ele>313.0</ele><time>2026-05-03T08:37:29.256Z</time></trkpt><trkpt lat="42.7770762" lon="12.4156583"><ele>313.0</ele><time>2026-05-03T08:37:31.268Z</time></trkpt><trkpt lat="42.7771434" lon="12.4156065"><ele>313.0</ele><time>2026-05-03T08:37:33.252Z</time></trkpt><trkpt lat="42.7771864" lon="12.4155079"><ele>313.0</ele><time>2026-05-03T08:37:35.255Z</time></trkpt><trkpt lat="42.7772044" lon="12.4153755"><ele>310.8</ele><time>2026-05-03T08:37:37.261Z</time></trkpt><trkpt lat="42.7772323" lon="12.415253"><ele>308.6</ele><time>2026-05-03T08:37:39.265Z</time></trkpt><trkpt lat="42.7772653" lon="12.4151151"><ele>306.4</ele><time>2026-05-03T08:37:41.257Z</time></trkpt><trkpt lat="42.7773085" lon="12.4149685"><ele>304.2</ele><time>2026-05-03T08:37:43.272Z</time></trkpt><trkpt lat="42.777337" lon="12.4148328"><ele>302.0</ele><time>2026-05-03T08:37:45.267Z</time></trkpt><trkpt lat="42.7773678" lon="12.4146646"><ele>300.2</ele><time>2026-05-03T08:37:47.28Z</time></trkpt><trkpt lat="42.7773793" lon="12.4145763"><ele>298.4</ele><time>2026-05-03T08:37:48.263Z</time></trkpt><trkpt lat="42.7773889" lon="12.4144129"><ele>296.6</ele><time>2026-05-03T08:37:50.26Z</time></trkpt><trkpt lat="42.777358" lon="12.414288"><ele>294.8</ele><time>2026-05-03T08:37:52.269Z</time></trkpt><trkpt lat="42.7773035" lon="12.4142073"><ele>293.0</ele><time>2026-05-03T08:37:54.272Z</time></trkpt><trkpt lat="42.7772541" lon="12.4141052"><ele>293.0</ele><time>2026-05-03T08:37:56.268Z</time></trkpt><trkpt lat="42.777211" lon="12.4139563"><ele>293.0</ele><time>2026-05-03T08:37:58.252Z</time></trkpt><trkpt lat="42.7771888" lon="12.4138138"><ele>293.0</ele><time>2026-05-03T08:38:00.267Z</time></trkpt><trkpt lat="42.777185" lon="12.4137256"><ele>293.0</ele><time>2026-05-03T08:38:02.256Z</time></trkpt><trkpt lat="42.7771248" lon="12.4137854"><ele>293.0</ele><time>2026-05-03T08:38:06.258Z</time></trkpt><trkpt lat="42.7770995" lon="12.4139137"><ele>293.0</ele><time>2026-05-03T08:38:08.276Z</time></trkpt><trkpt lat="42.7770623" lon="12.4140566"><ele>293.0</ele><time>2026-05-03T08:38:10.267Z</time></trkpt><trkpt lat="42.7769962" lon="12.4142048"><ele>293.0</ele><time>2026-05-03T08:38:12.272Z</time></trkpt><trkpt lat="42.7769542" lon="12.4142737"><ele>293.0</ele><time>2026-05-03T08:38:13.27Z</time></trkpt><trkpt lat="42.7769027" lon="12.4143359"><ele>293.0</ele><time>2026-05-03T08:38:14.259Z</time></trkpt><trkpt lat="42.7768491" lon="12.414387"><ele>293.0</ele><time>2026-05-03T08:38:15.261Z</time></trkpt><trkpt lat="42.7767365" lon="12.4144479"><ele>289.2</ele><time>2026-05-03T08:38:17.261Z</time></trkpt><trkpt lat="42.776618" lon="12.4144824"><ele>285.4</ele><time>2026-05-03T08:38:19.258Z</time></trkpt><trkpt lat="42.7765106" lon="12.4145389"><ele>281.59999999999997</ele><time>2026-05-03T08:38:21.269Z</time></trkpt><trkpt lat="42.7764149" lon="12.4146291"><ele>277.8</ele><time>2026-05-03T08:38:23.286Z</time></trkpt><trkpt lat="42.7763639" lon="12.4146823"><ele>274.0</ele><time>2026-05-03T08:38:24.268Z</time></trkpt><trkpt lat="42.7763057" lon="12.4147312"><ele>274.0</ele><time>2026-05-03T08:38:25.26Z</time></trkpt><trkpt lat="42.7762435" lon="12.4147598"><ele>274.0</ele><time>2026-05-03T08:38:26.268Z</time></trkpt><trkpt lat="42.776123" lon="12.4147548"><ele>274.0</ele><time>2026-05-03T08:38:28.275Z</time></trkpt><trkpt lat="42.7760657" lon="12.4147144"><ele>274.0</ele><time>2026-05-03T08:38:29.259Z</time></trkpt><trkpt lat="42.7760047" lon="12.4146856"><ele>274.0</ele><time>2026-05-03T08:38:30.262Z</time></trkpt><trkpt lat="42.7758989" lon="12.4147214"><ele>274.0</ele><time>2026-05-03T08:38:32.276Z</time></trkpt><trkpt lat="42.7758399" lon="12.4147958"><ele>270.4</ele><time>2026-05-03T08:38:33.268Z</time></trkpt><trkpt lat="42.7757723" lon="12.4149053"><ele>266.79999999999995</ele><time>2026-05-03T08:38:34.262Z</time></trkpt><trkpt lat="42.7757163" lon="12.4149938"><ele>263.20000000000005</ele><time>2026-05-03T08:38:35.272Z</time></trkpt><trkpt lat="42.7756375" lon="12.4150529"><ele>259.6</ele><time>2026-05-03T08:38:37.271Z</time></trkpt><trkpt lat="42.7755331" lon="12.4149351"><ele>256.0</ele><time>2026-05-03T08:38:39.273Z</time></trkpt><trkpt lat="42.775479" lon="12.4148313"><ele>256.0</ele><time>2026-05-03T08:38:40.259Z</time></trkpt><trkpt lat="42.7754335" lon="12.4147233"><ele>256.0</ele><time>2026-05-03T08:38:41.277Z</time></trkpt><trkpt lat="42.7753908" lon="12.4146325"><ele>256.0</ele><time>2026-05-03T08:38:42.275Z</time></trkpt><trkpt lat="42.7752814" lon="12.4145542"><ele>256.0</ele><time>2026-05-03T08:38:44.281Z</time></trkpt><trkpt lat="42.7751959" lon="12.4145641"><ele>256.0</ele><time>2026-05-03T08:38:45.262Z</time></trkpt><trkpt lat="42.7750914" lon="12.4145804"><ele>254.33333333333331</ele><time>2026-05-03T08:38:46.261Z</time></trkpt><trkpt lat="42.7749987" lon="12.4146054"><ele>252.66666666666666</ele><time>2026-05-03T08:38:47.274Z</time></trkpt><trkpt lat="42.7749232" lon="12.414624"><ele>251.0</ele><time>2026-05-03T08:38:48.284Z</time></trkpt><trkpt lat="42.774848" lon="12.4146577"><ele>249.33333333333331</ele><time>2026-05-03T08:38:49.281Z</time></trkpt><trkpt lat="42.7747795" lon="12.4147046"><ele>247.66666666666666</ele><time>2026-05-03T08:38:50.27Z</time></trkpt><trkpt lat="42.7747257" lon="12.4147603"><ele>246.0</ele><time>2026-05-03T08:38:51.257Z</time></trkpt><trkpt lat="42.7746742" lon="12.4148346"><ele>245.33333333333334</ele><time>2026-05-03T08:38:52.263Z</time></trkpt><trkpt lat="42.7746283" lon="12.4149162"><ele>244.66666666666669</ele><time>2026-05-03T08:38:53.281Z</time></trkpt><trkpt lat="42.7745857" lon="12.4150021"><ele>244.0</ele><time>2026-05-03T08:38:54.273Z</time></trkpt><trkpt lat="42.7745535" lon="12.4150986"><ele>243.33333333333334</ele><time>2026-05-03T08:38:55.268Z</time></trkpt><trkpt lat="42.7745267" lon="12.4151963"><ele>242.66666666666669</ele><time>2026-05-03T08:38:56.271Z</time></trkpt><trkpt lat="42.7745071" lon="12.4153116"><ele>242.0</ele><time>2026-05-03T08:38:57.268Z</time></trkpt><trkpt lat="42.7744862" lon="12.4154274"><ele>242.28571428571428</ele><time>2026-05-03T08:38:58.265Z</time></trkpt><trkpt lat="42.7744692" lon="12.4155258"><ele>242.57142857142856</ele><time>2026-05-03T08:38:59.261Z</time></trkpt><trkpt lat="42.7744473" lon="12.4156224"><ele>242.85714285714283</ele><time>2026-05-03T08:39:00.27Z</time></trkpt><trkpt lat="42.7744152" lon="12.4157098"><ele>243.1428571428571</ele><time>2026-05-03T08:39:01.278Z</time></trkpt><trkpt lat="42.7743671" lon="12.4157817"><ele>243.42857142857142</ele><time>2026-05-03T08:39:02.282Z</time></trkpt><trkpt lat="42.7743089" lon="12.4158411"><ele>243.71428571428567</ele><time>2026-05-03T08:39:03.277Z</time></trkpt><trkpt lat="42.7742526" lon="12.4159008"><ele>243.99999999999997</ele><time>2026-05-03T08:39:04.279Z</time></trkpt><trkpt lat="42.774194" lon="12.4159565"><ele>240.49999999999997</ele><time>2026-05-03T08:39:05.267Z</time></trkpt><trkpt lat="42.774129" lon="12.4159989"><ele>237.0</ele><time>2026-05-03T08:39:06.253Z</time></trkpt><trkpt lat="42.7740627" lon="12.4160348"><ele>233.5</ele><time>2026-05-03T08:39:07.262Z</time></trkpt><trkpt lat="42.7739871" lon="12.4160704"><ele>230.0</ele><time>2026-05-03T08:39:08.266Z</time></trkpt><trkpt lat="42.7739114" lon="12.4161066"><ele>226.49999999999997</ele><time>2026-05-03T08:39:09.266Z</time></trkpt><trkpt lat="42.7738402" lon="12.4161508"><ele>223.0</ele><time>2026-05-03T08:39:10.265Z</time></trkpt><trkpt lat="42.773767" lon="12.4161971"><ele>222.99999999999997</ele><time>2026-05-03T08:39:11.263Z</time></trkpt><trkpt lat="42.7736954" lon="12.4162454"><ele>223.0</ele><time>2026-05-03T08:39:12.268Z</time></trkpt><trkpt lat="42.7736237" lon="12.4162976"><ele>223.0</ele><time>2026-05-03T08:39:13.257Z</time></trkpt><trkpt lat="42.7735571" lon="12.4163435"><ele>223.0</ele><time>2026-05-03T08:39:14.262Z</time></trkpt><trkpt lat="42.7734928" lon="12.4163883"><ele>222.99999999999997</ele><time>2026-05-03T08:39:15.268Z</time></trkpt><trkpt lat="42.773429" lon="12.4164339"><ele>223.0</ele><time>2026-05-03T08:39:16.271Z</time></trkpt><trkpt lat="42.773364" lon="12.4164701"><ele>219.8</ele><time>2026-05-03T08:39:17.264Z</time></trkpt><trkpt lat="42.7733023" lon="12.4164957"><ele>216.60000000000002</ele><time>2026-05-03T08:39:18.275Z</time></trkpt><trkpt lat="42.7731938" lon="12.4165422"><ele>213.39999999999998</ele><time>2026-05-03T08:39:20.283Z</time></trkpt><trkpt lat="42.7730608" lon="12.4165861"><ele>210.2</ele><time>2026-05-03T08:39:22.286Z</time></trkpt><trkpt lat="42.7729824" lon="12.4166106"><ele>207.0</ele><time>2026-05-03T08:39:23.274Z</time></trkpt><trkpt lat="42.7729043" lon="12.4166392"><ele>207.0</ele><time>2026-05-03T08:39:24.261Z</time></trkpt><trkpt lat="42.7728272" lon="12.4166662"><ele>207.0</ele><time>2026-05-03T08:39:25.267Z</time></trkpt><trkpt lat="42.7727422" lon="12.4166942"><ele>207.0</ele><time>2026-05-03T08:39:26.281Z</time></trkpt><trkpt lat="42.7726573" lon="12.4167214"><ele>207.0</ele><time>2026-05-03T08:39:27.264Z</time></trkpt><trkpt lat="42.772571" lon="12.4167494"><ele>207.0</ele><time>2026-05-03T08:39:28.261Z</time></trkpt><trkpt lat="42.7724781" lon="12.4167684"><ele>207.0</ele><time>2026-05-03T08:39:29.278Z</time></trkpt><trkpt lat="42.7723802" lon="12.4167924"><ele>204.39999999999998</ele><time>2026-05-03T08:39:30.265Z</time></trkpt><trkpt lat="42.7722924" lon="12.4168095"><ele>201.79999999999998</ele><time>2026-05-03T08:39:31.271Z</time></trkpt><trkpt lat="42.7722062" lon="12.4168271"><ele>199.2</ele><time>2026-05-03T08:39:32.268Z</time></trkpt><trkpt lat="42.7721125" lon="12.4168512"><ele>196.6</ele><time>2026-05-03T08:39:33.286Z</time></trkpt><trkpt lat="42.7720119" lon="12.4168762"><ele>194.0</ele><time>2026-05-03T08:39:34.268Z</time></trkpt><trkpt lat="42.7719023" lon="12.4169027"><ele>191.79999999999998</ele><time>2026-05-03T08:39:35.269Z</time></trkpt><trkpt lat="42.7717928" lon="12.4169278"><ele>189.6</ele><time>2026-05-03T08:39:36.275Z</time></trkpt><trkpt lat="42.771684" lon="12.4169505"><ele>187.4</ele><time>2026-05-03T08:39:37.277Z</time></trkpt><trkpt lat="42.7715767" lon="12.4169789"><ele>185.2</ele><time>2026-05-03T08:39:38.272Z</time></trkpt><trkpt lat="42.7714805" lon="12.4170063"><ele>183.0</ele><time>2026-05-03T08:39:39.27Z</time></trkpt><trkpt lat="42.7713944" lon="12.4170246"><ele>183.0</ele><time>2026-05-03T08:39:40.265Z</time></trkpt><trkpt lat="42.7713194" lon="12.4170213"><ele>183.0</ele><time>2026-05-03T08:39:41.269Z</time></trkpt><trkpt lat="42.7712484" lon="12.4169977"><ele>183.0</ele><time>2026-05-03T08:39:42.283Z</time></trkpt><trkpt lat="42.7711821" lon="12.4169516"><ele>183.0</ele><time>2026-05-03T08:39:43.286Z</time></trkpt><trkpt lat="42.7711028" lon="12.4168788"><ele>183.0</ele><time>2026-05-03T08:39:44.267Z</time></trkpt><trkpt lat="42.7709972" lon="12.4167842"><ele>183.0</ele><time>2026-05-03T08:39:45.271Z</time></trkpt><trkpt lat="42.7708916" lon="12.416675"><ele>182.25</ele><time>2026-05-03T08:39:46.266Z</time></trkpt><trkpt lat="42.7707843" lon="12.4165649"><ele>181.5</ele><time>2026-05-03T08:39:47.27Z</time></trkpt><trkpt lat="42.770681" lon="12.4164596"><ele>180.75</ele><time>2026-05-03T08:39:48.268Z</time></trkpt><trkpt lat="42.7705922" lon="12.4163662"><ele>180.0</ele><time>2026-05-03T08:39:49.267Z</time></trkpt><trkpt lat="42.7704993" lon="12.4163007"><ele>180.0</ele><time>2026-05-03T08:39:50.271Z</time></trkpt><trkpt lat="42.7703801" lon="12.4162323"><ele>180.0</ele><time>2026-05-03T08:39:51.278Z</time></trkpt><trkpt lat="42.7702591" lon="12.4161659"><ele>180.0</ele><time>2026-05-03T08:39:52.278Z</time></trkpt><trkpt lat="42.7701627" lon="12.4160976"><ele>180.0</ele><time>2026-05-03T08:39:53.276Z</time></trkpt><trkpt lat="42.7700794" lon="12.4160187"><ele>178.75</ele><time>2026-05-03T08:39:54.269Z</time></trkpt><trkpt lat="42.7699994" lon="12.4159179"><ele>177.5</ele><time>2026-05-03T08:39:55.271Z</time></trkpt><trkpt lat="42.7699178" lon="12.4157963"><ele>176.25</ele><time>2026-05-03T08:39:56.274Z</time></trkpt><trkpt lat="42.7698315" lon="12.4156636"><ele>175.0</ele><time>2026-05-03T08:39:57.261Z</time></trkpt><trkpt lat="42.7697511" lon="12.415521"><ele>174.5</ele><time>2026-05-03T08:39:58.277Z</time></trkpt><trkpt lat="42.7696815" lon="12.4153818"><ele>174.0</ele><time>2026-05-03T08:39:59.263Z</time></trkpt><trkpt lat="42.7696255" lon="12.4152394"><ele>173.5</ele><time>2026-05-03T08:40:00.271Z</time></trkpt><trkpt lat="42.7695698" lon="12.4151078"><ele>173.0</ele><time>2026-05-03T08:40:01.277Z</time></trkpt><trkpt lat="42.7695005" lon="12.4149878"><ele>173.0</ele><time>2026-05-03T08:40:02.26Z</time></trkpt><trkpt lat="42.769414" lon="12.4148576"><ele>173.0</ele><time>2026-05-03T08:40:03.264Z</time></trkpt><trkpt lat="42.7693116" lon="12.4147295"><ele>173.0</ele><time>2026-05-03T08:40:04.268Z</time></trkpt><trkpt lat="42.769215" lon="12.4146103"><ele>173.0</ele><time>2026-05-03T08:40:05.269Z</time></trkpt><trkpt lat="42.7691329" lon="12.4145168"><ele>171.60000000000002</ele><time>2026-05-03T08:40:06.265Z</time></trkpt><trkpt lat="42.7690759" lon="12.4144494"><ele>170.20000000000002</ele><time>2026-05-03T08:40:07.27Z</time></trkpt><trkpt lat="42.7690323" lon="12.4143864"><ele>168.8</ele><time>2026-05-03T08:40:08.27Z</time></trkpt><trkpt lat="42.7689745" lon="12.414264"><ele>167.4</ele><time>2026-05-03T08:40:10.262Z</time></trkpt><trkpt lat="42.7689051" lon="12.4142116"><ele>166.0</ele><time>2026-05-03T08:40:13.275Z</time></trkpt><trkpt lat="42.7687801" lon="12.4142719"><ele>166.0</ele><time>2026-05-03T08:40:15.295Z</time></trkpt><trkpt lat="42.7686875" lon="12.4143452"><ele>166.0</ele><time>2026-05-03T08:40:16.284Z</time></trkpt><trkpt lat="42.7685808" lon="12.4144259"><ele>166.0</ele><time>2026-05-03T08:40:17.274Z</time></trkpt><trkpt lat="42.7684525" lon="12.4145191"><ele>166.0</ele><time>2026-05-03T08:40:18.267Z</time></trkpt><trkpt lat="42.7683089" lon="12.4146157"><ele>166.66666666666669</ele><time>2026-05-03T08:40:19.282Z</time></trkpt><trkpt lat="42.7681511" lon="12.4147163"><ele>167.33333333333334</ele><time>2026-05-03T08:40:20.266Z</time></trkpt><trkpt lat="42.7679935" lon="12.4148045"><ele>168.0</ele><time>2026-05-03T08:40:21.282Z</time></trkpt><trkpt lat="42.7678431" lon="12.4148731"><ele>168.0</ele><time>2026-05-03T08:40:22.325Z</time></trkpt><trkpt lat="42.7676939" lon="12.4149266"><ele>168.0</ele><time>2026-05-03T08:40:23.295Z</time></trkpt><trkpt lat="42.7675501" lon="12.4149642"><ele>168.0</ele><time>2026-05-03T08:40:24.265Z</time></trkpt><trkpt lat="42.7674084" lon="12.4149867"><ele>168.0</ele><time>2026-05-03T08:40:25.284Z</time></trkpt><trkpt lat="42.7672814" lon="12.4149944"><ele>168.0</ele><time>2026-05-03T08:40:26.26Z</time></trkpt><trkpt lat="42.7671648" lon="12.415001"><ele>168.0</ele><time>2026-05-03T08:40:27.279Z</time></trkpt><trkpt lat="42.7670472" lon="12.4149795"><ele>168.0</ele><time>2026-05-03T08:40:28.303Z</time></trkpt><trkpt lat="42.7669345" lon="12.4149152"><ele>168.0</ele><time>2026-05-03T08:40:29.286Z</time></trkpt><trkpt lat="42.7668164" lon="12.4148141"><ele>167.0</ele><time>2026-05-03T08:40:30.275Z</time></trkpt><trkpt lat="42.7666986" lon="12.4146856"><ele>166.0</ele><time>2026-05-03T08:40:31.276Z</time></trkpt><trkpt lat="42.7665885" lon="12.4145333"><ele>165.0</ele><time>2026-05-03T08:40:32.285Z</time></trkpt><trkpt lat="42.7664729" lon="12.4143639"><ele>164.33333333333334</ele><time>2026-05-03T08:40:33.266Z</time></trkpt><trkpt lat="42.7663372" lon="12.4141932"><ele>163.66666666666669</ele><time>2026-05-03T08:40:34.304Z</time></trkpt><trkpt lat="42.7661871" lon="12.4140272"><ele>163.0</ele><time>2026-05-03T08:40:35.295Z</time></trkpt><trkpt lat="42.7660169" lon="12.4138712"><ele>162.66666666666669</ele><time>2026-05-03T08:40:36.273Z</time></trkpt><trkpt lat="42.7658401" lon="12.4137302"><ele>162.33333333333334</ele><time>2026-05-03T08:40:37.293Z</time></trkpt><trkpt lat="42.7656675" lon="12.4136011"><ele>162.0</ele><time>2026-05-03T08:40:38.271Z</time></trkpt><trkpt lat="42.7654966" lon="12.4134827"><ele>162.0</ele><time>2026-05-03T08:40:39.277Z</time></trkpt><trkpt lat="42.7653276" lon="12.4133721"><ele>162.0</ele><time>2026-05-03T08:40:40.269Z</time></trkpt><trkpt lat="42.7651529" lon="12.4132665"><ele>162.0</ele><time>2026-05-03T08:40:41.281Z</time></trkpt><trkpt lat="42.7649781" lon="12.4131749"><ele>162.0</ele><time>2026-05-03T08:40:42.268Z</time></trkpt><trkpt lat="42.7648028" lon="12.4130971"><ele>162.0</ele><time>2026-05-03T08:40:43.26Z</time></trkpt><trkpt lat="42.7646173" lon="12.4130199"><ele>162.0</ele><time>2026-05-03T08:40:44.275Z</time></trkpt><trkpt lat="42.7644239" lon="12.4129492"><ele>162.0</ele><time>2026-05-03T08:40:45.259Z</time></trkpt><trkpt lat="42.7642073" lon="12.4129306"><ele>162.0</ele><time>2026-05-03T08:40:46.268Z</time></trkpt><trkpt lat="42.7639806" lon="12.412937"><ele>162.0</ele><time>2026-05-03T08:40:47.279Z</time></trkpt><trkpt lat="42.7637285" lon="12.4129608"><ele>162.0</ele><time>2026-05-03T08:40:48.264Z</time></trkpt><trkpt lat="42.7634667" lon="12.412971"><ele>162.0</ele><time>2026-05-03T08:40:49.273Z</time></trkpt><trkpt lat="42.7632224" lon="12.4129673"><ele>162.0</ele><time>2026-05-03T08:40:50.266Z</time></trkpt><trkpt lat="42.7629959" lon="12.4129632"><ele>162.0</ele><time>2026-05-03T08:40:51.281Z</time></trkpt><trkpt lat="42.7627873" lon="12.4129424"><ele>162.0</ele><time>2026-05-03T08:40:52.267Z</time></trkpt><trkpt lat="42.7625915" lon="12.4129291"><ele>162.66666666666666</ele><time>2026-05-03T08:40:53.268Z</time></trkpt><trkpt lat="42.7624" lon="12.4129128"><ele>163.33333333333331</ele><time>2026-05-03T08:40:54.262Z</time></trkpt><trkpt lat="42.7622293" lon="12.4129223"><ele>164.0</ele><time>2026-05-03T08:40:55.263Z</time></trkpt><trkpt lat="42.76208" lon="12.4129565"><ele>163.75</ele><time>2026-05-03T08:40:56.265Z</time></trkpt><trkpt lat="42.7619428" lon="12.4130004"><ele>163.5</ele><time>2026-05-03T08:40:57.262Z</time></trkpt><trkpt lat="42.7618229" lon="12.4130355"><ele>163.25</ele><time>2026-05-03T08:40:58.282Z</time></trkpt><trkpt lat="42.7617088" lon="12.4130397"><ele>163.0</ele><time>2026-05-03T08:40:59.262Z</time></trkpt><trkpt lat="42.7616131" lon="12.4130125"><ele>164.0</ele><time>2026-05-03T08:41:00.276Z</time></trkpt><trkpt lat="42.7615391" lon="12.4129401"><ele>165.0</ele><time>2026-05-03T08:41:01.261Z</time></trkpt><trkpt lat="42.761481" lon="12.4128299"><ele>166.0</ele><time>2026-05-03T08:41:02.262Z</time></trkpt><trkpt lat="42.7614174" lon="12.4126945"><ele>167.0</ele><time>2026-05-03T08:41:03.268Z</time></trkpt><trkpt lat="42.7613488" lon="12.4125443"><ele>168.0</ele><time>2026-05-03T08:41:04.267Z</time></trkpt><trkpt lat="42.7612665" lon="12.4123878"><ele>168.0</ele><time>2026-05-03T08:41:05.252Z</time></trkpt><trkpt lat="42.7611668" lon="12.4122204"><ele>168.0</ele><time>2026-05-03T08:41:06.27Z</time></trkpt><trkpt lat="42.7610692" lon="12.4120279"><ele>168.0</ele><time>2026-05-03T08:41:07.252Z</time></trkpt><trkpt lat="42.7609875" lon="12.4118319"><ele>168.0</ele><time>2026-05-03T08:41:08.269Z</time></trkpt><trkpt lat="42.760919" lon="12.4116481"><ele>168.0</ele><time>2026-05-03T08:41:09.269Z</time></trkpt><trkpt lat="42.7608526" lon="12.4114935"><ele>168.0</ele><time>2026-05-03T08:41:10.271Z</time></trkpt><trkpt lat="42.7607832" lon="12.4113458"><ele>168.0</ele><time>2026-05-03T08:41:11.266Z</time></trkpt><trkpt lat="42.7606886" lon="12.4112084"><ele>168.0</ele><time>2026-05-03T08:41:12.294Z</time></trkpt><trkpt lat="42.7605605" lon="12.4110948"><ele>168.0</ele><time>2026-05-03T08:41:13.279Z</time></trkpt><trkpt lat="42.7604076" lon="12.4110236"><ele>168.0</ele><time>2026-05-03T08:41:14.289Z</time></trkpt><trkpt lat="42.7602476" lon="12.4109928"><ele>168.33333333333334</ele><time>2026-05-03T08:41:15.256Z</time></trkpt><trkpt lat="42.7600743" lon="12.4109932"><ele>168.66666666666669</ele><time>2026-05-03T08:41:16.266Z</time></trkpt><trkpt lat="42.7598967" lon="12.4109936"><ele>169.0</ele><time>2026-05-03T08:41:17.262Z</time></trkpt><trkpt lat="42.759712" lon="12.4109797"><ele>169.0</ele><time>2026-05-03T08:41:18.272Z</time></trkpt><trkpt lat="42.7595219" lon="12.4109601"><ele>169.0</ele><time>2026-05-03T08:41:19.263Z</time></trkpt><trkpt lat="42.7593216" lon="12.4109453"><ele>169.0</ele><time>2026-05-03T08:41:20.276Z</time></trkpt><trkpt lat="42.7591156" lon="12.410937"><ele>169.33333333333334</ele><time>2026-05-03T08:41:21.264Z</time></trkpt><trkpt lat="42.7589112" lon="12.4109218"><ele>169.66666666666666</ele><time>2026-05-03T08:41:22.278Z</time></trkpt><trkpt lat="42.7587059" lon="12.4109022"><ele>170.0</ele><time>2026-05-03T08:41:23.28Z</time></trkpt><trkpt lat="42.7585025" lon="12.4108767"><ele>170.33333333333331</ele><time>2026-05-03T08:41:24.262Z</time></trkpt><trkpt lat="42.7582949" lon="12.4108458"><ele>170.66666666666666</ele><time>2026-05-03T08:41:25.254Z</time></trkpt><trkpt lat="42.7580893" lon="12.4108088"><ele>171.0</ele><time>2026-05-03T08:41:26.268Z</time></trkpt><trkpt lat="42.757895" lon="12.410771"><ele>171.0</ele><time>2026-05-03T08:41:27.272Z</time></trkpt><trkpt lat="42.757708" lon="12.4107322"><ele>171.0</ele><time>2026-05-03T08:41:28.274Z</time></trkpt><trkpt lat="42.7575264" lon="12.4106963"><ele>171.0</ele><time>2026-05-03T08:41:29.265Z</time></trkpt><trkpt lat="42.7573461" lon="12.4106913"><ele>171.0</ele><time>2026-05-03T08:41:30.278Z</time></trkpt><trkpt lat="42.7571582" lon="12.4107237"><ele>171.0</ele><time>2026-05-03T08:41:31.265Z</time></trkpt><trkpt lat="42.7569682" lon="12.4107789"><ele>171.0</ele><time>2026-05-03T08:41:32.275Z</time></trkpt><trkpt lat="42.7567842" lon="12.4108146"><ele>171.66666666666666</ele><time>2026-05-03T08:41:33.269Z</time></trkpt><trkpt lat="42.7566115" lon="12.4108303"><ele>172.33333333333331</ele><time>2026-05-03T08:41:34.266Z</time></trkpt><trkpt lat="42.7564405" lon="12.4108332"><ele>173.0</ele><time>2026-05-03T08:41:35.258Z</time></trkpt><trkpt lat="42.7562796" lon="12.4108341"><ele>173.0</ele><time>2026-05-03T08:41:36.291Z</time></trkpt><trkpt lat="42.7561246" lon="12.4108482"><ele>173.0</ele><time>2026-05-03T08:41:37.263Z</time></trkpt><trkpt lat="42.7559798" lon="12.4108856"><ele>173.0</ele><time>2026-05-03T08:41:38.27Z</time></trkpt><trkpt lat="42.7558403" lon="12.4109457"><ele>173.0</ele><time>2026-05-03T08:41:39.26Z</time></trkpt><trkpt lat="42.7557074" lon="12.4110116"><ele>173.75</ele><time>2026-05-03T08:41:40.266Z</time></trkpt><trkpt lat="42.7555742" lon="12.4110718"><ele>174.5</ele><time>2026-05-03T08:41:41.265Z</time></trkpt><trkpt lat="42.7554404" lon="12.4111131"><ele>175.25</ele><time>2026-05-03T08:41:42.276Z</time></trkpt><trkpt lat="42.7553066" lon="12.4111251"><ele>176.0</ele><time>2026-05-03T08:41:43.279Z</time></trkpt><trkpt lat="42.75517" lon="12.4111144"><ele>176.25</ele><time>2026-05-03T08:41:44.265Z</time></trkpt><trkpt lat="42.755033" lon="12.4110947"><ele>176.5</ele><time>2026-05-03T08:41:45.279Z</time></trkpt><trkpt lat="42.7549002" lon="12.4110734"><ele>176.75</ele><time>2026-05-03T08:41:46.265Z</time></trkpt><trkpt lat="42.7547661" lon="12.411038"><ele>177.0</ele><time>2026-05-03T08:41:47.266Z</time></trkpt><trkpt lat="42.7546169" lon="12.4109881"><ele>177.0</ele><time>2026-05-03T08:41:48.274Z</time></trkpt><trkpt lat="42.7544399" lon="12.4109203"><ele>177.0</ele><time>2026-05-03T08:41:49.26Z</time></trkpt><trkpt lat="42.7542361" lon="12.4108394"><ele>177.0</ele><time>2026-05-03T08:41:50.265Z</time></trkpt><trkpt lat="42.7540286" lon="12.4107634"><ele>177.0</ele><time>2026-05-03T08:41:51.277Z</time></trkpt><trkpt lat="42.7538549" lon="12.4106791"><ele>177.0</ele><time>2026-05-03T08:41:52.286Z</time></trkpt><trkpt lat="42.7536888" lon="12.4106199"><ele>177.0</ele><time>2026-05-03T08:41:53.275Z</time></trkpt><trkpt lat="42.7535086" lon="12.4106112"><ele>177.66666666666666</ele><time>2026-05-03T08:41:54.265Z</time></trkpt><trkpt lat="42.7533162" lon="12.4106466"><ele>178.33333333333331</ele><time>2026-05-03T08:41:55.278Z</time></trkpt><trkpt lat="42.7531203" lon="12.4107212"><ele>179.0</ele><time>2026-05-03T08:41:56.263Z</time></trkpt><trkpt lat="42.752917" lon="12.4107995"><ele>179.0</ele><time>2026-05-03T08:41:57.266Z</time></trkpt><trkpt lat="42.7527235" lon="12.410874"><ele>179.0</ele><time>2026-05-03T08:41:58.286Z</time></trkpt><trkpt lat="42.7525479" lon="12.4109367"><ele>179.0</ele><time>2026-05-03T08:41:59.273Z</time></trkpt><trkpt lat="42.7523802" lon="12.4109877"><ele>180.0</ele><time>2026-05-03T08:42:00.263Z</time></trkpt><trkpt lat="42.7522107" lon="12.4110157"><ele>181.0</ele><time>2026-05-03T08:42:01.265Z</time></trkpt><trkpt lat="42.7520324" lon="12.4110042"><ele>182.0</ele><time>2026-05-03T08:42:02.264Z</time></trkpt><trkpt lat="42.751856" lon="12.4109525"><ele>182.33333333333331</ele><time>2026-05-03T08:42:03.267Z</time></trkpt><trkpt lat="42.7516775" lon="12.4108786"><ele>182.66666666666666</ele><time>2026-05-03T08:42:04.281Z</time></trkpt><trkpt lat="42.7515081" lon="12.4107777"><ele>183.0</ele><time>2026-05-03T08:42:05.292Z</time></trkpt><trkpt lat="42.7513381" lon="12.410656"><ele>183.0</ele><time>2026-05-03T08:42:06.281Z</time></trkpt><trkpt lat="42.7511784" lon="12.4105215"><ele>183.0</ele><time>2026-05-03T08:42:07.296Z</time></trkpt><trkpt lat="42.7510266" lon="12.410406"><ele>183.0</ele><time>2026-05-03T08:42:08.272Z</time></trkpt><trkpt lat="42.7508779" lon="12.4103023"><ele>183.0</ele><time>2026-05-03T08:42:09.265Z</time></trkpt><trkpt lat="42.7507284" lon="12.4102067"><ele>183.0</ele><time>2026-05-03T08:42:10.266Z</time></trkpt><trkpt lat="42.7505789" lon="12.4101268"><ele>183.0</ele><time>2026-05-03T08:42:11.258Z</time></trkpt><trkpt lat="42.7504427" lon="12.4100791"><ele>183.0</ele><time>2026-05-03T08:42:12.262Z</time></trkpt><trkpt lat="42.7503165" lon="12.4100452"><ele>183.0</ele><time>2026-05-03T08:42:13.264Z</time></trkpt><trkpt lat="42.7501863" lon="12.4100395"><ele>183.0</ele><time>2026-05-03T08:42:14.259Z</time></trkpt><trkpt lat="42.7500538" lon="12.4100335"><ele>183.0</ele><time>2026-05-03T08:42:15.279Z</time></trkpt><trkpt lat="42.7499145" lon="12.410038"><ele>183.66666666666666</ele><time>2026-05-03T08:42:16.291Z</time></trkpt><trkpt lat="42.7497511" lon="12.410067"><ele>184.33333333333331</ele><time>2026-05-03T08:42:17.27Z</time></trkpt><trkpt lat="42.749561" lon="12.410102"><ele>185.0</ele><time>2026-05-03T08:42:18.271Z</time></trkpt><trkpt lat="42.7493784" lon="12.4101277"><ele>186.66666666666666</ele><time>2026-05-03T08:42:19.258Z</time></trkpt><trkpt lat="42.749208" lon="12.4101533"><ele>188.33333333333334</ele><time>2026-05-03T08:42:20.264Z</time></trkpt><trkpt lat="42.7490479" lon="12.4101784"><ele>190.0</ele><time>2026-05-03T08:42:21.281Z</time></trkpt><trkpt lat="42.7489114" lon="12.4102063"><ele>190.0</ele><time>2026-05-03T08:42:22.291Z</time></trkpt><trkpt lat="42.7487845" lon="12.410218"><ele>190.0</ele><time>2026-05-03T08:42:23.278Z</time></trkpt><trkpt lat="42.7486677" lon="12.4102116"><ele>190.0</ele><time>2026-05-03T08:42:24.276Z</time></trkpt><trkpt lat="42.7485362" lon="12.4102394"><ele>190.0</ele><time>2026-05-03T08:42:25.253Z</time></trkpt><trkpt lat="42.7483981" lon="12.4102968"><ele>190.0</ele><time>2026-05-03T08:42:26.282Z</time></trkpt><trkpt lat="42.7482744" lon="12.4103715"><ele>190.0</ele><time>2026-05-03T08:42:27.271Z</time></trkpt><trkpt lat="42.748156" lon="12.4104693"><ele>190.0</ele><time>2026-05-03T08:42:28.264Z</time></trkpt><trkpt lat="42.748044" lon="12.4105976"><ele>190.0</ele><time>2026-05-03T08:42:29.279Z</time></trkpt><trkpt lat="42.7479333" lon="12.4107387"><ele>190.0</ele><time>2026-05-03T08:42:30.285Z</time></trkpt><trkpt lat="42.7478056" lon="12.4109047"><ele>190.0</ele><time>2026-05-03T08:42:31.271Z</time></trkpt><trkpt lat="42.7476748" lon="12.4110791"><ele>190.0</ele><time>2026-05-03T08:42:32.265Z</time></trkpt><trkpt lat="42.7475599" lon="12.4112115"><ele>190.25</ele><time>2026-05-03T08:42:33.267Z</time></trkpt><trkpt lat="42.7474405" lon="12.4113077"><ele>190.5</ele><time>2026-05-03T08:42:34.286Z</time></trkpt><trkpt lat="42.7473124" lon="12.4113906"><ele>190.75</ele><time>2026-05-03T08:42:35.277Z</time></trkpt><trkpt lat="42.7471876" lon="12.4114599"><ele>191.0</ele><time>2026-05-03T08:42:36.263Z</time></trkpt><trkpt lat="42.7470859" lon="12.4115095"><ele>191.5</ele><time>2026-05-03T08:42:37.26Z</time></trkpt><trkpt lat="42.7469877" lon="12.4115369"><ele>192.0</ele><time>2026-05-03T08:42:38.27Z</time></trkpt><trkpt lat="42.7468969" lon="12.4115388"><ele>192.5</ele><time>2026-05-03T08:42:39.26Z</time></trkpt><trkpt lat="42.7468171" lon="12.4115324"><ele>193.0</ele><time>2026-05-03T08:42:40.305Z</time></trkpt><trkpt lat="42.7467445" lon="12.4115583"><ele>193.50000000000003</ele><time>2026-05-03T08:42:41.272Z</time></trkpt><trkpt lat="42.7466858" lon="12.4116388"><ele>194.0</ele><time>2026-05-03T08:42:42.283Z</time></trkpt><trkpt lat="42.7466318" lon="12.4117411"><ele>194.5</ele><time>2026-05-03T08:42:43.258Z</time></trkpt><trkpt lat="42.7465555" lon="12.4118285"><ele>195.0</ele><time>2026-05-03T08:42:44.253Z</time></trkpt><trkpt lat="42.7464623" lon="12.4118801"><ele>195.5</ele><time>2026-05-03T08:42:45.261Z</time></trkpt><trkpt lat="42.7463425" lon="12.4119079"><ele>196.0</ele><time>2026-05-03T08:42:46.272Z</time></trkpt><trkpt lat="42.7462092" lon="12.4119276"><ele>196.0</ele><time>2026-05-03T08:42:47.274Z</time></trkpt><trkpt lat="42.7460712" lon="12.4119402"><ele>196.0</ele><time>2026-05-03T08:42:48.268Z</time></trkpt><trkpt lat="42.7459391" lon="12.4119513"><ele>196.0</ele><time>2026-05-03T08:42:49.259Z</time></trkpt><trkpt lat="42.7458066" lon="12.4119567"><ele>196.0</ele><time>2026-05-03T08:42:50.274Z</time></trkpt><trkpt lat="42.7456728" lon="12.4119405"><ele>197.25</ele><time>2026-05-03T08:42:51.26Z</time></trkpt><trkpt lat="42.7455456" lon="12.4118959"><ele>198.5</ele><time>2026-05-03T08:42:52.268Z</time></trkpt><trkpt lat="42.7454238" lon="12.4118438"><ele>199.75</ele><time>2026-05-03T08:42:53.276Z</time></trkpt><trkpt lat="42.7453021" lon="12.4118197"><ele>201.0</ele><time>2026-05-03T08:42:54.258Z</time></trkpt><trkpt lat="42.7451679" lon="12.4118186"><ele>204.33333333333331</ele><time>2026-05-03T08:42:55.25Z</time></trkpt><trkpt lat="42.7450222" lon="12.4118068"><ele>207.66666666666666</ele><time>2026-05-03T08:42:56.267Z</time></trkpt><trkpt lat="42.7448609" lon="12.4117734"><ele>211.0</ele><time>2026-05-03T08:42:57.263Z</time></trkpt><trkpt lat="42.7446968" lon="12.4117291"><ele>211.0</ele><time>2026-05-03T08:42:58.257Z</time></trkpt><trkpt lat="42.7445573" lon="12.411682"><ele>211.0</ele><time>2026-05-03T08:42:59.261Z</time></trkpt><trkpt lat="42.7444348" lon="12.4116402"><ele>211.0</ele><time>2026-05-03T08:43:00.264Z</time></trkpt><trkpt lat="42.7443399" lon="12.4116037"><ele>211.0</ele><time>2026-05-03T08:43:01.257Z</time></trkpt><trkpt lat="42.7442448" lon="12.4115783"><ele>213.0</ele><time>2026-05-03T08:43:02.26Z</time></trkpt><trkpt lat="42.7441504" lon="12.4115705"><ele>215.0</ele><time>2026-05-03T08:43:03.261Z</time></trkpt><trkpt lat="42.7440317" lon="12.4115948"><ele>217.00000000000003</ele><time>2026-05-03T08:43:04.253Z</time></trkpt><trkpt lat="42.7439085" lon="12.4116299"><ele>219.0</ele><time>2026-05-03T08:43:05.264Z</time></trkpt><trkpt lat="42.743811" lon="12.4116767"><ele>221.0</ele><time>2026-05-03T08:43:06.257Z</time></trkpt><trkpt lat="42.7437384" lon="12.4117541"><ele>221.0</ele><time>2026-05-03T08:43:07.258Z</time></trkpt><trkpt lat="42.7436416" lon="12.4118454"><ele>221.0</ele><time>2026-05-03T08:43:08.261Z</time></trkpt><trkpt lat="42.7435341" lon="12.4119287"><ele>221.0</ele><time>2026-05-03T08:43:09.277Z</time></trkpt><trkpt lat="42.7434035" lon="12.412008"><ele>221.0</ele><time>2026-05-03T08:43:10.267Z</time></trkpt><trkpt lat="42.7432609" lon="12.4120714"><ele>223.0</ele><time>2026-05-03T08:43:11.277Z</time></trkpt><trkpt lat="42.7431203" lon="12.4121251"><ele>225.0</ele><time>2026-05-03T08:43:12.262Z</time></trkpt><trkpt lat="42.742994" lon="12.4121809"><ele>227.0</ele><time>2026-05-03T08:43:13.27Z</time></trkpt><trkpt lat="42.7428764" lon="12.4122487"><ele>229.0</ele><time>2026-05-03T08:43:14.271Z</time></trkpt><trkpt lat="42.7427648" lon="12.4123215"><ele>232.0</ele><time>2026-05-03T08:43:15.269Z</time></trkpt><trkpt lat="42.7426614" lon="12.4123845"><ele>234.99999999999997</ele><time>2026-05-03T08:43:16.261Z</time></trkpt><trkpt lat="42.7425611" lon="12.4124358"><ele>237.99999999999997</ele><time>2026-05-03T08:43:17.27Z</time></trkpt><trkpt lat="42.7424619" lon="12.412469"><ele>241.0</ele><time>2026-05-03T08:43:18.267Z</time></trkpt><trkpt lat="42.7423507" lon="12.4124973"><ele>244.0</ele><time>2026-05-03T08:43:19.273Z</time></trkpt><trkpt lat="42.7422321" lon="12.4125179"><ele>244.0</ele><time>2026-05-03T08:43:20.276Z</time></trkpt><trkpt lat="42.7421116" lon="12.412536"><ele>243.99999999999997</ele><time>2026-05-03T08:43:21.272Z</time></trkpt><trkpt lat="42.7420053" lon="12.412552"><ele>243.99999999999997</ele><time>2026-05-03T08:43:22.267Z</time></trkpt><trkpt lat="42.7419271" lon="12.4125693"><ele>244.0</ele><time>2026-05-03T08:43:23.269Z</time></trkpt><trkpt lat="42.7418221" lon="12.412636"><ele>244.0</ele><time>2026-05-03T08:43:25.262Z</time></trkpt><trkpt lat="42.7417869" lon="12.4127109"><ele>245.6</ele><time>2026-05-03T08:43:26.273Z</time></trkpt><trkpt lat="42.7417662" lon="12.4128271"><ele>247.2</ele><time>2026-05-03T08:43:27.257Z</time></trkpt><trkpt lat="42.7417411" lon="12.4129623"><ele>248.79999999999998</ele><time>2026-05-03T08:43:28.274Z</time></trkpt><trkpt lat="42.7417256" lon="12.4131055"><ele>250.39999999999998</ele><time>2026-05-03T08:43:29.272Z</time></trkpt><trkpt lat="42.741714" lon="12.4132502"><ele>252.0</ele><time>2026-05-03T08:43:30.26Z</time></trkpt><trkpt lat="42.7417054" lon="12.4133875"><ele>253.16666666666666</ele><time>2026-05-03T08:43:31.261Z</time></trkpt><trkpt lat="42.7417044" lon="12.4135068"><ele>254.33333333333331</ele><time>2026-05-03T08:43:32.274Z</time></trkpt><trkpt lat="42.7416982" lon="12.4136224"><ele>255.5</ele><time>2026-05-03T08:43:33.277Z</time></trkpt><trkpt lat="42.7416945" lon="12.413718"><ele>256.66666666666663</ele><time>2026-05-03T08:43:34.273Z</time></trkpt><trkpt lat="42.741668" lon="12.4138009"><ele>257.8333333333333</ele><time>2026-05-03T08:43:35.259Z</time></trkpt><trkpt lat="42.7416189" lon="12.4138686"><ele>259.0</ele><time>2026-05-03T08:43:36.262Z</time></trkpt><trkpt lat="42.7415471" lon="12.4139249"><ele>260.75</ele><time>2026-05-03T08:43:37.266Z</time></trkpt><trkpt lat="42.7414497" lon="12.4139961"><ele>262.5</ele><time>2026-05-03T08:43:38.273Z</time></trkpt><trkpt lat="42.74134" lon="12.4140597"><ele>264.25</ele><time>2026-05-03T08:43:39.258Z</time></trkpt><trkpt lat="42.7412242" lon="12.4141192"><ele>266.0</ele><time>2026-05-03T08:43:40.276Z</time></trkpt><trkpt lat="42.7411249" lon="12.4141878"><ele>267.8</ele><time>2026-05-03T08:43:41.277Z</time></trkpt><trkpt lat="42.7410385" lon="12.4142701"><ele>269.6</ele><time>2026-05-03T08:43:42.273Z</time></trkpt><trkpt lat="42.7409498" lon="12.4143649"><ele>271.4</ele><time>2026-05-03T08:43:43.258Z</time></trkpt><trkpt lat="42.7408696" lon="12.4144533"><ele>273.2</ele><time>2026-05-03T08:43:44.283Z</time></trkpt><trkpt lat="42.7407985" lon="12.4145392"><ele>275.0</ele><time>2026-05-03T08:43:45.257Z</time></trkpt><trkpt lat="42.7407521" lon="12.4146305"><ele>276.4</ele><time>2026-05-03T08:43:46.28Z</time></trkpt><trkpt lat="42.7407308" lon="12.4147339"><ele>277.8</ele><time>2026-05-03T08:43:47.277Z</time></trkpt><trkpt lat="42.7407194" lon="12.414862"><ele>279.2</ele><time>2026-05-03T08:43:48.278Z</time></trkpt><trkpt lat="42.740709" lon="12.4149978"><ele>280.6</ele><time>2026-05-03T08:43:49.257Z</time></trkpt><trkpt lat="42.7406976" lon="12.4151197"><ele>282.0</ele><time>2026-05-03T08:43:50.251Z</time></trkpt><trkpt lat="42.7406839" lon="12.4152375"><ele>282.0</ele><time>2026-05-03T08:43:51.258Z</time></trkpt><trkpt lat="42.7406682" lon="12.4153546"><ele>282.0</ele><time>2026-05-03T08:43:52.273Z</time></trkpt><trkpt lat="42.7406533" lon="12.4154653"><ele>282.0</ele><time>2026-05-03T08:43:53.275Z</time></trkpt><trkpt lat="42.7406331" lon="12.4155764"><ele>282.0</ele><time>2026-05-03T08:43:54.27Z</time></trkpt><trkpt lat="42.7406059" lon="12.4156849"><ele>282.0</ele><time>2026-05-03T08:43:55.267Z</time></trkpt><trkpt lat="42.7405765" lon="12.4157834"><ele>282.0</ele><time>2026-05-03T08:43:56.281Z</time></trkpt><trkpt lat="42.7405377" lon="12.4158528"><ele>283.4</ele><time>2026-05-03T08:43:57.256Z</time></trkpt><trkpt lat="42.7404436" lon="12.415838"><ele>284.79999999999995</ele><time>2026-05-03T08:43:59.254Z</time></trkpt><trkpt lat="42.7403412" lon="12.4157635"><ele>286.2</ele><time>2026-05-03T08:44:01.273Z</time></trkpt><trkpt lat="42.7402809" lon="12.41573"><ele>287.59999999999997</ele><time>2026-05-03T08:44:02.274Z</time></trkpt><trkpt lat="42.7401867" lon="12.4156605"><ele>289.0</ele><time>2026-05-03T08:44:04.26Z</time></trkpt><trkpt lat="42.7401278" lon="12.4155521"><ele>289.3333333333333</ele><time>2026-05-03T08:44:06.263Z</time></trkpt><trkpt lat="42.7400934" lon="12.4154534"><ele>289.66666666666663</ele><time>2026-05-03T08:44:08.273Z</time></trkpt><trkpt lat="42.740082" lon="12.4153652"><ele>290.0</ele><time>2026-05-03T08:44:10.278Z</time></trkpt><trkpt lat="42.7400671" lon="12.4152707"><ele>290.3333333333333</ele><time>2026-05-03T08:44:12.26Z</time></trkpt><trkpt lat="42.7400357" lon="12.4151635"><ele>290.6666666666667</ele><time>2026-05-03T08:44:14.258Z</time></trkpt><trkpt lat="42.7399843" lon="12.4150658"><ele>291.0</ele><time>2026-05-03T08:44:16.265Z</time></trkpt><trkpt lat="42.7399149" lon="12.4149661"><ele>291.0</ele><time>2026-05-03T08:44:18.251Z</time></trkpt><trkpt lat="42.739851" lon="12.4148611"><ele>291.0</ele><time>2026-05-03T08:44:20.276Z</time></trkpt><trkpt lat="42.7398035" lon="12.4147793"><ele>291.0</ele><time>2026-05-03T08:44:22.289Z</time></trkpt><trkpt lat="42.7397135" lon="12.4147399"><ele>291.0</ele><time>2026-05-03T08:44:25.275Z</time></trkpt><trkpt lat="42.7396255" lon="12.4147108"><ele>291.0</ele><time>2026-05-03T08:44:28.259Z</time></trkpt><trkpt lat="42.7395465" lon="12.4146958"><ele>291.0</ele><time>2026-05-03T08:44:31.274Z</time></trkpt><trkpt lat="42.7394719" lon="12.4146785"><ele>292.0</ele><time>2026-05-03T08:44:33.269Z</time></trkpt><trkpt lat="42.7393656" lon="12.4146678"><ele>293.0</ele><time>2026-05-03T08:44:35.272Z</time></trkpt><trkpt lat="42.7392811" lon="12.4146628"><ele>294.0</ele><time>2026-05-03T08:44:37.257Z</time></trkpt><trkpt lat="42.7392186" lon="12.4146512"><ele>295.0</ele><time>2026-05-03T08:44:38.272Z</time></trkpt><trkpt lat="42.7391001" lon="12.4146258"><ele>296.0</ele><time>2026-05-03T08:44:40.258Z</time></trkpt><trkpt lat="42.7389837" lon="12.4145895"><ele>296.0</ele><time>2026-05-03T08:44:42.266Z</time></trkpt><trkpt lat="42.7388696" lon="12.4145774"><ele>296.0</ele><time>2026-05-03T08:44:44.276Z</time></trkpt><trkpt lat="42.738759" lon="12.4145468"><ele>296.0</ele><time>2026-05-03T08:44:46.271Z</time></trkpt><trkpt lat="42.7386949" lon="12.4145205"><ele>296.0</ele><time>2026-05-03T08:44:47.266Z</time></trkpt><trkpt lat="42.7386335" lon="12.4144891"><ele>296.0</ele><time>2026-05-03T08:44:48.269Z</time></trkpt><trkpt lat="42.7385665" lon="12.4144519"><ele>296.0</ele><time>2026-05-03T08:44:49.266Z</time></trkpt><trkpt lat="42.7384959" lon="12.4144155"><ele>297.1666666666667</ele><time>2026-05-03T08:44:50.274Z</time></trkpt><trkpt lat="42.7384339" lon="12.4143836"><ele>298.33333333333337</ele><time>2026-05-03T08:44:51.271Z</time></trkpt><trkpt lat="42.7383652" lon="12.4142858"><ele>299.5</ele><time>2026-05-03T08:44:53.275Z</time></trkpt><trkpt lat="42.7383147" lon="12.4142118"><ele>300.6666666666667</ele><time>2026-05-03T08:44:55.266Z</time></trkpt><trkpt lat="42.7382399" lon="12.4141448"><ele>301.8333333333333</ele><time>2026-05-03T08:44:57.256Z</time></trkpt><trkpt lat="42.7381787" lon="12.4140977"><ele>303.0</ele><time>2026-05-03T08:44:58.265Z</time></trkpt><trkpt lat="42.7381133" lon="12.4140485"><ele>303.0</ele><time>2026-05-03T08:44:59.27Z</time></trkpt><trkpt lat="42.738054" lon="12.4140064"><ele>303.0</ele><time>2026-05-03T08:45:00.269Z</time></trkpt><trkpt lat="42.7379951" lon="12.413971"><ele>303.0</ele><time>2026-05-03T08:45:01.269Z</time></trkpt><trkpt lat="42.7378883" lon="12.4139174"><ele>303.0</ele><time>2026-05-03T08:45:03.287Z</time></trkpt><trkpt lat="42.7378094" lon="12.4138681"><ele>303.0</ele><time>2026-05-03T08:45:05.263Z</time></trkpt><trkpt lat="42.737738" lon="12.4138199"><ele>303.0</ele><time>2026-05-03T08:45:07.284Z</time></trkpt><trkpt lat="42.7376547" lon="12.4137813"><ele>301.6</ele><time>2026-05-03T08:45:09.276Z</time></trkpt><trkpt lat="42.7375629" lon="12.4137548"><ele>300.20000000000005</ele><time>2026-05-03T08:45:11.272Z</time></trkpt><trkpt lat="42.7374369" lon="12.4136873"><ele>298.8</ele><time>2026-05-03T08:45:13.267Z</time></trkpt><trkpt lat="42.7373433" lon="12.4136288"><ele>297.40000000000003</ele><time>2026-05-03T08:45:14.285Z</time></trkpt><trkpt lat="42.7372546" lon="12.4135598"><ele>296.0</ele><time>2026-05-03T08:45:15.261Z</time></trkpt><trkpt lat="42.7371663" lon="12.413486"><ele>296.0</ele><time>2026-05-03T08:45:16.266Z</time></trkpt><trkpt lat="42.7370802" lon="12.4134098"><ele>296.0</ele><time>2026-05-03T08:45:17.277Z</time></trkpt><trkpt lat="42.7369926" lon="12.413332"><ele>296.0</ele><time>2026-05-03T08:45:18.266Z</time></trkpt><trkpt lat="42.7368982" lon="12.4132634"><ele>296.0</ele><time>2026-05-03T08:45:19.278Z</time></trkpt><trkpt lat="42.7367951" lon="12.4131943"><ele>296.0</ele><time>2026-05-03T08:45:20.28Z</time></trkpt><trkpt lat="42.7366954" lon="12.413122"><ele>297.1666666666667</ele><time>2026-05-03T08:45:21.261Z</time></trkpt><trkpt lat="42.7366031" lon="12.4130667"><ele>298.33333333333337</ele><time>2026-05-03T08:45:22.271Z</time></trkpt><trkpt lat="42.7365244" lon="12.4130231"><ele>299.5</ele><time>2026-05-03T08:45:23.279Z</time></trkpt><trkpt lat="42.7364581" lon="12.4129917"><ele>300.6666666666667</ele><time>2026-05-03T08:45:24.269Z</time></trkpt><trkpt lat="42.7363914" lon="12.4129653"><ele>301.8333333333333</ele><time>2026-05-03T08:45:25.27Z</time></trkpt><trkpt lat="42.7362776" lon="12.4129649"><ele>303.0</ele><time>2026-05-03T08:45:27.273Z</time></trkpt><trkpt lat="42.7361566" lon="12.4130417"><ele>303.0</ele><time>2026-05-03T08:45:29.281Z</time></trkpt><trkpt lat="42.7360721" lon="12.4131142"><ele>303.0</ele><time>2026-05-03T08:45:30.274Z</time></trkpt><trkpt lat="42.7359918" lon="12.4131929"><ele>303.0</ele><time>2026-05-03T08:45:31.265Z</time></trkpt><trkpt lat="42.7359201" lon="12.4132632"><ele>303.0</ele><time>2026-05-03T08:45:32.271Z</time></trkpt><trkpt lat="42.7358531" lon="12.4132973"><ele>303.0</ele><time>2026-05-03T08:45:33.26Z</time></trkpt><trkpt lat="42.7357678" lon="12.4133085"><ele>303.0</ele><time>2026-05-03T08:45:34.268Z</time></trkpt><trkpt lat="42.7356724" lon="12.413321"><ele>302.3333333333333</ele><time>2026-05-03T08:45:35.256Z</time></trkpt><trkpt lat="42.7355775" lon="12.4133283"><ele>301.6666666666667</ele><time>2026-05-03T08:45:36.278Z</time></trkpt><trkpt lat="42.7354908" lon="12.4133345"><ele>301.0</ele><time>2026-05-03T08:45:37.264Z</time></trkpt><trkpt lat="42.7354052" lon="12.41333"><ele>300.33333333333337</ele><time>2026-05-03T08:45:38.281Z</time></trkpt><trkpt lat="42.7353224" lon="12.4133175"><ele>299.6666666666667</ele><time>2026-05-03T08:45:39.265Z</time></trkpt><trkpt lat="42.7352493" lon="12.4133024"><ele>299.0</ele><time>2026-05-03T08:45:40.271Z</time></trkpt><trkpt lat="42.7351247" lon="12.4133077"><ele>298.0</ele><time>2026-05-03T08:45:42.274Z</time></trkpt><trkpt lat="42.7350578" lon="12.4133172"><ele>297.0</ele><time>2026-05-03T08:45:43.273Z</time></trkpt><trkpt lat="42.7349348" lon="12.4133415"><ele>296.0</ele><time>2026-05-03T08:45:45.3Z</time></trkpt><trkpt lat="42.7348713" lon="12.4133606"><ele>295.0</ele><time>2026-05-03T08:45:46.289Z</time></trkpt><trkpt lat="42.73476" lon="12.4134013"><ele>294.0</ele><time>2026-05-03T08:45:48.301Z</time></trkpt><trkpt lat="42.7346999" lon="12.4134342"><ele>293.0</ele><time>2026-05-03T08:45:49.26Z</time></trkpt><trkpt lat="42.7345712" lon="12.4134702"><ele>292.99999999999994</ele><time>2026-05-03T08:45:51.266Z</time></trkpt><trkpt lat="42.7344928" lon="12.413488"><ele>293.0</ele><time>2026-05-03T08:45:52.261Z</time></trkpt><trkpt lat="42.734417" lon="12.4135052"><ele>293.0</ele><time>2026-05-03T08:45:53.273Z</time></trkpt><trkpt lat="42.7343497" lon="12.4135196"><ele>293.0</ele><time>2026-05-03T08:45:54.269Z</time></trkpt><trkpt lat="42.7342839" lon="12.4135343"><ele>293.0</ele><time>2026-05-03T08:45:55.266Z</time></trkpt><trkpt lat="42.7342156" lon="12.4135523"><ele>292.99999999999994</ele><time>2026-05-03T08:45:56.268Z</time></trkpt><trkpt lat="42.7341531" lon="12.413574"><ele>293.0</ele><time>2026-05-03T08:45:57.269Z</time></trkpt><trkpt lat="42.7340396" lon="12.413619"><ele>292.1666666666667</ele><time>2026-05-03T08:45:59.256Z</time></trkpt><trkpt lat="42.7339641" lon="12.4136402"><ele>291.33333333333337</ele><time>2026-05-03T08:46:00.268Z</time></trkpt><trkpt lat="42.7338924" lon="12.4136537"><ele>290.5</ele><time>2026-05-03T08:46:01.274Z</time></trkpt><trkpt lat="42.7338239" lon="12.4136745"><ele>289.6666666666667</ele><time>2026-05-03T08:46:02.265Z</time></trkpt><trkpt lat="42.7337438" lon="12.4137015"><ele>288.8333333333333</ele><time>2026-05-03T08:46:03.265Z</time></trkpt><trkpt lat="42.7336677" lon="12.4137297"><ele>288.0</ele><time>2026-05-03T08:46:04.262Z</time></trkpt><trkpt lat="42.7335929" lon="12.413756"><ele>288.0</ele><time>2026-05-03T08:46:05.263Z</time></trkpt><trkpt lat="42.7335276" lon="12.4137859"><ele>288.0</ele><time>2026-05-03T08:46:06.271Z</time></trkpt><trkpt lat="42.7334657" lon="12.4138125"><ele>288.0</ele><time>2026-05-03T08:46:07.27Z</time></trkpt><trkpt lat="42.7333578" lon="12.4138605"><ele>288.0</ele><time>2026-05-03T08:46:09.261Z</time></trkpt><trkpt lat="42.7332482" lon="12.4139206"><ele>288.0</ele><time>2026-05-03T08:46:11.268Z</time></trkpt><trkpt lat="42.7331276" lon="12.4139356"><ele>290.1666666666667</ele><time>2026-05-03T08:46:13.26Z</time></trkpt><trkpt lat="42.7330625" lon="12.4139296"><ele>292.3333333333333</ele><time>2026-05-03T08:46:14.272Z</time></trkpt><trkpt lat="42.7329903" lon="12.4139288"><ele>294.5</ele><time>2026-05-03T08:46:15.261Z</time></trkpt><trkpt lat="42.7329079" lon="12.4139494"><ele>296.66666666666663</ele><time>2026-05-03T08:46:16.27Z</time></trkpt><trkpt lat="42.7328319" lon="12.4139886"><ele>298.8333333333333</ele><time>2026-05-03T08:46:17.27Z</time></trkpt><trkpt lat="42.7327659" lon="12.4140129"><ele>301.0</ele><time>2026-05-03T08:46:18.266Z</time></trkpt><trkpt lat="42.7326555" lon="12.413995"><ele>302.40000000000003</ele><time>2026-05-03T08:46:20.282Z</time></trkpt><trkpt lat="42.7325431" lon="12.4139173"><ele>303.8</ele><time>2026-05-03T08:46:22.252Z</time></trkpt><trkpt lat="42.7324482" lon="12.4138356"><ele>305.20000000000005</ele><time>2026-05-03T08:46:24.262Z</time></trkpt><trkpt lat="42.7323874" lon="12.4138011"><ele>306.6</ele><time>2026-05-03T08:46:25.259Z</time></trkpt><trkpt lat="42.7323082" lon="12.413773"><ele>308.0</ele><time>2026-05-03T08:46:26.265Z</time></trkpt><trkpt lat="42.7322199" lon="12.4137605"><ele>307.14285714285717</ele><time>2026-05-03T08:46:27.288Z</time></trkpt><trkpt lat="42.7321333" lon="12.4137394"><ele>306.2857142857143</ele><time>2026-05-03T08:46:28.276Z</time></trkpt><trkpt lat="42.7320546" lon="12.4137224"><ele>305.42857142857144</ele><time>2026-05-03T08:46:29.271Z</time></trkpt><trkpt lat="42.7319833" lon="12.4136989"><ele>304.57142857142856</ele><time>2026-05-03T08:46:30.268Z</time></trkpt><trkpt lat="42.7319195" lon="12.4136664"><ele>303.7142857142857</ele><time>2026-05-03T08:46:31.272Z</time></trkpt><trkpt lat="42.7318577" lon="12.4136335"><ele>302.8571428571429</ele><time>2026-05-03T08:46:32.263Z</time></trkpt><trkpt lat="42.7317909" lon="12.4135971"><ele>302.0</ele><time>2026-05-03T08:46:33.266Z</time></trkpt><trkpt lat="42.7317267" lon="12.4135566"><ele>302.0</ele><time>2026-05-03T08:46:34.275Z</time></trkpt><trkpt lat="42.731667" lon="12.4135141"><ele>302.0</ele><time>2026-05-03T08:46:35.27Z</time></trkpt><trkpt lat="42.7316063" lon="12.4134673"><ele>302.0</ele><time>2026-05-03T08:46:36.267Z</time></trkpt><trkpt lat="42.7315081" lon="12.4133747"><ele>302.0</ele><time>2026-05-03T08:46:38.268Z</time></trkpt><trkpt lat="42.7314203" lon="12.4133444"><ele>302.0</ele><time>2026-05-03T08:46:40.258Z</time></trkpt><trkpt lat="42.7313385" lon="12.4133745"><ele>302.0</ele><time>2026-05-03T08:46:42.27Z</time></trkpt><trkpt lat="42.7312509" lon="12.4134349"><ele>302.0</ele><time>2026-05-03T08:46:44.272Z</time></trkpt><trkpt lat="42.7311575" lon="12.4134693"><ele>302.0</ele><time>2026-05-03T08:46:46.265Z</time></trkpt><trkpt lat="42.7310571" lon="12.4134952"><ele>302.0</ele><time>2026-05-03T08:46:48.266Z</time></trkpt><trkpt lat="42.7309408" lon="12.4135211"><ele>302.0</ele><time>2026-05-03T08:46:50.283Z</time></trkpt><trkpt lat="42.7308792" lon="12.4135395"><ele>302.0</ele><time>2026-05-03T08:46:51.263Z</time></trkpt><trkpt lat="42.7307707" lon="12.413603"><ele>300.75</ele><time>2026-05-03T08:46:53.261Z</time></trkpt><trkpt lat="42.7306608" lon="12.4136788"><ele>299.5</ele><time>2026-05-03T08:46:55.279Z</time></trkpt><trkpt lat="42.7305499" lon="12.4137438"><ele>298.25</ele><time>2026-05-03T08:46:57.255Z</time></trkpt><trkpt lat="42.7304326" lon="12.4138104"><ele>297.0</ele><time>2026-05-03T08:46:59.274Z</time></trkpt><trkpt lat="42.7303297" lon="12.4138889"><ele>297.0</ele><time>2026-05-03T08:47:01.274Z</time></trkpt><trkpt lat="42.7302255" lon="12.4139254"><ele>297.0</ele><time>2026-05-03T08:47:03.261Z</time></trkpt><trkpt lat="42.7301147" lon="12.4139678"><ele>297.0</ele><time>2026-05-03T08:47:05.282Z</time></trkpt><trkpt lat="42.7300191" lon="12.4139886"><ele>297.0</ele><time>2026-05-03T08:47:07.281Z</time></trkpt><trkpt lat="42.7299386" lon="12.4140561"><ele>297.0</ele><time>2026-05-03T08:47:09.263Z</time></trkpt><trkpt lat="42.7298894" lon="12.4141565"><ele>293.8</ele><time>2026-05-03T08:47:11.276Z</time></trkpt><trkpt lat="42.729872" lon="12.4142666"><ele>290.6</ele><time>2026-05-03T08:47:13.252Z</time></trkpt><trkpt lat="42.7298332" lon="12.414387"><ele>287.40000000000003</ele><time>2026-05-03T08:47:15.262Z</time></trkpt><trkpt lat="42.7297409" lon="12.414459"><ele>284.2</ele><time>2026-05-03T08:47:17.276Z</time></trkpt><trkpt lat="42.7296488" lon="12.4144939"><ele>281.0</ele><time>2026-05-03T08:47:19.274Z</time></trkpt><trkpt lat="42.7295535" lon="12.4145026"><ele>281.0</ele><time>2026-05-03T08:47:21.271Z</time></trkpt><trkpt lat="42.7294398" lon="12.4145169"><ele>281.0</ele><time>2026-05-03T08:47:23.274Z</time></trkpt><trkpt lat="42.7293204" lon="12.4145336"><ele>281.0</ele><time>2026-05-03T08:47:25.258Z</time></trkpt><trkpt lat="42.7292555" lon="12.4145492"><ele>281.0</ele><time>2026-05-03T08:47:26.28Z</time></trkpt><trkpt lat="42.7291888" lon="12.4145685"><ele>281.0</ele><time>2026-05-03T08:47:27.294Z</time></trkpt><trkpt lat="42.729114" lon="12.4145913"><ele>281.0</ele><time>2026-05-03T08:47:28.266Z</time></trkpt><trkpt lat="42.7290389" lon="12.414611"><ele>280.7142857142857</ele><time>2026-05-03T08:47:29.262Z</time></trkpt><trkpt lat="42.7289691" lon="12.4146295"><ele>280.42857142857144</ele><time>2026-05-03T08:47:30.278Z</time></trkpt><trkpt lat="42.7288967" lon="12.4146503"><ele>280.1428571428571</ele><time>2026-05-03T08:47:31.277Z</time></trkpt><trkpt lat="42.7288248" lon="12.4146712"><ele>279.8571428571429</ele><time>2026-05-03T08:47:32.27Z</time></trkpt><trkpt lat="42.7287461" lon="12.4146879"><ele>279.57142857142856</ele><time>2026-05-03T08:47:33.28Z</time></trkpt><trkpt lat="42.7286685" lon="12.4147017"><ele>279.2857142857143</ele><time>2026-05-03T08:47:34.283Z</time></trkpt><trkpt lat="42.7286024" lon="12.414714"><ele>279.0</ele><time>2026-05-03T08:47:35.262Z</time></trkpt><trkpt lat="42.7284887" lon="12.4147474"><ele>277.59999999999997</ele><time>2026-05-03T08:47:37.261Z</time></trkpt><trkpt lat="42.7283666" lon="12.414791"><ele>276.2</ele><time>2026-05-03T08:47:39.259Z</time></trkpt><trkpt lat="42.7282372" lon="12.4148115"><ele>274.79999999999995</ele><time>2026-05-03T08:47:41.271Z</time></trkpt><trkpt lat="42.7281737" lon="12.4148127"><ele>273.4</ele><time>2026-05-03T08:47:42.285Z</time></trkpt><trkpt lat="42.7280556" lon="12.4148055"><ele>272.0</ele><time>2026-05-03T08:47:44.281Z</time></trkpt><trkpt lat="42.7279551" lon="12.4148402"><ele>272.0</ele><time>2026-05-03T08:47:46.281Z</time></trkpt><trkpt lat="42.7278624" lon="12.4149325"><ele>272.0</ele><time>2026-05-03T08:47:48.264Z</time></trkpt><trkpt lat="42.7278179" lon="12.4149937"><ele>272.0</ele><time>2026-05-03T08:47:49.251Z</time></trkpt><trkpt lat="42.7277678" lon="12.4150556"><ele>272.0</ele><time>2026-05-03T08:47:50.257Z</time></trkpt><trkpt lat="42.7277172" lon="12.4151085"><ele>272.0</ele><time>2026-05-03T08:47:51.262Z</time></trkpt><trkpt lat="42.7276171" lon="12.415174"><ele>272.0</ele><time>2026-05-03T08:47:53.294Z</time></trkpt><trkpt lat="42.7275326" lon="12.4152226"><ele>271.0</ele><time>2026-05-03T08:47:55.268Z</time></trkpt><trkpt lat="42.7274599" lon="12.4152527"><ele>270.0</ele><time>2026-05-03T08:47:57.286Z</time></trkpt><trkpt lat="42.7273955" lon="12.4152878"><ele>269.0</ele><time>2026-05-03T08:47:59.276Z</time></trkpt><trkpt lat="42.7273147" lon="12.415328"><ele>268.0</ele><time>2026-05-03T08:48:01.261Z</time></trkpt><trkpt lat="42.7272402" lon="12.4153382"><ele>267.0</ele><time>2026-05-03T08:48:03.261Z</time></trkpt><trkpt lat="42.7271654" lon="12.415359"><ele>266.0</ele><time>2026-05-03T08:48:08.266Z</time></trkpt><trkpt lat="42.7270571" lon="12.4153518"><ele>266.0</ele><time>2026-05-03T08:48:10.264Z</time></trkpt><trkpt lat="42.7269473" lon="12.4153499"><ele>266.0</ele><time>2026-05-03T08:48:12.276Z</time></trkpt><trkpt lat="42.7268556" lon="12.4153803"><ele>266.0</ele><time>2026-05-03T08:48:14.265Z</time></trkpt><trkpt lat="42.7267465" lon="12.4154046"><ele>266.0</ele><time>2026-05-03T08:48:16.279Z</time></trkpt><trkpt lat="42.7266769" lon="12.4154186"><ele>266.0</ele><time>2026-05-03T08:48:17.263Z</time></trkpt><trkpt lat="42.7266032" lon="12.4154342"><ele>266.0</ele><time>2026-05-03T08:48:18.274Z</time></trkpt><trkpt lat="42.7265298" lon="12.4154524"><ele>266.0</ele><time>2026-05-03T08:48:19.265Z</time></trkpt><trkpt lat="42.7264531" lon="12.4154633"><ele>266.0</ele><time>2026-05-03T08:48:20.273Z</time></trkpt><trkpt lat="42.7263871" lon="12.4154686"><ele>266.0</ele><time>2026-05-03T08:48:21.273Z</time></trkpt><trkpt lat="42.7263211" lon="12.4154718"><ele>266.0</ele><time>2026-05-03T08:48:22.293Z</time></trkpt><trkpt lat="42.7262049" lon="12.415491"><ele>266.0</ele><time>2026-05-03T08:48:24.267Z</time></trkpt><trkpt lat="42.726109" lon="12.4155129"><ele>266.0</ele><time>2026-05-03T08:48:26.266Z</time></trkpt><trkpt lat="42.7260317" lon="12.4155558"><ele>266.0</ele><time>2026-05-03T08:48:28.273Z</time></trkpt><trkpt lat="42.7259136" lon="12.415537"><ele>266.0</ele><time>2026-05-03T08:48:30.274Z</time></trkpt><trkpt lat="42.7258513" lon="12.4155074"><ele>266.0</ele><time>2026-05-03T08:48:31.271Z</time></trkpt><trkpt lat="42.7257814" lon="12.4154728"><ele>266.0</ele><time>2026-05-03T08:48:32.276Z</time></trkpt><trkpt lat="42.7257139" lon="12.4154395"><ele>266.0</ele><time>2026-05-03T08:48:33.267Z</time></trkpt><trkpt lat="42.7256033" lon="12.4153831"><ele>266.0</ele><time>2026-05-03T08:48:35.265Z</time></trkpt><trkpt lat="42.7255136" lon="12.415402"><ele>266.0</ele><time>2026-05-03T08:48:37.261Z</time></trkpt><trkpt lat="42.7254052" lon="12.4154808"><ele>266.0</ele><time>2026-05-03T08:48:39.271Z</time></trkpt><trkpt lat="42.725339" lon="12.4155341"><ele>266.0</ele><time>2026-05-03T08:48:40.274Z</time></trkpt><trkpt lat="42.7252266" lon="12.4156031"><ele>266.0</ele><time>2026-05-03T08:48:42.334Z</time></trkpt><trkpt lat="42.7251661" lon="12.4156413"><ele>265.8</ele><time>2026-05-03T08:48:43.275Z</time></trkpt><trkpt lat="42.7251049" lon="12.4156731"><ele>265.6</ele><time>2026-05-03T08:48:44.257Z</time></trkpt><trkpt lat="42.7250444" lon="12.4157017"><ele>265.4</ele><time>2026-05-03T08:48:45.263Z</time></trkpt><trkpt lat="42.7249354" lon="12.4157536"><ele>265.2</ele><time>2026-05-03T08:48:47.274Z</time></trkpt><trkpt lat="42.7248364" lon="12.4158082"><ele>265.0</ele><time>2026-05-03T08:48:49.29Z</time></trkpt><trkpt lat="42.7247413" lon="12.4158708"><ele>265.0</ele><time>2026-05-03T08:48:51.27Z</time></trkpt><trkpt lat="42.7246435" lon="12.4159503"><ele>265.0</ele><time>2026-05-03T08:48:53.278Z</time></trkpt><trkpt lat="42.7245552" lon="12.4160227"><ele>265.0</ele><time>2026-05-03T08:48:55.272Z</time></trkpt><trkpt lat="42.724465" lon="12.4160978"><ele>265.0</ele><time>2026-05-03T08:48:57.265Z</time></trkpt><trkpt lat="42.7243754" lon="12.4162105"><ele>265.0</ele><time>2026-05-03T08:48:59.274Z</time></trkpt><trkpt lat="42.7243188" lon="12.4162723"><ele>264.3333333333333</ele><time>2026-05-03T08:49:00.27Z</time></trkpt><trkpt lat="42.724263" lon="12.4163283"><ele>263.66666666666663</ele><time>2026-05-03T08:49:01.276Z</time></trkpt><trkpt lat="42.7242259" lon="12.4163982"><ele>263.0</ele><time>2026-05-03T08:49:02.277Z</time></trkpt><trkpt lat="42.7241904" lon="12.4165472"><ele>262.3333333333333</ele><time>2026-05-03T08:49:04.264Z</time></trkpt><trkpt lat="42.7241961" lon="12.4167183"><ele>261.6666666666667</ele><time>2026-05-03T08:49:06.261Z</time></trkpt><trkpt lat="42.7242173" lon="12.4168069"><ele>261.0</ele><time>2026-05-03T08:49:07.261Z</time></trkpt><trkpt lat="42.7242247" lon="12.4169274"><ele>261.0</ele><time>2026-05-03T08:49:09.263Z</time></trkpt><trkpt lat="42.7241136" lon="12.4168815"><ele>261.0</ele><time>2026-05-03T08:49:12.261Z</time></trkpt><trkpt lat="42.7240532" lon="12.4168353"><ele>261.0</ele><time>2026-05-03T08:49:13.261Z</time></trkpt><trkpt lat="42.7239897" lon="12.4168148"><ele>261.0</ele><time>2026-05-03T08:49:14.255Z</time></trkpt><trkpt lat="42.7238691" lon="12.4168238"><ele>261.0</ele><time>2026-05-03T08:49:16.277Z</time></trkpt><trkpt lat="42.7237612" lon="12.4168974"><ele>261.0</ele><time>2026-05-03T08:49:18.272Z</time></trkpt><trkpt lat="42.7236862" lon="12.4169466"><ele>261.0</ele><time>2026-05-03T08:49:19.268Z</time></trkpt><trkpt lat="42.7236112" lon="12.4169943"><ele>261.0</ele><time>2026-05-03T08:49:20.277Z</time></trkpt><trkpt lat="42.7235376" lon="12.4170354"><ele>261.0</ele><time>2026-05-03T08:49:21.263Z</time></trkpt><trkpt lat="42.7234683" lon="12.4170934"><ele>261.0</ele><time>2026-05-03T08:49:22.262Z</time></trkpt><trkpt lat="42.7233983" lon="12.4171573"><ele>261.0</ele><time>2026-05-03T08:49:23.258Z</time></trkpt><trkpt lat="42.7233276" lon="12.4172316"><ele>262.1666666666667</ele><time>2026-05-03T08:49:24.275Z</time></trkpt><trkpt lat="42.7232589" lon="12.4173093"><ele>263.3333333333333</ele><time>2026-05-03T08:49:25.255Z</time></trkpt><trkpt lat="42.7231956" lon="12.4173827"><ele>264.5</ele><time>2026-05-03T08:49:26.285Z</time></trkpt><trkpt lat="42.7231189" lon="12.4174429"><ele>265.66666666666663</ele><time>2026-05-03T08:49:28.265Z</time></trkpt><trkpt lat="42.7230587" lon="12.4174724"><ele>266.8333333333333</ele><time>2026-05-03T08:49:30.275Z</time></trkpt><trkpt lat="42.7229807" lon="12.4175155"><ele>268.0</ele><time>2026-05-03T08:49:32.267Z</time></trkpt><trkpt lat="42.7228817" lon="12.4175935"><ele>268.0</ele><time>2026-05-03T08:49:34.274Z</time></trkpt><trkpt lat="42.7227853" lon="12.4176417"><ele>268.0</ele><time>2026-05-03T08:49:36.277Z</time></trkpt><trkpt lat="42.7226795" lon="12.4177037"><ele>268.0</ele><time>2026-05-03T08:49:38.27Z</time></trkpt><trkpt lat="42.7226241" lon="12.4177497"><ele>268.0</ele><time>2026-05-03T08:49:39.264Z</time></trkpt><trkpt lat="42.7225692" lon="12.417803"><ele>268.0</ele><time>2026-05-03T08:49:40.27Z</time></trkpt><trkpt lat="42.7225194" lon="12.417868"><ele>268.0</ele><time>2026-05-03T08:49:41.28Z</time></trkpt><trkpt lat="42.7224445" lon="12.4179662"><ele>269.2</ele><time>2026-05-03T08:49:43.268Z</time></trkpt><trkpt lat="42.7223648" lon="12.4180914"><ele>270.4</ele><time>2026-05-03T08:49:45.27Z</time></trkpt><trkpt lat="42.7223254" lon="12.4181743"><ele>271.59999999999997</ele><time>2026-05-03T08:49:47.262Z</time></trkpt><trkpt lat="42.7223106" lon="12.418263"><ele>272.8</ele><time>2026-05-03T08:49:49.257Z</time></trkpt><trkpt lat="42.7222601" lon="12.4184319"><ele>274.0</ele><time>2026-05-03T08:49:51.263Z</time></trkpt><trkpt lat="42.7222315" lon="12.4185157"><ele>274.0</ele><time>2026-05-03T08:49:52.265Z</time></trkpt><trkpt lat="42.7221671" lon="12.4186158"><ele>274.0</ele><time>2026-05-03T08:49:54.268Z</time></trkpt><trkpt lat="42.7220823" lon="12.4186907"><ele>274.0</ele><time>2026-05-03T08:49:56.27Z</time></trkpt><trkpt lat="42.7219812" lon="12.418782"><ele>274.0</ele><time>2026-05-03T08:49:58.259Z</time></trkpt><trkpt lat="42.7219219" lon="12.4188372"><ele>274.0</ele><time>2026-05-03T08:49:59.254Z</time></trkpt><trkpt lat="42.7218638" lon="12.4188777"><ele>271.75</ele><time>2026-05-03T08:50:00.271Z</time></trkpt><trkpt lat="42.7217691" lon="12.4189722"><ele>269.5</ele><time>2026-05-03T08:50:02.254Z</time></trkpt><trkpt lat="42.7217025" lon="12.4190984"><ele>267.25</ele><time>2026-05-03T08:50:04.263Z</time></trkpt><trkpt lat="42.721624" lon="12.4191999"><ele>265.0</ele><time>2026-05-03T08:50:06.276Z</time></trkpt><trkpt lat="42.7215028" lon="12.4192339"><ele>264.99999999999994</ele><time>2026-05-03T08:50:08.257Z</time></trkpt><trkpt lat="42.7214299" lon="12.4192531"><ele>265.0</ele><time>2026-05-03T08:50:09.275Z</time></trkpt><trkpt lat="42.7213601" lon="12.4192695"><ele>265.0</ele><time>2026-05-03T08:50:10.264Z</time></trkpt><trkpt lat="42.7212922" lon="12.4192761"><ele>265.0</ele><time>2026-05-03T08:50:11.262Z</time></trkpt><trkpt lat="42.7212065" lon="12.4192608"><ele>265.0</ele><time>2026-05-03T08:50:13.264Z</time></trkpt><trkpt lat="42.721127" lon="12.419256"><ele>264.99999999999994</ele><time>2026-05-03T08:50:17.262Z</time></trkpt><trkpt lat="42.7210666" lon="12.4192932"><ele>265.0</ele><time>2026-05-03T08:50:19.266Z</time></trkpt><trkpt lat="42.7209948" lon="12.419369"><ele>264.4</ele><time>2026-05-03T08:50:21.258Z</time></trkpt><trkpt lat="42.7209055" lon="12.4194299"><ele>263.8</ele><time>2026-05-03T08:50:23.278Z</time></trkpt><trkpt lat="42.7208379" lon="12.4195005"><ele>263.2</ele><time>2026-05-03T08:50:25.273Z</time></trkpt><trkpt lat="42.7207563" lon="12.4195652"><ele>262.6</ele><time>2026-05-03T08:50:27.278Z</time></trkpt><trkpt lat="42.7206775" lon="12.4196616"><ele>262.0</ele><time>2026-05-03T08:50:29.271Z</time></trkpt><trkpt lat="42.7206176" lon="12.4197269"><ele>262.0</ele><time>2026-05-03T08:50:31.265Z</time></trkpt><trkpt lat="42.7205564" lon="12.4197041"><ele>262.0</ele><time>2026-05-03T08:50:36.265Z</time></trkpt><trkpt lat="42.7204879" lon="12.4197216"><ele>262.0</ele><time>2026-05-03T08:50:38.291Z</time></trkpt><trkpt lat="42.7203982" lon="12.4197621"><ele>262.0</ele><time>2026-05-03T08:50:40.269Z</time></trkpt><trkpt lat="42.7203259" lon="12.4197899"><ele>262.0</ele><time>2026-05-03T08:50:42.28Z</time></trkpt><trkpt lat="42.7202554" lon="12.4198012"><ele>262.0</ele><time>2026-05-03T08:50:44.267Z</time></trkpt><trkpt lat="42.7201316" lon="12.4198274"><ele>261.3333333333333</ele><time>2026-05-03T08:50:46.255Z</time></trkpt><trkpt lat="42.7200567" lon="12.4198604"><ele>260.66666666666663</ele><time>2026-05-03T08:50:47.257Z</time></trkpt><trkpt lat="42.7199865" lon="12.4198861"><ele>260.0</ele><time>2026-05-03T08:50:48.272Z</time></trkpt><trkpt lat="42.7199092" lon="12.4199149"><ele>259.3333333333333</ele><time>2026-05-03T08:50:49.262Z</time></trkpt><trkpt lat="42.7198309" lon="12.4199485"><ele>258.6666666666667</ele><time>2026-05-03T08:50:50.272Z</time></trkpt><trkpt lat="42.71975" lon="12.4199776"><ele>258.0</ele><time>2026-05-03T08:50:51.262Z</time></trkpt><trkpt lat="42.7196645" lon="12.4200119"><ele>258.0</ele><time>2026-05-03T08:50:52.273Z</time></trkpt><trkpt lat="42.7195867" lon="12.4200396"><ele>258.0</ele><time>2026-05-03T08:50:53.257Z</time></trkpt><trkpt lat="42.7195171" lon="12.4200682"><ele>258.0</ele><time>2026-05-03T08:50:54.276Z</time></trkpt><trkpt lat="42.7194538" lon="12.4200979"><ele>258.0</ele><time>2026-05-03T08:50:55.274Z</time></trkpt><trkpt lat="42.7193818" lon="12.4201226"><ele>258.0</ele><time>2026-05-03T08:50:56.299Z</time></trkpt><trkpt lat="42.7193025" lon="12.4201512"><ele>258.0</ele><time>2026-05-03T08:50:57.276Z</time></trkpt><trkpt lat="42.7192134" lon="12.4201847"><ele>257.85714285714283</ele><time>2026-05-03T08:50:58.276Z</time></trkpt><trkpt lat="42.7191273" lon="12.4202195"><ele>257.7142857142857</ele><time>2026-05-03T08:50:59.274Z</time></trkpt><trkpt lat="42.7190543" lon="12.4202553"><ele>257.57142857142856</ele><time>2026-05-03T08:51:00.27Z</time></trkpt><trkpt lat="42.7189907" lon="12.4202892"><ele>257.42857142857144</ele><time>2026-05-03T08:51:01.311Z</time></trkpt><trkpt lat="42.7189306" lon="12.4203245"><ele>257.2857142857143</ele><time>2026-05-03T08:51:02.271Z</time></trkpt><trkpt lat="42.7188657" lon="12.4203587"><ele>257.1428571428571</ele><time>2026-05-03T08:51:03.258Z</time></trkpt><trkpt lat="42.7188" lon="12.4203926"><ele>257.0</ele><time>2026-05-03T08:51:04.262Z</time></trkpt><trkpt lat="42.7187314" lon="12.4204246"><ele>257.0</ele><time>2026-05-03T08:51:05.274Z</time></trkpt><trkpt lat="42.7186641" lon="12.420444"><ele>257.0</ele><time>2026-05-03T08:51:06.264Z</time></trkpt><trkpt lat="42.7185549" lon="12.4204796"><ele>257.0</ele><time>2026-05-03T08:51:08.27Z</time></trkpt><trkpt lat="42.7184765" lon="12.4204967"><ele>257.0</ele><time>2026-05-03T08:51:10.258Z</time></trkpt><trkpt lat="42.7183876" lon="12.4205126"><ele>257.0</ele><time>2026-05-03T08:51:13.26Z</time></trkpt><trkpt lat="42.7183038" lon="12.4205391"><ele>257.0</ele><time>2026-05-03T08:51:16.264Z</time></trkpt><trkpt lat="42.7182214" lon="12.4205649"><ele>257.33333333333337</ele><time>2026-05-03T08:51:19.263Z</time></trkpt><trkpt lat="42.7181321" lon="12.4205867"><ele>257.6666666666667</ele><time>2026-05-03T08:51:22.268Z</time></trkpt><trkpt lat="42.7180404" lon="12.4206096"><ele>258.0</ele><time>2026-05-03T08:51:25.269Z</time></trkpt><trkpt lat="42.7179752" lon="12.4206276"><ele>258.3333333333333</ele><time>2026-05-03T08:51:27.265Z</time></trkpt><trkpt lat="42.7178952" lon="12.4206619"><ele>258.66666666666663</ele><time>2026-05-03T08:51:30.266Z</time></trkpt><trkpt lat="42.7178247" lon="12.4206933"><ele>259.0</ele><time>2026-05-03T08:51:32.26Z</time></trkpt><trkpt lat="42.7177156" lon="12.4207379"><ele>259.2</ele><time>2026-05-03T08:51:34.258Z</time></trkpt><trkpt lat="42.7176515" lon="12.4207572"><ele>259.4</ele><time>2026-05-03T08:51:35.265Z</time></trkpt><trkpt lat="42.7175452" lon="12.4208014"><ele>259.6</ele><time>2026-05-03T08:51:37.256Z</time></trkpt><trkpt lat="42.7174802" lon="12.420894"><ele>259.8</ele><time>2026-05-03T08:51:39.261Z</time></trkpt><trkpt lat="42.7174876" lon="12.4210474"><ele>260.0</ele><time>2026-05-03T08:51:41.267Z</time></trkpt><trkpt lat="42.7175358" lon="12.4211526"><ele>260.0</ele><time>2026-05-03T08:51:42.273Z</time></trkpt><trkpt lat="42.7175979" lon="12.4212857"><ele>260.0</ele><time>2026-05-03T08:51:43.264Z</time></trkpt><trkpt lat="42.7176757" lon="12.4214509"><ele>260.0</ele><time>2026-05-03T08:51:44.262Z</time></trkpt><trkpt lat="42.7177586" lon="12.4216394"><ele>260.0</ele><time>2026-05-03T08:51:45.26Z</time></trkpt><trkpt lat="42.7178471" lon="12.4218406"><ele>260.33333333333337</ele><time>2026-05-03T08:51:46.284Z</time></trkpt><trkpt lat="42.7179363" lon="12.4220469"><ele>260.6666666666667</ele><time>2026-05-03T08:51:47.274Z</time></trkpt><trkpt lat="42.7180249" lon="12.4222465"><ele>261.0</ele><time>2026-05-03T08:51:48.257Z</time></trkpt><trkpt lat="42.7180931" lon="12.4224112"><ele>261.8</ele><time>2026-05-03T08:51:49.271Z</time></trkpt><trkpt lat="42.718159" lon="12.4225671"><ele>262.6</ele><time>2026-05-03T08:51:50.271Z</time></trkpt><trkpt lat="42.7182144" lon="12.4227049"><ele>263.4</ele><time>2026-05-03T08:51:51.266Z</time></trkpt><trkpt lat="42.7182601" lon="12.4228255"><ele>264.2</ele><time>2026-05-03T08:51:52.272Z</time></trkpt><trkpt lat="42.7182855" lon="12.4229331"><ele>265.0</ele><time>2026-05-03T08:51:53.274Z</time></trkpt><trkpt lat="42.7182356" lon="12.4230785"><ele>266.16666666666663</ele><time>2026-05-03T08:51:55.265Z</time></trkpt><trkpt lat="42.7181511" lon="12.4231979"><ele>267.3333333333333</ele><time>2026-05-03T08:51:57.275Z</time></trkpt><trkpt lat="42.7181188" lon="12.423281"><ele>268.5</ele><time>2026-05-03T08:51:58.265Z</time></trkpt><trkpt lat="42.7180926" lon="12.4233965"><ele>269.6666666666667</ele><time>2026-05-03T08:51:59.28Z</time></trkpt><trkpt lat="42.7180739" lon="12.4235009"><ele>270.83333333333337</ele><time>2026-05-03T08:52:00.267Z</time></trkpt><trkpt lat="42.7180661" lon="12.4236086"><ele>272.0</ele><time>2026-05-03T08:52:01.284Z</time></trkpt><trkpt lat="42.718069" lon="12.4236943"><ele>272.0</ele><time>2026-05-03T08:52:02.273Z</time></trkpt><trkpt lat="42.7180944" lon="12.4237741"><ele>272.0</ele><time>2026-05-03T08:52:03.266Z</time></trkpt><trkpt lat="42.7181324" lon="12.4238522"><ele>272.0</ele><time>2026-05-03T08:52:04.276Z</time></trkpt><trkpt lat="42.7181896" lon="12.4239316"><ele>272.0</ele><time>2026-05-03T08:52:05.27Z</time></trkpt><trkpt lat="42.7182673" lon="12.4240026"><ele>272.0</ele><time>2026-05-03T08:52:06.267Z</time></trkpt><trkpt lat="42.7183636" lon="12.4240557"><ele>272.0</ele><time>2026-05-03T08:52:07.281Z</time></trkpt><trkpt lat="42.7184778" lon="12.4241017"><ele>276.25</ele><time>2026-05-03T08:52:08.264Z</time></trkpt><trkpt lat="42.7186178" lon="12.4241505"><ele>280.5</ele><time>2026-05-03T08:52:09.264Z</time></trkpt><trkpt lat="42.7187643" lon="12.4242047"><ele>284.75</ele><time>2026-05-03T08:52:10.281Z</time></trkpt><trkpt lat="42.7189123" lon="12.4242552"><ele>289.0</ele><time>2026-05-03T08:52:11.278Z</time></trkpt><trkpt lat="42.7190468" lon="12.4243016"><ele>289.0</ele><time>2026-05-03T08:52:12.267Z</time></trkpt><trkpt lat="42.7191663" lon="12.4243387"><ele>289.0</ele><time>2026-05-03T08:52:13.259Z</time></trkpt><trkpt lat="42.7192815" lon="12.424378"><ele>289.0</ele><time>2026-05-03T08:52:14.262Z</time></trkpt><trkpt lat="42.7193921" lon="12.4244152"><ele>289.0</ele><time>2026-05-03T08:52:15.263Z</time></trkpt><trkpt lat="42.7194856" lon="12.4244553"><ele>290.8</ele><time>2026-05-03T08:52:16.277Z</time></trkpt><trkpt lat="42.7195545" lon="12.4245197"><ele>292.59999999999997</ele><time>2026-05-03T08:52:17.264Z</time></trkpt><trkpt lat="42.7195983" lon="12.4246215"><ele>294.4</ele><time>2026-05-03T08:52:18.269Z</time></trkpt><trkpt lat="42.7196426" lon="12.4247304"><ele>296.2</ele><time>2026-05-03T08:52:19.27Z</time></trkpt><trkpt lat="42.719698" lon="12.4248425"><ele>298.0</ele><time>2026-05-03T08:52:20.28Z</time></trkpt><trkpt lat="42.719761" lon="12.4249619"><ele>298.8</ele><time>2026-05-03T08:52:21.265Z</time></trkpt><trkpt lat="42.7198178" lon="12.4250813"><ele>299.6</ele><time>2026-05-03T08:52:22.284Z</time></trkpt><trkpt lat="42.7198699" lon="12.4251733"><ele>300.4</ele><time>2026-05-03T08:52:23.263Z</time></trkpt><trkpt lat="42.719985" lon="12.4252597"><ele>301.2</ele><time>2026-05-03T08:52:25.259Z</time></trkpt><trkpt lat="42.72007" lon="12.4252816"><ele>302.0</ele><time>2026-05-03T08:52:26.273Z</time></trkpt><trkpt lat="42.7201735" lon="12.4253095"><ele>303.75</ele><time>2026-05-03T08:52:27.27Z</time></trkpt><trkpt lat="42.7202861" lon="12.4253421"><ele>305.5</ele><time>2026-05-03T08:52:28.272Z</time></trkpt><trkpt lat="42.7204056" lon="12.4253723"><ele>307.25</ele><time>2026-05-03T08:52:29.281Z</time></trkpt><trkpt lat="42.7205255" lon="12.4254074"><ele>309.0</ele><time>2026-05-03T08:52:30.267Z</time></trkpt><trkpt lat="42.7206397" lon="12.425437"><ele>309.0</ele><time>2026-05-03T08:52:31.28Z</time></trkpt><trkpt lat="42.7207487" lon="12.4254517"><ele>309.0</ele><time>2026-05-03T08:52:32.285Z</time></trkpt><trkpt lat="42.7208543" lon="12.4254527"><ele>309.0</ele><time>2026-05-03T08:52:33.285Z</time></trkpt><trkpt lat="42.7209625" lon="12.4254605"><ele>309.0</ele><time>2026-05-03T08:52:34.271Z</time></trkpt><trkpt lat="42.7210764" lon="12.4254995"><ele>309.0</ele><time>2026-05-03T08:52:35.265Z</time></trkpt><trkpt lat="42.7211964" lon="12.4255694"><ele>310.75</ele><time>2026-05-03T08:52:36.265Z</time></trkpt><trkpt lat="42.7213146" lon="12.4256427"><ele>312.5</ele><time>2026-05-03T08:52:37.263Z</time></trkpt><trkpt lat="42.7214479" lon="12.4257262"><ele>314.25</ele><time>2026-05-03T08:52:38.277Z</time></trkpt><trkpt lat="42.7216012" lon="12.4258115"><ele>316.0</ele><time>2026-05-03T08:52:39.272Z</time></trkpt><trkpt lat="42.7217627" lon="12.4258968"><ele>317.5</ele><time>2026-05-03T08:52:40.266Z</time></trkpt><trkpt lat="42.7219104" lon="12.4259693"><ele>319.0</ele><time>2026-05-03T08:52:41.264Z</time></trkpt><trkpt lat="42.722042" lon="12.4260323"><ele>320.5</ele><time>2026-05-03T08:52:42.267Z</time></trkpt><trkpt lat="42.7221407" lon="12.4260814"><ele>322.0</ele><time>2026-05-03T08:52:43.265Z</time></trkpt><trkpt lat="42.7222174" lon="12.4261202"><ele>322.0</ele><time>2026-05-03T08:52:44.264Z</time></trkpt><trkpt lat="42.7222516" lon="12.4262279"><ele>322.0</ele><time>2026-05-03T08:52:46.272Z</time></trkpt><trkpt lat="42.7222318" lon="12.4263254"><ele>322.0</ele><time>2026-05-03T08:52:47.261Z</time></trkpt><trkpt lat="42.722215" lon="12.4264605"><ele>322.0</ele><time>2026-05-03T08:52:48.269Z</time></trkpt><trkpt lat="42.7222234" lon="12.4266013"><ele>322.0</ele><time>2026-05-03T08:52:49.263Z</time></trkpt><trkpt lat="42.7222536" lon="12.4267076"><ele>322.0</ele><time>2026-05-03T08:52:50.273Z</time></trkpt><trkpt lat="42.7222899" lon="12.4267844"><ele>323.5</ele><time>2026-05-03T08:52:51.262Z</time></trkpt><trkpt lat="42.722344" lon="12.4268714"><ele>325.0</ele><time>2026-05-03T08:52:52.271Z</time></trkpt><trkpt lat="42.7224179" lon="12.4269479"><ele>326.5</ele><time>2026-05-03T08:52:53.273Z</time></trkpt><trkpt lat="42.7224867" lon="12.4269977"><ele>328.0</ele><time>2026-05-03T08:52:54.265Z</time></trkpt><trkpt lat="42.722544" lon="12.4270483"><ele>329.5</ele><time>2026-05-03T08:52:55.282Z</time></trkpt><trkpt lat="42.7226008" lon="12.4271478"><ele>331.0</ele><time>2026-05-03T08:52:57.266Z</time></trkpt><trkpt lat="42.722571" lon="12.4273101"><ele>332.6</ele><time>2026-05-03T08:52:59.284Z</time></trkpt><trkpt lat="42.7225234" lon="12.4274299"><ele>334.20000000000005</ele><time>2026-05-03T08:53:00.268Z</time></trkpt><trkpt lat="42.7224865" lon="12.4275478"><ele>335.79999999999995</ele><time>2026-05-03T08:53:01.264Z</time></trkpt><trkpt lat="42.7224627" lon="12.4276677"><ele>337.4</ele><time>2026-05-03T08:53:02.278Z</time></trkpt><trkpt lat="42.7224405" lon="12.4277883"><ele>339.0</ele><time>2026-05-03T08:53:03.279Z</time></trkpt><trkpt lat="42.7224263" lon="12.4279016"><ele>340.2</ele><time>2026-05-03T08:53:04.292Z</time></trkpt><trkpt lat="42.7224314" lon="12.4279903"><ele>341.4</ele><time>2026-05-03T08:53:05.266Z</time></trkpt><trkpt lat="42.7225061" lon="12.4281004"><ele>342.6</ele><time>2026-05-03T08:53:07.272Z</time></trkpt><trkpt lat="42.7226183" lon="12.4281312"><ele>343.8</ele><time>2026-05-03T08:53:09.27Z</time></trkpt><trkpt lat="42.7227445" lon="12.428118"><ele>345.0</ele><time>2026-05-03T08:53:11.266Z</time></trkpt><trkpt lat="42.7228392" lon="12.4282076"><ele>345.6</ele><time>2026-05-03T08:53:13.261Z</time></trkpt><trkpt lat="42.722876" lon="12.4282983"><ele>346.2</ele><time>2026-05-03T08:53:14.279Z</time></trkpt><trkpt lat="42.7229196" lon="12.4284139"><ele>346.79999999999995</ele><time>2026-05-03T08:53:15.268Z</time></trkpt><trkpt lat="42.7229553" lon="12.4285484"><ele>347.4</ele><time>2026-05-03T08:53:16.262Z</time></trkpt><trkpt lat="42.7229827" lon="12.428693"><ele>348.0</ele><time>2026-05-03T08:53:17.265Z</time></trkpt><trkpt lat="42.7230013" lon="12.42884"><ele>349.59999999999997</ele><time>2026-05-03T08:53:18.263Z</time></trkpt><trkpt lat="42.7230175" lon="12.4289848"><ele>351.2</ele><time>2026-05-03T08:53:19.253Z</time></trkpt><trkpt lat="42.7230325" lon="12.4291228"><ele>352.8</ele><time>2026-05-03T08:53:20.27Z</time></trkpt><trkpt lat="42.7230488" lon="12.4292521"><ele>354.4</ele><time>2026-05-03T08:53:21.262Z</time></trkpt><trkpt lat="42.7230665" lon="12.4293763"><ele>356.0</ele><time>2026-05-03T08:53:22.274Z</time></trkpt><trkpt lat="42.7230888" lon="12.4295059"><ele>357.20000000000005</ele><time>2026-05-03T08:53:23.264Z</time></trkpt><trkpt lat="42.7231102" lon="12.4296527"><ele>358.40000000000003</ele><time>2026-05-03T08:53:24.268Z</time></trkpt><trkpt lat="42.7231295" lon="12.4298001"><ele>359.6</ele><time>2026-05-03T08:53:25.274Z</time></trkpt><trkpt lat="42.7231513" lon="12.4299481"><ele>360.8</ele><time>2026-05-03T08:53:26.269Z</time></trkpt><trkpt lat="42.7231708" lon="12.4300874"><ele>362.0</ele><time>2026-05-03T08:53:27.267Z</time></trkpt><trkpt lat="42.7231911" lon="12.4302321"><ele>362.0</ele><time>2026-05-03T08:53:28.286Z</time></trkpt><trkpt lat="42.723213" lon="12.430374"><ele>362.0</ele><time>2026-05-03T08:53:29.265Z</time></trkpt><trkpt lat="42.7232344" lon="12.4305148"><ele>362.0</ele><time>2026-05-03T08:53:30.268Z</time></trkpt><trkpt lat="42.7232565" lon="12.4306501"><ele>362.0</ele><time>2026-05-03T08:53:31.285Z</time></trkpt><trkpt lat="42.7232762" lon="12.4307853"><ele>362.0</ele><time>2026-05-03T08:53:32.26Z</time></trkpt><trkpt lat="42.7233025" lon="12.4309206"><ele>362.8</ele><time>2026-05-03T08:53:33.272Z</time></trkpt><trkpt lat="42.7233285" lon="12.4310592"><ele>363.6</ele><time>2026-05-03T08:53:34.268Z</time></trkpt><trkpt lat="42.7233527" lon="12.4311915"><ele>364.40000000000003</ele><time>2026-05-03T08:53:35.266Z</time></trkpt><trkpt lat="42.7233709" lon="12.4313163"><ele>365.20000000000005</ele><time>2026-05-03T08:53:36.272Z</time></trkpt><trkpt lat="42.7233853" lon="12.4314271"><ele>366.0</ele><time>2026-05-03T08:53:37.258Z</time></trkpt><trkpt lat="42.7233938" lon="12.4315254"><ele>366.3333333333333</ele><time>2026-05-03T08:53:38.261Z</time></trkpt><trkpt lat="42.7234202" lon="12.4316723"><ele>366.6666666666667</ele><time>2026-05-03T08:53:40.256Z</time></trkpt><trkpt lat="42.7234153" lon="12.4317809"><ele>367.0</ele><time>2026-05-03T08:53:42.267Z</time></trkpt><trkpt lat="42.7234004" lon="12.431869"><ele>367.33333333333337</ele><time>2026-05-03T08:53:43.287Z</time></trkpt><trkpt lat="42.7233676" lon="12.4319706"><ele>367.6666666666667</ele><time>2026-05-03T08:53:44.273Z</time></trkpt><trkpt lat="42.7233136" lon="12.4320944"><ele>368.0</ele><time>2026-05-03T08:53:45.275Z</time></trkpt><trkpt lat="42.7232507" lon="12.4322302"><ele>368.25</ele><time>2026-05-03T08:53:46.271Z</time></trkpt><trkpt lat="42.7231879" lon="12.432376"><ele>368.5</ele><time>2026-05-03T08:53:47.262Z</time></trkpt><trkpt lat="42.7231247" lon="12.4325093"><ele>368.75</ele><time>2026-05-03T08:53:48.274Z</time></trkpt><trkpt lat="42.7230738" lon="12.4326439"><ele>369.0</ele><time>2026-05-03T08:53:49.275Z</time></trkpt><trkpt lat="42.7230224" lon="12.4327784"><ele>369.0</ele><time>2026-05-03T08:53:50.263Z</time></trkpt><trkpt lat="42.7229674" lon="12.4329224"><ele>369.0</ele><time>2026-05-03T08:53:51.281Z</time></trkpt><trkpt lat="42.7229177" lon="12.4331107"><ele>369.0</ele><time>2026-05-03T08:53:52.263Z</time></trkpt><trkpt lat="42.722852" lon="12.4333774"><ele>368.3333333333333</ele><time>2026-05-03T08:53:53.265Z</time></trkpt><trkpt lat="42.7227937" lon="12.4336695"><ele>367.66666666666663</ele><time>2026-05-03T08:53:54.267Z</time></trkpt><trkpt lat="42.7227584" lon="12.4339409"><ele>367.0</ele><time>2026-05-03T08:53:55.267Z</time></trkpt><trkpt lat="42.7227354" lon="12.4341918"><ele>369.0</ele><time>2026-05-03T08:53:56.285Z</time></trkpt><trkpt lat="42.7227117" lon="12.434424"><ele>371.0</ele><time>2026-05-03T08:53:57.28Z</time></trkpt><trkpt lat="42.7226911" lon="12.4346478"><ele>373.0</ele><time>2026-05-03T08:53:58.276Z</time></trkpt><trkpt lat="42.7226879" lon="12.4348572"><ele>373.0</ele><time>2026-05-03T08:53:59.275Z</time></trkpt><trkpt lat="42.7226903" lon="12.4350574"><ele>373.0</ele><time>2026-05-03T08:54:00.265Z</time></trkpt><trkpt lat="42.7226926" lon="12.4352579"><ele>373.0</ele><time>2026-05-03T08:54:01.263Z</time></trkpt><trkpt lat="42.7226972" lon="12.4354524"><ele>373.0</ele><time>2026-05-03T08:54:02.26Z</time></trkpt><trkpt lat="42.7227118" lon="12.4356464"><ele>370.66666666666663</ele><time>2026-05-03T08:54:03.277Z</time></trkpt><trkpt lat="42.7227494" lon="12.4358509"><ele>368.3333333333333</ele><time>2026-05-03T08:54:04.257Z</time></trkpt><trkpt lat="42.7228141" lon="12.436054"><ele>366.0</ele><time>2026-05-03T08:54:05.27Z</time></trkpt><trkpt lat="42.7228884" lon="12.4362545"><ele>367.5</ele><time>2026-05-03T08:54:06.27Z</time></trkpt><trkpt lat="42.722956" lon="12.4364229"><ele>369.0</ele><time>2026-05-03T08:54:07.264Z</time></trkpt><trkpt lat="42.7230052" lon="12.4365737"><ele>370.5</ele><time>2026-05-03T08:54:08.25Z</time></trkpt><trkpt lat="42.7230345" lon="12.4367244"><ele>372.0</ele><time>2026-05-03T08:54:09.278Z</time></trkpt><trkpt lat="42.7230463" lon="12.4368808"><ele>372.0</ele><time>2026-05-03T08:54:10.263Z</time></trkpt><trkpt lat="42.723029" lon="12.4370143"><ele>372.0</ele><time>2026-05-03T08:54:11.276Z</time></trkpt><trkpt lat="42.7229848" lon="12.4371502"><ele>372.0</ele><time>2026-05-03T08:54:12.262Z</time></trkpt><trkpt lat="42.7229245" lon="12.4372988"><ele>372.0</ele><time>2026-05-03T08:54:13.288Z</time></trkpt><trkpt lat="42.7228545" lon="12.4374612"><ele>373.0</ele><time>2026-05-03T08:54:14.275Z</time></trkpt><trkpt lat="42.7227654" lon="12.4376322"><ele>374.0</ele><time>2026-05-03T08:54:15.277Z</time></trkpt><trkpt lat="42.7226911" lon="12.4377961"><ele>375.0</ele><time>2026-05-03T08:54:16.268Z</time></trkpt><trkpt lat="42.7226329" lon="12.4379299"><ele>376.0</ele><time>2026-05-03T08:54:17.277Z</time></trkpt><trkpt lat="42.7225744" lon="12.4380476"><ele>377.66666666666663</ele><time>2026-05-03T08:54:18.263Z</time></trkpt><trkpt lat="42.7225194" lon="12.4381665"><ele>379.3333333333333</ele><time>2026-05-03T08:54:19.262Z</time></trkpt><trkpt lat="42.7224746" lon="12.4382731"><ele>381.0</ele><time>2026-05-03T08:54:20.266Z</time></trkpt><trkpt lat="42.7224402" lon="12.4383654"><ele>382.66666666666663</ele><time>2026-05-03T08:54:21.276Z</time></trkpt><trkpt lat="42.7224179" lon="12.4384524"><ele>384.3333333333333</ele><time>2026-05-03T08:54:22.268Z</time></trkpt><trkpt lat="42.7224043" lon="12.4385433"><ele>386.0</ele><time>2026-05-03T08:54:23.269Z</time></trkpt><trkpt lat="42.7224121" lon="12.4386516"><ele>386.0</ele><time>2026-05-03T08:54:24.277Z</time></trkpt><trkpt lat="42.722437" lon="12.43877"><ele>386.0</ele><time>2026-05-03T08:54:25.26Z</time></trkpt><trkpt lat="42.7224614" lon="12.438886"><ele>386.0</ele><time>2026-05-03T08:54:26.264Z</time></trkpt><trkpt lat="42.7224839" lon="12.4389988"><ele>386.0</ele><time>2026-05-03T08:54:27.278Z</time></trkpt><trkpt lat="42.7225056" lon="12.4391196"><ele>386.0</ele><time>2026-05-03T08:54:28.282Z</time></trkpt><trkpt lat="42.7225282" lon="12.4392514"><ele>386.4</ele><time>2026-05-03T08:54:29.265Z</time></trkpt><trkpt lat="42.7225493" lon="12.4393843"><ele>386.8</ele><time>2026-05-03T08:54:30.277Z</time></trkpt><trkpt lat="42.7225696" lon="12.4395289"><ele>387.2</ele><time>2026-05-03T08:54:31.275Z</time></trkpt><trkpt lat="42.7225815" lon="12.4396858"><ele>387.59999999999997</ele><time>2026-05-03T08:54:32.268Z</time></trkpt><trkpt lat="42.7225808" lon="12.4398464"><ele>388.0</ele><time>2026-05-03T08:54:33.269Z</time></trkpt><trkpt lat="42.7225713" lon="12.4400035"><ele>388.0</ele><time>2026-05-03T08:54:34.263Z</time></trkpt><trkpt lat="42.7225592" lon="12.4401604"><ele>388.0</ele><time>2026-05-03T08:54:35.276Z</time></trkpt><trkpt lat="42.722546" lon="12.4403055"><ele>388.0</ele><time>2026-05-03T08:54:36.287Z</time></trkpt><trkpt lat="42.7225277" lon="12.4404366"><ele>388.0</ele><time>2026-05-03T08:54:37.258Z</time></trkpt><trkpt lat="42.722497" lon="12.4405834"><ele>388.0</ele><time>2026-05-03T08:54:38.274Z</time></trkpt><trkpt lat="42.7224479" lon="12.4407407"><ele>386.0</ele><time>2026-05-03T08:54:39.264Z</time></trkpt><trkpt lat="42.7223906" lon="12.4409026"><ele>384.0</ele><time>2026-05-03T08:54:40.264Z</time></trkpt><trkpt lat="42.7223329" lon="12.441046"><ele>382.0</ele><time>2026-05-03T08:54:41.297Z</time></trkpt><trkpt lat="42.7222737" lon="12.441176"><ele>380.0</ele><time>2026-05-03T08:54:42.258Z</time></trkpt><trkpt lat="42.7222178" lon="12.441293"><ele>377.4</ele><time>2026-05-03T08:54:43.268Z</time></trkpt><trkpt lat="42.7221671" lon="12.4414052"><ele>374.8</ele><time>2026-05-03T08:54:44.263Z</time></trkpt><trkpt lat="42.7221216" lon="12.4415199"><ele>372.20000000000005</ele><time>2026-05-03T08:54:45.259Z</time></trkpt><trkpt lat="42.7220809" lon="12.4416584"><ele>369.6</ele><time>2026-05-03T08:54:46.267Z</time></trkpt><trkpt lat="42.7220566" lon="12.4418407"><ele>367.0</ele><time>2026-05-03T08:54:47.259Z</time></trkpt><trkpt lat="42.7220469" lon="12.4420301"><ele>364.0</ele><time>2026-05-03T08:54:48.28Z</time></trkpt><trkpt lat="42.7220397" lon="12.442212"><ele>361.0</ele><time>2026-05-03T08:54:49.253Z</time></trkpt><trkpt lat="42.7220366" lon="12.4423961"><ele>358.0</ele><time>2026-05-03T08:54:50.281Z</time></trkpt><trkpt lat="42.7220369" lon="12.4425664"><ele>355.0</ele><time>2026-05-03T08:54:51.261Z</time></trkpt><trkpt lat="42.7220372" lon="12.4427156"><ele>355.0</ele><time>2026-05-03T08:54:52.275Z</time></trkpt><trkpt lat="42.7220359" lon="12.4428339"><ele>355.0</ele><time>2026-05-03T08:54:53.257Z</time></trkpt><trkpt lat="42.7220278" lon="12.4429394"><ele>355.0</ele><time>2026-05-03T08:54:54.265Z</time></trkpt><trkpt lat="42.7219967" lon="12.4430456"><ele>355.0</ele><time>2026-05-03T08:54:55.268Z</time></trkpt><trkpt lat="42.7219399" lon="12.4431577"><ele>355.0</ele><time>2026-05-03T08:54:56.27Z</time></trkpt><trkpt lat="42.721871" lon="12.4432679"><ele>358.25</ele><time>2026-05-03T08:54:57.262Z</time></trkpt><trkpt lat="42.7217908" lon="12.4433754"><ele>361.5</ele><time>2026-05-03T08:54:58.258Z</time></trkpt><trkpt lat="42.7217112" lon="12.4434855"><ele>364.75</ele><time>2026-05-03T08:54:59.263Z</time></trkpt><trkpt lat="42.7216251" lon="12.4435945"><ele>368.0</ele><time>2026-05-03T08:55:00.257Z</time></trkpt><trkpt lat="42.7215482" lon="12.4436956"><ele>368.0</ele><time>2026-05-03T08:55:01.261Z</time></trkpt><trkpt lat="42.7214755" lon="12.4437938"><ele>368.0</ele><time>2026-05-03T08:55:02.279Z</time></trkpt><trkpt lat="42.7214119" lon="12.4438938"><ele>368.0</ele><time>2026-05-03T08:55:03.266Z</time></trkpt><trkpt lat="42.721362" lon="12.4440018"><ele>368.0</ele><time>2026-05-03T08:55:04.262Z</time></trkpt><trkpt lat="42.7213285" lon="12.4441272"><ele>368.0</ele><time>2026-05-03T08:55:05.257Z</time></trkpt><trkpt lat="42.7213079" lon="12.4442684"><ele>364.79999999999995</ele><time>2026-05-03T08:55:06.262Z</time></trkpt><trkpt lat="42.7212966" lon="12.4444135"><ele>361.6</ele><time>2026-05-03T08:55:07.267Z</time></trkpt><trkpt lat="42.7212866" lon="12.4445617"><ele>358.4</ele><time>2026-05-03T08:55:08.264Z</time></trkpt><trkpt lat="42.7212857" lon="12.4447058"><ele>355.20000000000005</ele><time>2026-05-03T08:55:09.261Z</time></trkpt><trkpt lat="42.7212904" lon="12.4448317"><ele>352.0</ele><time>2026-05-03T08:55:10.274Z</time></trkpt><trkpt lat="42.7212918" lon="12.4449564"><ele>350.3333333333333</ele><time>2026-05-03T08:55:11.272Z</time></trkpt><trkpt lat="42.7212901" lon="12.4450757"><ele>348.66666666666663</ele><time>2026-05-03T08:55:12.283Z</time></trkpt><trkpt lat="42.7212754" lon="12.4451903"><ele>347.0</ele><time>2026-05-03T08:55:13.263Z</time></trkpt><trkpt lat="42.7212489" lon="12.4452954"><ele>345.3333333333333</ele><time>2026-05-03T08:55:14.261Z</time></trkpt><trkpt lat="42.7212127" lon="12.4453989"><ele>343.6666666666667</ele><time>2026-05-03T08:55:15.274Z</time></trkpt><trkpt lat="42.7211656" lon="12.4455067"><ele>342.0</ele><time>2026-05-03T08:55:16.264Z</time></trkpt><trkpt lat="42.7211195" lon="12.4456176"><ele>343.20000000000005</ele><time>2026-05-03T08:55:17.272Z</time></trkpt><trkpt lat="42.7210631" lon="12.4457244"><ele>344.4</ele><time>2026-05-03T08:55:18.272Z</time></trkpt><trkpt lat="42.7210003" lon="12.4458237"><ele>345.6</ele><time>2026-05-03T08:55:19.256Z</time></trkpt><trkpt lat="42.7209261" lon="12.4459221"><ele>346.79999999999995</ele><time>2026-05-03T08:55:20.264Z</time></trkpt><trkpt lat="42.7208537" lon="12.4460195"><ele>348.0</ele><time>2026-05-03T08:55:21.259Z</time></trkpt><trkpt lat="42.720777" lon="12.4461144"><ele>348.0</ele><time>2026-05-03T08:55:22.28Z</time></trkpt><trkpt lat="42.7206978" lon="12.4462055"><ele>348.0</ele><time>2026-05-03T08:55:23.278Z</time></trkpt><trkpt lat="42.7206184" lon="12.4462912"><ele>348.0</ele><time>2026-05-03T08:55:24.268Z</time></trkpt><trkpt lat="42.7205427" lon="12.446377"><ele>348.0</ele><time>2026-05-03T08:55:25.258Z</time></trkpt><trkpt lat="42.720469" lon="12.4464585"><ele>348.0</ele><time>2026-05-03T08:55:26.254Z</time></trkpt><trkpt lat="42.720395" lon="12.4465375"><ele>347.1666666666667</ele><time>2026-05-03T08:55:27.268Z</time></trkpt><trkpt lat="42.7203277" lon="12.4466111"><ele>346.3333333333333</ele><time>2026-05-03T08:55:28.269Z</time></trkpt><trkpt lat="42.7202615" lon="12.4466967"><ele>345.5</ele><time>2026-05-03T08:55:29.281Z</time></trkpt><trkpt lat="42.7202094" lon="12.4467887"><ele>344.66666666666663</ele><time>2026-05-03T08:55:30.269Z</time></trkpt><trkpt lat="42.7201668" lon="12.4468762"><ele>343.8333333333333</ele><time>2026-05-03T08:55:31.261Z</time></trkpt><trkpt lat="42.7201271" lon="12.4469563"><ele>343.0</ele><time>2026-05-03T08:55:32.262Z</time></trkpt><trkpt lat="42.7200898" lon="12.4470397"><ele>341.57142857142856</ele><time>2026-05-03T08:55:33.278Z</time></trkpt><trkpt lat="42.7200686" lon="12.4471293"><ele>340.1428571428571</ele><time>2026-05-03T08:55:34.265Z</time></trkpt><trkpt lat="42.7200656" lon="12.4472241"><ele>338.7142857142857</ele><time>2026-05-03T08:55:35.265Z</time></trkpt><trkpt lat="42.7200736" lon="12.447322"><ele>337.2857142857143</ele><time>2026-05-03T08:55:36.27Z</time></trkpt><trkpt lat="42.7200865" lon="12.4474273"><ele>335.85714285714283</ele><time>2026-05-03T08:55:37.261Z</time></trkpt><trkpt lat="42.7200893" lon="12.4475289"><ele>334.42857142857144</ele><time>2026-05-03T08:55:38.264Z</time></trkpt><trkpt lat="42.7200749" lon="12.4476276"><ele>333.0</ele><time>2026-05-03T08:55:39.276Z</time></trkpt><trkpt lat="42.7200474" lon="12.4477206"><ele>333.0</ele><time>2026-05-03T08:55:40.264Z</time></trkpt><trkpt lat="42.7200015" lon="12.4478164"><ele>333.0</ele><time>2026-05-03T08:55:41.261Z</time></trkpt><trkpt lat="42.7199317" lon="12.4479014"><ele>333.0</ele><time>2026-05-03T08:55:42.257Z</time></trkpt><trkpt lat="42.7198565" lon="12.4479888"><ele>333.0</ele><time>2026-05-03T08:55:43.265Z</time></trkpt><trkpt lat="42.7197886" lon="12.4480662"><ele>333.0</ele><time>2026-05-03T08:55:44.261Z</time></trkpt><trkpt lat="42.7197236" lon="12.4481568"><ele>332.0</ele><time>2026-05-03T08:55:45.257Z</time></trkpt><trkpt lat="42.7196558" lon="12.4482506"><ele>331.0</ele><time>2026-05-03T08:55:46.257Z</time></trkpt><trkpt lat="42.7195905" lon="12.4483427"><ele>330.0</ele><time>2026-05-03T08:55:47.259Z</time></trkpt><trkpt lat="42.7195294" lon="12.4484324"><ele>329.0</ele><time>2026-05-03T08:55:48.254Z</time></trkpt><trkpt lat="42.7194525" lon="12.4485236"><ele>328.0</ele><time>2026-05-03T08:55:49.259Z</time></trkpt><trkpt lat="42.7193642" lon="12.448611"><ele>328.0</ele><time>2026-05-03T08:55:50.279Z</time></trkpt><trkpt lat="42.7192776" lon="12.4486959"><ele>328.0</ele><time>2026-05-03T08:55:51.263Z</time></trkpt><trkpt lat="42.7191979" lon="12.4487821"><ele>328.0</ele><time>2026-05-03T08:55:52.274Z</time></trkpt><trkpt lat="42.7191174" lon="12.4488561"><ele>328.0</ele><time>2026-05-03T08:55:53.262Z</time></trkpt><trkpt lat="42.7190414" lon="12.4489203"><ele>328.0</ele><time>2026-05-03T08:55:54.278Z</time></trkpt><trkpt lat="42.7189663" lon="12.4489765"><ele>325.3333333333333</ele><time>2026-05-03T08:55:55.266Z</time></trkpt><trkpt lat="42.71888" lon="12.4490208"><ele>322.66666666666663</ele><time>2026-05-03T08:55:56.26Z</time></trkpt><trkpt lat="42.7187885" lon="12.4490562"><ele>320.0</ele><time>2026-05-03T08:55:57.263Z</time></trkpt><trkpt lat="42.7187038" lon="12.4490903"><ele>317.3333333333333</ele><time>2026-05-03T08:55:58.259Z</time></trkpt><trkpt lat="42.71862" lon="12.4491267"><ele>314.6666666666667</ele><time>2026-05-03T08:55:59.265Z</time></trkpt><trkpt lat="42.7185433" lon="12.4491616"><ele>312.0</ele><time>2026-05-03T08:56:00.273Z</time></trkpt><trkpt lat="42.718473" lon="12.4491854"><ele>312.0</ele><time>2026-05-03T08:56:01.269Z</time></trkpt><trkpt lat="42.7183977" lon="12.4491805"><ele>312.0</ele><time>2026-05-03T08:56:02.267Z</time></trkpt><trkpt lat="42.7183132" lon="12.4491442"><ele>312.0</ele><time>2026-05-03T08:56:03.254Z</time></trkpt><trkpt lat="42.7182437" lon="12.4491012"><ele>312.0</ele><time>2026-05-03T08:56:04.276Z</time></trkpt><trkpt lat="42.7181382" lon="12.4490643"><ele>312.0</ele><time>2026-05-03T08:56:06.269Z</time></trkpt><trkpt lat="42.7180837" lon="12.4491428"><ele>312.0</ele><time>2026-05-03T08:56:08.27Z</time></trkpt><trkpt lat="42.7180857" lon="12.4492367"><ele>312.0</ele><time>2026-05-03T08:56:09.271Z</time></trkpt><trkpt lat="42.7181048" lon="12.44935"><ele>312.0</ele><time>2026-05-03T08:56:10.259Z</time></trkpt><trkpt lat="42.7181338" lon="12.4494753"><ele>312.0</ele><time>2026-05-03T08:56:11.274Z</time></trkpt><trkpt lat="42.7181677" lon="12.4495806"><ele>312.0</ele><time>2026-05-03T08:56:12.264Z</time></trkpt><trkpt lat="42.7182131" lon="12.4496593"><ele>312.0</ele><time>2026-05-03T08:56:13.281Z</time></trkpt><trkpt lat="42.7182744" lon="12.4497064"><ele>312.0</ele><time>2026-05-03T08:56:14.258Z</time></trkpt><trkpt lat="42.7183481" lon="12.4497442"><ele>309.0</ele><time>2026-05-03T08:56:15.274Z</time></trkpt><trkpt lat="42.7184322" lon="12.4497423"><ele>306.0</ele><time>2026-05-03T08:56:16.27Z</time></trkpt><trkpt lat="42.7185176" lon="12.449727"><ele>303.0</ele><time>2026-05-03T08:56:17.274Z</time></trkpt><trkpt lat="42.7186028" lon="12.4497302"><ele>300.0</ele><time>2026-05-03T08:56:18.264Z</time></trkpt><trkpt lat="42.7186837" lon="12.4497626"><ele>297.0</ele><time>2026-05-03T08:56:19.26Z</time></trkpt><trkpt lat="42.7187483" lon="12.4498262"><ele>294.0</ele><time>2026-05-03T08:56:20.285Z</time></trkpt><trkpt lat="42.7188025" lon="12.4499212"><ele>294.0</ele><time>2026-05-03T08:56:21.264Z</time></trkpt><trkpt lat="42.718861" lon="12.4500416"><ele>294.0</ele><time>2026-05-03T08:56:22.261Z</time></trkpt><trkpt lat="42.7189097" lon="12.4501641"><ele>294.0</ele><time>2026-05-03T08:56:23.273Z</time></trkpt><trkpt lat="42.7189512" lon="12.4502841"><ele>294.0</ele><time>2026-05-03T08:56:24.276Z</time></trkpt><trkpt lat="42.7189939" lon="12.4504112"><ele>294.0</ele><time>2026-05-03T08:56:25.27Z</time></trkpt><trkpt lat="42.719092" lon="12.4507018"><ele>292.4</ele><time>2026-05-03T08:56:27.273Z</time></trkpt><trkpt lat="42.7191361" lon="12.4508462"><ele>290.79999999999995</ele><time>2026-05-03T08:56:28.273Z</time></trkpt><trkpt lat="42.719174" lon="12.4509939"><ele>289.20000000000005</ele><time>2026-05-03T08:56:29.276Z</time></trkpt><trkpt lat="42.7192031" lon="12.4511357"><ele>287.6</ele><time>2026-05-03T08:56:30.271Z</time></trkpt><trkpt lat="42.7192325" lon="12.4512568"><ele>286.0</ele><time>2026-05-03T08:56:31.281Z</time></trkpt><trkpt lat="42.7192727" lon="12.451354"><ele>285.40000000000003</ele><time>2026-05-03T08:56:32.272Z</time></trkpt><trkpt lat="42.7193159" lon="12.4514482"><ele>284.8</ele><time>2026-05-03T08:56:33.272Z</time></trkpt><trkpt lat="42.7193644" lon="12.4515425"><ele>284.20000000000005</ele><time>2026-05-03T08:56:34.264Z</time></trkpt><trkpt lat="42.719424" lon="12.4516431"><ele>283.6</ele><time>2026-05-03T08:56:35.265Z</time></trkpt><trkpt lat="42.7195054" lon="12.4517488"><ele>283.0</ele><time>2026-05-03T08:56:36.272Z</time></trkpt><trkpt lat="42.7195871" lon="12.4518534"><ele>280.25</ele><time>2026-05-03T08:56:37.256Z</time></trkpt><trkpt lat="42.7196779" lon="12.4519594"><ele>277.5</ele><time>2026-05-03T08:56:38.257Z</time></trkpt><trkpt lat="42.7197588" lon="12.4520632"><ele>274.75</ele><time>2026-05-03T08:56:39.255Z</time></trkpt><trkpt lat="42.7198368" lon="12.4521763"><ele>272.0</ele><time>2026-05-03T08:56:40.262Z</time></trkpt><trkpt lat="42.719908" lon="12.4522949"><ele>271.6</ele><time>2026-05-03T08:56:41.27Z</time></trkpt><trkpt lat="42.7199733" lon="12.452411"><ele>271.2</ele><time>2026-05-03T08:56:42.275Z</time></trkpt><trkpt lat="42.7200345" lon="12.4525371"><ele>270.8</ele><time>2026-05-03T08:56:43.269Z</time></trkpt><trkpt lat="42.720087" lon="12.4526695"><ele>270.4</ele><time>2026-05-03T08:56:44.271Z</time></trkpt><trkpt lat="42.7201271" lon="12.4528109"><ele>270.0</ele><time>2026-05-03T08:56:45.288Z</time></trkpt><trkpt lat="42.7201591" lon="12.4529468"><ele>268.6</ele><time>2026-05-03T08:56:46.277Z</time></trkpt><trkpt lat="42.7201765" lon="12.4530823"><ele>267.2</ele><time>2026-05-03T08:56:47.265Z</time></trkpt><trkpt lat="42.7201774" lon="12.4532295"><ele>265.8</ele><time>2026-05-03T08:56:48.264Z</time></trkpt><trkpt lat="42.7201683" lon="12.4533687"><ele>264.4</ele><time>2026-05-03T08:56:49.273Z</time></trkpt><trkpt lat="42.7201469" lon="12.4535102"><ele>263.0</ele><time>2026-05-03T08:56:50.291Z</time></trkpt><trkpt lat="42.7201228" lon="12.4536457"><ele>263.0</ele><time>2026-05-03T08:56:51.274Z</time></trkpt><trkpt lat="42.7201192" lon="12.4537806"><ele>263.0</ele><time>2026-05-03T08:56:52.27Z</time></trkpt><trkpt lat="42.7201336" lon="12.453911"><ele>263.0</ele><time>2026-05-03T08:56:53.268Z</time></trkpt><trkpt lat="42.7201526" lon="12.4540404"><ele>263.0</ele><time>2026-05-03T08:56:54.276Z</time></trkpt><trkpt lat="42.7201797" lon="12.454164"><ele>263.0</ele><time>2026-05-03T08:56:55.278Z</time></trkpt><trkpt lat="42.7202187" lon="12.4542938"><ele>260.2</ele><time>2026-05-03T08:56:56.26Z</time></trkpt><trkpt lat="42.7202691" lon="12.4544265"><ele>257.4</ele><time>2026-05-03T08:56:57.26Z</time></trkpt><trkpt lat="42.7203324" lon="12.4545591"><ele>254.59999999999997</ele><time>2026-05-03T08:56:58.285Z</time></trkpt><trkpt lat="42.7203958" lon="12.4546717"><ele>251.79999999999998</ele><time>2026-05-03T08:56:59.267Z</time></trkpt><trkpt lat="42.7204597" lon="12.454774"><ele>249.0</ele><time>2026-05-03T08:57:00.279Z</time></trkpt><trkpt lat="42.7205213" lon="12.4548692"><ele>248.39999999999998</ele><time>2026-05-03T08:57:01.274Z</time></trkpt><trkpt lat="42.7205859" lon="12.4549573"><ele>247.79999999999998</ele><time>2026-05-03T08:57:02.26Z</time></trkpt><trkpt lat="42.7206574" lon="12.4550267"><ele>247.20000000000002</ele><time>2026-05-03T08:57:03.267Z</time></trkpt><trkpt lat="42.7207365" lon="12.4550934"><ele>246.60000000000002</ele><time>2026-05-03T08:57:04.262Z</time></trkpt><trkpt lat="42.7208281" lon="12.4551469"><ele>246.0</ele><time>2026-05-03T08:57:05.26Z</time></trkpt><trkpt lat="42.7209178" lon="12.4551867"><ele>246.0</ele><time>2026-05-03T08:57:06.253Z</time></trkpt><trkpt lat="42.7210114" lon="12.4552199"><ele>246.0</ele><time>2026-05-03T08:57:07.257Z</time></trkpt><trkpt lat="42.72112" lon="12.4552562"><ele>246.0</ele><time>2026-05-03T08:57:08.266Z</time></trkpt><trkpt lat="42.7212544" lon="12.4553183"><ele>246.0</ele><time>2026-05-03T08:57:09.267Z</time></trkpt><trkpt lat="42.7214046" lon="12.4553976"><ele>243.75</ele><time>2026-05-03T08:57:10.261Z</time></trkpt><trkpt lat="42.7215562" lon="12.455475"><ele>241.5</ele><time>2026-05-03T08:57:11.273Z</time></trkpt><trkpt lat="42.7216953" lon="12.4555439"><ele>239.25</ele><time>2026-05-03T08:57:12.27Z</time></trkpt><trkpt lat="42.721819" lon="12.4556121"><ele>237.0</ele><time>2026-05-03T08:57:13.266Z</time></trkpt><trkpt lat="42.7219198" lon="12.4556717"><ele>236.0</ele><time>2026-05-03T08:57:14.277Z</time></trkpt><trkpt lat="42.722013" lon="12.4557184"><ele>235.0</ele><time>2026-05-03T08:57:15.262Z</time></trkpt><trkpt lat="42.7221048" lon="12.4557594"><ele>234.0</ele><time>2026-05-03T08:57:16.279Z</time></trkpt><trkpt lat="42.7221972" lon="12.455783"><ele>233.0</ele><time>2026-05-03T08:57:17.273Z</time></trkpt><trkpt lat="42.7223014" lon="12.4557925"><ele>232.0</ele><time>2026-05-03T08:57:18.273Z</time></trkpt><trkpt lat="42.7224129" lon="12.4557977"><ele>232.0</ele><time>2026-05-03T08:57:19.27Z</time></trkpt><trkpt lat="42.7225272" lon="12.4558064"><ele>232.0</ele><time>2026-05-03T08:57:20.257Z</time></trkpt><trkpt lat="42.7226351" lon="12.4558261"><ele>232.0</ele><time>2026-05-03T08:57:21.285Z</time></trkpt><trkpt lat="42.7227391" lon="12.4558617"><ele>232.0</ele><time>2026-05-03T08:57:22.272Z</time></trkpt><trkpt lat="42.7228367" lon="12.4559123"><ele>232.0</ele><time>2026-05-03T08:57:23.272Z</time></trkpt><trkpt lat="42.722932" lon="12.4559799"><ele>228.75</ele><time>2026-05-03T08:57:24.262Z</time></trkpt><trkpt lat="42.7230349" lon="12.4560588"><ele>225.5</ele><time>2026-05-03T08:57:25.276Z</time></trkpt><trkpt lat="42.7231424" lon="12.4561489"><ele>222.25</ele><time>2026-05-03T08:57:26.272Z</time></trkpt><trkpt lat="42.723259" lon="12.4562489"><ele>219.0</ele><time>2026-05-03T08:57:27.268Z</time></trkpt><trkpt lat="42.7233779" lon="12.4563628"><ele>219.0</ele><time>2026-05-03T08:57:28.269Z</time></trkpt><trkpt lat="42.7234998" lon="12.4564757"><ele>219.0</ele><time>2026-05-03T08:57:29.275Z</time></trkpt><trkpt lat="42.7236313" lon="12.4565847"><ele>219.0</ele><time>2026-05-03T08:57:30.261Z</time></trkpt><trkpt lat="42.7237839" lon="12.4566982"><ele>215.33333333333331</ele><time>2026-05-03T08:57:31.272Z</time></trkpt><trkpt lat="42.7239455" lon="12.4568022"><ele>211.66666666666666</ele><time>2026-05-03T08:57:32.276Z</time></trkpt><trkpt lat="42.724103" lon="12.4568905"><ele>208.0</ele><time>2026-05-03T08:57:33.273Z</time></trkpt><trkpt lat="42.7242529" lon="12.456978"><ele>206.66666666666666</ele><time>2026-05-03T08:57:34.261Z</time></trkpt><trkpt lat="42.7244004" lon="12.4570651"><ele>205.33333333333331</ele><time>2026-05-03T08:57:35.261Z</time></trkpt><trkpt lat="42.7245481" lon="12.4571551"><ele>204.0</ele><time>2026-05-03T08:57:36.269Z</time></trkpt><trkpt lat="42.7246947" lon="12.4572407"><ele>204.0</ele><time>2026-05-03T08:57:37.267Z</time></trkpt><trkpt lat="42.7248287" lon="12.4573121"><ele>204.0</ele><time>2026-05-03T08:57:38.275Z</time></trkpt><trkpt lat="42.7249519" lon="12.4573832"><ele>204.0</ele><time>2026-05-03T08:57:39.272Z</time></trkpt><trkpt lat="42.7250754" lon="12.4574561"><ele>204.0</ele><time>2026-05-03T08:57:40.264Z</time></trkpt><trkpt lat="42.7251935" lon="12.4575279"><ele>202.5</ele><time>2026-05-03T08:57:41.271Z</time></trkpt><trkpt lat="42.725314" lon="12.4575882"><ele>201.0</ele><time>2026-05-03T08:57:42.262Z</time></trkpt><trkpt lat="42.7254292" lon="12.4576393"><ele>199.5</ele><time>2026-05-03T08:57:43.269Z</time></trkpt><trkpt lat="42.7255367" lon="12.4576892"><ele>198.0</ele><time>2026-05-03T08:57:44.256Z</time></trkpt><trkpt lat="42.7256277" lon="12.4577309"><ele>198.0</ele><time>2026-05-03T08:57:45.27Z</time></trkpt><trkpt lat="42.7257057" lon="12.4577748"><ele>198.0</ele><time>2026-05-03T08:57:46.26Z</time></trkpt><trkpt lat="42.7257588" lon="12.4578371"><ele>198.0</ele><time>2026-05-03T08:57:47.267Z</time></trkpt><trkpt lat="42.7257916" lon="12.4579178"><ele>198.0</ele><time>2026-05-03T08:57:48.259Z</time></trkpt><trkpt lat="42.7257997" lon="12.4580133"><ele>198.0</ele><time>2026-05-03T08:57:49.268Z</time></trkpt><trkpt lat="42.7257868" lon="12.4581271"><ele>198.0</ele><time>2026-05-03T08:57:50.281Z</time></trkpt><trkpt lat="42.7257512" lon="12.4582736"><ele>195.66666666666666</ele><time>2026-05-03T08:57:51.277Z</time></trkpt><trkpt lat="42.7257054" lon="12.4584422"><ele>193.33333333333331</ele><time>2026-05-03T08:57:52.277Z</time></trkpt><trkpt lat="42.7256419" lon="12.4586458"><ele>191.0</ele><time>2026-05-03T08:57:53.261Z</time></trkpt><trkpt lat="42.7255701" lon="12.4588713"><ele>191.0</ele><time>2026-05-03T08:57:54.272Z</time></trkpt><trkpt lat="42.7254966" lon="12.4591402"><ele>191.0</ele><time>2026-05-03T08:57:55.268Z</time></trkpt><trkpt lat="42.7254044" lon="12.4594378"><ele>191.0</ele><time>2026-05-03T08:57:56.272Z</time></trkpt><trkpt lat="42.7253169" lon="12.4597206"><ele>191.0</ele><time>2026-05-03T08:57:57.286Z</time></trkpt><trkpt lat="42.725241" lon="12.4599568"><ele>191.0</ele><time>2026-05-03T08:57:58.278Z</time></trkpt><trkpt lat="42.7251758" lon="12.4601623"><ele>191.0</ele><time>2026-05-03T08:57:59.266Z</time></trkpt><trkpt lat="42.7251211" lon="12.4603419"><ele>192.0</ele><time>2026-05-03T08:58:00.269Z</time></trkpt><trkpt lat="42.7250696" lon="12.4605165"><ele>193.0</ele><time>2026-05-03T08:58:01.273Z</time></trkpt><trkpt lat="42.7250091" lon="12.4606726"><ele>194.0</ele><time>2026-05-03T08:58:02.275Z</time></trkpt><trkpt lat="42.7249504" lon="12.4607885"><ele>195.0</ele><time>2026-05-03T08:58:03.301Z</time></trkpt><trkpt lat="42.7248093" lon="12.4609562"><ele>195.0</ele><time>2026-05-03T08:58:05.307Z</time></trkpt><trkpt lat="42.7247079" lon="12.4610294"><ele>195.0</ele><time>2026-05-03T08:58:06.276Z</time></trkpt><trkpt lat="42.7246137" lon="12.4610939"><ele>195.0</ele><time>2026-05-03T08:58:07.257Z</time></trkpt><trkpt lat="42.724533" lon="12.4611786"><ele>195.0</ele><time>2026-05-03T08:58:08.271Z</time></trkpt><trkpt lat="42.7244696" lon="12.4612763"><ele>195.0</ele><time>2026-05-03T08:58:09.271Z</time></trkpt><trkpt lat="42.7244193" lon="12.4614035"><ele>197.66666666666669</ele><time>2026-05-03T08:58:10.265Z</time></trkpt><trkpt lat="42.7243629" lon="12.4615838"><ele>200.33333333333334</ele><time>2026-05-03T08:58:11.261Z</time></trkpt><trkpt lat="42.7243259" lon="12.4618048"><ele>203.0</ele><time>2026-05-03T08:58:12.264Z</time></trkpt><trkpt lat="42.7242964" lon="12.4620413"><ele>201.33333333333334</ele><time>2026-05-03T08:58:13.267Z</time></trkpt><trkpt lat="42.7242507" lon="12.4623213"><ele>199.66666666666669</ele><time>2026-05-03T08:58:14.258Z</time></trkpt><trkpt lat="42.7241842" lon="12.4626092"><ele>198.0</ele><time>2026-05-03T08:58:15.276Z</time></trkpt><trkpt lat="42.72413" lon="12.4628714"><ele>197.33333333333331</ele><time>2026-05-03T08:58:16.258Z</time></trkpt><trkpt lat="42.7240857" lon="12.4631128"><ele>196.66666666666666</ele><time>2026-05-03T08:58:17.262Z</time></trkpt><trkpt lat="42.7240351" lon="12.4633485"><ele>196.0</ele><time>2026-05-03T08:58:18.284Z</time></trkpt><trkpt lat="42.7239812" lon="12.4635904"><ele>194.66666666666666</ele><time>2026-05-03T08:58:19.268Z</time></trkpt><trkpt lat="42.7239288" lon="12.4638346"><ele>193.33333333333331</ele><time>2026-05-03T08:58:20.279Z</time></trkpt><trkpt lat="42.7238726" lon="12.4640845"><ele>192.0</ele><time>2026-05-03T08:58:21.269Z</time></trkpt><trkpt lat="42.7238131" lon="12.464341"><ele>192.0</ele><time>2026-05-03T08:58:22.27Z</time></trkpt><trkpt lat="42.7237539" lon="12.4646"><ele>192.0</ele><time>2026-05-03T08:58:23.262Z</time></trkpt><trkpt lat="42.7236893" lon="12.464864"><ele>192.0</ele><time>2026-05-03T08:58:24.268Z</time></trkpt><trkpt lat="42.723628" lon="12.4651316"><ele>192.0</ele><time>2026-05-03T08:58:25.286Z</time></trkpt><trkpt lat="42.7235706" lon="12.4653827"><ele>192.0</ele><time>2026-05-03T08:58:26.272Z</time></trkpt><trkpt lat="42.7235162" lon="12.4656366"><ele>192.0</ele><time>2026-05-03T08:58:27.274Z</time></trkpt><trkpt lat="42.7234563" lon="12.4658966"><ele>192.0</ele><time>2026-05-03T08:58:28.263Z</time></trkpt><trkpt lat="42.7233915" lon="12.4661689"><ele>192.0</ele><time>2026-05-03T08:58:29.268Z</time></trkpt><trkpt lat="42.7233311" lon="12.4664274"><ele>192.0</ele><time>2026-05-03T08:58:30.269Z</time></trkpt><trkpt lat="42.7232766" lon="12.4666553"><ele>191.75</ele><time>2026-05-03T08:58:31.26Z</time></trkpt><trkpt lat="42.7232258" lon="12.4668591"><ele>191.5</ele><time>2026-05-03T08:58:32.281Z</time></trkpt><trkpt lat="42.7231795" lon="12.4670443"><ele>191.25</ele><time>2026-05-03T08:58:33.292Z</time></trkpt><trkpt lat="42.7231356" lon="12.4672058"><ele>191.0</ele><time>2026-05-03T08:58:34.264Z</time></trkpt><trkpt lat="42.7231011" lon="12.4673453"><ele>191.0</ele><time>2026-05-03T08:58:35.27Z</time></trkpt><trkpt lat="42.7230737" lon="12.4674762"><ele>191.0</ele><time>2026-05-03T08:58:36.254Z</time></trkpt><trkpt lat="42.7230774" lon="12.4676169"><ele>191.0</ele><time>2026-05-03T08:58:37.292Z</time></trkpt><trkpt lat="42.7230964" lon="12.467785"><ele>191.0</ele><time>2026-05-03T08:58:38.272Z</time></trkpt><trkpt lat="42.7231314" lon="12.4679818"><ele>191.0</ele><time>2026-05-03T08:58:39.263Z</time></trkpt><trkpt lat="42.7231841" lon="12.4682128"><ele>191.0</ele><time>2026-05-03T08:58:40.269Z</time></trkpt><trkpt lat="42.7232427" lon="12.4684614"><ele>191.0</ele><time>2026-05-03T08:58:41.271Z</time></trkpt><trkpt lat="42.7233021" lon="12.468702"><ele>191.33333333333331</ele><time>2026-05-03T08:58:42.272Z</time></trkpt><trkpt lat="42.7233597" lon="12.468947"><ele>191.66666666666666</ele><time>2026-05-03T08:58:43.269Z</time></trkpt><trkpt lat="42.7234219" lon="12.4692043"><ele>192.0</ele><time>2026-05-03T08:58:44.274Z</time></trkpt><trkpt lat="42.7234882" lon="12.4694693"><ele>192.0</ele><time>2026-05-03T08:58:45.268Z</time></trkpt><trkpt lat="42.7235543" lon="12.4697434"><ele>192.0</ele><time>2026-05-03T08:58:46.28Z</time></trkpt><trkpt lat="42.7236175" lon="12.4700196"><ele>192.0</ele><time>2026-05-03T08:58:47.271Z</time></trkpt><trkpt lat="42.7236785" lon="12.4703055"><ele>191.0</ele><time>2026-05-03T08:58:48.272Z</time></trkpt><trkpt lat="42.7237402" lon="12.4705845"><ele>190.0</ele><time>2026-05-03T08:58:49.269Z</time></trkpt><trkpt lat="42.7237961" lon="12.4708431"><ele>189.0</ele><time>2026-05-03T08:58:50.266Z</time></trkpt><trkpt lat="42.7238544" lon="12.4710974"><ele>189.0</ele><time>2026-05-03T08:58:51.271Z</time></trkpt><trkpt lat="42.7239081" lon="12.4713432"><ele>189.0</ele><time>2026-05-03T08:58:52.257Z</time></trkpt><trkpt lat="42.7239607" lon="12.4715689"><ele>189.0</ele><time>2026-05-03T08:58:53.263Z</time></trkpt><trkpt lat="42.7240063" lon="12.4717753"><ele>189.0</ele><time>2026-05-03T08:58:54.295Z</time></trkpt><trkpt lat="42.724049" lon="12.4719703"><ele>189.0</ele><time>2026-05-03T08:58:55.264Z</time></trkpt><trkpt lat="42.7240892" lon="12.4721609"><ele>189.0</ele><time>2026-05-03T08:58:56.274Z</time></trkpt><trkpt lat="42.7241283" lon="12.4723423"><ele>189.0</ele><time>2026-05-03T08:58:57.273Z</time></trkpt><trkpt lat="42.7241657" lon="12.4725133"><ele>189.25</ele><time>2026-05-03T08:58:58.264Z</time></trkpt><trkpt lat="42.724204" lon="12.472677"><ele>189.5</ele><time>2026-05-03T08:58:59.258Z</time></trkpt><trkpt lat="42.7242435" lon="12.4728405"><ele>189.75</ele><time>2026-05-03T08:59:00.285Z</time></trkpt><trkpt lat="42.7242731" lon="12.4729898"><ele>190.0</ele><time>2026-05-03T08:59:01.272Z</time></trkpt><trkpt lat="42.7243011" lon="12.4731213"><ele>190.0</ele><time>2026-05-03T08:59:02.3Z</time></trkpt><trkpt lat="42.7243212" lon="12.473228"><ele>190.0</ele><time>2026-05-03T08:59:03.265Z</time></trkpt><trkpt lat="42.7243335" lon="12.4733187"><ele>190.0</ele><time>2026-05-03T08:59:04.276Z</time></trkpt><trkpt lat="42.7243592" lon="12.4734702"><ele>190.0</ele><time>2026-05-03T08:59:06.278Z</time></trkpt><trkpt lat="42.7244298" lon="12.4735551"><ele>190.0</ele><time>2026-05-03T08:59:08.26Z</time></trkpt><trkpt lat="42.7245355" lon="12.4735175"><ele>190.75</ele><time>2026-05-03T08:59:10.264Z</time></trkpt><trkpt lat="42.7245884" lon="12.4734249"><ele>191.5</ele><time>2026-05-03T08:59:11.267Z</time></trkpt><trkpt lat="42.7246349" lon="12.4732939"><ele>192.25</ele><time>2026-05-03T08:59:12.283Z</time></trkpt><trkpt lat="42.7246836" lon="12.4731369"><ele>193.0</ele><time>2026-05-03T08:59:13.274Z</time></trkpt><trkpt lat="42.7247449" lon="12.4729561"><ele>193.0</ele><time>2026-05-03T08:59:14.278Z</time></trkpt><trkpt lat="42.7248084" lon="12.4727576"><ele>193.0</ele><time>2026-05-03T08:59:15.281Z</time></trkpt><trkpt lat="42.7248719" lon="12.4725591"><ele>193.0</ele><time>2026-05-03T08:59:16.272Z</time></trkpt><trkpt lat="42.7249368" lon="12.4723733"><ele>193.0</ele><time>2026-05-03T08:59:17.26Z</time></trkpt><trkpt lat="42.7249949" lon="12.4722003"><ele>193.0</ele><time>2026-05-03T08:59:18.282Z</time></trkpt><trkpt lat="42.7250472" lon="12.4720433"><ele>193.0</ele><time>2026-05-03T08:59:19.263Z</time></trkpt><trkpt lat="42.725097" lon="12.4718874"><ele>193.0</ele><time>2026-05-03T08:59:20.267Z</time></trkpt><trkpt lat="42.7251547" lon="12.4717371"><ele>193.0</ele><time>2026-05-03T08:59:21.267Z</time></trkpt><trkpt lat="42.7252226" lon="12.4716041"><ele>193.0</ele><time>2026-05-03T08:59:22.263Z</time></trkpt><trkpt lat="42.7252929" lon="12.4714936"><ele>193.0</ele><time>2026-05-03T08:59:23.277Z</time></trkpt><trkpt lat="42.7253655" lon="12.4714169"><ele>193.0</ele><time>2026-05-03T08:59:24.257Z</time></trkpt><trkpt lat="42.7254344" lon="12.4713705"><ele>193.0</ele><time>2026-05-03T08:59:25.271Z</time></trkpt><trkpt lat="42.7255028" lon="12.4713534"><ele>193.2</ele><time>2026-05-03T08:59:26.269Z</time></trkpt><trkpt lat="42.7255671" lon="12.471354"><ele>193.4</ele><time>2026-05-03T08:59:27.282Z</time></trkpt><trkpt lat="42.7256651" lon="12.4713741"><ele>193.6</ele><time>2026-05-03T08:59:28.265Z</time></trkpt><trkpt lat="42.725781" lon="12.4714178"><ele>193.79999999999998</ele><time>2026-05-03T08:59:29.269Z</time></trkpt><trkpt lat="42.7259054" lon="12.4714512"><ele>194.0</ele><time>2026-05-03T08:59:30.264Z</time></trkpt><trkpt lat="42.7260225" lon="12.471475"><ele>194.33333333333334</ele><time>2026-05-03T08:59:31.266Z</time></trkpt><trkpt lat="42.7261258" lon="12.4714978"><ele>194.66666666666669</ele><time>2026-05-03T08:59:32.266Z</time></trkpt><trkpt lat="42.7262241" lon="12.4715159"><ele>195.0</ele><time>2026-05-03T08:59:33.274Z</time></trkpt><trkpt lat="42.7263151" lon="12.4715336"><ele>195.33333333333331</ele><time>2026-05-03T08:59:34.284Z</time></trkpt><trkpt lat="42.7263955" lon="12.4715569"><ele>195.66666666666666</ele><time>2026-05-03T08:59:35.27Z</time></trkpt><trkpt lat="42.7264565" lon="12.4715807"><ele>196.0</ele><time>2026-05-03T08:59:36.269Z</time></trkpt><trkpt lat="42.7265105" lon="12.4716483"><ele>196.0</ele><time>2026-05-03T08:59:38.266Z</time></trkpt><trkpt lat="42.7264962" lon="12.4717937"><ele>196.0</ele><time>2026-05-03T08:59:40.273Z</time></trkpt><trkpt lat="42.7264617" lon="12.4719122"><ele>196.0</ele><time>2026-05-03T08:59:41.277Z</time></trkpt><trkpt lat="42.7264249" lon="12.4720498"><ele>196.0</ele><time>2026-05-03T08:59:42.267Z</time></trkpt><trkpt lat="42.7263958" lon="12.4721945"><ele>196.0</ele><time>2026-05-03T08:59:43.267Z</time></trkpt><trkpt lat="42.7263653" lon="12.4723475"><ele>196.20000000000002</ele><time>2026-05-03T08:59:44.275Z</time></trkpt><trkpt lat="42.7263308" lon="12.4725007"><ele>196.4</ele><time>2026-05-03T08:59:45.271Z</time></trkpt><trkpt lat="42.7262965" lon="12.4726454"><ele>196.6</ele><time>2026-05-03T08:59:46.293Z</time></trkpt><trkpt lat="42.7262653" lon="12.4727875"><ele>196.8</ele><time>2026-05-03T08:59:47.265Z</time></trkpt><trkpt lat="42.7262353" lon="12.4729331"><ele>197.0</ele><time>2026-05-03T08:59:48.285Z</time></trkpt><trkpt lat="42.7262065" lon="12.4730817"><ele>197.2</ele><time>2026-05-03T08:59:49.269Z</time></trkpt><trkpt lat="42.7261746" lon="12.473223"><ele>197.39999999999998</ele><time>2026-05-03T08:59:50.28Z</time></trkpt><trkpt lat="42.7261429" lon="12.4733653"><ele>197.60000000000002</ele><time>2026-05-03T08:59:51.255Z</time></trkpt><trkpt lat="42.7261074" lon="12.4735107"><ele>197.8</ele><time>2026-05-03T08:59:52.274Z</time></trkpt><trkpt lat="42.7260713" lon="12.4736622"><ele>198.0</ele><time>2026-05-03T08:59:53.258Z</time></trkpt><trkpt lat="42.7260426" lon="12.4738117"><ele>198.0</ele><time>2026-05-03T08:59:54.27Z</time></trkpt><trkpt lat="42.7260067" lon="12.4739668"><ele>198.0</ele><time>2026-05-03T08:59:55.272Z</time></trkpt><trkpt lat="42.7259705" lon="12.4741182"><ele>198.0</ele><time>2026-05-03T08:59:56.271Z</time></trkpt><trkpt lat="42.7259367" lon="12.4742599"><ele>198.0</ele><time>2026-05-03T08:59:57.27Z</time></trkpt><trkpt lat="42.7259094" lon="12.4743875"><ele>198.0</ele><time>2026-05-03T08:59:58.266Z</time></trkpt><trkpt lat="42.7258881" lon="12.474509"><ele>198.66666666666666</ele><time>2026-05-03T08:59:59.257Z</time></trkpt><trkpt lat="42.7258794" lon="12.4746321"><ele>199.33333333333331</ele><time>2026-05-03T09:00:00.282Z</time></trkpt><trkpt lat="42.7258823" lon="12.4747549"><ele>200.0</ele><time>2026-05-03T09:00:01.279Z</time></trkpt><trkpt lat="42.7258868" lon="12.474874"><ele>200.66666666666666</ele><time>2026-05-03T09:00:02.268Z</time></trkpt><trkpt lat="42.7258901" lon="12.4749776"><ele>201.33333333333331</ele><time>2026-05-03T09:00:03.278Z</time></trkpt><trkpt lat="42.7258789" lon="12.4750711"><ele>202.0</ele><time>2026-05-03T09:00:04.27Z</time></trkpt><trkpt lat="42.7258711" lon="12.4751721"><ele>202.0</ele><time>2026-05-03T09:00:05.274Z</time></trkpt><trkpt lat="42.7258487" lon="12.4752803"><ele>202.0</ele><time>2026-05-03T09:00:06.253Z</time></trkpt><trkpt lat="42.7258111" lon="12.4754091"><ele>202.0</ele><time>2026-05-03T09:00:07.268Z</time></trkpt><trkpt lat="42.7257736" lon="12.4755357"><ele>202.0</ele><time>2026-05-03T09:00:08.271Z</time></trkpt><trkpt lat="42.7257453" lon="12.4756645"><ele>202.0</ele><time>2026-05-03T09:00:09.267Z</time></trkpt><trkpt lat="42.7257036" lon="12.4757944"><ele>202.2</ele><time>2026-05-03T09:00:10.266Z</time></trkpt><trkpt lat="42.7256574" lon="12.4759306"><ele>202.39999999999998</ele><time>2026-05-03T09:00:11.264Z</time></trkpt><trkpt lat="42.7256199" lon="12.4760705"><ele>202.60000000000002</ele><time>2026-05-03T09:00:12.283Z</time></trkpt><trkpt lat="42.7255892" lon="12.4762034"><ele>202.8</ele><time>2026-05-03T09:00:13.264Z</time></trkpt><trkpt lat="42.7255672" lon="12.4763376"><ele>203.0</ele><time>2026-05-03T09:00:14.263Z</time></trkpt><trkpt lat="42.7255412" lon="12.4764683"><ele>203.00000000000003</ele><time>2026-05-03T09:00:15.271Z</time></trkpt><trkpt lat="42.7255177" lon="12.4765997"><ele>203.0</ele><time>2026-05-03T09:00:16.267Z</time></trkpt><trkpt lat="42.7254986" lon="12.4767184"><ele>203.0</ele><time>2026-05-03T09:00:17.265Z</time></trkpt><trkpt lat="42.7254833" lon="12.4768121"><ele>203.0</ele><time>2026-05-03T09:00:18.281Z</time></trkpt><trkpt lat="42.7254694" lon="12.4768957"><ele>203.00000000000003</ele><time>2026-05-03T09:00:19.282Z</time></trkpt><trkpt lat="42.7254535" lon="12.4769824"><ele>203.0</ele><time>2026-05-03T09:00:20.262Z</time></trkpt><trkpt lat="42.7254452" lon="12.477082"><ele>203.16666666666669</ele><time>2026-05-03T09:00:21.287Z</time></trkpt><trkpt lat="42.7254359" lon="12.4772014"><ele>203.33333333333334</ele><time>2026-05-03T09:00:22.267Z</time></trkpt><trkpt lat="42.7254293" lon="12.4773198"><ele>203.5</ele><time>2026-05-03T09:00:23.266Z</time></trkpt><trkpt lat="42.7254247" lon="12.4774372"><ele>203.66666666666669</ele><time>2026-05-03T09:00:24.26Z</time></trkpt><trkpt lat="42.7254229" lon="12.4775601"><ele>203.83333333333334</ele><time>2026-05-03T09:00:25.265Z</time></trkpt><trkpt lat="42.725428" lon="12.4776855"><ele>204.0</ele><time>2026-05-03T09:00:26.257Z</time></trkpt><trkpt lat="42.7254331" lon="12.4778244"><ele>203.79999999999998</ele><time>2026-05-03T09:00:27.263Z</time></trkpt><trkpt lat="42.7254399" lon="12.4779665"><ele>203.6</ele><time>2026-05-03T09:00:28.272Z</time></trkpt><trkpt lat="42.725452" lon="12.478104"><ele>203.4</ele><time>2026-05-03T09:00:29.263Z</time></trkpt><trkpt lat="42.7254655" lon="12.4782501"><ele>203.2</ele><time>2026-05-03T09:00:30.276Z</time></trkpt><trkpt lat="42.7254795" lon="12.478385"><ele>203.0</ele><time>2026-05-03T09:00:31.267Z</time></trkpt><trkpt lat="42.7254964" lon="12.4785038"><ele>203.0</ele><time>2026-05-03T09:00:32.255Z</time></trkpt><trkpt lat="42.725512" lon="12.4786243"><ele>203.0</ele><time>2026-05-03T09:00:33.257Z</time></trkpt><trkpt lat="42.7255288" lon="12.4787384"><ele>203.0</ele><time>2026-05-03T09:00:34.266Z</time></trkpt><trkpt lat="42.7255415" lon="12.4788574"><ele>203.0</ele><time>2026-05-03T09:00:35.277Z</time></trkpt><trkpt lat="42.7255521" lon="12.4789849"><ele>203.0</ele><time>2026-05-03T09:00:36.281Z</time></trkpt><trkpt lat="42.7255581" lon="12.4791173"><ele>203.00000000000003</ele><time>2026-05-03T09:00:37.282Z</time></trkpt><trkpt lat="42.7255649" lon="12.4792475"><ele>203.0</ele><time>2026-05-03T09:00:38.265Z</time></trkpt><trkpt lat="42.7255739" lon="12.4793609"><ele>203.0</ele><time>2026-05-03T09:00:39.266Z</time></trkpt><trkpt lat="42.7255862" lon="12.4794583"><ele>203.0</ele><time>2026-05-03T09:00:40.277Z</time></trkpt><trkpt lat="42.7256024" lon="12.4795561"><ele>203.00000000000003</ele><time>2026-05-03T09:00:41.284Z</time></trkpt><trkpt lat="42.7256235" lon="12.4796758"><ele>203.0</ele><time>2026-05-03T09:00:42.285Z</time></trkpt><trkpt lat="42.7256442" lon="12.4798231"><ele>202.66666666666669</ele><time>2026-05-03T09:00:43.266Z</time></trkpt><trkpt lat="42.7256624" lon="12.4799516"><ele>202.33333333333334</ele><time>2026-05-03T09:00:44.273Z</time></trkpt><trkpt lat="42.7256812" lon="12.4800705"><ele>202.0</ele><time>2026-05-03T09:00:45.261Z</time></trkpt><trkpt lat="42.7257014" lon="12.4801794"><ele>201.66666666666669</ele><time>2026-05-03T09:00:46.274Z</time></trkpt><trkpt lat="42.7257235" lon="12.4802788"><ele>201.33333333333334</ele><time>2026-05-03T09:00:47.265Z</time></trkpt><trkpt lat="42.7257518" lon="12.4803766"><ele>201.0</ele><time>2026-05-03T09:00:48.269Z</time></trkpt><trkpt lat="42.725781" lon="12.4804773"><ele>200.83333333333334</ele><time>2026-05-03T09:00:49.267Z</time></trkpt><trkpt lat="42.7258113" lon="12.480577"><ele>200.66666666666669</ele><time>2026-05-03T09:00:50.275Z</time></trkpt><trkpt lat="42.7258454" lon="12.4806739"><ele>200.5</ele><time>2026-05-03T09:00:51.256Z</time></trkpt><trkpt lat="42.7258749" lon="12.4807694"><ele>200.33333333333334</ele><time>2026-05-03T09:00:52.266Z</time></trkpt><trkpt lat="42.7259013" lon="12.4808706"><ele>200.16666666666669</ele><time>2026-05-03T09:00:53.266Z</time></trkpt><trkpt lat="42.7259307" lon="12.480988"><ele>200.0</ele><time>2026-05-03T09:00:54.268Z</time></trkpt><trkpt lat="42.7259608" lon="12.4811126"><ele>200.00000000000003</ele><time>2026-05-03T09:00:55.267Z</time></trkpt><trkpt lat="42.7259888" lon="12.4812355"><ele>200.0</ele><time>2026-05-03T09:00:56.278Z</time></trkpt><trkpt lat="42.726009" lon="12.4813451"><ele>200.0</ele><time>2026-05-03T09:00:57.266Z</time></trkpt><trkpt lat="42.7260257" lon="12.4814459"><ele>200.0</ele><time>2026-05-03T09:00:58.254Z</time></trkpt><trkpt lat="42.7260439" lon="12.4815489"><ele>200.00000000000003</ele><time>2026-05-03T09:00:59.274Z</time></trkpt><trkpt lat="42.7260548" lon="12.4816465"><ele>200.0</ele><time>2026-05-03T09:01:00.264Z</time></trkpt><trkpt lat="42.7260654" lon="12.4817349"><ele>200.83333333333334</ele><time>2026-05-03T09:01:01.248Z</time></trkpt><trkpt lat="42.7260821" lon="12.4818248"><ele>201.66666666666669</ele><time>2026-05-03T09:01:02.261Z</time></trkpt><trkpt lat="42.7260985" lon="12.4819137"><ele>202.5</ele><time>2026-05-03T09:01:03.262Z</time></trkpt><trkpt lat="42.726126" lon="12.482071"><ele>203.33333333333331</ele><time>2026-05-03T09:01:05.257Z</time></trkpt><trkpt lat="42.7261558" lon="12.4822109"><ele>204.16666666666666</ele><time>2026-05-03T09:01:07.274Z</time></trkpt><trkpt lat="42.7261741" lon="12.4822937"><ele>205.0</ele><time>2026-05-03T09:01:08.263Z</time></trkpt><trkpt lat="42.7261916" lon="12.4823881"><ele>205.0</ele><time>2026-05-03T09:01:09.27Z</time></trkpt><trkpt lat="42.7262099" lon="12.4824812"><ele>205.0</ele><time>2026-05-03T09:01:10.277Z</time></trkpt><trkpt lat="42.7262426" lon="12.4826294"><ele>205.0</ele><time>2026-05-03T09:01:12.272Z</time></trkpt><trkpt lat="42.7262881" lon="12.4827684"><ele>205.0</ele><time>2026-05-03T09:01:14.274Z</time></trkpt><trkpt lat="42.726315" lon="12.4828702"><ele>205.0</ele><time>2026-05-03T09:01:15.287Z</time></trkpt><trkpt lat="42.7263392" lon="12.4829847"><ele>204.49999999999997</ele><time>2026-05-03T09:01:16.274Z</time></trkpt><trkpt lat="42.7263651" lon="12.483108"><ele>204.0</ele><time>2026-05-03T09:01:17.285Z</time></trkpt><trkpt lat="42.7263857" lon="12.4832144"><ele>203.5</ele><time>2026-05-03T09:01:18.298Z</time></trkpt><trkpt lat="42.726402" lon="12.4833167"><ele>203.0</ele><time>2026-05-03T09:01:19.26Z</time></trkpt><trkpt lat="42.7264044" lon="12.4834709"><ele>202.49999999999997</ele><time>2026-05-03T09:01:21.269Z</time></trkpt><trkpt lat="42.7263473" lon="12.4835521"><ele>202.0</ele><time>2026-05-03T09:01:23.267Z</time></trkpt><trkpt lat="42.7262591" lon="12.4835504"><ele>201.99999999999997</ele><time>2026-05-03T09:01:25.279Z</time></trkpt><trkpt lat="42.7261737" lon="12.4835012"><ele>202.0</ele><time>2026-05-03T09:01:27.279Z</time></trkpt><trkpt lat="42.7260874" lon="12.483452"><ele>202.0</ele><time>2026-05-03T09:01:29.259Z</time></trkpt><trkpt lat="42.7259967" lon="12.4834592"><ele>202.0</ele><time>2026-05-03T09:01:31.273Z</time></trkpt><trkpt lat="42.7259436" lon="12.4835078"><ele>201.99999999999997</ele><time>2026-05-03T09:01:33.261Z</time></trkpt><trkpt lat="42.7259195" lon="12.4836063"><ele>202.0</ele><time>2026-05-03T09:01:36.264Z</time></trkpt><trkpt lat="42.7259486" lon="12.4837088"><ele>201.99999999999997</ele><time>2026-05-03T09:01:40.282Z</time></trkpt><trkpt lat="42.725996" lon="12.4838118"><ele>202.0</ele><time>2026-05-03T09:01:43.273Z</time></trkpt><trkpt lat="42.7260506" lon="12.4839042"><ele>202.0</ele><time>2026-05-03T09:01:45.264Z</time></trkpt><trkpt lat="42.7260988" lon="12.4840075"><ele>202.0</ele><time>2026-05-03T09:01:47.275Z</time></trkpt><trkpt lat="42.7260856" lon="12.484118"><ele>201.99999999999997</ele><time>2026-05-03T09:01:49.279Z</time></trkpt><trkpt lat="42.7260167" lon="12.4841927"><ele>202.0</ele><time>2026-05-03T09:01:51.262Z</time></trkpt><trkpt lat="42.7259328" lon="12.4842516"><ele>201.2</ele><time>2026-05-03T09:01:53.267Z</time></trkpt><trkpt lat="42.7258389" lon="12.4843091"><ele>200.39999999999998</ele><time>2026-05-03T09:01:55.262Z</time></trkpt><trkpt lat="42.7257613" lon="12.4844029"><ele>199.60000000000002</ele><time>2026-05-03T09:01:57.273Z</time></trkpt><trkpt lat="42.7256988" lon="12.4845066"><ele>198.8</ele><time>2026-05-03T09:01:59.279Z</time></trkpt><trkpt lat="42.725631" lon="12.4846076"><ele>198.0</ele><time>2026-05-03T09:02:01.267Z</time></trkpt><trkpt lat="42.7255809" lon="12.4846959"><ele>197.8</ele><time>2026-05-03T09:02:03.271Z</time></trkpt><trkpt lat="42.7255395" lon="12.4847981"><ele>197.60000000000002</ele><time>2026-05-03T09:02:05.266Z</time></trkpt><trkpt lat="42.7255063" lon="12.48493"><ele>197.39999999999998</ele><time>2026-05-03T09:02:07.273Z</time></trkpt><trkpt lat="42.7254833" lon="12.4850524"><ele>197.2</ele><time>2026-05-03T09:02:09.264Z</time></trkpt><trkpt lat="42.7254282" lon="12.4852193"><ele>197.0</ele><time>2026-05-03T09:02:11.273Z</time></trkpt><trkpt lat="42.7253965" lon="12.4853129"><ele>197.0</ele><time>2026-05-03T09:02:12.262Z</time></trkpt><trkpt lat="42.7253666" lon="12.485415"><ele>197.0</ele><time>2026-05-03T09:02:13.258Z</time></trkpt><trkpt lat="42.7253424" lon="12.4855172"><ele>197.0</ele><time>2026-05-03T09:02:14.265Z</time></trkpt><trkpt lat="42.7253177" lon="12.4856136"><ele>197.0</ele><time>2026-05-03T09:02:15.261Z</time></trkpt><trkpt lat="42.725294" lon="12.4857043"><ele>197.0</ele><time>2026-05-03T09:02:16.293Z</time></trkpt><trkpt lat="42.7252728" lon="12.4857872"><ele>197.0</ele><time>2026-05-03T09:02:17.296Z</time></trkpt><trkpt lat="42.7252485" lon="12.4858799"><ele>197.0</ele><time>2026-05-03T09:02:18.277Z</time></trkpt><trkpt lat="42.7252266" lon="12.4859644"><ele>196.8</ele><time>2026-05-03T09:02:19.269Z</time></trkpt><trkpt lat="42.7251923" lon="12.4861001"><ele>196.6</ele><time>2026-05-03T09:02:21.278Z</time></trkpt><trkpt lat="42.7251494" lon="12.4862152"><ele>196.4</ele><time>2026-05-03T09:02:23.28Z</time></trkpt><trkpt lat="42.7251039" lon="12.4863543"><ele>196.20000000000002</ele><time>2026-05-03T09:02:25.275Z</time></trkpt><trkpt lat="42.725085" lon="12.4864571"><ele>196.0</ele><time>2026-05-03T09:02:26.275Z</time></trkpt><trkpt lat="42.7250662" lon="12.4865673"><ele>196.33333333333331</ele><time>2026-05-03T09:02:27.285Z</time></trkpt><trkpt lat="42.7250471" lon="12.4866738"><ele>196.66666666666666</ele><time>2026-05-03T09:02:28.264Z</time></trkpt><trkpt lat="42.7250289" lon="12.4867688"><ele>197.0</ele><time>2026-05-03T09:02:29.263Z</time></trkpt><trkpt lat="42.7250154" lon="12.4868598"><ele>197.33333333333331</ele><time>2026-05-03T09:02:30.261Z</time></trkpt><trkpt lat="42.7250039" lon="12.4869624"><ele>197.66666666666666</ele><time>2026-05-03T09:02:31.276Z</time></trkpt><trkpt lat="42.724989" lon="12.487069"><ele>198.0</ele><time>2026-05-03T09:02:32.258Z</time></trkpt><trkpt lat="42.7249782" lon="12.4871687"><ele>198.2</ele><time>2026-05-03T09:02:33.277Z</time></trkpt><trkpt lat="42.7249759" lon="12.4872573"><ele>198.4</ele><time>2026-05-03T09:02:34.262Z</time></trkpt><trkpt lat="42.7249712" lon="12.4874186"><ele>198.6</ele><time>2026-05-03T09:02:36.264Z</time></trkpt><trkpt lat="42.7249362" lon="12.4875336"><ele>198.79999999999998</ele><time>2026-05-03T09:02:38.28Z</time></trkpt><trkpt lat="42.7248994" lon="12.4876977"><ele>199.0</ele><time>2026-05-03T09:02:40.272Z</time></trkpt><trkpt lat="42.7248843" lon="12.4877997"><ele>198.99999999999997</ele><time>2026-05-03T09:02:41.27Z</time></trkpt><trkpt lat="42.7248748" lon="12.4878926"><ele>199.0</ele><time>2026-05-03T09:02:42.269Z</time></trkpt><trkpt lat="42.7248674" lon="12.4879855"><ele>199.0</ele><time>2026-05-03T09:02:43.273Z</time></trkpt><trkpt lat="42.7248713" lon="12.4880913"><ele>199.0</ele><time>2026-05-03T09:02:44.281Z</time></trkpt><trkpt lat="42.7248703" lon="12.4882104"><ele>198.99999999999997</ele><time>2026-05-03T09:02:45.264Z</time></trkpt><trkpt lat="42.7248618" lon="12.4883328"><ele>199.0</ele><time>2026-05-03T09:02:46.258Z</time></trkpt><trkpt lat="42.7248434" lon="12.4884486"><ele>198.99999999999997</ele><time>2026-05-03T09:02:47.26Z</time></trkpt><trkpt lat="42.7248152" lon="12.4885513"><ele>199.0</ele><time>2026-05-03T09:02:48.266Z</time></trkpt><trkpt lat="42.7247752" lon="12.4886333"><ele>199.0</ele><time>2026-05-03T09:02:49.26Z</time></trkpt><trkpt lat="42.7247277" lon="12.4887209"><ele>199.0</ele><time>2026-05-03T09:02:50.268Z</time></trkpt><trkpt lat="42.7246671" lon="12.4888229"><ele>198.99999999999997</ele><time>2026-05-03T09:02:51.256Z</time></trkpt><trkpt lat="42.7246107" lon="12.4889319"><ele>199.0</ele><time>2026-05-03T09:02:52.263Z</time></trkpt><trkpt lat="42.7245663" lon="12.489019"><ele>198.99999999999997</ele><time>2026-05-03T09:02:53.276Z</time></trkpt><trkpt lat="42.7245119" lon="12.4891401"><ele>199.0</ele><time>2026-05-03T09:02:55.269Z</time></trkpt><trkpt lat="42.7244738" lon="12.4892267"><ele>199.0</ele><time>2026-05-03T09:02:57.278Z</time></trkpt><trkpt lat="42.7244664" lon="12.4893246"><ele>199.0</ele><time>2026-05-03T09:03:00.262Z</time></trkpt><trkpt lat="42.7245486" lon="12.4893319"><ele>198.99999999999997</ele><time>2026-05-03T09:03:03.27Z</time></trkpt><trkpt lat="42.7246347" lon="12.4893036"><ele>199.0</ele><time>2026-05-03T09:03:05.276Z</time></trkpt><trkpt lat="42.7247444" lon="12.4892309"><ele>198.99999999999997</ele><time>2026-05-03T09:03:07.287Z</time></trkpt><trkpt lat="42.7248265" lon="12.489139"><ele>199.0</ele><time>2026-05-03T09:03:09.263Z</time></trkpt><trkpt lat="42.7249248" lon="12.4890969"><ele>199.0</ele><time>2026-05-03T09:03:11.263Z</time></trkpt><trkpt lat="42.7249913" lon="12.4890927"><ele>199.0</ele><time>2026-05-03T09:03:12.258Z</time></trkpt><trkpt lat="42.7250562" lon="12.4890937"><ele>198.99999999999997</ele><time>2026-05-03T09:03:13.277Z</time></trkpt><trkpt lat="42.7251323" lon="12.4891035"><ele>199.0</ele><time>2026-05-03T09:03:14.298Z</time></trkpt><trkpt lat="42.7252246" lon="12.489118"><ele>200.16666666666666</ele><time>2026-05-03T09:03:15.278Z</time></trkpt><trkpt lat="42.7253181" lon="12.4891467"><ele>201.33333333333331</ele><time>2026-05-03T09:03:16.273Z</time></trkpt><trkpt lat="42.7253868" lon="12.4891797"><ele>202.5</ele><time>2026-05-03T09:03:17.26Z</time></trkpt><trkpt lat="42.725429" lon="12.4892458"><ele>203.66666666666669</ele><time>2026-05-03T09:03:18.265Z</time></trkpt><trkpt lat="42.7254573" lon="12.4893281"><ele>204.83333333333334</ele><time>2026-05-03T09:03:19.278Z</time></trkpt><trkpt lat="42.7254761" lon="12.4894451"><ele>206.0</ele><time>2026-05-03T09:03:20.266Z</time></trkpt><trkpt lat="42.72549" lon="12.4895716"><ele>205.5</ele><time>2026-05-03T09:03:21.273Z</time></trkpt><trkpt lat="42.7255007" lon="12.4897144"><ele>205.0</ele><time>2026-05-03T09:03:22.297Z</time></trkpt><trkpt lat="42.7255062" lon="12.489882"><ele>204.5</ele><time>2026-05-03T09:03:23.269Z</time></trkpt><trkpt lat="42.7255087" lon="12.4900578"><ele>204.0</ele><time>2026-05-03T09:03:24.279Z</time></trkpt><trkpt lat="42.7255135" lon="12.4902289"><ele>204.0</ele><time>2026-05-03T09:03:25.285Z</time></trkpt><trkpt lat="42.7255147" lon="12.49039"><ele>204.0</ele><time>2026-05-03T09:03:26.277Z</time></trkpt><trkpt lat="42.7255145" lon="12.4905554"><ele>204.0</ele><time>2026-05-03T09:03:27.277Z</time></trkpt><trkpt lat="42.7255115" lon="12.4907199"><ele>204.0</ele><time>2026-05-03T09:03:28.28Z</time></trkpt><trkpt lat="42.7255085" lon="12.4908854"><ele>204.0</ele><time>2026-05-03T09:03:29.269Z</time></trkpt><trkpt lat="42.7255074" lon="12.4910644"><ele>204.0</ele><time>2026-05-03T09:03:30.289Z</time></trkpt><trkpt lat="42.7255076" lon="12.491239"><ele>204.0</ele><time>2026-05-03T09:03:31.272Z</time></trkpt><trkpt lat="42.7255099" lon="12.491405"><ele>204.0</ele><time>2026-05-03T09:03:32.278Z</time></trkpt><trkpt lat="42.7255112" lon="12.4915534"><ele>204.0</ele><time>2026-05-03T09:03:33.271Z</time></trkpt><trkpt lat="42.7255083" lon="12.4916858"><ele>204.0</ele><time>2026-05-03T09:03:34.259Z</time></trkpt><trkpt lat="42.7255044" lon="12.4918079"><ele>204.0</ele><time>2026-05-03T09:03:35.272Z</time></trkpt><trkpt lat="42.7255065" lon="12.4919225"><ele>204.0</ele><time>2026-05-03T09:03:36.28Z</time></trkpt><trkpt lat="42.7255109" lon="12.4920235"><ele>204.0</ele><time>2026-05-03T09:03:37.259Z</time></trkpt><trkpt lat="42.7255116" lon="12.4921144"><ele>204.0</ele><time>2026-05-03T09:03:38.264Z</time></trkpt><trkpt lat="42.7255085" lon="12.4922849"><ele>204.0</ele><time>2026-05-03T09:03:40.26Z</time></trkpt><trkpt lat="42.7255058" lon="12.4923781"><ele>204.0</ele><time>2026-05-03T09:03:41.274Z</time></trkpt><trkpt lat="42.7254969" lon="12.4924793"><ele>204.0</ele><time>2026-05-03T09:03:42.261Z</time></trkpt><trkpt lat="42.7254927" lon="12.4925795"><ele>204.0</ele><time>2026-05-03T09:03:43.277Z</time></trkpt><trkpt lat="42.7254904" lon="12.4926849"><ele>204.0</ele><time>2026-05-03T09:03:44.281Z</time></trkpt><trkpt lat="42.7254926" lon="12.4927983"><ele>204.0</ele><time>2026-05-03T09:03:45.262Z</time></trkpt><trkpt lat="42.7254919" lon="12.4929211"><ele>204.5</ele><time>2026-05-03T09:03:46.26Z</time></trkpt><trkpt lat="42.7254933" lon="12.4930486"><ele>205.0</ele><time>2026-05-03T09:03:47.275Z</time></trkpt><trkpt lat="42.7254897" lon="12.4931773"><ele>205.5</ele><time>2026-05-03T09:03:48.269Z</time></trkpt><trkpt lat="42.7254838" lon="12.4932986"><ele>206.0</ele><time>2026-05-03T09:03:49.278Z</time></trkpt><trkpt lat="42.7254813" lon="12.4934051"><ele>206.5</ele><time>2026-05-03T09:03:50.279Z</time></trkpt><trkpt lat="42.7254861" lon="12.4935027"><ele>207.0</ele><time>2026-05-03T09:03:51.26Z</time></trkpt><trkpt lat="42.7254964" lon="12.4936092"><ele>207.0</ele><time>2026-05-03T09:03:52.275Z</time></trkpt><trkpt lat="42.7255124" lon="12.4937236"><ele>207.0</ele><time>2026-05-03T09:03:53.279Z</time></trkpt><trkpt lat="42.7255234" lon="12.4938373"><ele>207.0</ele><time>2026-05-03T09:03:54.271Z</time></trkpt><trkpt lat="42.7255362" lon="12.4939528"><ele>207.0</ele><time>2026-05-03T09:03:55.27Z</time></trkpt><trkpt lat="42.7255496" lon="12.4940621"><ele>207.0</ele><time>2026-05-03T09:03:56.27Z</time></trkpt><trkpt lat="42.7255637" lon="12.4941759"><ele>207.0</ele><time>2026-05-03T09:03:57.268Z</time></trkpt><trkpt lat="42.72558" lon="12.4942855"><ele>207.16666666666666</ele><time>2026-05-03T09:03:58.276Z</time></trkpt><trkpt lat="42.7255969" lon="12.4943885"><ele>207.33333333333331</ele><time>2026-05-03T09:03:59.268Z</time></trkpt><trkpt lat="42.7256095" lon="12.4944958"><ele>207.5</ele><time>2026-05-03T09:04:00.276Z</time></trkpt><trkpt lat="42.7256218" lon="12.4946016"><ele>207.66666666666666</ele><time>2026-05-03T09:04:01.272Z</time></trkpt><trkpt lat="42.7256219" lon="12.4947037"><ele>207.83333333333331</ele><time>2026-05-03T09:04:02.272Z</time></trkpt><trkpt lat="42.7256221" lon="12.4948031"><ele>208.0</ele><time>2026-05-03T09:04:03.268Z</time></trkpt><trkpt lat="42.7256354" lon="12.4949094"><ele>207.60000000000002</ele><time>2026-05-03T09:04:04.271Z</time></trkpt><trkpt lat="42.7256659" lon="12.4950245"><ele>207.20000000000002</ele><time>2026-05-03T09:04:05.26Z</time></trkpt><trkpt lat="42.7257051" lon="12.4951517"><ele>206.8</ele><time>2026-05-03T09:04:06.26Z</time></trkpt><trkpt lat="42.7257339" lon="12.4952838"><ele>206.4</ele><time>2026-05-03T09:04:07.278Z</time></trkpt><trkpt lat="42.7257598" lon="12.4954329"><ele>206.0</ele><time>2026-05-03T09:04:08.273Z</time></trkpt><trkpt lat="42.7257811" lon="12.4955912"><ele>205.75</ele><time>2026-05-03T09:04:09.261Z</time></trkpt><trkpt lat="42.7258076" lon="12.4957639"><ele>205.5</ele><time>2026-05-03T09:04:10.261Z</time></trkpt><trkpt lat="42.7258358" lon="12.4959462"><ele>205.25</ele><time>2026-05-03T09:04:11.267Z</time></trkpt><trkpt lat="42.7258646" lon="12.4961339"><ele>205.0</ele><time>2026-05-03T09:04:12.272Z</time></trkpt><trkpt lat="42.7258954" lon="12.4963188"><ele>204.5</ele><time>2026-05-03T09:04:13.286Z</time></trkpt><trkpt lat="42.725919" lon="12.4965063"><ele>204.0</ele><time>2026-05-03T09:04:14.283Z</time></trkpt><trkpt lat="42.7259422" lon="12.4966964"><ele>203.5</ele><time>2026-05-03T09:04:15.271Z</time></trkpt><trkpt lat="42.7259624" lon="12.4968729"><ele>203.0</ele><time>2026-05-03T09:04:16.279Z</time></trkpt><trkpt lat="42.7259786" lon="12.4970412"><ele>203.2</ele><time>2026-05-03T09:04:17.261Z</time></trkpt><trkpt lat="42.7259858" lon="12.4971984"><ele>203.4</ele><time>2026-05-03T09:04:18.277Z</time></trkpt><trkpt lat="42.7259753" lon="12.4973377"><ele>203.6</ele><time>2026-05-03T09:04:19.27Z</time></trkpt><trkpt lat="42.7259569" lon="12.4974502"><ele>203.79999999999998</ele><time>2026-05-03T09:04:20.263Z</time></trkpt><trkpt lat="42.7259439" lon="12.4975947"><ele>204.0</ele><time>2026-05-03T09:04:22.274Z</time></trkpt><trkpt lat="42.7259879" lon="12.497676"><ele>205.33333333333334</ele><time>2026-05-03T09:04:24.255Z</time></trkpt><trkpt lat="42.7260749" lon="12.4977019"><ele>206.66666666666669</ele><time>2026-05-03T09:04:26.276Z</time></trkpt><trkpt lat="42.7261661" lon="12.497682"><ele>208.0</ele><time>2026-05-03T09:04:28.269Z</time></trkpt><trkpt lat="42.7262009" lon="12.4975833"><ele>209.33333333333334</ele><time>2026-05-03T09:04:30.261Z</time></trkpt><trkpt lat="42.7262123" lon="12.497447"><ele>210.66666666666669</ele><time>2026-05-03T09:04:32.257Z</time></trkpt><trkpt lat="42.7262347" lon="12.4973633"><ele>212.0</ele><time>2026-05-03T09:04:46.279Z</time></trkpt><trkpt lat="42.726277" lon="12.4974529"><ele>212.00000000000003</ele><time>2026-05-03T09:04:53.272Z</time></trkpt><trkpt lat="42.7262741" lon="12.4975858"><ele>212.0</ele><time>2026-05-03T09:04:55.269Z</time></trkpt><trkpt lat="42.7262752" lon="12.4976792"><ele>212.0</ele><time>2026-05-03T09:04:56.277Z</time></trkpt><trkpt lat="42.7262821" lon="12.4977782"><ele>212.0</ele><time>2026-05-03T09:04:57.258Z</time></trkpt><trkpt lat="42.7262801" lon="12.4978811"><ele>212.00000000000003</ele><time>2026-05-03T09:04:58.3Z</time></trkpt><trkpt lat="42.7262643" lon="12.497992"><ele>212.0</ele><time>2026-05-03T09:04:59.272Z</time></trkpt><trkpt lat="42.7262336" lon="12.498123"><ele>211.0</ele><time>2026-05-03T09:05:00.264Z</time></trkpt><trkpt lat="42.7261979" lon="12.4982645"><ele>210.0</ele><time>2026-05-03T09:05:01.264Z</time></trkpt><trkpt lat="42.7261499" lon="12.498413"><ele>209.0</ele><time>2026-05-03T09:05:02.295Z</time></trkpt><trkpt lat="42.7260904" lon="12.4985775"><ele>208.0</ele><time>2026-05-03T09:05:03.272Z</time></trkpt><trkpt lat="42.7260235" lon="12.4987502"><ele>206.33333333333331</ele><time>2026-05-03T09:05:04.267Z</time></trkpt><trkpt lat="42.7259497" lon="12.4989355"><ele>204.66666666666669</ele><time>2026-05-03T09:05:05.28Z</time></trkpt><trkpt lat="42.7258722" lon="12.4991241"><ele>203.0</ele><time>2026-05-03T09:05:06.269Z</time></trkpt><trkpt lat="42.725802" lon="12.4992994"><ele>203.0</ele><time>2026-05-03T09:05:07.283Z</time></trkpt><trkpt lat="42.7257403" lon="12.4994632"><ele>203.0</ele><time>2026-05-03T09:05:08.27Z</time></trkpt><trkpt lat="42.7256769" lon="12.4996224"><ele>203.0</ele><time>2026-05-03T09:05:09.259Z</time></trkpt><trkpt lat="42.7256085" lon="12.4997809"><ele>203.0</ele><time>2026-05-03T09:05:10.276Z</time></trkpt><trkpt lat="42.7255452" lon="12.4999397"><ele>203.4</ele><time>2026-05-03T09:05:11.258Z</time></trkpt><trkpt lat="42.7254871" lon="12.5000936"><ele>203.8</ele><time>2026-05-03T09:05:12.273Z</time></trkpt><trkpt lat="42.7254487" lon="12.5002356"><ele>204.2</ele><time>2026-05-03T09:05:13.281Z</time></trkpt><trkpt lat="42.7254194" lon="12.5003625"><ele>204.6</ele><time>2026-05-03T09:05:14.258Z</time></trkpt><trkpt lat="42.7254011" lon="12.5004683"><ele>205.0</ele><time>2026-05-03T09:05:15.256Z</time></trkpt><trkpt lat="42.7253982" lon="12.5006053"><ele>205.33333333333331</ele><time>2026-05-03T09:05:17.27Z</time></trkpt><trkpt lat="42.7254625" lon="12.5006603"><ele>205.66666666666666</ele><time>2026-05-03T09:05:19.279Z</time></trkpt><trkpt lat="42.7255756" lon="12.5006649"><ele>206.0</ele><time>2026-05-03T09:05:21.262Z</time></trkpt><trkpt lat="42.7256404" lon="12.5006702"><ele>206.33333333333331</ele><time>2026-05-03T09:05:22.265Z</time></trkpt><trkpt lat="42.725715" lon="12.5006825"><ele>206.66666666666666</ele><time>2026-05-03T09:05:23.267Z</time></trkpt><trkpt lat="42.7257861" lon="12.5007119"><ele>207.0</ele><time>2026-05-03T09:05:24.257Z</time></trkpt><trkpt lat="42.7258534" lon="12.5007614"><ele>207.0</ele><time>2026-05-03T09:05:25.269Z</time></trkpt><trkpt lat="42.7259135" lon="12.5008234"><ele>207.0</ele><time>2026-05-03T09:05:26.265Z</time></trkpt><trkpt lat="42.7259676" lon="12.5008888"><ele>207.0</ele><time>2026-05-03T09:05:27.287Z</time></trkpt><trkpt lat="42.7260236" lon="12.5009597"><ele>207.0</ele><time>2026-05-03T09:05:28.266Z</time></trkpt><trkpt lat="42.7260869" lon="12.5010327"><ele>207.0</ele><time>2026-05-03T09:05:29.276Z</time></trkpt><trkpt lat="42.7261636" lon="12.5011032"><ele>207.0</ele><time>2026-05-03T09:05:30.269Z</time></trkpt><trkpt lat="42.7262549" lon="12.5011633"><ele>206.5</ele><time>2026-05-03T09:05:31.271Z</time></trkpt><trkpt lat="42.7263527" lon="12.5012078"><ele>206.0</ele><time>2026-05-03T09:05:32.27Z</time></trkpt><trkpt lat="42.7264611" lon="12.501241"><ele>205.5</ele><time>2026-05-03T09:05:33.271Z</time></trkpt><trkpt lat="42.7265829" lon="12.5012669"><ele>205.0</ele><time>2026-05-03T09:05:34.264Z</time></trkpt><trkpt lat="42.72671" lon="12.5012959"><ele>206.5</ele><time>2026-05-03T09:05:35.267Z</time></trkpt><trkpt lat="42.7268341" lon="12.5013249"><ele>208.0</ele><time>2026-05-03T09:05:36.27Z</time></trkpt><trkpt lat="42.7269583" lon="12.5013592"><ele>209.5</ele><time>2026-05-03T09:05:37.271Z</time></trkpt><trkpt lat="42.7270819" lon="12.5014097"><ele>211.0</ele><time>2026-05-03T09:05:38.284Z</time></trkpt><trkpt lat="42.727206" lon="12.5014583"><ele>211.0</ele><time>2026-05-03T09:05:39.257Z</time></trkpt><trkpt lat="42.7273331" lon="12.5015057"><ele>211.0</ele><time>2026-05-03T09:05:40.274Z</time></trkpt><trkpt lat="42.7274514" lon="12.5015472"><ele>211.0</ele><time>2026-05-03T09:05:41.277Z</time></trkpt><trkpt lat="42.7275653" lon="12.5015849"><ele>211.0</ele><time>2026-05-03T09:05:42.287Z</time></trkpt><trkpt lat="42.7276702" lon="12.5016192"><ele>210.4</ele><time>2026-05-03T09:05:43.267Z</time></trkpt><trkpt lat="42.7277675" lon="12.5016461"><ele>209.8</ele><time>2026-05-03T09:05:44.27Z</time></trkpt><trkpt lat="42.7278567" lon="12.5016701"><ele>209.20000000000002</ele><time>2026-05-03T09:05:45.263Z</time></trkpt><trkpt lat="42.7279409" lon="12.501702"><ele>208.60000000000002</ele><time>2026-05-03T09:05:46.265Z</time></trkpt><trkpt lat="42.7280212" lon="12.5017403"><ele>208.0</ele><time>2026-05-03T09:05:47.264Z</time></trkpt><trkpt lat="42.7280996" lon="12.5017931"><ele>208.0</ele><time>2026-05-03T09:05:48.262Z</time></trkpt><trkpt lat="42.7281799" lon="12.5018604"><ele>208.0</ele><time>2026-05-03T09:05:49.255Z</time></trkpt><trkpt lat="42.7282767" lon="12.5019389"><ele>208.0</ele><time>2026-05-03T09:05:50.258Z</time></trkpt><trkpt lat="42.7283764" lon="12.502022"><ele>208.0</ele><time>2026-05-03T09:05:51.272Z</time></trkpt><trkpt lat="42.7284764" lon="12.5021103"><ele>208.0</ele><time>2026-05-03T09:05:52.276Z</time></trkpt><trkpt lat="42.728584" lon="12.5022027"><ele>208.25</ele><time>2026-05-03T09:05:53.271Z</time></trkpt><trkpt lat="42.7286916" lon="12.5023007"><ele>208.5</ele><time>2026-05-03T09:05:54.255Z</time></trkpt><trkpt lat="42.7288019" lon="12.502398"><ele>208.75</ele><time>2026-05-03T09:05:55.278Z</time></trkpt><trkpt lat="42.728918" lon="12.5025077"><ele>209.0</ele><time>2026-05-03T09:05:56.268Z</time></trkpt><trkpt lat="42.7290382" lon="12.5026149"><ele>209.0</ele><time>2026-05-03T09:05:57.273Z</time></trkpt><trkpt lat="42.7291588" lon="12.5027165"><ele>209.0</ele><time>2026-05-03T09:05:58.264Z</time></trkpt><trkpt lat="42.7292832" lon="12.5028127"><ele>209.0</ele><time>2026-05-03T09:05:59.283Z</time></trkpt><trkpt lat="42.7294157" lon="12.5029187"><ele>209.0</ele><time>2026-05-03T09:06:00.255Z</time></trkpt><trkpt lat="42.7295529" lon="12.5030347"><ele>208.0</ele><time>2026-05-03T09:06:01.272Z</time></trkpt><trkpt lat="42.7296889" lon="12.5031445"><ele>207.0</ele><time>2026-05-03T09:06:02.265Z</time></trkpt><trkpt lat="42.7298225" lon="12.5032506"><ele>206.0</ele><time>2026-05-03T09:06:03.269Z</time></trkpt><trkpt lat="42.7299567" lon="12.5033638"><ele>206.0</ele><time>2026-05-03T09:06:04.259Z</time></trkpt><trkpt lat="42.7300886" lon="12.5034674"><ele>206.0</ele><time>2026-05-03T09:06:05.272Z</time></trkpt><trkpt lat="42.7302204" lon="12.503571"><ele>206.0</ele><time>2026-05-03T09:06:06.251Z</time></trkpt><trkpt lat="42.7303505" lon="12.5036706"><ele>206.25</ele><time>2026-05-03T09:06:07.257Z</time></trkpt><trkpt lat="42.7304755" lon="12.5037647"><ele>206.5</ele><time>2026-05-03T09:06:08.253Z</time></trkpt><trkpt lat="42.7305978" lon="12.503855"><ele>206.75</ele><time>2026-05-03T09:06:09.261Z</time></trkpt><trkpt lat="42.7307194" lon="12.5039466"><ele>207.0</ele><time>2026-05-03T09:06:10.251Z</time></trkpt><trkpt lat="42.7308425" lon="12.5040369"><ele>207.0</ele><time>2026-05-03T09:06:11.254Z</time></trkpt><trkpt lat="42.7309634" lon="12.5041207"><ele>207.0</ele><time>2026-05-03T09:06:12.266Z</time></trkpt><trkpt lat="42.7310817" lon="12.5042014"><ele>207.0</ele><time>2026-05-03T09:06:13.265Z</time></trkpt><trkpt lat="42.7311978" lon="12.5042896"><ele>207.0</ele><time>2026-05-03T09:06:14.258Z</time></trkpt><trkpt lat="42.7313099" lon="12.5043796"><ele>208.25</ele><time>2026-05-03T09:06:15.261Z</time></trkpt><trkpt lat="42.7314203" lon="12.504456"><ele>209.5</ele><time>2026-05-03T09:06:16.283Z</time></trkpt><trkpt lat="42.7315216" lon="12.5045265"><ele>210.75</ele><time>2026-05-03T09:06:17.273Z</time></trkpt><trkpt lat="42.7316175" lon="12.5045989"><ele>212.0</ele><time>2026-05-03T09:06:18.287Z</time></trkpt><trkpt lat="42.7317149" lon="12.5046785"><ele>213.0</ele><time>2026-05-03T09:06:19.267Z</time></trkpt><trkpt lat="42.731809" lon="12.5047479"><ele>214.0</ele><time>2026-05-03T09:06:20.265Z</time></trkpt><trkpt lat="42.7319031" lon="12.5048147"><ele>215.0</ele><time>2026-05-03T09:06:21.286Z</time></trkpt><trkpt lat="42.7319914" lon="12.5048771"><ele>216.0</ele><time>2026-05-03T09:06:22.255Z</time></trkpt><trkpt lat="42.7320533" lon="12.5049181"><ele>217.0</ele><time>2026-05-03T09:06:23.258Z</time></trkpt><trkpt lat="42.732115" lon="12.5049699"><ele>216.99999999999997</ele><time>2026-05-03T09:06:25.263Z</time></trkpt><trkpt lat="42.732101" lon="12.5050554"><ele>217.0</ele><time>2026-05-03T09:06:30.263Z</time></trkpt><trkpt lat="42.7320137" lon="12.5049906"><ele>217.0</ele><time>2026-05-03T09:06:33.276Z</time></trkpt><trkpt lat="42.7319541" lon="12.5048983"><ele>217.0</ele><time>2026-05-03T09:06:35.254Z</time></trkpt><trkpt lat="42.7319066" lon="12.5048195"><ele>216.99999999999997</ele><time>2026-05-03T09:06:37.279Z</time></trkpt><trkpt lat="42.7318273" lon="12.5047484"><ele>217.0</ele><time>2026-05-03T09:06:39.263Z</time></trkpt><trkpt lat="42.7317394" lon="12.5046739"><ele>216.99999999999997</ele><time>2026-05-03T09:06:41.269Z</time></trkpt><trkpt lat="42.7316724" lon="12.5046125"><ele>217.0</ele><time>2026-05-03T09:06:44.253Z</time></trkpt><trkpt lat="42.7317171" lon="12.5047104"><ele>217.0</ele><time>2026-05-03T09:07:13.267Z</time></trkpt><trkpt lat="42.7317783" lon="12.504738"><ele>217.0</ele><time>2026-05-03T09:07:14.268Z</time></trkpt><trkpt lat="42.7318438" lon="12.5047717"><ele>216.99999999999997</ele><time>2026-05-03T09:07:15.28Z</time></trkpt><trkpt lat="42.7319204" lon="12.5048142"><ele>217.0</ele><time>2026-05-03T09:07:16.277Z</time></trkpt><trkpt lat="42.7319995" lon="12.5048702"><ele>219.6</ele><time>2026-05-03T09:07:17.262Z</time></trkpt><trkpt lat="42.7320824" lon="12.5049293"><ele>222.2</ele><time>2026-05-03T09:07:18.272Z</time></trkpt><trkpt lat="42.7321789" lon="12.5049902"><ele>224.8</ele><time>2026-05-03T09:07:19.262Z</time></trkpt><trkpt lat="42.732282" lon="12.5050574"><ele>227.4</ele><time>2026-05-03T09:07:20.263Z</time></trkpt><trkpt lat="42.7323794" lon="12.5051178"><ele>230.0</ele><time>2026-05-03T09:07:21.269Z</time></trkpt><trkpt lat="42.7324742" lon="12.5051758"><ele>230.00000000000003</ele><time>2026-05-03T09:07:22.265Z</time></trkpt><trkpt lat="42.7325571" lon="12.5052216"><ele>230.0</ele><time>2026-05-03T09:07:23.258Z</time></trkpt><trkpt lat="42.7326208" lon="12.5052612"><ele>230.0</ele><time>2026-05-03T09:07:24.269Z</time></trkpt><trkpt lat="42.7327323" lon="12.505307"><ele>230.0</ele><time>2026-05-03T09:07:26.26Z</time></trkpt><trkpt lat="42.7328269" lon="12.5053783"><ele>230.00000000000003</ele><time>2026-05-03T09:07:28.265Z</time></trkpt><trkpt lat="42.7328586" lon="12.5054546"><ele>230.0</ele><time>2026-05-03T09:07:29.277Z</time></trkpt><trkpt lat="42.7328946" lon="12.5055571"><ele>232.4</ele><time>2026-05-03T09:07:30.303Z</time></trkpt><trkpt lat="42.7329429" lon="12.5056611"><ele>234.8</ele><time>2026-05-03T09:07:31.296Z</time></trkpt><trkpt lat="42.7330097" lon="12.5057622"><ele>237.2</ele><time>2026-05-03T09:07:32.281Z</time></trkpt><trkpt lat="42.7330862" lon="12.5058657"><ele>239.6</ele><time>2026-05-03T09:07:33.271Z</time></trkpt><trkpt lat="42.7331665" lon="12.5059632"><ele>242.0</ele><time>2026-05-03T09:07:34.257Z</time></trkpt><trkpt lat="42.7332523" lon="12.5060527"><ele>242.0</ele><time>2026-05-03T09:07:35.25Z</time></trkpt><trkpt lat="42.7333366" lon="12.5061394"><ele>242.0</ele><time>2026-05-03T09:07:36.263Z</time></trkpt><trkpt lat="42.7334679" lon="12.506289"><ele>242.0</ele><time>2026-05-03T09:07:38.254Z</time></trkpt><trkpt lat="42.7335249" lon="12.50636"><ele>242.0</ele><time>2026-05-03T09:07:39.273Z</time></trkpt><trkpt lat="42.7335865" lon="12.5064286"><ele>242.0</ele><time>2026-05-03T09:07:40.264Z</time></trkpt><trkpt lat="42.7336463" lon="12.5064852"><ele>243.50000000000003</ele><time>2026-05-03T09:07:41.26Z</time></trkpt><trkpt lat="42.7337121" lon="12.506529"><ele>245.0</ele><time>2026-05-03T09:07:42.27Z</time></trkpt><trkpt lat="42.7337861" lon="12.5065746"><ele>246.5</ele><time>2026-05-03T09:07:43.261Z</time></trkpt><trkpt lat="42.7338625" lon="12.5066286"><ele>248.0</ele><time>2026-05-03T09:07:44.261Z</time></trkpt><trkpt lat="42.7339393" lon="12.5066767"><ele>249.50000000000003</ele><time>2026-05-03T09:07:45.272Z</time></trkpt><trkpt lat="42.7340192" lon="12.5067252"><ele>251.0</ele><time>2026-05-03T09:07:46.268Z</time></trkpt><trkpt lat="42.7340961" lon="12.5067816"><ele>251.00000000000003</ele><time>2026-05-03T09:07:47.25Z</time></trkpt><trkpt lat="42.7341695" lon="12.5068437"><ele>251.0</ele><time>2026-05-03T09:07:48.269Z</time></trkpt><trkpt lat="42.7342372" lon="12.5069106"><ele>251.0</ele><time>2026-05-03T09:07:49.263Z</time></trkpt><trkpt lat="42.7342984" lon="12.5069748"><ele>251.0</ele><time>2026-05-03T09:07:50.282Z</time></trkpt><trkpt lat="42.7343549" lon="12.5070351"><ele>251.00000000000003</ele><time>2026-05-03T09:07:51.269Z</time></trkpt><trkpt lat="42.7344098" lon="12.5070955"><ele>251.0</ele><time>2026-05-03T09:07:52.265Z</time></trkpt><trkpt lat="42.734465" lon="12.5071638"><ele>252.33333333333334</ele><time>2026-05-03T09:07:53.277Z</time></trkpt><trkpt lat="42.7345187" lon="12.5072382"><ele>253.66666666666669</ele><time>2026-05-03T09:07:54.283Z</time></trkpt><trkpt lat="42.7345766" lon="12.5073125"><ele>255.0</ele><time>2026-05-03T09:07:55.272Z</time></trkpt><trkpt lat="42.7346335" lon="12.5073842"><ele>256.3333333333333</ele><time>2026-05-03T09:07:56.257Z</time></trkpt><trkpt lat="42.7346906" lon="12.5074571"><ele>257.66666666666663</ele><time>2026-05-03T09:07:57.282Z</time></trkpt><trkpt lat="42.7347498" lon="12.507533"><ele>259.0</ele><time>2026-05-03T09:07:58.271Z</time></trkpt><trkpt lat="42.734808" lon="12.507614"><ele>259.0</ele><time>2026-05-03T09:07:59.265Z</time></trkpt><trkpt lat="42.7348652" lon="12.5076996"><ele>259.0</ele><time>2026-05-03T09:08:00.281Z</time></trkpt><trkpt lat="42.7349178" lon="12.5077838"><ele>259.0</ele><time>2026-05-03T09:08:01.264Z</time></trkpt><trkpt lat="42.7349722" lon="12.5078647"><ele>259.0</ele><time>2026-05-03T09:08:02.261Z</time></trkpt><trkpt lat="42.7350312" lon="12.5079539"><ele>259.0</ele><time>2026-05-03T09:08:03.274Z</time></trkpt><trkpt lat="42.7350894" lon="12.5080418"><ele>259.0</ele><time>2026-05-03T09:08:04.271Z</time></trkpt><trkpt lat="42.7351493" lon="12.5081305"><ele>259.0</ele><time>2026-05-03T09:08:05.27Z</time></trkpt><trkpt lat="42.7352057" lon="12.5082209"><ele>259.0</ele><time>2026-05-03T09:08:06.27Z</time></trkpt><trkpt lat="42.7352645" lon="12.508316"><ele>259.0</ele><time>2026-05-03T09:08:07.267Z</time></trkpt><trkpt lat="42.7353254" lon="12.5084102"><ele>259.0</ele><time>2026-05-03T09:08:08.266Z</time></trkpt><trkpt lat="42.7353856" lon="12.5085034"><ele>259.0</ele><time>2026-05-03T09:08:09.262Z</time></trkpt><trkpt lat="42.7354409" lon="12.5085915"><ele>259.0</ele><time>2026-05-03T09:08:10.277Z</time></trkpt><trkpt lat="42.7354946" lon="12.5086747"><ele>260.2</ele><time>2026-05-03T09:08:11.264Z</time></trkpt><trkpt lat="42.7355516" lon="12.5087637"><ele>261.4</ele><time>2026-05-03T09:08:12.277Z</time></trkpt><trkpt lat="42.7356144" lon="12.5088618"><ele>262.6</ele><time>2026-05-03T09:08:13.273Z</time></trkpt><trkpt lat="42.7356812" lon="12.5089619"><ele>263.8</ele><time>2026-05-03T09:08:14.261Z</time></trkpt><trkpt lat="42.7357498" lon="12.5090691"><ele>265.0</ele><time>2026-05-03T09:08:15.274Z</time></trkpt><trkpt lat="42.7358191" lon="12.5091726"><ele>265.0</ele><time>2026-05-03T09:08:16.276Z</time></trkpt><trkpt lat="42.7358869" lon="12.5092777"><ele>265.0</ele><time>2026-05-03T09:08:17.276Z</time></trkpt><trkpt lat="42.7359578" lon="12.5093871"><ele>265.0</ele><time>2026-05-03T09:08:18.295Z</time></trkpt><trkpt lat="42.7360239" lon="12.5094898"><ele>265.0</ele><time>2026-05-03T09:08:19.262Z</time></trkpt><trkpt lat="42.736084" lon="12.5095848"><ele>265.0</ele><time>2026-05-03T09:08:20.275Z</time></trkpt><trkpt lat="42.7361417" lon="12.509677"><ele>265.6</ele><time>2026-05-03T09:08:21.262Z</time></trkpt><trkpt lat="42.7361956" lon="12.5097711"><ele>266.2</ele><time>2026-05-03T09:08:22.264Z</time></trkpt><trkpt lat="42.7362572" lon="12.5098694"><ele>266.8</ele><time>2026-05-03T09:08:23.279Z</time></trkpt><trkpt lat="42.736322" lon="12.5099746"><ele>267.4</ele><time>2026-05-03T09:08:24.27Z</time></trkpt><trkpt lat="42.7363834" lon="12.5100785"><ele>268.0</ele><time>2026-05-03T09:08:25.275Z</time></trkpt><trkpt lat="42.736436" lon="12.5101847"><ele>268.0</ele><time>2026-05-03T09:08:26.277Z</time></trkpt><trkpt lat="42.7364773" lon="12.5102962"><ele>268.0</ele><time>2026-05-03T09:08:27.262Z</time></trkpt><trkpt lat="42.7365068" lon="12.5104166"><ele>268.0</ele><time>2026-05-03T09:08:28.264Z</time></trkpt><trkpt lat="42.7365376" lon="12.5105506"><ele>268.0</ele><time>2026-05-03T09:08:29.263Z</time></trkpt><trkpt lat="42.736564" lon="12.5106887"><ele>268.0</ele><time>2026-05-03T09:08:30.265Z</time></trkpt><trkpt lat="42.7365902" lon="12.5108293"><ele>268.75</ele><time>2026-05-03T09:08:31.276Z</time></trkpt><trkpt lat="42.7366111" lon="12.5109681"><ele>269.5</ele><time>2026-05-03T09:08:32.267Z</time></trkpt><trkpt lat="42.7366629" lon="12.5112432"><ele>270.25</ele><time>2026-05-03T09:08:34.252Z</time></trkpt><trkpt lat="42.736695" lon="12.5113763"><ele>271.0</ele><time>2026-05-03T09:08:35.252Z</time></trkpt><trkpt lat="42.7367305" lon="12.5115131"><ele>271.2</ele><time>2026-05-03T09:08:36.268Z</time></trkpt><trkpt lat="42.7367668" lon="12.5116577"><ele>271.40000000000003</ele><time>2026-05-03T09:08:37.274Z</time></trkpt><trkpt lat="42.7368039" lon="12.5117939"><ele>271.6</ele><time>2026-05-03T09:08:38.279Z</time></trkpt><trkpt lat="42.7368395" lon="12.5119074"><ele>271.8</ele><time>2026-05-03T09:08:39.273Z</time></trkpt><trkpt lat="42.7368717" lon="12.5119988"><ele>272.0</ele><time>2026-05-03T09:08:40.258Z</time></trkpt><trkpt lat="42.7369058" lon="12.5120782"><ele>271.5</ele><time>2026-05-03T09:08:41.257Z</time></trkpt><trkpt lat="42.7369361" lon="12.5121548"><ele>271.0</ele><time>2026-05-03T09:08:42.28Z</time></trkpt><trkpt lat="42.737009" lon="12.5123052"><ele>270.5</ele><time>2026-05-03T09:08:44.274Z</time></trkpt><trkpt lat="42.7370554" lon="12.5123805"><ele>270.0</ele><time>2026-05-03T09:08:45.272Z</time></trkpt><trkpt lat="42.7371128" lon="12.512455"><ele>269.5</ele><time>2026-05-03T09:08:46.274Z</time></trkpt><trkpt lat="42.7371661" lon="12.5125282"><ele>269.0</ele><time>2026-05-03T09:08:47.256Z</time></trkpt><trkpt lat="42.7372196" lon="12.5126173"><ele>269.0</ele><time>2026-05-03T09:08:48.265Z</time></trkpt><trkpt lat="42.737273" lon="12.5127252"><ele>269.0</ele><time>2026-05-03T09:08:49.261Z</time></trkpt><trkpt lat="42.737325" lon="12.5128527"><ele>269.0</ele><time>2026-05-03T09:08:50.266Z</time></trkpt><trkpt lat="42.7373713" lon="12.5129826"><ele>269.0</ele><time>2026-05-03T09:08:51.278Z</time></trkpt><trkpt lat="42.7374147" lon="12.5131134"><ele>269.0</ele><time>2026-05-03T09:08:52.276Z</time></trkpt><trkpt lat="42.7374531" lon="12.5132412"><ele>269.83333333333337</ele><time>2026-05-03T09:08:53.261Z</time></trkpt><trkpt lat="42.7374891" lon="12.5133588"><ele>270.6666666666667</ele><time>2026-05-03T09:08:54.273Z</time></trkpt><trkpt lat="42.7375207" lon="12.5134616"><ele>271.5</ele><time>2026-05-03T09:08:55.277Z</time></trkpt><trkpt lat="42.7375489" lon="12.5135556"><ele>272.3333333333333</ele><time>2026-05-03T09:08:56.28Z</time></trkpt><trkpt lat="42.737577" lon="12.5136517"><ele>273.16666666666663</ele><time>2026-05-03T09:08:57.273Z</time></trkpt><trkpt lat="42.7376121" lon="12.5137685"><ele>274.0</ele><time>2026-05-03T09:08:58.262Z</time></trkpt><trkpt lat="42.7376526" lon="12.5138984"><ele>274.3333333333333</ele><time>2026-05-03T09:08:59.267Z</time></trkpt><trkpt lat="42.7376862" lon="12.5140063"><ele>274.66666666666663</ele><time>2026-05-03T09:09:00.264Z</time></trkpt><trkpt lat="42.7377133" lon="12.5141514"><ele>275.0</ele><time>2026-05-03T09:09:02.296Z</time></trkpt><trkpt lat="42.7377188" lon="12.5142631"><ele>275.3333333333333</ele><time>2026-05-03T09:09:05.276Z</time></trkpt><trkpt lat="42.7377486" lon="12.5143663"><ele>275.6666666666667</ele><time>2026-05-03T09:09:08.275Z</time></trkpt><trkpt lat="42.7377712" lon="12.5144518"><ele>276.0</ele><time>2026-05-03T09:09:10.275Z</time></trkpt><trkpt lat="42.7378007" lon="12.5145337"><ele>275.6666666666667</ele><time>2026-05-03T09:09:12.264Z</time></trkpt><trkpt lat="42.7378328" lon="12.5146207"><ele>275.3333333333333</ele><time>2026-05-03T09:09:14.273Z</time></trkpt><trkpt lat="42.7378783" lon="12.5147493"><ele>275.0</ele><time>2026-05-03T09:09:16.262Z</time></trkpt><trkpt lat="42.7379063" lon="12.5148325"><ele>274.66666666666663</ele><time>2026-05-03T09:09:17.275Z</time></trkpt><trkpt lat="42.7379343" lon="12.5149128"><ele>274.3333333333333</ele><time>2026-05-03T09:09:18.279Z</time></trkpt><trkpt lat="42.7379847" lon="12.5150635"><ele>274.0</ele><time>2026-05-03T09:09:20.272Z</time></trkpt><trkpt lat="42.7380166" lon="12.515239"><ele>274.0</ele><time>2026-05-03T09:09:22.274Z</time></trkpt><trkpt lat="42.7380226" lon="12.5153547"><ele>274.0</ele><time>2026-05-03T09:09:23.271Z</time></trkpt><trkpt lat="42.7380208" lon="12.5154894"><ele>274.0</ele><time>2026-05-03T09:09:24.279Z</time></trkpt><trkpt lat="42.7380194" lon="12.5156482"><ele>274.0</ele><time>2026-05-03T09:09:25.266Z</time></trkpt><trkpt lat="42.738013" lon="12.5158078"><ele>274.0</ele><time>2026-05-03T09:09:26.25Z</time></trkpt><trkpt lat="42.7380077" lon="12.5159482"><ele>274.25</ele><time>2026-05-03T09:09:27.256Z</time></trkpt><trkpt lat="42.7380178" lon="12.5160996"><ele>274.5</ele><time>2026-05-03T09:09:28.265Z</time></trkpt><trkpt lat="42.7380401" lon="12.5162669"><ele>274.75</ele><time>2026-05-03T09:09:29.26Z</time></trkpt><trkpt lat="42.738057" lon="12.5164385"><ele>275.0</ele><time>2026-05-03T09:09:30.268Z</time></trkpt><trkpt lat="42.7380592" lon="12.5166077"><ele>275.25</ele><time>2026-05-03T09:09:31.26Z</time></trkpt><trkpt lat="42.7380637" lon="12.5167756"><ele>275.5</ele><time>2026-05-03T09:09:32.256Z</time></trkpt><trkpt lat="42.7380563" lon="12.5169394"><ele>275.75</ele><time>2026-05-03T09:09:33.258Z</time></trkpt><trkpt lat="42.7380488" lon="12.5170944"><ele>276.0</ele><time>2026-05-03T09:09:34.259Z</time></trkpt><trkpt lat="42.7380379" lon="12.5172397"><ele>277.0</ele><time>2026-05-03T09:09:35.258Z</time></trkpt><trkpt lat="42.7380148" lon="12.5173717"><ele>278.0</ele><time>2026-05-03T09:09:36.264Z</time></trkpt><trkpt lat="42.7379694" lon="12.517518"><ele>279.0</ele><time>2026-05-03T09:09:37.254Z</time></trkpt><trkpt lat="42.7379177" lon="12.5176679"><ele>280.0</ele><time>2026-05-03T09:09:38.255Z</time></trkpt><trkpt lat="42.7378699" lon="12.5178132"><ele>281.0</ele><time>2026-05-03T09:09:39.26Z</time></trkpt><trkpt lat="42.7378301" lon="12.5179558"><ele>282.0</ele><time>2026-05-03T09:09:40.259Z</time></trkpt><trkpt lat="42.7377949" lon="12.5180955"><ele>283.0</ele><time>2026-05-03T09:09:41.262Z</time></trkpt><trkpt lat="42.7377672" lon="12.5182387"><ele>284.0</ele><time>2026-05-03T09:09:42.268Z</time></trkpt><trkpt lat="42.7377483" lon="12.5183881"><ele>285.0</ele><time>2026-05-03T09:09:43.271Z</time></trkpt><trkpt lat="42.7377339" lon="12.5185497"><ele>285.0</ele><time>2026-05-03T09:09:44.261Z</time></trkpt><trkpt lat="42.7377223" lon="12.5187259"><ele>285.0</ele><time>2026-05-03T09:09:45.273Z</time></trkpt><trkpt lat="42.737723" lon="12.5189258"><ele>285.0</ele><time>2026-05-03T09:09:46.267Z</time></trkpt><trkpt lat="42.737725" lon="12.5191417"><ele>285.0</ele><time>2026-05-03T09:09:47.261Z</time></trkpt><trkpt lat="42.7377226" lon="12.5193687"><ele>288.0</ele><time>2026-05-03T09:09:48.276Z</time></trkpt><trkpt lat="42.7377227" lon="12.5196012"><ele>291.0</ele><time>2026-05-03T09:09:49.274Z</time></trkpt><trkpt lat="42.737721" lon="12.5198025"><ele>294.0</ele><time>2026-05-03T09:09:50.263Z</time></trkpt><trkpt lat="42.7377097" lon="12.5199622"><ele>297.0</ele><time>2026-05-03T09:09:51.258Z</time></trkpt><trkpt lat="42.7376818" lon="12.5200975"><ele>297.75</ele><time>2026-05-03T09:09:52.266Z</time></trkpt><trkpt lat="42.7376414" lon="12.5202302"><ele>298.5</ele><time>2026-05-03T09:09:53.273Z</time></trkpt><trkpt lat="42.7375947" lon="12.5203776"><ele>299.25</ele><time>2026-05-03T09:09:54.276Z</time></trkpt><trkpt lat="42.7375461" lon="12.5205385"><ele>300.0</ele><time>2026-05-03T09:09:55.275Z</time></trkpt><trkpt lat="42.7375049" lon="12.5206917"><ele>302.4</ele><time>2026-05-03T09:09:56.27Z</time></trkpt><trkpt lat="42.7374698" lon="12.5208144"><ele>304.8</ele><time>2026-05-03T09:09:57.281Z</time></trkpt><trkpt lat="42.737428" lon="12.5209172"><ele>307.2</ele><time>2026-05-03T09:09:58.268Z</time></trkpt><trkpt lat="42.7373806" lon="12.521016"><ele>309.6</ele><time>2026-05-03T09:09:59.276Z</time></trkpt><trkpt lat="42.7373277" lon="12.5211227"><ele>312.0</ele><time>2026-05-03T09:10:00.272Z</time></trkpt><trkpt lat="42.7372715" lon="12.5212369"><ele>313.8333333333333</ele><time>2026-05-03T09:10:01.274Z</time></trkpt><trkpt lat="42.7372096" lon="12.5213547"><ele>315.6666666666667</ele><time>2026-05-03T09:10:02.269Z</time></trkpt><trkpt lat="42.7371531" lon="12.5214493"><ele>317.5</ele><time>2026-05-03T09:10:03.262Z</time></trkpt><trkpt lat="42.7371098" lon="12.5215393"><ele>319.33333333333337</ele><time>2026-05-03T09:10:04.275Z</time></trkpt><trkpt lat="42.7370766" lon="12.521634"><ele>321.1666666666667</ele><time>2026-05-03T09:10:05.27Z</time></trkpt><trkpt lat="42.7370556" lon="12.5217327"><ele>323.0</ele><time>2026-05-03T09:10:06.267Z</time></trkpt><trkpt lat="42.737041" lon="12.5218506"><ele>323.0</ele><time>2026-05-03T09:10:07.258Z</time></trkpt><trkpt lat="42.7370211" lon="12.5219744"><ele>323.0</ele><time>2026-05-03T09:10:08.284Z</time></trkpt><trkpt lat="42.7370011" lon="12.5221132"><ele>323.0</ele><time>2026-05-03T09:10:09.258Z</time></trkpt><trkpt lat="42.736986" lon="12.5222539"><ele>323.0</ele><time>2026-05-03T09:10:10.255Z</time></trkpt><trkpt lat="42.7369768" lon="12.5223808"><ele>323.0</ele><time>2026-05-03T09:10:11.268Z</time></trkpt><trkpt lat="42.736977" lon="12.5224909"><ele>324.59999999999997</ele><time>2026-05-03T09:10:12.281Z</time></trkpt><trkpt lat="42.7369789" lon="12.5225833"><ele>326.2</ele><time>2026-05-03T09:10:13.269Z</time></trkpt><trkpt lat="42.7370075" lon="12.5227123"><ele>327.8</ele><time>2026-05-03T09:10:15.269Z</time></trkpt><trkpt lat="42.7370726" lon="12.522826"><ele>329.4</ele><time>2026-05-03T09:10:17.272Z</time></trkpt><trkpt lat="42.7371616" lon="12.5229536"><ele>331.0</ele><time>2026-05-03T09:10:19.26Z</time></trkpt><trkpt lat="42.7372314" lon="12.5230367"><ele>331.0</ele><time>2026-05-03T09:10:20.26Z</time></trkpt><trkpt lat="42.7373227" lon="12.5231238"><ele>331.0</ele><time>2026-05-03T09:10:21.269Z</time></trkpt><trkpt lat="42.7374239" lon="12.5231887"><ele>331.0</ele><time>2026-05-03T09:10:22.266Z</time></trkpt><trkpt lat="42.7375402" lon="12.5232319"><ele>331.0</ele><time>2026-05-03T09:10:23.26Z</time></trkpt><trkpt lat="42.7376636" lon="12.5232705"><ele>331.25</ele><time>2026-05-03T09:10:24.263Z</time></trkpt><trkpt lat="42.7377955" lon="12.523308"><ele>331.5</ele><time>2026-05-03T09:10:25.26Z</time></trkpt><trkpt lat="42.7379246" lon="12.5233439"><ele>331.75</ele><time>2026-05-03T09:10:26.261Z</time></trkpt><trkpt lat="42.7380484" lon="12.5233828"><ele>332.0</ele><time>2026-05-03T09:10:27.274Z</time></trkpt><trkpt lat="42.7381696" lon="12.5234262"><ele>332.0</ele><time>2026-05-03T09:10:28.268Z</time></trkpt><trkpt lat="42.7382863" lon="12.5234703"><ele>332.0</ele><time>2026-05-03T09:10:29.267Z</time></trkpt><trkpt lat="42.7383926" lon="12.5235251"><ele>332.0</ele><time>2026-05-03T09:10:30.258Z</time></trkpt><trkpt lat="42.7384868" lon="12.5236067"><ele>332.0</ele><time>2026-05-03T09:10:31.263Z</time></trkpt><trkpt lat="42.7385762" lon="12.5237162"><ele>333.75</ele><time>2026-05-03T09:10:32.265Z</time></trkpt><trkpt lat="42.738664" lon="12.5238269"><ele>335.5</ele><time>2026-05-03T09:10:33.26Z</time></trkpt><trkpt lat="42.7387498" lon="12.5239422"><ele>337.25</ele><time>2026-05-03T09:10:34.27Z</time></trkpt><trkpt lat="42.7388307" lon="12.5240606"><ele>339.0</ele><time>2026-05-03T09:10:35.26Z</time></trkpt><trkpt lat="42.7388975" lon="12.5241867"><ele>339.0</ele><time>2026-05-03T09:10:36.273Z</time></trkpt><trkpt lat="42.7389532" lon="12.5243103"><ele>339.0</ele><time>2026-05-03T09:10:37.261Z</time></trkpt><trkpt lat="42.7389897" lon="12.5244447"><ele>339.0</ele><time>2026-05-03T09:10:38.267Z</time></trkpt><trkpt lat="42.739051" lon="12.5247107"><ele>339.0</ele><time>2026-05-03T09:10:40.257Z</time></trkpt><trkpt lat="42.739083" lon="12.5248176"><ele>339.6</ele><time>2026-05-03T09:10:41.26Z</time></trkpt><trkpt lat="42.7391304" lon="12.5249192"><ele>340.2</ele><time>2026-05-03T09:10:42.267Z</time></trkpt><trkpt lat="42.7392033" lon="12.525019"><ele>340.8</ele><time>2026-05-03T09:10:43.265Z</time></trkpt><trkpt lat="42.7392969" lon="12.5251151"><ele>341.40000000000003</ele><time>2026-05-03T09:10:44.279Z</time></trkpt><trkpt lat="42.7393866" lon="12.5252155"><ele>342.0</ele><time>2026-05-03T09:10:45.285Z</time></trkpt><trkpt lat="42.7394635" lon="12.5252961"><ele>342.0</ele><time>2026-05-03T09:10:46.261Z</time></trkpt><trkpt lat="42.7395331" lon="12.5253691"><ele>342.0</ele><time>2026-05-03T09:10:47.27Z</time></trkpt><trkpt lat="42.7395937" lon="12.5254263"><ele>342.0</ele><time>2026-05-03T09:10:48.255Z</time></trkpt><trkpt lat="42.739657" lon="12.5254751"><ele>342.0</ele><time>2026-05-03T09:10:49.265Z</time></trkpt><trkpt lat="42.73973" lon="12.5255022"><ele>342.0</ele><time>2026-05-03T09:10:50.264Z</time></trkpt><trkpt lat="42.7398173" lon="12.5254855"><ele>342.0</ele><time>2026-05-03T09:10:51.266Z</time></trkpt><trkpt lat="42.7398924" lon="12.5254485"><ele>342.0</ele><time>2026-05-03T09:10:52.291Z</time></trkpt><trkpt lat="42.7399653" lon="12.5253549"><ele>342.0</ele><time>2026-05-03T09:10:53.283Z</time></trkpt><trkpt lat="42.7400383" lon="12.5252283"><ele>342.0</ele><time>2026-05-03T09:10:54.267Z</time></trkpt><trkpt lat="42.7401211" lon="12.5251036"><ele>342.0</ele><time>2026-05-03T09:10:55.251Z</time></trkpt><trkpt lat="42.740219" lon="12.5249484"><ele>339.25</ele><time>2026-05-03T09:10:56.268Z</time></trkpt><trkpt lat="42.7403105" lon="12.5248006"><ele>336.5</ele><time>2026-05-03T09:10:57.268Z</time></trkpt><trkpt lat="42.740406" lon="12.5246784"><ele>333.75</ele><time>2026-05-03T09:10:58.259Z</time></trkpt><trkpt lat="42.7404966" lon="12.5245882"><ele>331.0</ele><time>2026-05-03T09:10:59.257Z</time></trkpt><trkpt lat="42.7406021" lon="12.5245217"><ele>330.75</ele><time>2026-05-03T09:11:00.263Z</time></trkpt><trkpt lat="42.7407283" lon="12.524482"><ele>330.5</ele><time>2026-05-03T09:11:01.267Z</time></trkpt><trkpt lat="42.7408668" lon="12.5244711"><ele>330.25</ele><time>2026-05-03T09:11:02.249Z</time></trkpt><trkpt lat="42.7410266" lon="12.5244656"><ele>330.0</ele><time>2026-05-03T09:11:03.266Z</time></trkpt><trkpt lat="42.7412116" lon="12.5244543"><ele>329.0</ele><time>2026-05-03T09:11:04.273Z</time></trkpt><trkpt lat="42.7414352" lon="12.5244269"><ele>328.0</ele><time>2026-05-03T09:11:05.269Z</time></trkpt><trkpt lat="42.741696" lon="12.5244165"><ele>328.5</ele><time>2026-05-03T09:11:06.263Z</time></trkpt><trkpt lat="42.7419494" lon="12.5244038"><ele>329.0</ele><time>2026-05-03T09:11:07.262Z</time></trkpt><trkpt lat="42.7421781" lon="12.5243877"><ele>329.0</ele><time>2026-05-03T09:11:08.262Z</time></trkpt><trkpt lat="42.7423838" lon="12.5243672"><ele>329.0</ele><time>2026-05-03T09:11:09.26Z</time></trkpt><trkpt lat="42.7425803" lon="12.5243483"><ele>329.0</ele><time>2026-05-03T09:11:10.257Z</time></trkpt><trkpt lat="42.7427609" lon="12.5243121"><ele>328.6666666666667</ele><time>2026-05-03T09:11:11.266Z</time></trkpt><trkpt lat="42.7429281" lon="12.5242793"><ele>328.3333333333333</ele><time>2026-05-03T09:11:12.256Z</time></trkpt><trkpt lat="42.7430802" lon="12.5242318"><ele>328.0</ele><time>2026-05-03T09:11:13.256Z</time></trkpt><trkpt lat="42.743219" lon="12.5241888"><ele>328.0</ele><time>2026-05-03T09:11:14.275Z</time></trkpt><trkpt lat="42.7433536" lon="12.5241622"><ele>328.0</ele><time>2026-05-03T09:11:15.27Z</time></trkpt><trkpt lat="42.7434928" lon="12.5241571"><ele>328.0</ele><time>2026-05-03T09:11:16.271Z</time></trkpt><trkpt lat="42.7436271" lon="12.5241743"><ele>328.0</ele><time>2026-05-03T09:11:17.269Z</time></trkpt><trkpt lat="42.7437655" lon="12.5242238"><ele>325.66666666666663</ele><time>2026-05-03T09:11:18.272Z</time></trkpt><trkpt lat="42.7439261" lon="12.5243158"><ele>323.3333333333333</ele><time>2026-05-03T09:11:19.269Z</time></trkpt><trkpt lat="42.7441222" lon="12.5244304"><ele>321.0</ele><time>2026-05-03T09:11:20.259Z</time></trkpt><trkpt lat="42.7443297" lon="12.5245614"><ele>320.3333333333333</ele><time>2026-05-03T09:11:21.272Z</time></trkpt><trkpt lat="42.7445235" lon="12.5246799"><ele>319.66666666666663</ele><time>2026-05-03T09:11:22.268Z</time></trkpt><trkpt lat="42.7447024" lon="12.5247824"><ele>319.0</ele><time>2026-05-03T09:11:23.268Z</time></trkpt><trkpt lat="42.7448756" lon="12.5248708"><ele>319.0</ele><time>2026-05-03T09:11:24.283Z</time></trkpt><trkpt lat="42.7450456" lon="12.5249492"><ele>319.0</ele><time>2026-05-03T09:11:25.27Z</time></trkpt><trkpt lat="42.7452235" lon="12.5250057"><ele>319.0</ele><time>2026-05-03T09:11:26.281Z</time></trkpt><trkpt lat="42.7454306" lon="12.5250399"><ele>315.5</ele><time>2026-05-03T09:11:27.28Z</time></trkpt><trkpt lat="42.7456674" lon="12.5250673"><ele>312.0</ele><time>2026-05-03T09:11:28.271Z</time></trkpt><trkpt lat="42.7459365" lon="12.5250868"><ele>310.0</ele><time>2026-05-03T09:11:29.256Z</time></trkpt><trkpt lat="42.7461986" lon="12.5251081"><ele>308.0</ele><time>2026-05-03T09:11:30.268Z</time></trkpt><trkpt lat="42.746442" lon="12.5251186"><ele>308.0</ele><time>2026-05-03T09:11:31.26Z</time></trkpt><trkpt lat="42.7466648" lon="12.5251436"><ele>308.0</ele><time>2026-05-03T09:11:32.257Z</time></trkpt><trkpt lat="42.746877" lon="12.5251655"><ele>308.0</ele><time>2026-05-03T09:11:33.261Z</time></trkpt><trkpt lat="42.7470755" lon="12.5251926"><ele>307.0</ele><time>2026-05-03T09:11:34.273Z</time></trkpt><trkpt lat="42.7472615" lon="12.5252161"><ele>306.0</ele><time>2026-05-03T09:11:35.267Z</time></trkpt><trkpt lat="42.7474409" lon="12.5252424"><ele>305.0</ele><time>2026-05-03T09:11:36.268Z</time></trkpt><trkpt lat="42.7476167" lon="12.5252663"><ele>303.0</ele><time>2026-05-03T09:11:37.275Z</time></trkpt><trkpt lat="42.7477962" lon="12.5252887"><ele>301.0</ele><time>2026-05-03T09:11:38.271Z</time></trkpt><trkpt lat="42.7479826" lon="12.5253165"><ele>299.0</ele><time>2026-05-03T09:11:39.26Z</time></trkpt><trkpt lat="42.7481754" lon="12.5253538"><ele>299.0</ele><time>2026-05-03T09:11:40.27Z</time></trkpt><trkpt lat="42.7483604" lon="12.5253926"><ele>299.0</ele><time>2026-05-03T09:11:41.268Z</time></trkpt><trkpt lat="42.7485177" lon="12.5254305"><ele>299.0</ele><time>2026-05-03T09:11:42.257Z</time></trkpt><trkpt lat="42.7486605" lon="12.5254684"><ele>298.0</ele><time>2026-05-03T09:11:43.272Z</time></trkpt><trkpt lat="42.7487972" lon="12.5255107"><ele>297.0</ele><time>2026-05-03T09:11:44.27Z</time></trkpt><trkpt lat="42.7489225" lon="12.5255653"><ele>296.0</ele><time>2026-05-03T09:11:45.27Z</time></trkpt><trkpt lat="42.7490368" lon="12.5256475"><ele>295.0</ele><time>2026-05-03T09:11:46.251Z</time></trkpt><trkpt lat="42.7491485" lon="12.5257531"><ele>295.0</ele><time>2026-05-03T09:11:47.268Z</time></trkpt><trkpt lat="42.7492597" lon="12.525878"><ele>295.0</ele><time>2026-05-03T09:11:48.27Z</time></trkpt><trkpt lat="42.7493534" lon="12.5260264"><ele>295.0</ele><time>2026-05-03T09:11:49.283Z</time></trkpt><trkpt lat="42.7494496" lon="12.5262202"><ele>292.66666666666663</ele><time>2026-05-03T09:11:50.273Z</time></trkpt><trkpt lat="42.7495588" lon="12.5264414"><ele>290.3333333333333</ele><time>2026-05-03T09:11:51.26Z</time></trkpt><trkpt lat="42.749669" lon="12.5266566"><ele>288.0</ele><time>2026-05-03T09:11:52.301Z</time></trkpt><trkpt lat="42.7497573" lon="12.5268354"><ele>288.0</ele><time>2026-05-03T09:11:53.265Z</time></trkpt><trkpt lat="42.7498335" lon="12.5270129"><ele>288.0</ele><time>2026-05-03T09:11:54.265Z</time></trkpt><trkpt lat="42.7498985" lon="12.5271879"><ele>288.0</ele><time>2026-05-03T09:11:55.258Z</time></trkpt><trkpt lat="42.7499257" lon="12.5273607"><ele>288.0</ele><time>2026-05-03T09:11:56.253Z</time></trkpt><trkpt lat="42.7499321" lon="12.5275507"><ele>288.3333333333333</ele><time>2026-05-03T09:11:57.281Z</time></trkpt><trkpt lat="42.7499255" lon="12.5277414"><ele>288.66666666666663</ele><time>2026-05-03T09:11:58.258Z</time></trkpt><trkpt lat="42.7499053" lon="12.5279451"><ele>289.0</ele><time>2026-05-03T09:11:59.284Z</time></trkpt><trkpt lat="42.7498669" lon="12.5281701"><ele>289.3333333333333</ele><time>2026-05-03T09:12:00.259Z</time></trkpt><trkpt lat="42.7498399" lon="12.5283893"><ele>289.6666666666667</ele><time>2026-05-03T09:12:01.27Z</time></trkpt><trkpt lat="42.7498131" lon="12.5285988"><ele>290.0</ele><time>2026-05-03T09:12:02.258Z</time></trkpt><trkpt lat="42.7497837" lon="12.5287929"><ele>289.5</ele><time>2026-05-03T09:12:03.257Z</time></trkpt><trkpt lat="42.749755" lon="12.5289743"><ele>289.0</ele><time>2026-05-03T09:12:04.25Z</time></trkpt><trkpt lat="42.7497268" lon="12.5291452"><ele>288.5</ele><time>2026-05-03T09:12:05.276Z</time></trkpt><trkpt lat="42.7497043" lon="12.5293206"><ele>288.0</ele><time>2026-05-03T09:12:06.271Z</time></trkpt><trkpt lat="42.7496943" lon="12.5295049"><ele>287.25</ele><time>2026-05-03T09:12:07.272Z</time></trkpt><trkpt lat="42.7497113" lon="12.529687"><ele>286.5</ele><time>2026-05-03T09:12:08.272Z</time></trkpt><trkpt lat="42.7497397" lon="12.529872"><ele>285.75</ele><time>2026-05-03T09:12:09.261Z</time></trkpt><trkpt lat="42.7497789" lon="12.5300652"><ele>285.0</ele><time>2026-05-03T09:12:10.265Z</time></trkpt><trkpt lat="42.7498256" lon="12.5302577"><ele>284.0</ele><time>2026-05-03T09:12:11.281Z</time></trkpt><trkpt lat="42.7498705" lon="12.5304434"><ele>283.0</ele><time>2026-05-03T09:12:12.268Z</time></trkpt><trkpt lat="42.7499056" lon="12.5306124"><ele>282.0</ele><time>2026-05-03T09:12:13.268Z</time></trkpt><trkpt lat="42.749931" lon="12.5307786"><ele>281.0</ele><time>2026-05-03T09:12:14.277Z</time></trkpt><trkpt lat="42.7499404" lon="12.5309488"><ele>281.0</ele><time>2026-05-03T09:12:15.272Z</time></trkpt><trkpt lat="42.7499273" lon="12.5311145"><ele>281.0</ele><time>2026-05-03T09:12:16.272Z</time></trkpt><trkpt lat="42.7498886" lon="12.5312833"><ele>281.0</ele><time>2026-05-03T09:12:17.274Z</time></trkpt><trkpt lat="42.749831" lon="12.5314637"><ele>281.0</ele><time>2026-05-03T09:12:18.262Z</time></trkpt><trkpt lat="42.7497677" lon="12.531651"><ele>280.2</ele><time>2026-05-03T09:12:19.263Z</time></trkpt><trkpt lat="42.7497139" lon="12.5318274"><ele>279.40000000000003</ele><time>2026-05-03T09:12:20.259Z</time></trkpt><trkpt lat="42.7496727" lon="12.531977"><ele>278.6</ele><time>2026-05-03T09:12:21.256Z</time></trkpt><trkpt lat="42.7496351" lon="12.5321061"><ele>277.8</ele><time>2026-05-03T09:12:22.268Z</time></trkpt><trkpt lat="42.7496083" lon="12.5322132"><ele>277.0</ele><time>2026-05-03T09:12:23.261Z</time></trkpt><trkpt lat="42.7495872" lon="12.5323039"><ele>277.0</ele><time>2026-05-03T09:12:24.272Z</time></trkpt><trkpt lat="42.7495603" lon="12.5324169"><ele>277.0</ele><time>2026-05-03T09:12:26.274Z</time></trkpt><trkpt lat="42.7495704" lon="12.5325033"><ele>277.0</ele><time>2026-05-03T09:12:37.266Z</time></trkpt><trkpt lat="42.7494964" lon="12.5326049"><ele>277.0</ele><time>2026-05-03T09:12:40.252Z</time></trkpt><trkpt lat="42.7494372" lon="12.5326729"><ele>277.0</ele><time>2026-05-03T09:12:42.268Z</time></trkpt><trkpt lat="42.749438" lon="12.5327867"><ele>277.0</ele><time>2026-05-03T09:12:44.263Z</time></trkpt><trkpt lat="42.7494836" lon="12.532925"><ele>277.0</ele><time>2026-05-03T09:12:46.264Z</time></trkpt><trkpt lat="42.7495516" lon="12.5330851"><ele>277.0</ele><time>2026-05-03T09:12:48.279Z</time></trkpt><trkpt lat="42.7495969" lon="12.5331791"><ele>277.0</ele><time>2026-05-03T09:12:49.269Z</time></trkpt><trkpt lat="42.7496529" lon="12.5332819"><ele>277.0</ele><time>2026-05-03T09:12:50.28Z</time></trkpt><trkpt lat="42.7497151" lon="12.5333904"><ele>277.0</ele><time>2026-05-03T09:12:51.27Z</time></trkpt><trkpt lat="42.7497742" lon="12.5334978"><ele>277.0</ele><time>2026-05-03T09:12:52.264Z</time></trkpt><trkpt lat="42.7498192" lon="12.5336052"><ele>277.0</ele><time>2026-05-03T09:12:53.28Z</time></trkpt><trkpt lat="42.7498577" lon="12.5337135"><ele>277.0</ele><time>2026-05-03T09:12:54.271Z</time></trkpt><trkpt lat="42.7498835" lon="12.5338398"><ele>277.0</ele><time>2026-05-03T09:12:55.279Z</time></trkpt><trkpt lat="42.7498955" lon="12.5339842"><ele>277.0</ele><time>2026-05-03T09:12:56.261Z</time></trkpt><trkpt lat="42.7499022" lon="12.534137"><ele>277.5</ele><time>2026-05-03T09:12:57.283Z</time></trkpt><trkpt lat="42.7499091" lon="12.5342928"><ele>278.0</ele><time>2026-05-03T09:12:58.252Z</time></trkpt><trkpt lat="42.7499113" lon="12.5344454"><ele>278.5</ele><time>2026-05-03T09:12:59.271Z</time></trkpt><trkpt lat="42.749913" lon="12.5345992"><ele>279.0</ele><time>2026-05-03T09:13:00.273Z</time></trkpt><trkpt lat="42.7499143" lon="12.5347546"><ele>279.59999999999997</ele><time>2026-05-03T09:13:01.277Z</time></trkpt><trkpt lat="42.7499025" lon="12.5349002"><ele>280.2</ele><time>2026-05-03T09:13:02.299Z</time></trkpt><trkpt lat="42.7498838" lon="12.5350385"><ele>280.79999999999995</ele><time>2026-05-03T09:13:03.272Z</time></trkpt><trkpt lat="42.7498568" lon="12.5351618"><ele>281.4</ele><time>2026-05-03T09:13:04.271Z</time></trkpt><trkpt lat="42.7498334" lon="12.535265"><ele>282.0</ele><time>2026-05-03T09:13:05.265Z</time></trkpt><trkpt lat="42.7498384" lon="12.5354095"><ele>282.6</ele><time>2026-05-03T09:13:07.268Z</time></trkpt><trkpt lat="42.7498819" lon="12.5354838"><ele>283.2</ele><time>2026-05-03T09:13:08.281Z</time></trkpt><trkpt lat="42.7499454" lon="12.5355683"><ele>283.8</ele><time>2026-05-03T09:13:09.278Z</time></trkpt><trkpt lat="42.7500042" lon="12.5356695"><ele>284.4</ele><time>2026-05-03T09:13:10.266Z</time></trkpt><trkpt lat="42.7500619" lon="12.5357861"><ele>285.0</ele><time>2026-05-03T09:13:11.273Z</time></trkpt><trkpt lat="42.7501219" lon="12.5359062"><ele>285.0</ele><time>2026-05-03T09:13:12.264Z</time></trkpt><trkpt lat="42.7501785" lon="12.5360292"><ele>285.0</ele><time>2026-05-03T09:13:13.273Z</time></trkpt><trkpt lat="42.7502374" lon="12.5361457"><ele>285.0</ele><time>2026-05-03T09:13:14.285Z</time></trkpt><trkpt lat="42.7502963" lon="12.5362362"><ele>285.0</ele><time>2026-05-03T09:13:15.265Z</time></trkpt><trkpt lat="42.7503457" lon="12.5363201"><ele>285.0</ele><time>2026-05-03T09:13:16.277Z</time></trkpt><trkpt lat="42.7503896" lon="12.5363953"><ele>285.0</ele><time>2026-05-03T09:13:17.264Z</time></trkpt><trkpt lat="42.7504522" lon="12.5364869"><ele>285.3333333333333</ele><time>2026-05-03T09:13:19.266Z</time></trkpt><trkpt lat="42.7504786" lon="12.536605"><ele>285.6666666666667</ele><time>2026-05-03T09:13:22.27Z</time></trkpt><trkpt lat="42.7504324" lon="12.5367019"><ele>286.0</ele><time>2026-05-03T09:13:24.28Z</time></trkpt><trkpt lat="42.7503812" lon="12.5367812"><ele>286.33333333333337</ele><time>2026-05-03T09:13:25.265Z</time></trkpt><trkpt lat="42.750322" lon="12.5368773"><ele>286.6666666666667</ele><time>2026-05-03T09:13:26.266Z</time></trkpt><trkpt lat="42.7502613" lon="12.5369806"><ele>287.0</ele><time>2026-05-03T09:13:27.277Z</time></trkpt><trkpt lat="42.7502022" lon="12.5370778"><ele>287.5</ele><time>2026-05-03T09:13:28.269Z</time></trkpt><trkpt lat="42.7501525" lon="12.5371609"><ele>288.0</ele><time>2026-05-03T09:13:29.271Z</time></trkpt><trkpt lat="42.7501118" lon="12.5372365"><ele>288.5</ele><time>2026-05-03T09:13:30.284Z</time></trkpt><trkpt lat="42.7500507" lon="12.5373706"><ele>289.0</ele><time>2026-05-03T09:13:32.267Z</time></trkpt><trkpt lat="42.7500065" lon="12.5374691"><ele>289.5</ele><time>2026-05-03T09:13:34.271Z</time></trkpt><trkpt lat="42.7499531" lon="12.5375586"><ele>290.0</ele><time>2026-05-03T09:13:36.284Z</time></trkpt><trkpt lat="42.7498706" lon="12.5377083"><ele>290.0</ele><time>2026-05-03T09:13:38.26Z</time></trkpt><trkpt lat="42.7498124" lon="12.5378058"><ele>290.0</ele><time>2026-05-03T09:13:39.266Z</time></trkpt><trkpt lat="42.7497468" lon="12.5379243"><ele>290.0</ele><time>2026-05-03T09:13:40.264Z</time></trkpt><trkpt lat="42.7496732" lon="12.538047"><ele>290.0</ele><time>2026-05-03T09:13:41.265Z</time></trkpt><trkpt lat="42.7495986" lon="12.5381768"><ele>290.0</ele><time>2026-05-03T09:13:42.269Z</time></trkpt><trkpt lat="42.7495227" lon="12.5383089"><ele>290.2</ele><time>2026-05-03T09:13:43.261Z</time></trkpt><trkpt lat="42.7494435" lon="12.5384351"><ele>290.4</ele><time>2026-05-03T09:13:44.252Z</time></trkpt><trkpt lat="42.7493689" lon="12.5385532"><ele>290.6</ele><time>2026-05-03T09:13:45.269Z</time></trkpt><trkpt lat="42.7492975" lon="12.5386635"><ele>290.8</ele><time>2026-05-03T09:13:46.265Z</time></trkpt><trkpt lat="42.7492269" lon="12.5387636"><ele>291.0</ele><time>2026-05-03T09:13:47.282Z</time></trkpt><trkpt lat="42.7491581" lon="12.5388671"><ele>292.6</ele><time>2026-05-03T09:13:48.259Z</time></trkpt><trkpt lat="42.7490849" lon="12.5389627"><ele>294.20000000000005</ele><time>2026-05-03T09:13:49.277Z</time></trkpt><trkpt lat="42.7490083" lon="12.5390674"><ele>295.79999999999995</ele><time>2026-05-03T09:13:50.268Z</time></trkpt><trkpt lat="42.7489267" lon="12.5391701"><ele>297.4</ele><time>2026-05-03T09:13:51.279Z</time></trkpt><trkpt lat="42.7488342" lon="12.5392876"><ele>299.0</ele><time>2026-05-03T09:13:52.274Z</time></trkpt><trkpt lat="42.7487439" lon="12.5394187"><ele>299.0</ele><time>2026-05-03T09:13:53.268Z</time></trkpt><trkpt lat="42.7486572" lon="12.5395411"><ele>299.0</ele><time>2026-05-03T09:13:54.266Z</time></trkpt><trkpt lat="42.748577" lon="12.5396529"><ele>299.0</ele><time>2026-05-03T09:13:55.267Z</time></trkpt><trkpt lat="42.7485044" lon="12.5397524"><ele>299.0</ele><time>2026-05-03T09:13:56.266Z</time></trkpt><trkpt lat="42.7484402" lon="12.5398337"><ele>299.0</ele><time>2026-05-03T09:13:57.276Z</time></trkpt><trkpt lat="42.7483742" lon="12.5399044"><ele>299.42857142857144</ele><time>2026-05-03T09:13:58.275Z</time></trkpt><trkpt lat="42.7483127" lon="12.5399673"><ele>299.8571428571429</ele><time>2026-05-03T09:13:59.268Z</time></trkpt><trkpt lat="42.748258" lon="12.5400179"><ele>300.28571428571433</ele><time>2026-05-03T09:14:00.264Z</time></trkpt><trkpt lat="42.7482045" lon="12.5400991"><ele>300.7142857142857</ele><time>2026-05-03T09:14:02.267Z</time></trkpt><trkpt lat="42.7482355" lon="12.5401932"><ele>301.14285714285717</ele><time>2026-05-03T09:14:04.269Z</time></trkpt><trkpt lat="42.7482781" lon="12.5402586"><ele>301.5714285714286</ele><time>2026-05-03T09:14:05.252Z</time></trkpt><trkpt lat="42.7483249" lon="12.5403372"><ele>302.0</ele><time>2026-05-03T09:14:06.267Z</time></trkpt><trkpt lat="42.748365" lon="12.5404423"><ele>302.4</ele><time>2026-05-03T09:14:07.257Z</time></trkpt><trkpt lat="42.7483956" lon="12.540574"><ele>302.79999999999995</ele><time>2026-05-03T09:14:08.263Z</time></trkpt><trkpt lat="42.7484234" lon="12.540709"><ele>303.2</ele><time>2026-05-03T09:14:09.284Z</time></trkpt><trkpt lat="42.748446" lon="12.5408462"><ele>303.59999999999997</ele><time>2026-05-03T09:14:10.263Z</time></trkpt><trkpt lat="42.748464" lon="12.5409967"><ele>304.0</ele><time>2026-05-03T09:14:11.263Z</time></trkpt><trkpt lat="42.7484771" lon="12.5411448"><ele>304.0</ele><time>2026-05-03T09:14:12.264Z</time></trkpt><trkpt lat="42.7485017" lon="12.5412754"><ele>304.0</ele><time>2026-05-03T09:14:13.262Z</time></trkpt><trkpt lat="42.748536" lon="12.5413882"><ele>304.0</ele><time>2026-05-03T09:14:14.266Z</time></trkpt><trkpt lat="42.7485802" lon="12.5414798"><ele>304.0</ele><time>2026-05-03T09:14:15.28Z</time></trkpt><trkpt lat="42.7486348" lon="12.5415477"><ele>304.0</ele><time>2026-05-03T09:14:16.266Z</time></trkpt><trkpt lat="42.7487043" lon="12.5416085"><ele>304.0</ele><time>2026-05-03T09:14:17.28Z</time></trkpt><trkpt lat="42.7487744" lon="12.5416784"><ele>304.0</ele><time>2026-05-03T09:14:18.26Z</time></trkpt><trkpt lat="42.7488363" lon="12.5417555"><ele>304.0</ele><time>2026-05-03T09:14:19.276Z</time></trkpt><trkpt lat="42.7489081" lon="12.5418308"><ele>304.0</ele><time>2026-05-03T09:14:20.262Z</time></trkpt><trkpt lat="42.7489899" lon="12.5419026"><ele>304.0</ele><time>2026-05-03T09:14:21.284Z</time></trkpt><trkpt lat="42.7490795" lon="12.5419754"><ele>304.0</ele><time>2026-05-03T09:14:22.269Z</time></trkpt><trkpt lat="42.7491733" lon="12.5420456"><ele>304.25</ele><time>2026-05-03T09:14:23.269Z</time></trkpt><trkpt lat="42.7492647" lon="12.5421206"><ele>304.5</ele><time>2026-05-03T09:14:24.262Z</time></trkpt><trkpt lat="42.7493616" lon="12.5421916"><ele>304.75</ele><time>2026-05-03T09:14:25.277Z</time></trkpt><trkpt lat="42.7494667" lon="12.5422734"><ele>305.0</ele><time>2026-05-03T09:14:26.283Z</time></trkpt><trkpt lat="42.7495744" lon="12.54236"><ele>305.0</ele><time>2026-05-03T09:14:27.265Z</time></trkpt><trkpt lat="42.7496778" lon="12.5424454"><ele>305.0</ele><time>2026-05-03T09:14:28.265Z</time></trkpt><trkpt lat="42.7497832" lon="12.542522"><ele>305.0</ele><time>2026-05-03T09:14:29.268Z</time></trkpt><trkpt lat="42.749896" lon="12.5425899"><ele>305.0</ele><time>2026-05-03T09:14:30.266Z</time></trkpt><trkpt lat="42.7500043" lon="12.5426624"><ele>305.0</ele><time>2026-05-03T09:14:31.264Z</time></trkpt><trkpt lat="42.7501103" lon="12.542731"><ele>305.0</ele><time>2026-05-03T09:14:32.262Z</time></trkpt><trkpt lat="42.7502073" lon="12.5427936"><ele>305.0</ele><time>2026-05-03T09:14:33.266Z</time></trkpt><trkpt lat="42.7502987" lon="12.5428554"><ele>305.0</ele><time>2026-05-03T09:14:34.27Z</time></trkpt><trkpt lat="42.7503895" lon="12.5428967"><ele>305.0</ele><time>2026-05-03T09:14:35.258Z</time></trkpt><trkpt lat="42.7504771" lon="12.5429216"><ele>306.33333333333337</ele><time>2026-05-03T09:14:36.268Z</time></trkpt><trkpt lat="42.7505574" lon="12.5429379"><ele>307.6666666666667</ele><time>2026-05-03T09:14:37.269Z</time></trkpt><trkpt lat="42.7506302" lon="12.5429548"><ele>309.0</ele><time>2026-05-03T09:14:38.26Z</time></trkpt><trkpt lat="42.7506948" lon="12.5429827"><ele>310.3333333333333</ele><time>2026-05-03T09:14:39.27Z</time></trkpt><trkpt lat="42.7507484" lon="12.5430434"><ele>311.66666666666663</ele><time>2026-05-03T09:14:40.264Z</time></trkpt><trkpt lat="42.750797" lon="12.5431417"><ele>313.0</ele><time>2026-05-03T09:14:41.262Z</time></trkpt><trkpt lat="42.75086" lon="12.543281"><ele>313.0</ele><time>2026-05-03T09:14:42.261Z</time></trkpt><trkpt lat="42.7509476" lon="12.5434357"><ele>313.0</ele><time>2026-05-03T09:14:43.26Z</time></trkpt><trkpt lat="42.7510306" lon="12.5435661"><ele>313.0</ele><time>2026-05-03T09:14:44.272Z</time></trkpt><trkpt lat="42.7511016" lon="12.5436803"><ele>313.0</ele><time>2026-05-03T09:14:45.257Z</time></trkpt><trkpt lat="42.7511682" lon="12.5437831"><ele>313.2</ele><time>2026-05-03T09:14:46.267Z</time></trkpt><trkpt lat="42.7512436" lon="12.543875"><ele>313.4</ele><time>2026-05-03T09:14:47.269Z</time></trkpt><trkpt lat="42.7513225" lon="12.543955"><ele>313.59999999999997</ele><time>2026-05-03T09:14:48.26Z</time></trkpt><trkpt lat="42.7514029" lon="12.5440457"><ele>313.8</ele><time>2026-05-03T09:14:49.27Z</time></trkpt><trkpt lat="42.7514806" lon="12.5441351"><ele>314.0</ele><time>2026-05-03T09:14:50.256Z</time></trkpt><trkpt lat="42.7515595" lon="12.5442278"><ele>314.0</ele><time>2026-05-03T09:14:51.258Z</time></trkpt><trkpt lat="42.7516425" lon="12.544318"><ele>314.0</ele><time>2026-05-03T09:14:52.278Z</time></trkpt><trkpt lat="42.7517146" lon="12.5443912"><ele>314.0</ele><time>2026-05-03T09:14:53.265Z</time></trkpt><trkpt lat="42.7517675" lon="12.5444648"><ele>314.0</ele><time>2026-05-03T09:14:54.263Z</time></trkpt><trkpt lat="42.7518128" lon="12.544549"><ele>314.0</ele><time>2026-05-03T09:14:55.281Z</time></trkpt><trkpt lat="42.7518503" lon="12.5446571"><ele>314.0</ele><time>2026-05-03T09:14:56.261Z</time></trkpt><trkpt lat="42.7518874" lon="12.5447673"><ele>314.6666666666667</ele><time>2026-05-03T09:14:57.264Z</time></trkpt><trkpt lat="42.7519197" lon="12.5448755"><ele>315.33333333333337</ele><time>2026-05-03T09:14:58.274Z</time></trkpt><trkpt lat="42.7519592" lon="12.5449532"><ele>316.0</ele><time>2026-05-03T09:14:59.268Z</time></trkpt><trkpt lat="42.7520065" lon="12.5450123"><ele>316.6666666666667</ele><time>2026-05-03T09:15:00.265Z</time></trkpt><trkpt lat="42.7521106" lon="12.54509"><ele>317.3333333333333</ele><time>2026-05-03T09:15:02.281Z</time></trkpt><trkpt lat="42.7521882" lon="12.5450827"><ele>318.0</ele><time>2026-05-03T09:15:03.26Z</time></trkpt><trkpt lat="42.7522615" lon="12.5450599"><ele>318.0</ele><time>2026-05-03T09:15:04.259Z</time></trkpt><trkpt lat="42.7523309" lon="12.5450229"><ele>318.0</ele><time>2026-05-03T09:15:05.26Z</time></trkpt><trkpt lat="42.7523988" lon="12.5449752"><ele>318.0</ele><time>2026-05-03T09:15:06.274Z</time></trkpt><trkpt lat="42.752463" lon="12.5449499"><ele>318.0</ele><time>2026-05-03T09:15:07.274Z</time></trkpt><trkpt lat="42.7525287" lon="12.5449395"><ele>318.0</ele><time>2026-05-03T09:15:08.267Z</time></trkpt><trkpt lat="42.7526267" lon="12.5449802"><ele>318.0</ele><time>2026-05-03T09:15:10.261Z</time></trkpt><trkpt lat="42.7526846" lon="12.5451443"><ele>318.2</ele><time>2026-05-03T09:15:12.26Z</time></trkpt><trkpt lat="42.7527147" lon="12.5452464"><ele>318.4</ele><time>2026-05-03T09:15:13.288Z</time></trkpt><trkpt lat="42.7527483" lon="12.5453609"><ele>318.59999999999997</ele><time>2026-05-03T09:15:14.282Z</time></trkpt><trkpt lat="42.7527834" lon="12.5454867"><ele>318.8</ele><time>2026-05-03T09:15:15.279Z</time></trkpt><trkpt lat="42.7528223" lon="12.545614"><ele>319.0</ele><time>2026-05-03T09:15:16.267Z</time></trkpt><trkpt lat="42.7528595" lon="12.5457442"><ele>319.0</ele><time>2026-05-03T09:15:17.251Z</time></trkpt><trkpt lat="42.7529017" lon="12.5458774"><ele>319.0</ele><time>2026-05-03T09:15:18.274Z</time></trkpt><trkpt lat="42.7529423" lon="12.5460071"><ele>319.0</ele><time>2026-05-03T09:15:19.266Z</time></trkpt><trkpt lat="42.7529764" lon="12.5461248"><ele>319.0</ele><time>2026-05-03T09:15:20.267Z</time></trkpt><trkpt lat="42.7530119" lon="12.5462344"><ele>319.0</ele><time>2026-05-03T09:15:21.279Z</time></trkpt><trkpt lat="42.7530462" lon="12.5463404"><ele>319.3333333333333</ele><time>2026-05-03T09:15:22.275Z</time></trkpt><trkpt lat="42.753076" lon="12.5464458"><ele>319.66666666666663</ele><time>2026-05-03T09:15:23.252Z</time></trkpt><trkpt lat="42.7531024" lon="12.5465478"><ele>320.0</ele><time>2026-05-03T09:15:24.267Z</time></trkpt><trkpt lat="42.7531263" lon="12.5466416"><ele>320.3333333333333</ele><time>2026-05-03T09:15:25.284Z</time></trkpt><trkpt lat="42.7531527" lon="12.5467374"><ele>320.6666666666667</ele><time>2026-05-03T09:15:26.269Z</time></trkpt><trkpt lat="42.7531855" lon="12.546831"><ele>321.0</ele><time>2026-05-03T09:15:27.275Z</time></trkpt><trkpt lat="42.7532159" lon="12.5469222"><ele>321.0</ele><time>2026-05-03T09:15:28.256Z</time></trkpt><trkpt lat="42.7532331" lon="12.5470116"><ele>321.0</ele><time>2026-05-03T09:15:29.262Z</time></trkpt><trkpt lat="42.7532239" lon="12.5471107"><ele>321.0</ele><time>2026-05-03T09:15:30.254Z</time></trkpt><trkpt lat="42.7531941" lon="12.547229"><ele>321.0</ele><time>2026-05-03T09:15:31.277Z</time></trkpt><trkpt lat="42.7531695" lon="12.5473526"><ele>321.0</ele><time>2026-05-03T09:15:32.259Z</time></trkpt><trkpt lat="42.7531539" lon="12.5474812"><ele>321.0</ele><time>2026-05-03T09:15:33.263Z</time></trkpt><trkpt lat="42.7531455" lon="12.5476116"><ele>321.4</ele><time>2026-05-03T09:15:34.265Z</time></trkpt><trkpt lat="42.753146" lon="12.547735"><ele>321.8</ele><time>2026-05-03T09:15:35.264Z</time></trkpt><trkpt lat="42.7531537" lon="12.547867"><ele>322.2</ele><time>2026-05-03T09:15:36.254Z</time></trkpt><trkpt lat="42.7531668" lon="12.5480116"><ele>322.59999999999997</ele><time>2026-05-03T09:15:37.276Z</time></trkpt><trkpt lat="42.7531822" lon="12.5481443"><ele>323.0</ele><time>2026-05-03T09:15:38.275Z</time></trkpt><trkpt lat="42.7531877" lon="12.5482436"><ele>323.1666666666667</ele><time>2026-05-03T09:15:39.265Z</time></trkpt><trkpt lat="42.7531932" lon="12.5483301"><ele>323.33333333333337</ele><time>2026-05-03T09:15:41.261Z</time></trkpt><trkpt lat="42.753223" lon="12.5484099"><ele>323.5</ele><time>2026-05-03T09:15:44.259Z</time></trkpt><trkpt lat="42.7532764" lon="12.5484693"><ele>323.6666666666667</ele><time>2026-05-03T09:15:46.272Z</time></trkpt><trkpt lat="42.7533337" lon="12.5485197"><ele>323.8333333333333</ele><time>2026-05-03T09:15:47.274Z</time></trkpt><trkpt lat="42.7534045" lon="12.5485851"><ele>324.0</ele><time>2026-05-03T09:15:48.259Z</time></trkpt><trkpt lat="42.7534987" lon="12.5486524"><ele>324.6</ele><time>2026-05-03T09:15:49.261Z</time></trkpt><trkpt lat="42.7536051" lon="12.5487192"><ele>325.2</ele><time>2026-05-03T09:15:50.255Z</time></trkpt><trkpt lat="42.7537062" lon="12.5487793"><ele>325.8</ele><time>2026-05-03T09:15:51.252Z</time></trkpt><trkpt lat="42.7537926" lon="12.5488432"><ele>326.40000000000003</ele><time>2026-05-03T09:15:52.264Z</time></trkpt><trkpt lat="42.7538701" lon="12.5489021"><ele>327.0</ele><time>2026-05-03T09:15:53.266Z</time></trkpt><trkpt lat="42.7539394" lon="12.548961"><ele>327.0</ele><time>2026-05-03T09:15:54.251Z</time></trkpt><trkpt lat="42.7539934" lon="12.549016"><ele>327.0</ele><time>2026-05-03T09:15:55.258Z</time></trkpt><trkpt lat="42.7540504" lon="12.5491491"><ele>327.0</ele><time>2026-05-03T09:15:57.273Z</time></trkpt><trkpt lat="42.754085" lon="12.5492338"><ele>327.0</ele><time>2026-05-03T09:15:58.266Z</time></trkpt><trkpt lat="42.7541168" lon="12.5493261"><ele>327.0</ele><time>2026-05-03T09:15:59.269Z</time></trkpt><trkpt lat="42.7541518" lon="12.5494212"><ele>327.0</ele><time>2026-05-03T09:16:00.251Z</time></trkpt><trkpt lat="42.7541875" lon="12.5495139"><ele>327.0</ele><time>2026-05-03T09:16:01.266Z</time></trkpt><trkpt lat="42.7542231" lon="12.5495924"><ele>327.0</ele><time>2026-05-03T09:16:02.262Z</time></trkpt><trkpt lat="42.7542876" lon="12.5497006"><ele>327.0</ele><time>2026-05-03T09:16:04.279Z</time></trkpt><trkpt lat="42.7543801" lon="12.5497729"><ele>327.0</ele><time>2026-05-03T09:16:06.268Z</time></trkpt><trkpt lat="42.7544583" lon="12.549779"><ele>327.0</ele><time>2026-05-03T09:16:08.289Z</time></trkpt><trkpt lat="42.7545282" lon="12.5497831"><ele>327.0</ele><time>2026-05-03T09:16:18.281Z</time></trkpt><trkpt lat="42.7545662" lon="12.5498589"><ele>327.8</ele><time>2026-05-03T09:16:21.285Z</time></trkpt><trkpt lat="42.7545775" lon="12.5499605"><ele>328.6</ele><time>2026-05-03T09:16:23.26Z</time></trkpt><trkpt lat="42.7545704" lon="12.5500892"><ele>329.40000000000003</ele><time>2026-05-03T09:16:25.272Z</time></trkpt><trkpt lat="42.7545585" lon="12.5502046"><ele>330.20000000000005</ele><time>2026-05-03T09:16:27.265Z</time></trkpt><trkpt lat="42.7545759" lon="12.5503435"><ele>331.0</ele><time>2026-05-03T09:16:29.254Z</time></trkpt><trkpt lat="42.7545851" lon="12.550509"><ele>332.0</ele><time>2026-05-03T09:16:31.257Z</time></trkpt><trkpt lat="42.7545861" lon="12.550613"><ele>333.0</ele><time>2026-05-03T09:16:32.262Z</time></trkpt><trkpt lat="42.7545779" lon="12.5507077"><ele>334.0</ele><time>2026-05-03T09:16:33.264Z</time></trkpt><trkpt lat="42.7545677" lon="12.5507978"><ele>335.0</ele><time>2026-05-03T09:16:34.274Z</time></trkpt><trkpt lat="42.7545586" lon="12.5508869"><ele>336.0</ele><time>2026-05-03T09:16:35.264Z</time></trkpt><trkpt lat="42.754609" lon="12.5509576"><ele>337.0</ele><time>2026-05-03T09:17:00.258Z</time></trkpt><trkpt lat="42.7546864" lon="12.5509663"><ele>338.0</ele><time>2026-05-03T09:17:03.27Z</time></trkpt><trkpt lat="42.7547878" lon="12.5510274"><ele>338.0</ele><time>2026-05-03T09:17:05.261Z</time></trkpt><trkpt lat="42.7548534" lon="12.5510653"><ele>338.0</ele><time>2026-05-03T09:17:06.27Z</time></trkpt><trkpt lat="42.7549295" lon="12.5511047"><ele>338.0</ele><time>2026-05-03T09:17:07.26Z</time></trkpt><trkpt lat="42.7550018" lon="12.551146"><ele>338.0</ele><time>2026-05-03T09:17:08.257Z</time></trkpt><trkpt lat="42.7550703" lon="12.551189"><ele>338.0</ele><time>2026-05-03T09:17:09.269Z</time></trkpt><trkpt lat="42.7551441" lon="12.5512324"><ele>338.0</ele><time>2026-05-03T09:17:10.258Z</time></trkpt><trkpt lat="42.7552161" lon="12.5512752"><ele>341.59999999999997</ele><time>2026-05-03T09:17:11.261Z</time></trkpt><trkpt lat="42.755306" lon="12.5513113"><ele>345.2</ele><time>2026-05-03T09:17:13.258Z</time></trkpt><trkpt lat="42.7553458" lon="12.5513831"><ele>348.8</ele><time>2026-05-03T09:17:16.257Z</time></trkpt><trkpt lat="42.7553347" lon="12.5515112"><ele>352.4</ele><time>2026-05-03T09:17:18.261Z</time></trkpt><trkpt lat="42.7553114" lon="12.5516647"><ele>356.0</ele><time>2026-05-03T09:17:20.261Z</time></trkpt><trkpt lat="42.755318" lon="12.5518349"><ele>356.0</ele><time>2026-05-03T09:17:22.255Z</time></trkpt><trkpt lat="42.7553287" lon="12.5519434"><ele>356.0</ele><time>2026-05-03T09:17:23.274Z</time></trkpt><trkpt lat="42.7553355" lon="12.5520501"><ele>356.0</ele><time>2026-05-03T09:17:24.262Z</time></trkpt><trkpt lat="42.7553355" lon="12.5521622"><ele>356.0</ele><time>2026-05-03T09:17:25.272Z</time></trkpt><trkpt lat="42.7553335" lon="12.5522682"><ele>356.0</ele><time>2026-05-03T09:17:26.259Z</time></trkpt><trkpt lat="42.7553299" lon="12.5523699"><ele>356.0</ele><time>2026-05-03T09:17:27.266Z</time></trkpt><trkpt lat="42.7553299" lon="12.5524717"><ele>358.6666666666667</ele><time>2026-05-03T09:17:28.272Z</time></trkpt><trkpt lat="42.7553302" lon="12.5525636"><ele>361.33333333333337</ele><time>2026-05-03T09:17:29.255Z</time></trkpt><trkpt lat="42.7553286" lon="12.5526537"><ele>364.0</ele><time>2026-05-03T09:17:30.282Z</time></trkpt><trkpt lat="42.7553126" lon="12.5528096"><ele>366.6666666666667</ele><time>2026-05-03T09:17:32.27Z</time></trkpt><trkpt lat="42.7552996" lon="12.5529099"><ele>369.3333333333333</ele><time>2026-05-03T09:17:45.265Z</time></trkpt><trkpt lat="42.7552321" lon="12.5529961"><ele>372.0</ele><time>2026-05-03T09:17:47.267Z</time></trkpt><trkpt lat="42.7551572" lon="12.553056"><ele>372.5</ele><time>2026-05-03T09:17:49.268Z</time></trkpt><trkpt lat="42.7551116" lon="12.553117"><ele>373.0</ele><time>2026-05-03T09:17:51.271Z</time></trkpt><trkpt lat="42.755085" lon="12.5532124"><ele>373.5</ele><time>2026-05-03T09:17:53.254Z</time></trkpt><trkpt lat="42.7550668" lon="12.5533185"><ele>374.0</ele><time>2026-05-03T09:17:55.264Z</time></trkpt><trkpt lat="42.7551304" lon="12.5533481"><ele>374.5</ele><time>2026-05-03T09:18:13.281Z</time></trkpt><trkpt lat="42.7552185" lon="12.553354"><ele>375.0</ele><time>2026-05-03T09:18:16.265Z</time></trkpt><trkpt lat="42.7552327" lon="12.5534803"><ele>375.0</ele><time>2026-05-03T09:18:31.289Z</time></trkpt><trkpt lat="42.7551748" lon="12.5535945"><ele>375.0</ele><time>2026-05-03T09:18:33.264Z</time></trkpt><trkpt lat="42.7550796" lon="12.5536791"><ele>375.0</ele><time>2026-05-03T09:18:35.255Z</time></trkpt><trkpt lat="42.7549821" lon="12.5537561"><ele>375.0</ele><time>2026-05-03T09:18:37.255Z</time></trkpt><trkpt lat="42.7549084" lon="12.5538492"><ele>375.0</ele><time>2026-05-03T09:18:39.253Z</time></trkpt><trkpt lat="42.7548361" lon="12.5539573"><ele>378.5</ele><time>2026-05-03T09:18:41.272Z</time></trkpt><trkpt lat="42.7547913" lon="12.5540223"><ele>382.0</ele><time>2026-05-03T09:18:42.257Z</time></trkpt><trkpt lat="42.7547448" lon="12.5540883"><ele>385.5</ele><time>2026-05-03T09:18:43.265Z</time></trkpt><trkpt lat="42.7546994" lon="12.5541545"><ele>389.0</ele><time>2026-05-03T09:18:44.275Z</time></trkpt><trkpt lat="42.7546129" lon="12.5542615"><ele>392.5</ele><time>2026-05-03T09:18:46.256Z</time></trkpt><trkpt lat="42.7545393" lon="12.5543702"><ele>396.0</ele><time>2026-05-03T09:18:48.264Z</time></trkpt><trkpt lat="42.7544391" lon="12.5544725"><ele>398.8</ele><time>2026-05-03T09:18:50.249Z</time></trkpt><trkpt lat="42.7543406" lon="12.5545697"><ele>401.6</ele><time>2026-05-03T09:18:52.274Z</time></trkpt><trkpt lat="42.7542695" lon="12.5546799"><ele>404.4</ele><time>2026-05-03T09:18:54.272Z</time></trkpt><trkpt lat="42.7541887" lon="12.5547718"><ele>407.2</ele><time>2026-05-03T09:18:56.264Z</time></trkpt><trkpt lat="42.7541112" lon="12.554816"><ele>410.0</ele><time>2026-05-03T09:18:58.273Z</time></trkpt><trkpt lat="42.7540252" lon="12.5548582"><ele>410.0</ele><time>2026-05-03T09:19:00.255Z</time></trkpt><trkpt lat="42.7539409" lon="12.5549285"><ele>410.0</ele><time>2026-05-03T09:19:02.257Z</time></trkpt><trkpt lat="42.7538532" lon="12.5550442"><ele>410.0</ele><time>2026-05-03T09:19:04.268Z</time></trkpt><trkpt lat="42.7537678" lon="12.5551388"><ele>410.0</ele><time>2026-05-03T09:19:06.274Z</time></trkpt><trkpt lat="42.7536507" lon="12.5551648"><ele>410.0</ele><time>2026-05-03T09:19:08.267Z</time></trkpt><trkpt lat="42.7535847" lon="12.555169"><ele>410.0</ele><time>2026-05-03T09:19:09.269Z</time></trkpt><trkpt lat="42.7534684" lon="12.555177"><ele>410.0</ele><time>2026-05-03T09:19:11.267Z</time></trkpt><trkpt lat="42.7533726" lon="12.5552041"><ele>410.0</ele><time>2026-05-03T09:19:13.265Z</time></trkpt><trkpt lat="42.7532531" lon="12.5552454"><ele>410.0</ele><time>2026-05-03T09:19:15.271Z</time></trkpt><trkpt lat="42.7531621" lon="12.5552887"><ele>408.8333333333333</ele><time>2026-05-03T09:19:17.257Z</time></trkpt><trkpt lat="42.7530865" lon="12.5552979"><ele>407.66666666666663</ele><time>2026-05-03T09:19:19.263Z</time></trkpt><trkpt lat="42.7530099" lon="12.5552888"><ele>406.5</ele><time>2026-05-03T09:19:21.256Z</time></trkpt><trkpt lat="42.7529138" lon="12.5553117"><ele>405.33333333333337</ele><time>2026-05-03T09:19:23.252Z</time></trkpt><trkpt lat="42.7528161" lon="12.5553176"><ele>404.1666666666667</ele><time>2026-05-03T09:19:25.281Z</time></trkpt><trkpt lat="42.7527327" lon="12.5553057"><ele>403.0</ele><time>2026-05-03T09:19:27.263Z</time></trkpt><trkpt lat="42.752644" lon="12.5552937"><ele>402.0</ele><time>2026-05-03T09:19:29.258Z</time></trkpt><trkpt lat="42.7525442" lon="12.5553254"><ele>401.0</ele><time>2026-05-03T09:19:31.254Z</time></trkpt><trkpt lat="42.752453" lon="12.5554129"><ele>400.0</ele><time>2026-05-03T09:19:33.257Z</time></trkpt><trkpt lat="42.7523497" lon="12.5555223"><ele>399.0</ele><time>2026-05-03T09:19:35.261Z</time></trkpt><trkpt lat="42.7522912" lon="12.5555875"><ele>398.0</ele><time>2026-05-03T09:19:36.256Z</time></trkpt><trkpt lat="42.7522335" lon="12.5556466"><ele>401.66666666666663</ele><time>2026-05-03T09:19:37.251Z</time></trkpt><trkpt lat="42.7521768" lon="12.555696"><ele>405.3333333333333</ele><time>2026-05-03T09:19:38.271Z</time></trkpt><trkpt lat="42.7520946" lon="12.5557586"><ele>409.0</ele><time>2026-05-03T09:19:40.255Z</time></trkpt><trkpt lat="42.7520023" lon="12.5558062"><ele>412.66666666666663</ele><time>2026-05-03T09:19:42.256Z</time></trkpt><trkpt lat="42.7519325" lon="12.5558454"><ele>416.3333333333333</ele><time>2026-05-03T09:19:44.268Z</time></trkpt><trkpt lat="42.751864" lon="12.5558777"><ele>420.0</ele><time>2026-05-03T09:19:46.265Z</time></trkpt><trkpt lat="42.7517739" lon="12.5559259"><ele>420.0</ele><time>2026-05-03T09:19:48.25Z</time></trkpt><trkpt lat="42.7516891" lon="12.5559936"><ele>420.0</ele><time>2026-05-03T09:19:50.252Z</time></trkpt><trkpt lat="42.7516147" lon="12.5560844"><ele>420.0</ele><time>2026-05-03T09:19:52.269Z</time></trkpt><trkpt lat="42.7515547" lon="12.5562073"><ele>420.0</ele><time>2026-05-03T09:19:54.267Z</time></trkpt><trkpt lat="42.7514943" lon="12.5563177"><ele>420.0</ele><time>2026-05-03T09:19:56.257Z</time></trkpt><trkpt lat="42.7514021" lon="12.5564142"><ele>424.4</ele><time>2026-05-03T09:19:58.28Z</time></trkpt><trkpt lat="42.7512982" lon="12.5564484"><ele>428.8</ele><time>2026-05-03T09:20:00.277Z</time></trkpt><trkpt lat="42.7512226" lon="12.5564648"><ele>433.20000000000005</ele><time>2026-05-03T09:20:02.283Z</time></trkpt><trkpt lat="42.7511317" lon="12.5564924"><ele>437.6</ele><time>2026-05-03T09:20:04.264Z</time></trkpt><trkpt lat="42.7510393" lon="12.5565232"><ele>442.0</ele><time>2026-05-03T09:20:06.254Z</time></trkpt><trkpt lat="42.7509366" lon="12.5565493"><ele>442.00000000000006</ele><time>2026-05-03T09:20:08.253Z</time></trkpt><trkpt lat="42.7508582" lon="12.5565644"><ele>442.0</ele><time>2026-05-03T09:20:10.261Z</time></trkpt><trkpt lat="42.75077" lon="12.5565925"><ele>442.0</ele><time>2026-05-03T09:20:13.272Z</time></trkpt><trkpt lat="42.7507045" lon="12.5565882"><ele>442.0</ele><time>2026-05-03T09:20:15.267Z</time></trkpt><trkpt lat="42.7506311" lon="12.5565799"><ele>442.00000000000006</ele><time>2026-05-03T09:20:17.264Z</time></trkpt><trkpt lat="42.7505482" lon="12.5565986"><ele>442.0</ele><time>2026-05-03T09:20:19.278Z</time></trkpt><trkpt lat="42.7504616" lon="12.5566217"><ele>442.0</ele><time>2026-05-03T09:20:22.269Z</time></trkpt><trkpt lat="42.7503972" lon="12.5566028"><ele>442.00000000000006</ele><time>2026-05-03T09:20:24.27Z</time></trkpt><trkpt lat="42.7503044" lon="12.5565965"><ele>442.00000000000006</ele><time>2026-05-03T09:20:26.251Z</time></trkpt><trkpt lat="42.7501909" lon="12.5566684"><ele>442.0</ele><time>2026-05-03T09:20:28.255Z</time></trkpt><trkpt lat="42.7501319" lon="12.5567131"><ele>442.0</ele><time>2026-05-03T09:20:29.25Z</time></trkpt><trkpt lat="42.7500091" lon="12.5567743"><ele>441.50000000000006</ele><time>2026-05-03T09:20:31.263Z</time></trkpt><trkpt lat="42.7499316" lon="12.5568006"><ele>441.0</ele><time>2026-05-03T09:20:32.263Z</time></trkpt><trkpt lat="42.7498585" lon="12.5568232"><ele>440.5</ele><time>2026-05-03T09:20:33.268Z</time></trkpt><trkpt lat="42.7497668" lon="12.5568608"><ele>440.0</ele><time>2026-05-03T09:20:35.269Z</time></trkpt><trkpt lat="42.7496926" lon="12.5568654"><ele>439.50000000000006</ele><time>2026-05-03T09:20:37.264Z</time></trkpt><trkpt lat="42.7496171" lon="12.5568796"><ele>439.0</ele><time>2026-05-03T09:20:39.266Z</time></trkpt><trkpt lat="42.7494889" lon="12.5569297"><ele>439.00000000000006</ele><time>2026-05-03T09:20:41.261Z</time></trkpt><trkpt lat="42.7494106" lon="12.5569579"><ele>439.0</ele><time>2026-05-03T09:20:42.272Z</time></trkpt><trkpt lat="42.7493352" lon="12.5569837"><ele>439.0</ele><time>2026-05-03T09:20:43.272Z</time></trkpt><trkpt lat="42.7492641" lon="12.5569961"><ele>439.0</ele><time>2026-05-03T09:20:44.269Z</time></trkpt><trkpt lat="42.7491459" lon="12.5569772"><ele>439.00000000000006</ele><time>2026-05-03T09:20:46.282Z</time></trkpt><trkpt lat="42.7490819" lon="12.5569645"><ele>439.0</ele><time>2026-05-03T09:20:47.263Z</time></trkpt><trkpt lat="42.7490119" lon="12.556966"><ele>439.1666666666667</ele><time>2026-05-03T09:20:48.276Z</time></trkpt><trkpt lat="42.7489304" lon="12.556988"><ele>439.33333333333337</ele><time>2026-05-03T09:20:49.278Z</time></trkpt><trkpt lat="42.7488471" lon="12.5570215"><ele>439.5</ele><time>2026-05-03T09:20:50.263Z</time></trkpt><trkpt lat="42.7487597" lon="12.5570596"><ele>439.66666666666663</ele><time>2026-05-03T09:20:51.289Z</time></trkpt><trkpt lat="42.7486752" lon="12.5570959"><ele>439.8333333333333</ele><time>2026-05-03T09:20:52.266Z</time></trkpt><trkpt lat="42.7485975" lon="12.5571396"><ele>440.0</ele><time>2026-05-03T09:20:53.258Z</time></trkpt><trkpt lat="42.7485225" lon="12.5571829"><ele>442.8333333333333</ele><time>2026-05-03T09:20:54.272Z</time></trkpt><trkpt lat="42.7484463" lon="12.5572361"><ele>445.66666666666663</ele><time>2026-05-03T09:20:55.255Z</time></trkpt><trkpt lat="42.7483771" lon="12.5572964"><ele>448.5</ele><time>2026-05-03T09:20:56.271Z</time></trkpt><trkpt lat="42.7483098" lon="12.55735"><ele>451.33333333333337</ele><time>2026-05-03T09:20:57.28Z</time></trkpt><trkpt lat="42.7482375" lon="12.5574063"><ele>454.1666666666667</ele><time>2026-05-03T09:20:58.26Z</time></trkpt><trkpt lat="42.7481652" lon="12.5574581"><ele>457.0</ele><time>2026-05-03T09:20:59.27Z</time></trkpt><trkpt lat="42.7480959" lon="12.5575161"><ele>457.00000000000006</ele><time>2026-05-03T09:21:00.255Z</time></trkpt><trkpt lat="42.7480255" lon="12.5575773"><ele>457.0</ele><time>2026-05-03T09:21:01.262Z</time></trkpt><trkpt lat="42.7479545" lon="12.5576438"><ele>457.0</ele><time>2026-05-03T09:21:02.251Z</time></trkpt><trkpt lat="42.7478865" lon="12.557716"><ele>457.0</ele><time>2026-05-03T09:21:03.269Z</time></trkpt><trkpt lat="42.7478231" lon="12.5577929"><ele>457.00000000000006</ele><time>2026-05-03T09:21:04.272Z</time></trkpt><trkpt lat="42.7477632" lon="12.5578774"><ele>457.0</ele><time>2026-05-03T09:21:05.269Z</time></trkpt><trkpt lat="42.7477024" lon="12.5579583"><ele>458.1666666666667</ele><time>2026-05-03T09:21:06.281Z</time></trkpt><trkpt lat="42.7476399" lon="12.5580428"><ele>459.33333333333337</ele><time>2026-05-03T09:21:07.263Z</time></trkpt><trkpt lat="42.7475796" lon="12.5581265"><ele>460.5</ele><time>2026-05-03T09:21:08.276Z</time></trkpt><trkpt lat="42.7475216" lon="12.5582049"><ele>461.66666666666663</ele><time>2026-05-03T09:21:09.26Z</time></trkpt><trkpt lat="42.7474636" lon="12.5582701"><ele>462.8333333333333</ele><time>2026-05-03T09:21:10.258Z</time></trkpt><trkpt lat="42.7474014" lon="12.5583311"><ele>464.0</ele><time>2026-05-03T09:21:11.26Z</time></trkpt><trkpt lat="42.7473366" lon="12.5583876"><ele>463.99999999999994</ele><time>2026-05-03T09:21:12.26Z</time></trkpt><trkpt lat="42.7472743" lon="12.5584382"><ele>464.0</ele><time>2026-05-03T09:21:13.277Z</time></trkpt><trkpt lat="42.7472051" lon="12.5584817"><ele>464.0</ele><time>2026-05-03T09:21:14.253Z</time></trkpt><trkpt lat="42.7471347" lon="12.5585112"><ele>464.0</ele><time>2026-05-03T09:21:15.266Z</time></trkpt><trkpt lat="42.7470246" lon="12.5585698"><ele>463.99999999999994</ele><time>2026-05-03T09:21:17.257Z</time></trkpt><trkpt lat="42.7469715" lon="12.5586264"><ele>464.0</ele><time>2026-05-03T09:21:18.258Z</time></trkpt><trkpt lat="42.7469167" lon="12.5586927"><ele>462.3333333333333</ele><time>2026-05-03T09:21:19.261Z</time></trkpt><trkpt lat="42.7468587" lon="12.5587867"><ele>460.66666666666663</ele><time>2026-05-03T09:21:21.253Z</time></trkpt><trkpt lat="42.7468292" lon="12.5588641"><ele>459.0</ele><time>2026-05-03T09:21:23.262Z</time></trkpt><trkpt lat="42.746798" lon="12.55894"><ele>457.33333333333337</ele><time>2026-05-03T09:21:25.256Z</time></trkpt><trkpt lat="42.7467793" lon="12.5590363"><ele>455.6666666666667</ele><time>2026-05-03T09:21:27.253Z</time></trkpt><trkpt lat="42.7467899" lon="12.5591647"><ele>454.0</ele><time>2026-05-03T09:21:29.28Z</time></trkpt><trkpt lat="42.7468179" lon="12.559328"><ele>454.0</ele><time>2026-05-03T09:21:31.257Z</time></trkpt><trkpt lat="42.7468245" lon="12.5594529"><ele>454.0</ele><time>2026-05-03T09:21:33.261Z</time></trkpt><trkpt lat="42.7468122" lon="12.5595756"><ele>454.0</ele><time>2026-05-03T09:21:35.267Z</time></trkpt><trkpt lat="42.7467855" lon="12.5597125"><ele>454.0</ele><time>2026-05-03T09:21:37.257Z</time></trkpt><trkpt lat="42.7467583" lon="12.5598415"><ele>454.0</ele><time>2026-05-03T09:21:39.258Z</time></trkpt><trkpt lat="42.7467146" lon="12.5599662"><ele>456.6666666666667</ele><time>2026-05-03T09:21:41.264Z</time></trkpt><trkpt lat="42.7466432" lon="12.5600696"><ele>459.33333333333337</ele><time>2026-05-03T09:21:43.255Z</time></trkpt><trkpt lat="42.7465798" lon="12.5601011"><ele>462.0</ele><time>2026-05-03T09:21:44.255Z</time></trkpt><trkpt lat="42.7465028" lon="12.5601326"><ele>464.66666666666663</ele><time>2026-05-03T09:21:45.267Z</time></trkpt><trkpt lat="42.746434" lon="12.5601548"><ele>467.3333333333333</ele><time>2026-05-03T09:21:46.246Z</time></trkpt><trkpt lat="42.7463166" lon="12.5601767"><ele>470.0</ele><time>2026-05-03T09:21:48.255Z</time></trkpt><trkpt lat="42.7461958" lon="12.5602131"><ele>470.0</ele><time>2026-05-03T09:21:50.247Z</time></trkpt><trkpt lat="42.7461336" lon="12.5602368"><ele>470.0</ele><time>2026-05-03T09:21:51.27Z</time></trkpt><trkpt lat="42.7460136" lon="12.560304"><ele>470.0</ele><time>2026-05-03T09:21:53.252Z</time></trkpt><trkpt lat="42.745937" lon="12.5603586"><ele>470.0</ele><time>2026-05-03T09:21:54.254Z</time></trkpt><trkpt lat="42.7458645" lon="12.5604209"><ele>470.0</ele><time>2026-05-03T09:21:55.257Z</time></trkpt><trkpt lat="42.7457972" lon="12.5604899"><ele>471.66666666666663</ele><time>2026-05-03T09:21:56.265Z</time></trkpt><trkpt lat="42.7457312" lon="12.5605581"><ele>473.3333333333333</ele><time>2026-05-03T09:21:57.266Z</time></trkpt><trkpt lat="42.7456722" lon="12.5606378"><ele>475.0</ele><time>2026-05-03T09:21:58.261Z</time></trkpt><trkpt lat="42.7456156" lon="12.5607087"><ele>476.66666666666663</ele><time>2026-05-03T09:21:59.274Z</time></trkpt><trkpt lat="42.7455576" lon="12.5607798"><ele>478.3333333333333</ele><time>2026-05-03T09:22:00.253Z</time></trkpt><trkpt lat="42.7454989" lon="12.560852"><ele>480.0</ele><time>2026-05-03T09:22:01.263Z</time></trkpt><trkpt lat="42.7454433" lon="12.5609184"><ele>480.0</ele><time>2026-05-03T09:22:02.262Z</time></trkpt><trkpt lat="42.7453959" lon="12.5609919"><ele>480.0</ele><time>2026-05-03T09:22:03.268Z</time></trkpt><trkpt lat="42.745352" lon="12.5610799"><ele>480.0</ele><time>2026-05-03T09:22:04.273Z</time></trkpt><trkpt lat="42.7453103" lon="12.5611651"><ele>480.0</ele><time>2026-05-03T09:22:05.262Z</time></trkpt><trkpt lat="42.7452647" lon="12.5612551"><ele>480.0</ele><time>2026-05-03T09:22:06.276Z</time></trkpt><trkpt lat="42.7452189" lon="12.5613405"><ele>480.0</ele><time>2026-05-03T09:22:07.266Z</time></trkpt><trkpt lat="42.7451819" lon="12.561413"><ele>480.0</ele><time>2026-05-03T09:22:08.26Z</time></trkpt><trkpt lat="42.7451298" lon="12.5615173"><ele>481.1666666666667</ele><time>2026-05-03T09:22:10.265Z</time></trkpt><trkpt lat="42.7450299" lon="12.5615744"><ele>482.33333333333337</ele><time>2026-05-03T09:22:12.274Z</time></trkpt><trkpt lat="42.7449575" lon="12.5615937"><ele>483.5</ele><time>2026-05-03T09:22:13.257Z</time></trkpt><trkpt lat="42.7448824" lon="12.5615983"><ele>484.6666666666667</ele><time>2026-05-03T09:22:14.245Z</time></trkpt><trkpt lat="42.744807" lon="12.5615935"><ele>485.83333333333337</ele><time>2026-05-03T09:22:15.28Z</time></trkpt><trkpt lat="42.7447335" lon="12.5615924"><ele>487.0</ele><time>2026-05-03T09:22:16.262Z</time></trkpt><trkpt lat="42.7446622" lon="12.561605"><ele>487.0</ele><time>2026-05-03T09:22:17.259Z</time></trkpt><trkpt lat="42.7445961" lon="12.5616276"><ele>487.0</ele><time>2026-05-03T09:22:18.251Z</time></trkpt><trkpt lat="42.744533" lon="12.5616562"><ele>487.0</ele><time>2026-05-03T09:22:19.257Z</time></trkpt><trkpt lat="42.7444725" lon="12.5616909"><ele>487.0</ele><time>2026-05-03T09:22:20.25Z</time></trkpt><trkpt lat="42.7444032" lon="12.5617352"><ele>487.0</ele><time>2026-05-03T09:22:21.259Z</time></trkpt><trkpt lat="42.7443314" lon="12.5617807"><ele>487.0</ele><time>2026-05-03T09:22:22.261Z</time></trkpt><trkpt lat="42.7442617" lon="12.561808"><ele>487.0</ele><time>2026-05-03T09:22:23.252Z</time></trkpt><trkpt lat="42.7441847" lon="12.5618315"><ele>484.8571428571429</ele><time>2026-05-03T09:22:24.259Z</time></trkpt><trkpt lat="42.7441005" lon="12.5618516"><ele>482.71428571428567</ele><time>2026-05-03T09:22:25.265Z</time></trkpt><trkpt lat="42.7440225" lon="12.5618776"><ele>480.57142857142856</ele><time>2026-05-03T09:22:26.258Z</time></trkpt><trkpt lat="42.7439537" lon="12.5619033"><ele>478.42857142857144</ele><time>2026-05-03T09:22:27.256Z</time></trkpt><trkpt lat="42.7438875" lon="12.5619326"><ele>476.28571428571433</ele><time>2026-05-03T09:22:28.264Z</time></trkpt><trkpt lat="42.7438213" lon="12.5619559"><ele>474.1428571428571</ele><time>2026-05-03T09:22:29.261Z</time></trkpt><trkpt lat="42.7437548" lon="12.5619811"><ele>472.0</ele><time>2026-05-03T09:22:30.276Z</time></trkpt><trkpt lat="42.7436848" lon="12.5620095"><ele>474.50000000000006</ele><time>2026-05-03T09:22:31.274Z</time></trkpt><trkpt lat="42.7436186" lon="12.5620399"><ele>477.0</ele><time>2026-05-03T09:22:32.262Z</time></trkpt><trkpt lat="42.7435573" lon="12.5620651"><ele>479.5</ele><time>2026-05-03T09:22:33.256Z</time></trkpt><trkpt lat="42.743439" lon="12.5621264"><ele>482.0</ele><time>2026-05-03T09:22:35.254Z</time></trkpt><trkpt lat="42.7433731" lon="12.5621687"><ele>484.50000000000006</ele><time>2026-05-03T09:22:36.267Z</time></trkpt><trkpt lat="42.7433037" lon="12.5622128"><ele>487.0</ele><time>2026-05-03T09:22:37.269Z</time></trkpt><trkpt lat="42.7432323" lon="12.5622553"><ele>487.00000000000006</ele><time>2026-05-03T09:22:38.263Z</time></trkpt><trkpt lat="42.7431584" lon="12.5623019"><ele>487.0</ele><time>2026-05-03T09:22:39.273Z</time></trkpt><trkpt lat="42.7430832" lon="12.5623551"><ele>487.0</ele><time>2026-05-03T09:22:40.262Z</time></trkpt><trkpt lat="42.7430048" lon="12.5624058"><ele>487.0</ele><time>2026-05-03T09:22:41.273Z</time></trkpt><trkpt lat="42.7429208" lon="12.5624497"><ele>487.00000000000006</ele><time>2026-05-03T09:22:42.251Z</time></trkpt><trkpt lat="42.7428418" lon="12.5624993"><ele>487.0</ele><time>2026-05-03T09:22:43.264Z</time></trkpt><trkpt lat="42.7427767" lon="12.562534"><ele>485.6666666666667</ele><time>2026-05-03T09:22:44.281Z</time></trkpt><trkpt lat="42.7427143" lon="12.56255"><ele>484.33333333333337</ele><time>2026-05-03T09:22:45.257Z</time></trkpt><trkpt lat="42.7425934" lon="12.5625725"><ele>483.0</ele><time>2026-05-03T09:22:47.256Z</time></trkpt><trkpt lat="42.7424896" lon="12.5626027"><ele>481.66666666666663</ele><time>2026-05-03T09:22:49.257Z</time></trkpt><trkpt lat="42.7424195" lon="12.5626443"><ele>480.3333333333333</ele><time>2026-05-03T09:22:51.253Z</time></trkpt><trkpt lat="42.7424376" lon="12.5627482"><ele>479.0</ele><time>2026-05-03T09:22:55.254Z</time></trkpt><trkpt lat="42.7425121" lon="12.5627861"><ele>482.0</ele><time>2026-05-03T09:22:58.26Z</time></trkpt><trkpt lat="42.7426282" lon="12.5628738"><ele>485.0</ele><time>2026-05-03T09:23:00.26Z</time></trkpt><trkpt lat="42.742704" lon="12.5629449"><ele>488.0</ele><time>2026-05-03T09:23:01.262Z</time></trkpt><trkpt lat="42.7427795" lon="12.5630012"><ele>491.0</ele><time>2026-05-03T09:23:02.263Z</time></trkpt><trkpt lat="42.7428501" lon="12.56305"><ele>494.0</ele><time>2026-05-03T09:23:03.26Z</time></trkpt><trkpt lat="42.7429124" lon="12.5630758"><ele>492.8333333333333</ele><time>2026-05-03T09:23:04.265Z</time></trkpt><trkpt lat="42.7430338" lon="12.5630517"><ele>491.66666666666663</ele><time>2026-05-03T09:23:06.261Z</time></trkpt><trkpt lat="42.7431007" lon="12.5630128"><ele>490.5</ele><time>2026-05-03T09:23:07.262Z</time></trkpt><trkpt lat="42.7431613" lon="12.5629712"><ele>489.33333333333337</ele><time>2026-05-03T09:23:08.254Z</time></trkpt><trkpt lat="42.7432395" lon="12.5629294"><ele>488.1666666666667</ele><time>2026-05-03T09:23:09.265Z</time></trkpt><trkpt lat="42.7433237" lon="12.5628897"><ele>487.0</ele><time>2026-05-03T09:23:10.263Z</time></trkpt><trkpt lat="42.7434212" lon="12.5628438"><ele>487.00000000000006</ele><time>2026-05-03T09:23:11.262Z</time></trkpt><trkpt lat="42.7435004" lon="12.5628005"><ele>487.0</ele><time>2026-05-03T09:23:12.277Z</time></trkpt><trkpt lat="42.7435816" lon="12.5627619"><ele>487.0</ele><time>2026-05-03T09:23:13.265Z</time></trkpt><trkpt lat="42.7436646" lon="12.5627027"><ele>487.0</ele><time>2026-05-03T09:23:14.258Z</time></trkpt><trkpt lat="42.743742" lon="12.5626286"><ele>487.00000000000006</ele><time>2026-05-03T09:23:15.275Z</time></trkpt><trkpt lat="42.7438107" lon="12.562579"><ele>487.0</ele><time>2026-05-03T09:23:16.245Z</time></trkpt><trkpt lat="42.7438796" lon="12.5625403"><ele>489.83333333333337</ele><time>2026-05-03T09:23:17.272Z</time></trkpt><trkpt lat="42.7439506" lon="12.5625089"><ele>492.6666666666667</ele><time>2026-05-03T09:23:18.288Z</time></trkpt><trkpt lat="42.744022" lon="12.5624786"><ele>495.5</ele><time>2026-05-03T09:23:19.261Z</time></trkpt><trkpt lat="42.7440992" lon="12.5624602"><ele>498.33333333333337</ele><time>2026-05-03T09:23:20.261Z</time></trkpt><trkpt lat="42.7441864" lon="12.5624433"><ele>501.1666666666667</ele><time>2026-05-03T09:23:21.261Z</time></trkpt><trkpt lat="42.7442793" lon="12.5624134"><ele>504.0</ele><time>2026-05-03T09:23:22.27Z</time></trkpt><trkpt lat="42.7443697" lon="12.5623792"><ele>506.3333333333333</ele><time>2026-05-03T09:23:23.261Z</time></trkpt><trkpt lat="42.7444422" lon="12.5623572"><ele>508.66666666666663</ele><time>2026-05-03T09:23:24.264Z</time></trkpt><trkpt lat="42.7445519" lon="12.5623599"><ele>511.0</ele><time>2026-05-03T09:23:26.272Z</time></trkpt><trkpt lat="42.7446562" lon="12.5623854"><ele>513.3333333333333</ele><time>2026-05-03T09:23:28.256Z</time></trkpt><trkpt lat="42.7447187" lon="12.5624195"><ele>515.6666666666666</ele><time>2026-05-03T09:23:29.271Z</time></trkpt><trkpt lat="42.7447967" lon="12.5624623"><ele>518.0</ele><time>2026-05-03T09:23:30.254Z</time></trkpt><trkpt lat="42.7448807" lon="12.5625026"><ele>518.0</ele><time>2026-05-03T09:23:31.254Z</time></trkpt><trkpt lat="42.7449682" lon="12.5625383"><ele>518.0</ele><time>2026-05-03T09:23:32.252Z</time></trkpt><trkpt lat="42.7450493" lon="12.562577"><ele>518.0</ele><time>2026-05-03T09:23:33.26Z</time></trkpt><trkpt lat="42.74513" lon="12.5625979"><ele>518.0</ele><time>2026-05-03T09:23:34.274Z</time></trkpt><trkpt lat="42.7452059" lon="12.5626052"><ele>518.0</ele><time>2026-05-03T09:23:35.254Z</time></trkpt><trkpt lat="42.7452772" lon="12.5626051"><ele>518.0</ele><time>2026-05-03T09:23:36.267Z</time></trkpt><trkpt lat="42.7453432" lon="12.562594"><ele>518.0</ele><time>2026-05-03T09:23:37.26Z</time></trkpt><trkpt lat="42.7454172" lon="12.5625612"><ele>518.0</ele><time>2026-05-03T09:23:39.257Z</time></trkpt><trkpt lat="42.7454305" lon="12.5626591"><ele>518.0</ele><time>2026-05-03T09:23:42.255Z</time></trkpt><trkpt lat="42.745368" lon="12.5626983"><ele>518.0</ele><time>2026-05-03T09:23:44.259Z</time></trkpt><trkpt lat="42.7452439" lon="12.5627554"><ele>518.0</ele><time>2026-05-03T09:23:46.271Z</time></trkpt><trkpt lat="42.7451578" lon="12.5628029"><ele>518.0</ele><time>2026-05-03T09:23:47.265Z</time></trkpt><trkpt lat="42.7450625" lon="12.5628463"><ele>521.7142857142857</ele><time>2026-05-03T09:23:48.257Z</time></trkpt><trkpt lat="42.7449802" lon="12.5628723"><ele>525.4285714285714</ele><time>2026-05-03T09:23:49.277Z</time></trkpt><trkpt lat="42.7449134" lon="12.5628832"><ele>529.1428571428571</ele><time>2026-05-03T09:23:50.247Z</time></trkpt><trkpt lat="42.7448502" lon="12.5628895"><ele>532.8571428571429</ele><time>2026-05-03T09:23:51.264Z</time></trkpt><trkpt lat="42.7447828" lon="12.5629031"><ele>536.5714285714286</ele><time>2026-05-03T09:23:52.258Z</time></trkpt><trkpt lat="42.7447049" lon="12.562931"><ele>540.2857142857142</ele><time>2026-05-03T09:23:53.268Z</time></trkpt><trkpt lat="42.7446374" lon="12.5629657"><ele>544.0</ele><time>2026-05-03T09:23:54.262Z</time></trkpt><trkpt lat="42.7445755" lon="12.562983"><ele>544.0</ele><time>2026-05-03T09:23:55.261Z</time></trkpt><trkpt lat="42.7444965" lon="12.5630072"><ele>544.0</ele><time>2026-05-03T09:23:57.262Z</time></trkpt><trkpt lat="42.7445457" lon="12.5630853"><ele>544.0</ele><time>2026-05-03T09:24:00.269Z</time></trkpt><trkpt lat="42.7446433" lon="12.5630697"><ele>544.0</ele><time>2026-05-03T09:24:02.261Z</time></trkpt><trkpt lat="42.7447052" lon="12.5630525"><ele>544.0</ele><time>2026-05-03T09:24:03.253Z</time></trkpt><trkpt lat="42.7447741" lon="12.5630347"><ele>544.0</ele><time>2026-05-03T09:24:04.256Z</time></trkpt><trkpt lat="42.7448417" lon="12.5630185"><ele>544.0</ele><time>2026-05-03T09:24:05.258Z</time></trkpt><trkpt lat="42.7449176" lon="12.5630091"><ele>544.0</ele><time>2026-05-03T09:24:06.272Z</time></trkpt><trkpt lat="42.7450022" lon="12.5630144"><ele>544.0</ele><time>2026-05-03T09:24:07.261Z</time></trkpt><trkpt lat="42.7450948" lon="12.5630339"><ele>544.0</ele><time>2026-05-03T09:24:08.264Z</time></trkpt><trkpt lat="42.7451874" lon="12.5630633"><ele>544.0</ele><time>2026-05-03T09:24:09.273Z</time></trkpt><trkpt lat="42.7452823" lon="12.5630939"><ele>544.0</ele><time>2026-05-03T09:24:10.251Z</time></trkpt><trkpt lat="42.7453714" lon="12.5631124"><ele>545.8333333333334</ele><time>2026-05-03T09:24:11.288Z</time></trkpt><trkpt lat="42.7454506" lon="12.5631123"><ele>547.6666666666667</ele><time>2026-05-03T09:24:12.272Z</time></trkpt><trkpt lat="42.7455343" lon="12.5630991"><ele>549.5</ele><time>2026-05-03T09:24:13.27Z</time></trkpt><trkpt lat="42.745619" lon="12.5630704"><ele>551.3333333333334</ele><time>2026-05-03T09:24:14.254Z</time></trkpt><trkpt lat="42.7457106" lon="12.5630377"><ele>553.1666666666666</ele><time>2026-05-03T09:24:15.26Z</time></trkpt><trkpt lat="42.7458068" lon="12.5630016"><ele>555.0</ele><time>2026-05-03T09:24:16.263Z</time></trkpt><trkpt lat="42.7458987" lon="12.5629671"><ele>555.0</ele><time>2026-05-03T09:24:17.262Z</time></trkpt><trkpt lat="42.745993" lon="12.5629194"><ele>555.0</ele><time>2026-05-03T09:24:18.261Z</time></trkpt><trkpt lat="42.746088" lon="12.5628706"><ele>555.0</ele><time>2026-05-03T09:24:19.267Z</time></trkpt><trkpt lat="42.7461746" lon="12.5628297"><ele>555.0</ele><time>2026-05-03T09:24:20.252Z</time></trkpt><trkpt lat="42.7462535" lon="12.5628032"><ele>555.0</ele><time>2026-05-03T09:24:21.261Z</time></trkpt><trkpt lat="42.7463236" lon="12.5627786"><ele>555.0</ele><time>2026-05-03T09:24:22.285Z</time></trkpt><trkpt lat="42.7463837" lon="12.5627426"><ele>553.8333333333334</ele><time>2026-05-03T09:24:23.269Z</time></trkpt><trkpt lat="42.746453" lon="12.5626973"><ele>552.6666666666666</ele><time>2026-05-03T09:24:24.271Z</time></trkpt><trkpt lat="42.7465334" lon="12.5626388"><ele>551.5</ele><time>2026-05-03T09:24:25.264Z</time></trkpt><trkpt lat="42.7466054" lon="12.5626092"><ele>550.3333333333333</ele><time>2026-05-03T09:24:26.256Z</time></trkpt><trkpt lat="42.7467024" lon="12.5626059"><ele>549.1666666666666</ele><time>2026-05-03T09:24:28.269Z</time></trkpt><trkpt lat="42.746799" lon="12.5626635"><ele>548.0</ele><time>2026-05-03T09:24:30.254Z</time></trkpt><trkpt lat="42.7468532" lon="12.5627672"><ele>551.5</ele><time>2026-05-03T09:24:32.262Z</time></trkpt><trkpt lat="42.7467971" lon="12.5628815"><ele>555.0</ele><time>2026-05-03T09:24:34.26Z</time></trkpt><trkpt lat="42.7467392" lon="12.562937"><ele>558.5</ele><time>2026-05-03T09:24:35.254Z</time></trkpt><trkpt lat="42.7466749" lon="12.5629807"><ele>562.0</ele><time>2026-05-03T09:24:36.264Z</time></trkpt><trkpt lat="42.7466177" lon="12.5630214"><ele>565.5</ele><time>2026-05-03T09:24:37.253Z</time></trkpt><trkpt lat="42.7465553" lon="12.5630691"><ele>569.0</ele><time>2026-05-03T09:24:38.261Z</time></trkpt><trkpt lat="42.7464851" lon="12.5631364"><ele>569.0</ele><time>2026-05-03T09:24:39.249Z</time></trkpt><trkpt lat="42.7464298" lon="12.5632275"><ele>569.0</ele><time>2026-05-03T09:24:40.267Z</time></trkpt><trkpt lat="42.7463767" lon="12.5633252"><ele>569.0</ele><time>2026-05-03T09:24:41.271Z</time></trkpt><trkpt lat="42.746309" lon="12.5634318"><ele>569.0</ele><time>2026-05-03T09:24:42.262Z</time></trkpt><trkpt lat="42.7462373" lon="12.5635413"><ele>569.0</ele><time>2026-05-03T09:24:43.269Z</time></trkpt><trkpt lat="42.7461636" lon="12.5636365"><ele>570.4</ele><time>2026-05-03T09:24:44.27Z</time></trkpt><trkpt lat="42.746082" lon="12.5637342"><ele>571.8</ele><time>2026-05-03T09:24:45.271Z</time></trkpt><trkpt lat="42.7460074" lon="12.5638326"><ele>573.2</ele><time>2026-05-03T09:24:46.254Z</time></trkpt><trkpt lat="42.7459237" lon="12.5639267"><ele>574.6</ele><time>2026-05-03T09:24:47.283Z</time></trkpt><trkpt lat="42.7458444" lon="12.5640067"><ele>576.0</ele><time>2026-05-03T09:24:48.276Z</time></trkpt><trkpt lat="42.7457708" lon="12.5640748"><ele>576.0</ele><time>2026-05-03T09:24:49.273Z</time></trkpt><trkpt lat="42.7457064" lon="12.5641388"><ele>576.0</ele><time>2026-05-03T09:24:50.283Z</time></trkpt><trkpt lat="42.7456417" lon="12.5641985"><ele>576.0</ele><time>2026-05-03T09:24:51.259Z</time></trkpt><trkpt lat="42.7455724" lon="12.5642673"><ele>576.0</ele><time>2026-05-03T09:24:52.268Z</time></trkpt><trkpt lat="42.7454979" lon="12.5643458"><ele>576.0</ele><time>2026-05-03T09:24:53.279Z</time></trkpt><trkpt lat="42.7454331" lon="12.5644258"><ele>576.0</ele><time>2026-05-03T09:24:54.263Z</time></trkpt><trkpt lat="42.7453712" lon="12.5645206"><ele>577.2</ele><time>2026-05-03T09:24:55.26Z</time></trkpt><trkpt lat="42.7453084" lon="12.5646136"><ele>578.4000000000001</ele><time>2026-05-03T09:24:56.258Z</time></trkpt><trkpt lat="42.7452446" lon="12.5647055"><ele>579.6</ele><time>2026-05-03T09:24:57.265Z</time></trkpt><trkpt lat="42.7451758" lon="12.5647933"><ele>580.8000000000001</ele><time>2026-05-03T09:24:58.265Z</time></trkpt><trkpt lat="42.7451014" lon="12.5648817"><ele>582.0</ele><time>2026-05-03T09:24:59.253Z</time></trkpt><trkpt lat="42.745029" lon="12.5649671"><ele>582.0</ele><time>2026-05-03T09:25:00.268Z</time></trkpt><trkpt lat="42.7449435" lon="12.5650473"><ele>582.0</ele><time>2026-05-03T09:25:01.251Z</time></trkpt><trkpt lat="42.7448518" lon="12.5651209"><ele>582.0</ele><time>2026-05-03T09:25:02.259Z</time></trkpt><trkpt lat="42.7447738" lon="12.5651975"><ele>582.0</ele><time>2026-05-03T09:25:03.271Z</time></trkpt><trkpt lat="42.744712" lon="12.5652767"><ele>582.0</ele><time>2026-05-03T09:25:04.256Z</time></trkpt><trkpt lat="42.7446506" lon="12.5653444"><ele>584.8000000000001</ele><time>2026-05-03T09:25:05.284Z</time></trkpt><trkpt lat="42.7445949" lon="12.5653881"><ele>587.6</ele><time>2026-05-03T09:25:06.277Z</time></trkpt><trkpt lat="42.7445056" lon="12.5654737"><ele>590.4000000000001</ele><time>2026-05-03T09:25:08.254Z</time></trkpt><trkpt lat="42.744481" lon="12.5656032"><ele>593.2</ele><time>2026-05-03T09:25:10.265Z</time></trkpt><trkpt lat="42.7445052" lon="12.565757"><ele>596.0</ele><time>2026-05-03T09:25:12.273Z</time></trkpt><trkpt lat="42.7444804" lon="12.5659028"><ele>596.0</ele><time>2026-05-03T09:25:14.255Z</time></trkpt><trkpt lat="42.7444373" lon="12.5659727"><ele>596.0</ele><time>2026-05-03T09:25:15.249Z</time></trkpt><trkpt lat="42.7443539" lon="12.5660353"><ele>596.0</ele><time>2026-05-03T09:25:16.263Z</time></trkpt><trkpt lat="42.7442518" lon="12.5660917"><ele>596.0</ele><time>2026-05-03T09:25:17.259Z</time></trkpt><trkpt lat="42.7441405" lon="12.566153"><ele>596.0</ele><time>2026-05-03T09:25:18.252Z</time></trkpt><trkpt lat="42.7440238" lon="12.5662222"><ele>596.1666666666666</ele><time>2026-05-03T09:25:19.253Z</time></trkpt><trkpt lat="42.7439328" lon="12.5662889"><ele>596.3333333333333</ele><time>2026-05-03T09:25:20.272Z</time></trkpt><trkpt lat="42.743856" lon="12.5663493"><ele>596.5</ele><time>2026-05-03T09:25:21.266Z</time></trkpt><trkpt lat="42.7437902" lon="12.566412"><ele>596.6666666666666</ele><time>2026-05-03T09:25:22.272Z</time></trkpt><trkpt lat="42.7437335" lon="12.5664708"><ele>596.8333333333334</ele><time>2026-05-03T09:25:23.259Z</time></trkpt><trkpt lat="42.7436847" lon="12.5665264"><ele>597.0</ele><time>2026-05-03T09:25:24.254Z</time></trkpt><trkpt lat="42.743596" lon="12.5666604"><ele>597.0</ele><time>2026-05-03T09:25:26.279Z</time></trkpt><trkpt lat="42.7435479" lon="12.5667543"><ele>597.0</ele><time>2026-05-03T09:25:27.268Z</time></trkpt><trkpt lat="42.7434897" lon="12.5668707"><ele>597.0</ele><time>2026-05-03T09:25:28.252Z</time></trkpt><trkpt lat="42.7434351" lon="12.5669972"><ele>597.0</ele><time>2026-05-03T09:25:29.262Z</time></trkpt><trkpt lat="42.7433722" lon="12.5671422"><ele>597.0</ele><time>2026-05-03T09:25:30.257Z</time></trkpt><trkpt lat="42.7433053" lon="12.5673004"><ele>597.4</ele><time>2026-05-03T09:25:31.254Z</time></trkpt><trkpt lat="42.7432367" lon="12.5674524"><ele>597.8000000000001</ele><time>2026-05-03T09:25:32.273Z</time></trkpt><trkpt lat="42.7431715" lon="12.5675897"><ele>598.2</ele><time>2026-05-03T09:25:33.257Z</time></trkpt><trkpt lat="42.743106" lon="12.5677021"><ele>598.6</ele><time>2026-05-03T09:25:34.252Z</time></trkpt><trkpt lat="42.7430498" lon="12.5677967"><ele>599.0</ele><time>2026-05-03T09:25:35.276Z</time></trkpt><trkpt lat="42.7430057" lon="12.567885"><ele>600.8333333333333</ele><time>2026-05-03T09:25:36.258Z</time></trkpt><trkpt lat="42.742972" lon="12.567959"><ele>602.6666666666666</ele><time>2026-05-03T09:25:37.261Z</time></trkpt><trkpt lat="42.7429262" lon="12.5680614"><ele>604.5</ele><time>2026-05-03T09:25:39.258Z</time></trkpt><trkpt lat="42.7428967" lon="12.5681487"><ele>606.3333333333334</ele><time>2026-05-03T09:25:41.263Z</time></trkpt><trkpt lat="42.7429578" lon="12.5682568"><ele>608.1666666666667</ele><time>2026-05-03T09:25:44.254Z</time></trkpt><trkpt lat="42.7430513" lon="12.5683235"><ele>610.0</ele><time>2026-05-03T09:25:46.273Z</time></trkpt><trkpt lat="42.7431222" lon="12.5683813"><ele>610.0</ele><time>2026-05-03T09:25:48.278Z</time></trkpt><trkpt lat="42.7431842" lon="12.568416"><ele>610.0</ele><time>2026-05-03T09:27:48.261Z</time></trkpt><trkpt lat="42.7432522" lon="12.5683591"><ele>610.0</ele><time>2026-05-03T09:27:52.267Z</time></trkpt><trkpt lat="42.7433067" lon="12.5682723"><ele>610.0</ele><time>2026-05-03T09:27:55.261Z</time></trkpt><trkpt lat="42.7434006" lon="12.5682534"><ele>610.0</ele><time>2026-05-03T09:27:57.26Z</time></trkpt><trkpt lat="42.7434752" lon="12.5682445"><ele>610.0</ele><time>2026-05-03T09:27:58.261Z</time></trkpt><trkpt lat="42.7435869" lon="12.568227"><ele>611.8</ele><time>2026-05-03T09:27:59.265Z</time></trkpt><trkpt lat="42.7437094" lon="12.5681967"><ele>613.6</ele><time>2026-05-03T09:28:00.281Z</time></trkpt><trkpt lat="42.7438097" lon="12.5681712"><ele>615.4</ele><time>2026-05-03T09:28:01.273Z</time></trkpt><trkpt lat="42.7438954" lon="12.5681362"><ele>617.2</ele><time>2026-05-03T09:28:02.263Z</time></trkpt><trkpt lat="42.7439745" lon="12.5680834"><ele>619.0</ele><time>2026-05-03T09:28:03.262Z</time></trkpt><trkpt lat="42.7440502" lon="12.568017"><ele>619.0</ele><time>2026-05-03T09:28:04.258Z</time></trkpt><trkpt lat="42.7441343" lon="12.5679437"><ele>619.0</ele><time>2026-05-03T09:28:05.264Z</time></trkpt><trkpt lat="42.744218" lon="12.5678685"><ele>619.0</ele><time>2026-05-03T09:28:06.255Z</time></trkpt><trkpt lat="42.7442952" lon="12.5677854"><ele>619.0</ele><time>2026-05-03T09:28:07.26Z</time></trkpt><trkpt lat="42.7443782" lon="12.5677159"><ele>619.0</ele><time>2026-05-03T09:28:08.264Z</time></trkpt><trkpt lat="42.7444665" lon="12.5676566"><ele>619.5</ele><time>2026-05-03T09:28:09.276Z</time></trkpt><trkpt lat="42.7445585" lon="12.5675937"><ele>620.0</ele><time>2026-05-03T09:28:10.259Z</time></trkpt><trkpt lat="42.7446408" lon="12.5675302"><ele>620.5</ele><time>2026-05-03T09:28:11.259Z</time></trkpt><trkpt lat="42.7447139" lon="12.5674825"><ele>621.0</ele><time>2026-05-03T09:28:12.261Z</time></trkpt><trkpt lat="42.7447856" lon="12.5674411"><ele>621.5</ele><time>2026-05-03T09:28:13.267Z</time></trkpt><trkpt lat="42.7448567" lon="12.5673893"><ele>622.0</ele><time>2026-05-03T09:28:14.251Z</time></trkpt><trkpt lat="42.7449361" lon="12.5673476"><ele>622.0</ele><time>2026-05-03T09:28:15.267Z</time></trkpt><trkpt lat="42.74502" lon="12.5673167"><ele>622.0</ele><time>2026-05-03T09:28:16.274Z</time></trkpt><trkpt lat="42.7451218" lon="12.5672977"><ele>622.0</ele><time>2026-05-03T09:28:17.265Z</time></trkpt><trkpt lat="42.7452496" lon="12.567286"><ele>622.0</ele><time>2026-05-03T09:28:18.263Z</time></trkpt><trkpt lat="42.7454012" lon="12.5672784"><ele>624.8000000000001</ele><time>2026-05-03T09:28:19.272Z</time></trkpt><trkpt lat="42.7455324" lon="12.5672611"><ele>627.6</ele><time>2026-05-03T09:28:20.261Z</time></trkpt><trkpt lat="42.7456243" lon="12.5672382"><ele>630.4000000000001</ele><time>2026-05-03T09:28:21.249Z</time></trkpt><trkpt lat="42.7457145" lon="12.5672184"><ele>633.2</ele><time>2026-05-03T09:28:22.274Z</time></trkpt><trkpt lat="42.7458034" lon="12.5671929"><ele>636.0</ele><time>2026-05-03T09:28:23.258Z</time></trkpt><trkpt lat="42.7458992" lon="12.5671552"><ele>636.0</ele><time>2026-05-03T09:28:24.254Z</time></trkpt><trkpt lat="42.7459904" lon="12.5671074"><ele>636.0</ele><time>2026-05-03T09:28:25.256Z</time></trkpt><trkpt lat="42.7460967" lon="12.5670557"><ele>636.0</ele><time>2026-05-03T09:28:26.259Z</time></trkpt><trkpt lat="42.746196" lon="12.5670078"><ele>636.0</ele><time>2026-05-03T09:28:27.263Z</time></trkpt><trkpt lat="42.7462829" lon="12.5669487"><ele>636.0</ele><time>2026-05-03T09:28:28.273Z</time></trkpt><trkpt lat="42.7463661" lon="12.5668915"><ele>637.0</ele><time>2026-05-03T09:28:29.272Z</time></trkpt><trkpt lat="42.7464495" lon="12.5668376"><ele>638.0</ele><time>2026-05-03T09:28:30.266Z</time></trkpt><trkpt lat="42.7465297" lon="12.5667833"><ele>639.0</ele><time>2026-05-03T09:28:31.259Z</time></trkpt><trkpt lat="42.7466177" lon="12.5667462"><ele>640.0</ele><time>2026-05-03T09:28:32.265Z</time></trkpt><trkpt lat="42.7467005" lon="12.5666996"><ele>641.0</ele><time>2026-05-03T09:28:33.266Z</time></trkpt><trkpt lat="42.7467827" lon="12.5666367"><ele>641.0</ele><time>2026-05-03T09:28:34.257Z</time></trkpt><trkpt lat="42.7468642" lon="12.5665687"><ele>641.0</ele><time>2026-05-03T09:28:35.274Z</time></trkpt><trkpt lat="42.7469363" lon="12.5665086"><ele>641.0</ele><time>2026-05-03T09:28:36.265Z</time></trkpt><trkpt lat="42.7470108" lon="12.566471"><ele>641.0</ele><time>2026-05-03T09:28:37.277Z</time></trkpt><trkpt lat="42.7470868" lon="12.5664276"><ele>641.0</ele><time>2026-05-03T09:28:38.254Z</time></trkpt><trkpt lat="42.7471686" lon="12.566383"><ele>641.0</ele><time>2026-05-03T09:28:39.253Z</time></trkpt><trkpt lat="42.7472482" lon="12.5663352"><ele>640.5</ele><time>2026-05-03T09:28:40.265Z</time></trkpt><trkpt lat="42.7473399" lon="12.5662787"><ele>640.0</ele><time>2026-05-03T09:28:41.287Z</time></trkpt><trkpt lat="42.7474278" lon="12.5662189"><ele>639.5</ele><time>2026-05-03T09:28:42.259Z</time></trkpt><trkpt lat="42.7475047" lon="12.5661725"><ele>639.0</ele><time>2026-05-03T09:28:43.272Z</time></trkpt><trkpt lat="42.7475771" lon="12.5661204"><ele>638.5</ele><time>2026-05-03T09:28:44.278Z</time></trkpt><trkpt lat="42.7476389" lon="12.5660688"><ele>638.0</ele><time>2026-05-03T09:28:45.262Z</time></trkpt><trkpt lat="42.7477108" lon="12.5660155"><ele>641.5999999999999</ele><time>2026-05-03T09:28:46.268Z</time></trkpt><trkpt lat="42.7477838" lon="12.5659497"><ele>645.1999999999999</ele><time>2026-05-03T09:28:47.254Z</time></trkpt><trkpt lat="42.7478564" lon="12.5658834"><ele>648.8</ele><time>2026-05-03T09:28:48.267Z</time></trkpt><trkpt lat="42.7479261" lon="12.5658071"><ele>652.4</ele><time>2026-05-03T09:28:49.257Z</time></trkpt><trkpt lat="42.7479995" lon="12.5657231"><ele>656.0</ele><time>2026-05-03T09:28:50.27Z</time></trkpt><trkpt lat="42.7480658" lon="12.5656288"><ele>656.0</ele><time>2026-05-03T09:28:51.281Z</time></trkpt><trkpt lat="42.7481304" lon="12.5655143"><ele>656.0</ele><time>2026-05-03T09:28:52.266Z</time></trkpt><trkpt lat="42.7481961" lon="12.565403"><ele>656.0</ele><time>2026-05-03T09:28:53.255Z</time></trkpt><trkpt lat="42.7482565" lon="12.565301"><ele>656.0</ele><time>2026-05-03T09:28:54.268Z</time></trkpt><trkpt lat="42.7483252" lon="12.5651978"><ele>656.0</ele><time>2026-05-03T09:28:55.265Z</time></trkpt><trkpt lat="42.7484034" lon="12.5650959"><ele>656.0</ele><time>2026-05-03T09:28:56.258Z</time></trkpt><trkpt lat="42.7484823" lon="12.5649955"><ele>656.0</ele><time>2026-05-03T09:28:57.253Z</time></trkpt><trkpt lat="42.7485545" lon="12.564898"><ele>656.0</ele><time>2026-05-03T09:28:58.272Z</time></trkpt><trkpt lat="42.7486381" lon="12.5648053"><ele>656.0</ele><time>2026-05-03T09:28:59.262Z</time></trkpt><trkpt lat="42.7487242" lon="12.564717"><ele>656.0</ele><time>2026-05-03T09:29:00.265Z</time></trkpt><trkpt lat="42.7488225" lon="12.5646383"><ele>656.0</ele><time>2026-05-03T09:29:01.265Z</time></trkpt><trkpt lat="42.7489163" lon="12.5645635"><ele>656.0</ele><time>2026-05-03T09:29:02.261Z</time></trkpt><trkpt lat="42.7490027" lon="12.5644974"><ele>656.0</ele><time>2026-05-03T09:29:03.278Z</time></trkpt><trkpt lat="42.7490814" lon="12.5644492"><ele>656.0</ele><time>2026-05-03T09:29:04.263Z</time></trkpt><trkpt lat="42.7491613" lon="12.5644224"><ele>656.0</ele><time>2026-05-03T09:29:05.253Z</time></trkpt><trkpt lat="42.7492434" lon="12.5644066"><ele>654.5999999999999</ele><time>2026-05-03T09:29:06.257Z</time></trkpt><trkpt lat="42.7493367" lon="12.5643691"><ele>653.2</ele><time>2026-05-03T09:29:07.256Z</time></trkpt><trkpt lat="42.7494301" lon="12.5642914"><ele>651.8</ele><time>2026-05-03T09:29:08.266Z</time></trkpt><trkpt lat="42.7495258" lon="12.5642181"><ele>650.4000000000001</ele><time>2026-05-03T09:29:09.26Z</time></trkpt><trkpt lat="42.7495991" lon="12.5641544"><ele>649.0</ele><time>2026-05-03T09:29:10.255Z</time></trkpt><trkpt lat="42.7496723" lon="12.5641078"><ele>649.0</ele><time>2026-05-03T09:29:11.264Z</time></trkpt><trkpt lat="42.7497439" lon="12.5640414"><ele>649.0</ele><time>2026-05-03T09:29:12.259Z</time></trkpt><trkpt lat="42.7498278" lon="12.5639575"><ele>649.0</ele><time>2026-05-03T09:29:13.265Z</time></trkpt><trkpt lat="42.749926" lon="12.563873"><ele>649.0</ele><time>2026-05-03T09:29:14.254Z</time></trkpt><trkpt lat="42.7500207" lon="12.5638001"><ele>649.0</ele><time>2026-05-03T09:29:15.255Z</time></trkpt><trkpt lat="42.7501333" lon="12.5637262"><ele>646.6666666666667</ele><time>2026-05-03T09:29:16.253Z</time></trkpt><trkpt lat="42.7502666" lon="12.5636444"><ele>644.3333333333334</ele><time>2026-05-03T09:29:17.26Z</time></trkpt><trkpt lat="42.7504136" lon="12.5635565"><ele>642.0</ele><time>2026-05-03T09:29:18.256Z</time></trkpt><trkpt lat="42.7505637" lon="12.5634653"><ele>642.0</ele><time>2026-05-03T09:29:19.247Z</time></trkpt><trkpt lat="42.7507009" lon="12.5633878"><ele>642.0</ele><time>2026-05-03T09:29:20.256Z</time></trkpt><trkpt lat="42.7508274" lon="12.5633227"><ele>642.0</ele><time>2026-05-03T09:29:21.265Z</time></trkpt><trkpt lat="42.7509469" lon="12.5632469"><ele>642.0</ele><time>2026-05-03T09:29:22.244Z</time></trkpt><trkpt lat="42.7510763" lon="12.5631712"><ele>645.5</ele><time>2026-05-03T09:29:23.257Z</time></trkpt><trkpt lat="42.7512153" lon="12.5631012"><ele>649.0</ele><time>2026-05-03T09:29:24.257Z</time></trkpt><trkpt lat="42.7513448" lon="12.5630483"><ele>652.5</ele><time>2026-05-03T09:29:25.273Z</time></trkpt><trkpt lat="42.7514827" lon="12.563"><ele>656.0</ele><time>2026-05-03T09:29:26.255Z</time></trkpt><trkpt lat="42.751645" lon="12.5629467"><ele>656.0</ele><time>2026-05-03T09:29:27.267Z</time></trkpt><trkpt lat="42.7518243" lon="12.562886"><ele>656.0</ele><time>2026-05-03T09:29:28.277Z</time></trkpt><trkpt lat="42.751992" lon="12.5628232"><ele>656.0</ele><time>2026-05-03T09:29:29.277Z</time></trkpt><trkpt lat="42.7521311" lon="12.5627766"><ele>653.0</ele><time>2026-05-03T09:29:30.259Z</time></trkpt><trkpt lat="42.752252" lon="12.5627417"><ele>650.0</ele><time>2026-05-03T09:29:31.263Z</time></trkpt><trkpt lat="42.7523707" lon="12.562713"><ele>647.0</ele><time>2026-05-03T09:29:32.258Z</time></trkpt><trkpt lat="42.7524863" lon="12.5626888"><ele>644.0</ele><time>2026-05-03T09:29:33.258Z</time></trkpt><trkpt lat="42.7526091" lon="12.5626629"><ele>648.0</ele><time>2026-05-03T09:29:34.266Z</time></trkpt><trkpt lat="42.752733" lon="12.5626392"><ele>652.0</ele><time>2026-05-03T09:29:35.264Z</time></trkpt><trkpt lat="42.7528532" lon="12.5626135"><ele>656.0</ele><time>2026-05-03T09:29:36.278Z</time></trkpt><trkpt lat="42.752986" lon="12.5625732"><ele>660.0</ele><time>2026-05-03T09:29:37.258Z</time></trkpt><trkpt lat="42.7531207" lon="12.5625134"><ele>660.0</ele><time>2026-05-03T09:29:38.258Z</time></trkpt><trkpt lat="42.7532566" lon="12.5624347"><ele>660.0</ele><time>2026-05-03T09:29:39.258Z</time></trkpt><trkpt lat="42.7533758" lon="12.5623599"><ele>660.0</ele><time>2026-05-03T09:29:40.26Z</time></trkpt><trkpt lat="42.75348" lon="12.5622919"><ele>660.0</ele><time>2026-05-03T09:29:41.26Z</time></trkpt><trkpt lat="42.7535854" lon="12.5622356"><ele>661.8</ele><time>2026-05-03T09:29:42.26Z</time></trkpt><trkpt lat="42.7536784" lon="12.562184"><ele>663.6</ele><time>2026-05-03T09:29:43.261Z</time></trkpt><trkpt lat="42.7537647" lon="12.5621574"><ele>665.4000000000001</ele><time>2026-05-03T09:29:44.261Z</time></trkpt><trkpt lat="42.7538648" lon="12.5621387"><ele>667.2</ele><time>2026-05-03T09:29:45.26Z</time></trkpt><trkpt lat="42.753976" lon="12.5621201"><ele>669.0</ele><time>2026-05-03T09:29:46.262Z</time></trkpt><trkpt lat="42.7540935" lon="12.5621003"><ele>669.0</ele><time>2026-05-03T09:29:47.275Z</time></trkpt><trkpt lat="42.7541988" lon="12.5621002"><ele>669.0</ele><time>2026-05-03T09:29:48.266Z</time></trkpt><trkpt lat="42.754299" lon="12.5621086"><ele>669.0</ele><time>2026-05-03T09:29:49.255Z</time></trkpt><trkpt lat="42.754398" lon="12.5621185"><ele>669.0</ele><time>2026-05-03T09:29:50.26Z</time></trkpt><trkpt lat="42.754509" lon="12.5621388"><ele>669.0</ele><time>2026-05-03T09:29:51.259Z</time></trkpt><trkpt lat="42.7546186" lon="12.5621703"><ele>670.4000000000001</ele><time>2026-05-03T09:29:52.262Z</time></trkpt><trkpt lat="42.7547327" lon="12.5622037"><ele>671.8</ele><time>2026-05-03T09:29:53.256Z</time></trkpt><trkpt lat="42.7548322" lon="12.5622346"><ele>673.2</ele><time>2026-05-03T09:29:54.26Z</time></trkpt><trkpt lat="42.7549261" lon="12.5622414"><ele>674.5999999999999</ele><time>2026-05-03T09:29:55.274Z</time></trkpt><trkpt lat="42.7550139" lon="12.5622143"><ele>676.0</ele><time>2026-05-03T09:29:56.259Z</time></trkpt><trkpt lat="42.7551197" lon="12.5621776"><ele>677.5</ele><time>2026-05-03T09:29:57.261Z</time></trkpt><trkpt lat="42.7552493" lon="12.5621232"><ele>679.0</ele><time>2026-05-03T09:29:58.268Z</time></trkpt><trkpt lat="42.7553854" lon="12.5620551"><ele>680.5</ele><time>2026-05-03T09:29:59.274Z</time></trkpt><trkpt lat="42.7555205" lon="12.5619838"><ele>682.0</ele><time>2026-05-03T09:30:00.264Z</time></trkpt><trkpt lat="42.755665" lon="12.5619164"><ele>679.0</ele><time>2026-05-03T09:30:01.269Z</time></trkpt><trkpt lat="42.7558025" lon="12.5618581"><ele>676.0</ele><time>2026-05-03T09:30:02.266Z</time></trkpt><trkpt lat="42.7559263" lon="12.5618164"><ele>673.0</ele><time>2026-05-03T09:30:03.263Z</time></trkpt><trkpt lat="42.7560368" lon="12.5617784"><ele>670.0</ele><time>2026-05-03T09:30:04.264Z</time></trkpt><trkpt lat="42.7561504" lon="12.5617487"><ele>670.0</ele><time>2026-05-03T09:30:05.263Z</time></trkpt><trkpt lat="42.756275" lon="12.5617264"><ele>670.0</ele><time>2026-05-03T09:30:06.269Z</time></trkpt><trkpt lat="42.7563948" lon="12.5617139"><ele>670.0</ele><time>2026-05-03T09:30:07.264Z</time></trkpt><trkpt lat="42.7565303" lon="12.5617027"><ele>670.0</ele><time>2026-05-03T09:30:08.26Z</time></trkpt><trkpt lat="42.756663" lon="12.5616893"><ele>670.0</ele><time>2026-05-03T09:30:09.274Z</time></trkpt><trkpt lat="42.7567858" lon="12.5616688"><ele>670.0</ele><time>2026-05-03T09:30:10.293Z</time></trkpt><trkpt lat="42.7569075" lon="12.5616376"><ele>670.0</ele><time>2026-05-03T09:30:11.267Z</time></trkpt><trkpt lat="42.7570137" lon="12.5615961"><ele>670.0</ele><time>2026-05-03T09:30:12.277Z</time></trkpt><trkpt lat="42.7571138" lon="12.5615534"><ele>670.5</ele><time>2026-05-03T09:30:13.263Z</time></trkpt><trkpt lat="42.7572045" lon="12.5615119"><ele>671.0</ele><time>2026-05-03T09:30:14.27Z</time></trkpt><trkpt lat="42.7572712" lon="12.5614783"><ele>671.5</ele><time>2026-05-03T09:30:15.269Z</time></trkpt><trkpt lat="42.7573297" lon="12.5614426"><ele>672.0</ele><time>2026-05-03T09:30:16.254Z</time></trkpt><trkpt lat="42.7573996" lon="12.5614224"><ele>672.5</ele><time>2026-05-03T09:30:17.262Z</time></trkpt><trkpt lat="42.7574657" lon="12.5614239"><ele>673.0</ele><time>2026-05-03T09:30:18.276Z</time></trkpt><trkpt lat="42.7575863" lon="12.5614704"><ele>673.0</ele><time>2026-05-03T09:30:20.258Z</time></trkpt><trkpt lat="42.7576509" lon="12.5614908"><ele>673.0</ele><time>2026-05-03T09:30:21.263Z</time></trkpt><trkpt lat="42.7577224" lon="12.56151"><ele>673.0</ele><time>2026-05-03T09:30:22.257Z</time></trkpt><trkpt lat="42.7577972" lon="12.5615358"><ele>673.0</ele><time>2026-05-03T09:30:23.267Z</time></trkpt><trkpt lat="42.7578792" lon="12.5615661"><ele>673.0</ele><time>2026-05-03T09:30:24.26Z</time></trkpt><trkpt lat="42.7579622" lon="12.5615916"><ele>673.0</ele><time>2026-05-03T09:30:25.27Z</time></trkpt><trkpt lat="42.7580575" lon="12.5616038"><ele>671.8</ele><time>2026-05-03T09:30:26.249Z</time></trkpt><trkpt lat="42.7581528" lon="12.5616036"><ele>670.5999999999999</ele><time>2026-05-03T09:30:27.276Z</time></trkpt><trkpt lat="42.7582475" lon="12.5615984"><ele>669.4000000000001</ele><time>2026-05-03T09:30:28.278Z</time></trkpt><trkpt lat="42.7583442" lon="12.5615932"><ele>668.2</ele><time>2026-05-03T09:30:29.257Z</time></trkpt><trkpt lat="42.758439" lon="12.5615694"><ele>667.0</ele><time>2026-05-03T09:30:30.258Z</time></trkpt><trkpt lat="42.758534" lon="12.5615233"><ele>666.75</ele><time>2026-05-03T09:30:31.286Z</time></trkpt><trkpt lat="42.758635" lon="12.5614783"><ele>666.5</ele><time>2026-05-03T09:30:32.265Z</time></trkpt><trkpt lat="42.7587427" lon="12.561438"><ele>666.25</ele><time>2026-05-03T09:30:33.266Z</time></trkpt><trkpt lat="42.7588556" lon="12.5613861"><ele>666.0</ele><time>2026-05-03T09:30:34.263Z</time></trkpt><trkpt lat="42.7589826" lon="12.561328"><ele>666.0</ele><time>2026-05-03T09:30:35.264Z</time></trkpt><trkpt lat="42.759101" lon="12.5612687"><ele>666.0</ele><time>2026-05-03T09:30:36.272Z</time></trkpt><trkpt lat="42.7592217" lon="12.5612185"><ele>666.0</ele><time>2026-05-03T09:30:37.267Z</time></trkpt><trkpt lat="42.7593423" lon="12.5611769"><ele>666.0</ele><time>2026-05-03T09:30:38.256Z</time></trkpt><trkpt lat="42.7594589" lon="12.5611461"><ele>660.5</ele><time>2026-05-03T09:30:39.275Z</time></trkpt><trkpt lat="42.7595735" lon="12.5611193"><ele>655.0</ele><time>2026-05-03T09:30:40.27Z</time></trkpt><trkpt lat="42.7596871" lon="12.5610941"><ele>649.5</ele><time>2026-05-03T09:30:41.255Z</time></trkpt><trkpt lat="42.7598017" lon="12.5610705"><ele>644.0</ele><time>2026-05-03T09:30:42.259Z</time></trkpt><trkpt lat="42.7599015" lon="12.5610313"><ele>644.0</ele><time>2026-05-03T09:30:43.26Z</time></trkpt><trkpt lat="42.7599793" lon="12.5609831"><ele>644.0</ele><time>2026-05-03T09:30:44.271Z</time></trkpt><trkpt lat="42.7600441" lon="12.5609463"><ele>644.0</ele><time>2026-05-03T09:30:45.256Z</time></trkpt><trkpt lat="42.760103" lon="12.5609146"><ele>644.0</ele><time>2026-05-03T09:30:46.257Z</time></trkpt><trkpt lat="42.7602313" lon="12.5609071"><ele>644.0</ele><time>2026-05-03T09:30:48.254Z</time></trkpt><trkpt lat="42.7602947" lon="12.5609257"><ele>644.0</ele><time>2026-05-03T09:30:49.264Z</time></trkpt><trkpt lat="42.7604061" lon="12.5609836"><ele>643.2</ele><time>2026-05-03T09:30:51.263Z</time></trkpt><trkpt lat="42.7605031" lon="12.5609907"><ele>642.4000000000001</ele><time>2026-05-03T09:30:53.273Z</time></trkpt><trkpt lat="42.7605859" lon="12.56096"><ele>641.6</ele><time>2026-05-03T09:30:55.26Z</time></trkpt><trkpt lat="42.7607205" lon="12.5610129"><ele>640.8</ele><time>2026-05-03T09:30:57.255Z</time></trkpt><trkpt lat="42.7608222" lon="12.5610694"><ele>640.0</ele><time>2026-05-03T09:30:58.254Z</time></trkpt><trkpt lat="42.7609363" lon="12.5611293"><ele>641.0</ele><time>2026-05-03T09:30:59.245Z</time></trkpt><trkpt lat="42.7610595" lon="12.5611816"><ele>642.0</ele><time>2026-05-03T09:31:00.253Z</time></trkpt><trkpt lat="42.7611902" lon="12.5612099"><ele>643.0</ele><time>2026-05-03T09:31:01.269Z</time></trkpt><trkpt lat="42.7613152" lon="12.5611938"><ele>644.0</ele><time>2026-05-03T09:31:02.256Z</time></trkpt><trkpt lat="42.7614356" lon="12.5611908"><ele>644.0</ele><time>2026-05-03T09:31:03.255Z</time></trkpt><trkpt lat="42.7615473" lon="12.5611915"><ele>644.0</ele><time>2026-05-03T09:31:04.263Z</time></trkpt><trkpt lat="42.7616589" lon="12.5612076"><ele>644.0</ele><time>2026-05-03T09:31:05.254Z</time></trkpt><trkpt lat="42.7617723" lon="12.5612441"><ele>644.0</ele><time>2026-05-03T09:31:06.258Z</time></trkpt><trkpt lat="42.7618934" lon="12.5612902"><ele>651.5</ele><time>2026-05-03T09:31:07.255Z</time></trkpt><trkpt lat="42.7620202" lon="12.561344"><ele>659.0</ele><time>2026-05-03T09:31:08.254Z</time></trkpt><trkpt lat="42.7621486" lon="12.5613921"><ele>666.5</ele><time>2026-05-03T09:31:09.257Z</time></trkpt><trkpt lat="42.7622826" lon="12.5614359"><ele>674.0</ele><time>2026-05-03T09:31:10.262Z</time></trkpt><trkpt lat="42.7624253" lon="12.5614656"><ele>674.0</ele><time>2026-05-03T09:31:11.254Z</time></trkpt><trkpt lat="42.7625628" lon="12.5614907"><ele>674.0</ele><time>2026-05-03T09:31:12.276Z</time></trkpt><trkpt lat="42.7626988" lon="12.5615091"><ele>674.0</ele><time>2026-05-03T09:31:13.257Z</time></trkpt><trkpt lat="42.7628268" lon="12.5615251"><ele>674.0</ele><time>2026-05-03T09:31:14.263Z</time></trkpt><trkpt lat="42.7629518" lon="12.5615326"><ele>675.5</ele><time>2026-05-03T09:31:15.274Z</time></trkpt><trkpt lat="42.7630704" lon="12.5615383"><ele>677.0</ele><time>2026-05-03T09:31:16.256Z</time></trkpt><trkpt lat="42.7631819" lon="12.561544"><ele>678.5</ele><time>2026-05-03T09:31:17.266Z</time></trkpt><trkpt lat="42.763298" lon="12.5615489"><ele>680.0</ele><time>2026-05-03T09:31:18.248Z</time></trkpt><trkpt lat="42.7634243" lon="12.5615529"><ele>682.0</ele><time>2026-05-03T09:31:19.277Z</time></trkpt><trkpt lat="42.7635572" lon="12.5615525"><ele>684.0</ele><time>2026-05-03T09:31:20.252Z</time></trkpt><trkpt lat="42.7637022" lon="12.5615609"><ele>686.0</ele><time>2026-05-03T09:31:21.266Z</time></trkpt><trkpt lat="42.7638567" lon="12.5615679"><ele>688.0</ele><time>2026-05-03T09:31:22.277Z</time></trkpt><trkpt lat="42.7640167" lon="12.5615762"><ele>688.0</ele><time>2026-05-03T09:31:23.27Z</time></trkpt><trkpt lat="42.7641731" lon="12.5615911"><ele>688.0</ele><time>2026-05-03T09:31:24.277Z</time></trkpt><trkpt lat="42.7643347" lon="12.5616015"><ele>688.0</ele><time>2026-05-03T09:31:25.266Z</time></trkpt><trkpt lat="42.764515" lon="12.5616054"><ele>690.3333333333334</ele><time>2026-05-03T09:31:26.258Z</time></trkpt><trkpt lat="42.764712" lon="12.5616027"><ele>692.6666666666666</ele><time>2026-05-03T09:31:27.255Z</time></trkpt><trkpt lat="42.7648993" lon="12.5616037"><ele>695.0</ele><time>2026-05-03T09:31:28.27Z</time></trkpt><trkpt lat="42.7650726" lon="12.5616071"><ele>698.25</ele><time>2026-05-03T09:31:29.256Z</time></trkpt><trkpt lat="42.7652158" lon="12.5616176"><ele>701.5</ele><time>2026-05-03T09:31:30.26Z</time></trkpt><trkpt lat="42.7653401" lon="12.5616189"><ele>704.75</ele><time>2026-05-03T09:31:31.249Z</time></trkpt><trkpt lat="42.7654662" lon="12.5615913"><ele>708.0</ele><time>2026-05-03T09:31:32.269Z</time></trkpt><trkpt lat="42.7655997" lon="12.5615078"><ele>708.0</ele><time>2026-05-03T09:31:33.258Z</time></trkpt><trkpt lat="42.7657471" lon="12.561413"><ele>708.0</ele><time>2026-05-03T09:31:34.265Z</time></trkpt><trkpt lat="42.7659035" lon="12.5613126"><ele>708.0</ele><time>2026-05-03T09:31:35.246Z</time></trkpt><trkpt lat="42.7660656" lon="12.5612281"><ele>704.6666666666666</ele><time>2026-05-03T09:31:36.256Z</time></trkpt><trkpt lat="42.7662249" lon="12.5611633"><ele>701.3333333333333</ele><time>2026-05-03T09:31:37.257Z</time></trkpt><trkpt lat="42.76638" lon="12.5611056"><ele>698.0</ele><time>2026-05-03T09:31:38.258Z</time></trkpt><trkpt lat="42.7665477" lon="12.5610561"><ele>698.0</ele><time>2026-05-03T09:31:39.267Z</time></trkpt><trkpt lat="42.7667227" lon="12.5610032"><ele>698.0</ele><time>2026-05-03T09:31:40.257Z</time></trkpt><trkpt lat="42.766896" lon="12.5609536"><ele>698.0</ele><time>2026-05-03T09:31:41.263Z</time></trkpt><trkpt lat="42.7670625" lon="12.5609083"><ele>703.3333333333333</ele><time>2026-05-03T09:31:42.262Z</time></trkpt><trkpt lat="42.7672291" lon="12.56086"><ele>708.6666666666666</ele><time>2026-05-03T09:31:43.253Z</time></trkpt><trkpt lat="42.7674007" lon="12.5608254"><ele>714.0</ele><time>2026-05-03T09:31:44.268Z</time></trkpt><trkpt lat="42.7675741" lon="12.5608012"><ele>716.6666666666666</ele><time>2026-05-03T09:31:45.257Z</time></trkpt><trkpt lat="42.7677539" lon="12.5607917"><ele>719.3333333333333</ele><time>2026-05-03T09:31:46.273Z</time></trkpt><trkpt lat="42.7679341" lon="12.5607953"><ele>722.0</ele><time>2026-05-03T09:31:47.258Z</time></trkpt><trkpt lat="42.7681097" lon="12.5608105"><ele>722.0</ele><time>2026-05-03T09:31:48.27Z</time></trkpt><trkpt lat="42.7682784" lon="12.5608329"><ele>722.0</ele><time>2026-05-03T09:31:49.267Z</time></trkpt><trkpt lat="42.7684179" lon="12.5608623"><ele>722.0</ele><time>2026-05-03T09:31:50.266Z</time></trkpt><trkpt lat="42.7685347" lon="12.5608892"><ele>722.0</ele><time>2026-05-03T09:31:51.249Z</time></trkpt><trkpt lat="42.76864" lon="12.5609036"><ele>726.0</ele><time>2026-05-03T09:31:52.265Z</time></trkpt><trkpt lat="42.7687369" lon="12.5608818"><ele>730.0</ele><time>2026-05-03T09:31:53.26Z</time></trkpt><trkpt lat="42.7688274" lon="12.5608333"><ele>734.0</ele><time>2026-05-03T09:31:54.26Z</time></trkpt><trkpt lat="42.7689333" lon="12.5607413"><ele>738.0</ele><time>2026-05-03T09:31:55.263Z</time></trkpt><trkpt lat="42.7690463" lon="12.560629"><ele>738.0</ele><time>2026-05-03T09:31:56.266Z</time></trkpt><trkpt lat="42.7691653" lon="12.5605272"><ele>738.0</ele><time>2026-05-03T09:31:57.265Z</time></trkpt><trkpt lat="42.7693006" lon="12.5604218"><ele>738.0</ele><time>2026-05-03T09:31:58.256Z</time></trkpt><trkpt lat="42.7694674" lon="12.560307"><ele>739.3333333333334</ele><time>2026-05-03T09:31:59.271Z</time></trkpt><trkpt lat="42.7696475" lon="12.5601849"><ele>740.6666666666667</ele><time>2026-05-03T09:32:00.255Z</time></trkpt><trkpt lat="42.7698245" lon="12.5600819"><ele>742.0</ele><time>2026-05-03T09:32:01.255Z</time></trkpt><trkpt lat="42.769992" lon="12.5599762"><ele>742.0</ele><time>2026-05-03T09:32:02.272Z</time></trkpt><trkpt lat="42.7701413" lon="12.5598683"><ele>742.0</ele><time>2026-05-03T09:32:03.253Z</time></trkpt><trkpt lat="42.7702663" lon="12.5597838"><ele>742.0</ele><time>2026-05-03T09:32:04.258Z</time></trkpt><trkpt lat="42.7703853" lon="12.5596973"><ele>742.0</ele><time>2026-05-03T09:32:05.263Z</time></trkpt><trkpt lat="42.7705057" lon="12.5596202"><ele>740.25</ele><time>2026-05-03T09:32:06.259Z</time></trkpt><trkpt lat="42.7706258" lon="12.5595616"><ele>738.5</ele><time>2026-05-03T09:32:07.271Z</time></trkpt><trkpt lat="42.770747" lon="12.5595305"><ele>736.75</ele><time>2026-05-03T09:32:08.255Z</time></trkpt><trkpt lat="42.7708782" lon="12.559513"><ele>735.0</ele><time>2026-05-03T09:32:09.257Z</time></trkpt><trkpt lat="42.771015" lon="12.5595031"><ele>734.75</ele><time>2026-05-03T09:32:10.276Z</time></trkpt><trkpt lat="42.7711568" lon="12.5595126"><ele>734.5</ele><time>2026-05-03T09:32:11.267Z</time></trkpt><trkpt lat="42.7712976" lon="12.5595461"><ele>734.25</ele><time>2026-05-03T09:32:12.257Z</time></trkpt><trkpt lat="42.7714355" lon="12.5596048"><ele>734.0</ele><time>2026-05-03T09:32:13.27Z</time></trkpt><trkpt lat="42.7715778" lon="12.5596844"><ele>742.0</ele><time>2026-05-03T09:32:14.263Z</time></trkpt><trkpt lat="42.7717264" lon="12.5597804"><ele>750.0</ele><time>2026-05-03T09:32:15.273Z</time></trkpt><trkpt lat="42.7718798" lon="12.5598913"><ele>758.0</ele><time>2026-05-03T09:32:16.27Z</time></trkpt><trkpt lat="42.7720336" lon="12.5600076"><ele>758.0</ele><time>2026-05-03T09:32:17.249Z</time></trkpt><trkpt lat="42.7721819" lon="12.5601242"><ele>758.0</ele><time>2026-05-03T09:32:18.266Z</time></trkpt><trkpt lat="42.7723235" lon="12.5602356"><ele>758.0</ele><time>2026-05-03T09:32:19.263Z</time></trkpt><trkpt lat="42.7724565" lon="12.560332"><ele>759.5999999999999</ele><time>2026-05-03T09:32:20.266Z</time></trkpt><trkpt lat="42.772563" lon="12.5604073"><ele>761.1999999999999</ele><time>2026-05-03T09:32:21.255Z</time></trkpt><trkpt lat="42.772654" lon="12.5604722"><ele>762.8</ele><time>2026-05-03T09:32:22.273Z</time></trkpt><trkpt lat="42.7727282" lon="12.5605257"><ele>764.4</ele><time>2026-05-03T09:32:23.256Z</time></trkpt><trkpt lat="42.772785" lon="12.5605868"><ele>766.0</ele><time>2026-05-03T09:32:24.269Z</time></trkpt><trkpt lat="42.7728016" lon="12.5607227"><ele>766.0</ele><time>2026-05-03T09:32:26.267Z</time></trkpt><trkpt lat="42.772765" lon="12.5607929"><ele>766.0</ele><time>2026-05-03T09:32:27.259Z</time></trkpt><trkpt lat="42.7726632" lon="12.5608253"><ele>766.0</ele><time>2026-05-03T09:32:29.256Z</time></trkpt><trkpt lat="42.7725894" lon="12.5607797"><ele>766.0</ele><time>2026-05-03T09:32:30.274Z</time></trkpt><trkpt lat="42.7725023" lon="12.5607001"><ele>766.0</ele><time>2026-05-03T09:32:31.265Z</time></trkpt><trkpt lat="42.7724108" lon="12.5606084"><ele>769.25</ele><time>2026-05-03T09:32:32.255Z</time></trkpt><trkpt lat="42.7723156" lon="12.5605391"><ele>772.5</ele><time>2026-05-03T09:32:33.267Z</time></trkpt><trkpt lat="42.7722067" lon="12.5605029"><ele>775.75</ele><time>2026-05-03T09:32:34.263Z</time></trkpt><trkpt lat="42.7720873" lon="12.5604888"><ele>779.0</ele><time>2026-05-03T09:32:35.268Z</time></trkpt><trkpt lat="42.7719554" lon="12.5605013"><ele>781.75</ele><time>2026-05-03T09:32:36.276Z</time></trkpt><trkpt lat="42.7718151" lon="12.5605224"><ele>784.5</ele><time>2026-05-03T09:32:37.289Z</time></trkpt><trkpt lat="42.7716708" lon="12.5605539"><ele>787.25</ele><time>2026-05-03T09:32:38.277Z</time></trkpt><trkpt lat="42.7715435" lon="12.5605886"><ele>790.0</ele><time>2026-05-03T09:32:39.257Z</time></trkpt><trkpt lat="42.7714369" lon="12.5606421"><ele>790.0</ele><time>2026-05-03T09:32:40.261Z</time></trkpt><trkpt lat="42.7713417" lon="12.5607127"><ele>790.0</ele><time>2026-05-03T09:32:41.265Z</time></trkpt><trkpt lat="42.7712519" lon="12.5608038"><ele>790.0</ele><time>2026-05-03T09:32:42.266Z</time></trkpt><trkpt lat="42.7711645" lon="12.5609126"><ele>790.0</ele><time>2026-05-03T09:32:43.258Z</time></trkpt><trkpt lat="42.7710717" lon="12.5610411"><ele>791.6666666666666</ele><time>2026-05-03T09:32:44.266Z</time></trkpt><trkpt lat="42.7709715" lon="12.561191"><ele>793.3333333333333</ele><time>2026-05-03T09:32:45.276Z</time></trkpt><trkpt lat="42.7708697" lon="12.5613445"><ele>795.0</ele><time>2026-05-03T09:32:46.259Z</time></trkpt><trkpt lat="42.7707675" lon="12.5614969"><ele>795.0</ele><time>2026-05-03T09:32:47.274Z</time></trkpt><trkpt lat="42.770669" lon="12.5616424"><ele>795.0</ele><time>2026-05-03T09:32:48.271Z</time></trkpt><trkpt lat="42.770576" lon="12.5617851"><ele>795.0</ele><time>2026-05-03T09:32:49.268Z</time></trkpt><trkpt lat="42.7704907" lon="12.5619271"><ele>795.0</ele><time>2026-05-03T09:32:50.262Z</time></trkpt><trkpt lat="42.7704041" lon="12.5620742"><ele>795.0</ele><time>2026-05-03T09:32:51.256Z</time></trkpt><trkpt lat="42.77032" lon="12.5622257"><ele>795.0</ele><time>2026-05-03T09:32:52.263Z</time></trkpt><trkpt lat="42.7702444" lon="12.5623792"><ele>795.0</ele><time>2026-05-03T09:32:53.266Z</time></trkpt><trkpt lat="42.7701707" lon="12.5625175"><ele>795.0</ele><time>2026-05-03T09:32:54.255Z</time></trkpt><trkpt lat="42.7701089" lon="12.5626368"><ele>795.0</ele><time>2026-05-03T09:32:55.265Z</time></trkpt><trkpt lat="42.7700472" lon="12.5627432"><ele>795.0</ele><time>2026-05-03T09:32:56.252Z</time></trkpt><trkpt lat="42.7699839" lon="12.5628302"><ele>795.0</ele><time>2026-05-03T09:32:57.259Z</time></trkpt><trkpt lat="42.7699063" lon="12.5629016"><ele>795.0</ele><time>2026-05-03T09:32:58.251Z</time></trkpt><trkpt lat="42.7698165" lon="12.5629626"><ele>795.0</ele><time>2026-05-03T09:32:59.259Z</time></trkpt><trkpt lat="42.7697127" lon="12.563023"><ele>797.5</ele><time>2026-05-03T09:33:00.268Z</time></trkpt><trkpt lat="42.7696031" lon="12.563087"><ele>800.0</ele><time>2026-05-03T09:33:01.265Z</time></trkpt><trkpt lat="42.7694853" lon="12.56314"><ele>802.5</ele><time>2026-05-03T09:33:02.265Z</time></trkpt><trkpt lat="42.7693479" lon="12.5631816"><ele>805.0</ele><time>2026-05-03T09:33:03.259Z</time></trkpt><trkpt lat="42.7692029" lon="12.5632034"><ele>805.0</ele><time>2026-05-03T09:33:04.285Z</time></trkpt><trkpt lat="42.7690552" lon="12.5632099"><ele>805.0</ele><time>2026-05-03T09:33:05.265Z</time></trkpt><trkpt lat="42.7689085" lon="12.5632134"><ele>805.0</ele><time>2026-05-03T09:33:06.264Z</time></trkpt><trkpt lat="42.7687525" lon="12.5632093"><ele>805.0</ele><time>2026-05-03T09:33:07.27Z</time></trkpt><trkpt lat="42.7685993" lon="12.5632074"><ele>805.0</ele><time>2026-05-03T09:33:08.257Z</time></trkpt><trkpt lat="42.7684451" lon="12.5632038"><ele>805.0</ele><time>2026-05-03T09:33:09.26Z</time></trkpt><trkpt lat="42.7683013" lon="12.5632043"><ele>805.5</ele><time>2026-05-03T09:33:10.28Z</time></trkpt><trkpt lat="42.7681733" lon="12.5632112"><ele>806.0</ele><time>2026-05-03T09:33:11.254Z</time></trkpt><trkpt lat="42.7680551" lon="12.5632255"><ele>806.5</ele><time>2026-05-03T09:33:12.265Z</time></trkpt><trkpt lat="42.7679488" lon="12.5632726"><ele>807.0</ele><time>2026-05-03T09:33:13.259Z</time></trkpt><trkpt lat="42.7678486" lon="12.5633432"><ele>807.0</ele><time>2026-05-03T09:33:14.252Z</time></trkpt><trkpt lat="42.7677511" lon="12.563431"><ele>807.0</ele><time>2026-05-03T09:33:15.267Z</time></trkpt><trkpt lat="42.7676594" lon="12.5635425"><ele>807.0</ele><time>2026-05-03T09:33:16.265Z</time></trkpt><trkpt lat="42.7675665" lon="12.5636674"><ele>807.0</ele><time>2026-05-03T09:33:17.282Z</time></trkpt><trkpt lat="42.7674642" lon="12.5637997"><ele>809.75</ele><time>2026-05-03T09:33:18.269Z</time></trkpt><trkpt lat="42.7673608" lon="12.5639309"><ele>812.5</ele><time>2026-05-03T09:33:19.277Z</time></trkpt><trkpt lat="42.7672707" lon="12.5640493"><ele>815.25</ele><time>2026-05-03T09:33:20.268Z</time></trkpt><trkpt lat="42.7671929" lon="12.5641697"><ele>818.0</ele><time>2026-05-03T09:33:21.265Z</time></trkpt><trkpt lat="42.7671237" lon="12.5643213"><ele>818.0</ele><time>2026-05-03T09:33:22.271Z</time></trkpt><trkpt lat="42.7670559" lon="12.564516"><ele>818.0</ele><time>2026-05-03T09:33:23.259Z</time></trkpt><trkpt lat="42.7669965" lon="12.5647609"><ele>818.0</ele><time>2026-05-03T09:33:24.27Z</time></trkpt><trkpt lat="42.7669315" lon="12.5650459"><ele>816.6666666666667</ele><time>2026-05-03T09:33:25.268Z</time></trkpt><trkpt lat="42.7668607" lon="12.5653376"><ele>815.3333333333333</ele><time>2026-05-03T09:33:26.274Z</time></trkpt><trkpt lat="42.7667927" lon="12.5656084"><ele>814.0</ele><time>2026-05-03T09:33:27.275Z</time></trkpt><trkpt lat="42.7667297" lon="12.5658687"><ele>816.6666666666666</ele><time>2026-05-03T09:33:28.269Z</time></trkpt><trkpt lat="42.7666688" lon="12.5661119"><ele>819.3333333333333</ele><time>2026-05-03T09:33:29.256Z</time></trkpt><trkpt lat="42.7666124" lon="12.5663412"><ele>822.0</ele><time>2026-05-03T09:33:30.254Z</time></trkpt><trkpt lat="42.7665592" lon="12.566559"><ele>822.5</ele><time>2026-05-03T09:33:31.281Z</time></trkpt><trkpt lat="42.7665108" lon="12.5667391"><ele>823.0</ele><time>2026-05-03T09:33:32.264Z</time></trkpt><trkpt lat="42.7664657" lon="12.5668992"><ele>823.5</ele><time>2026-05-03T09:33:33.274Z</time></trkpt><trkpt lat="42.7664068" lon="12.5670482"><ele>824.0</ele><time>2026-05-03T09:33:34.271Z</time></trkpt><trkpt lat="42.7663306" lon="12.5671811"><ele>822.3333333333334</ele><time>2026-05-03T09:33:35.274Z</time></trkpt><trkpt lat="42.7662404" lon="12.5673212"><ele>820.6666666666667</ele><time>2026-05-03T09:33:36.282Z</time></trkpt><trkpt lat="42.7661249" lon="12.5674766"><ele>819.0</ele><time>2026-05-03T09:33:37.256Z</time></trkpt><trkpt lat="42.7659732" lon="12.5676589"><ele>823.0</ele><time>2026-05-03T09:33:38.264Z</time></trkpt><trkpt lat="42.7658237" lon="12.5678395"><ele>827.0</ele><time>2026-05-03T09:33:39.265Z</time></trkpt><trkpt lat="42.765696" lon="12.568001"><ele>831.0</ele><time>2026-05-03T09:33:40.269Z</time></trkpt><trkpt lat="42.7655884" lon="12.5681347"><ele>831.0</ele><time>2026-05-03T09:33:41.264Z</time></trkpt><trkpt lat="42.7654774" lon="12.5682538"><ele>831.0</ele><time>2026-05-03T09:33:42.272Z</time></trkpt><trkpt lat="42.7653567" lon="12.5683616"><ele>831.0</ele><time>2026-05-03T09:33:43.268Z</time></trkpt><trkpt lat="42.7652341" lon="12.5684599"><ele>831.0</ele><time>2026-05-03T09:33:44.265Z</time></trkpt><trkpt lat="42.7651128" lon="12.5685659"><ele>834.0</ele><time>2026-05-03T09:33:45.267Z</time></trkpt><trkpt lat="42.7649951" lon="12.5686698"><ele>837.0</ele><time>2026-05-03T09:33:46.269Z</time></trkpt><trkpt lat="42.7648721" lon="12.56878"><ele>840.0</ele><time>2026-05-03T09:33:47.278Z</time></trkpt><trkpt lat="42.7647592" lon="12.5688815"><ele>843.0</ele><time>2026-05-03T09:33:48.268Z</time></trkpt><trkpt lat="42.7646563" lon="12.5689756"><ele>843.0</ele><time>2026-05-03T09:33:49.268Z</time></trkpt><trkpt lat="42.7645491" lon="12.5690947"><ele>843.0</ele><time>2026-05-03T09:33:50.262Z</time></trkpt><trkpt lat="42.764431" lon="12.569254"><ele>843.0</ele><time>2026-05-03T09:33:51.253Z</time></trkpt><trkpt lat="42.7642978" lon="12.5694199"><ele>849.0</ele><time>2026-05-03T09:33:52.264Z</time></trkpt><trkpt lat="42.764157" lon="12.5695848"><ele>855.0</ele><time>2026-05-03T09:33:53.27Z</time></trkpt><trkpt lat="42.7640188" lon="12.5697451"><ele>861.0</ele><time>2026-05-03T09:33:54.262Z</time></trkpt><trkpt lat="42.7639016" lon="12.5698793"><ele>861.0</ele><time>2026-05-03T09:33:55.266Z</time></trkpt><trkpt lat="42.7638144" lon="12.5699829"><ele>860.9999999999999</ele><time>2026-05-03T09:33:56.267Z</time></trkpt><trkpt lat="42.7637546" lon="12.5700779"><ele>860.9999999999999</ele><time>2026-05-03T09:33:57.272Z</time></trkpt><trkpt lat="42.7636969" lon="12.5701975"><ele>861.0</ele><time>2026-05-03T09:33:58.259Z</time></trkpt><trkpt lat="42.7636612" lon="12.5703584"><ele>861.0</ele><time>2026-05-03T09:33:59.25Z</time></trkpt><trkpt lat="42.7636305" lon="12.5705428"><ele>860.4</ele><time>2026-05-03T09:34:00.279Z</time></trkpt><trkpt lat="42.7635878" lon="12.5706938"><ele>859.8</ele><time>2026-05-03T09:34:01.258Z</time></trkpt><trkpt lat="42.7635325" lon="12.5708116"><ele>859.1999999999999</ele><time>2026-05-03T09:34:02.257Z</time></trkpt><trkpt lat="42.7634749" lon="12.5709113"><ele>858.5999999999999</ele><time>2026-05-03T09:34:03.279Z</time></trkpt><trkpt lat="42.7634105" lon="12.5709885"><ele>858.0</ele><time>2026-05-03T09:34:04.265Z</time></trkpt><trkpt lat="42.7633506" lon="12.5710529"><ele>861.4</ele><time>2026-05-03T09:34:05.264Z</time></trkpt><trkpt lat="42.7632971" lon="12.5711074"><ele>864.8</ele><time>2026-05-03T09:34:06.27Z</time></trkpt><trkpt lat="42.7631976" lon="12.5712077"><ele>868.2</ele><time>2026-05-03T09:34:08.262Z</time></trkpt><trkpt lat="42.7631117" lon="12.5713152"><ele>871.6</ele><time>2026-05-03T09:34:10.27Z</time></trkpt><trkpt lat="42.7630496" lon="12.5714036"><ele>875.0</ele><time>2026-05-03T09:34:12.262Z</time></trkpt><trkpt lat="42.7629871" lon="12.5714779"><ele>875.0000000000001</ele><time>2026-05-03T09:34:14.278Z</time></trkpt><trkpt lat="42.7629385" lon="12.5715478"><ele>875.0</ele><time>2026-05-03T09:34:16.262Z</time></trkpt><trkpt lat="42.7629207" lon="12.5716477"><ele>875.0</ele><time>2026-05-03T09:34:19.254Z</time></trkpt><trkpt lat="42.7628571" lon="12.571758"><ele>875.0</ele><time>2026-05-03T09:35:29.261Z</time></trkpt><trkpt lat="42.7628137" lon="12.5718623"><ele>875.0000000000001</ele><time>2026-05-03T09:35:31.282Z</time></trkpt><trkpt lat="42.7627753" lon="12.5719741"><ele>875.0</ele><time>2026-05-03T09:35:33.28Z</time></trkpt><trkpt lat="42.7627429" lon="12.5720565"><ele>874.6666666666667</ele><time>2026-05-03T09:35:35.261Z</time></trkpt><trkpt lat="42.7627126" lon="12.5721363"><ele>874.3333333333334</ele><time>2026-05-03T09:35:37.264Z</time></trkpt><trkpt lat="42.7626798" lon="12.5722168"><ele>874.0</ele><time>2026-05-03T09:35:39.275Z</time></trkpt><trkpt lat="42.7626301" lon="12.5722911"><ele>873.6666666666667</ele><time>2026-05-03T09:35:41.257Z</time></trkpt><trkpt lat="42.7625654" lon="12.5723823"><ele>873.3333333333334</ele><time>2026-05-03T09:35:43.265Z</time></trkpt><trkpt lat="42.7624725" lon="12.5724618"><ele>873.0</ele><time>2026-05-03T09:35:45.282Z</time></trkpt><trkpt lat="42.7624087" lon="12.5724984"><ele>873.0</ele><time>2026-05-03T09:35:46.265Z</time></trkpt><trkpt lat="42.7623348" lon="12.5725301"><ele>873.0</ele><time>2026-05-03T09:35:47.258Z</time></trkpt><trkpt lat="42.7622431" lon="12.572564"><ele>873.0</ele><time>2026-05-03T09:35:48.26Z</time></trkpt><trkpt lat="42.7621463" lon="12.5725995"><ele>873.0</ele><time>2026-05-03T09:35:49.28Z</time></trkpt><trkpt lat="42.7620425" lon="12.572636"><ele>873.0</ele><time>2026-05-03T09:35:50.26Z</time></trkpt><trkpt lat="42.7619338" lon="12.5726945"><ele>872.5</ele><time>2026-05-03T09:35:51.267Z</time></trkpt><trkpt lat="42.7618138" lon="12.5727761"><ele>872.0</ele><time>2026-05-03T09:35:52.265Z</time></trkpt><trkpt lat="42.7616923" lon="12.572888"><ele>871.5</ele><time>2026-05-03T09:35:53.274Z</time></trkpt><trkpt lat="42.7615624" lon="12.5730039"><ele>871.0</ele><time>2026-05-03T09:35:54.261Z</time></trkpt><trkpt lat="42.76145" lon="12.5731131"><ele>870.25</ele><time>2026-05-03T09:35:55.272Z</time></trkpt><trkpt lat="42.7613395" lon="12.5732091"><ele>869.5</ele><time>2026-05-03T09:35:56.262Z</time></trkpt><trkpt lat="42.761224" lon="12.5733011"><ele>868.75</ele><time>2026-05-03T09:35:57.264Z</time></trkpt><trkpt lat="42.7611032" lon="12.5733877"><ele>868.0</ele><time>2026-05-03T09:35:58.278Z</time></trkpt><trkpt lat="42.7609868" lon="12.5734619"><ele>868.0</ele><time>2026-05-03T09:35:59.258Z</time></trkpt><trkpt lat="42.7608658" lon="12.5735287"><ele>868.0</ele><time>2026-05-03T09:36:00.259Z</time></trkpt><trkpt lat="42.7607381" lon="12.5735956"><ele>868.0</ele><time>2026-05-03T09:36:01.276Z</time></trkpt><trkpt lat="42.7606079" lon="12.5736536"><ele>868.0</ele><time>2026-05-03T09:36:02.26Z</time></trkpt><trkpt lat="42.7604813" lon="12.5737007"><ele>868.0</ele><time>2026-05-03T09:36:03.257Z</time></trkpt><trkpt lat="42.7603471" lon="12.5737458"><ele>868.0</ele><time>2026-05-03T09:36:04.27Z</time></trkpt><trkpt lat="42.7602043" lon="12.5737951"><ele>868.0</ele><time>2026-05-03T09:36:05.261Z</time></trkpt><trkpt lat="42.7600539" lon="12.5738499"><ele>868.0</ele><time>2026-05-03T09:36:06.257Z</time></trkpt><trkpt lat="42.7599076" lon="12.5739086"><ele>866.25</ele><time>2026-05-03T09:36:07.259Z</time></trkpt><trkpt lat="42.7597682" lon="12.5739658"><ele>864.5</ele><time>2026-05-03T09:36:08.271Z</time></trkpt><trkpt lat="42.7596365" lon="12.5740263"><ele>862.75</ele><time>2026-05-03T09:36:09.275Z</time></trkpt><trkpt lat="42.7595101" lon="12.5740814"><ele>861.0</ele><time>2026-05-03T09:36:10.266Z</time></trkpt><trkpt lat="42.7593794" lon="12.5741269"><ele>860.0</ele><time>2026-05-03T09:36:11.261Z</time></trkpt><trkpt lat="42.759249" lon="12.5741673"><ele>859.0</ele><time>2026-05-03T09:36:12.256Z</time></trkpt><trkpt lat="42.7591241" lon="12.5742091"><ele>858.0</ele><time>2026-05-03T09:36:13.265Z</time></trkpt><trkpt lat="42.7589944" lon="12.5742435"><ele>857.0</ele><time>2026-05-03T09:36:14.265Z</time></trkpt><trkpt lat="42.7588654" lon="12.5742777"><ele>857.0</ele><time>2026-05-03T09:36:15.262Z</time></trkpt><trkpt lat="42.7587378" lon="12.5743154"><ele>857.0</ele><time>2026-05-03T09:36:16.255Z</time></trkpt><trkpt lat="42.7586165" lon="12.5743599"><ele>857.0</ele><time>2026-05-03T09:36:17.251Z</time></trkpt><trkpt lat="42.7585011" lon="12.574405"><ele>857.0</ele><time>2026-05-03T09:36:18.249Z</time></trkpt><trkpt lat="42.7583835" lon="12.5744419"><ele>856.8</ele><time>2026-05-03T09:36:19.258Z</time></trkpt><trkpt lat="42.7582697" lon="12.5744801"><ele>856.6</ele><time>2026-05-03T09:36:20.276Z</time></trkpt><trkpt lat="42.7581629" lon="12.5745212"><ele>856.3999999999999</ele><time>2026-05-03T09:36:21.256Z</time></trkpt><trkpt lat="42.7580592" lon="12.5745598"><ele>856.1999999999999</ele><time>2026-05-03T09:36:22.264Z</time></trkpt><trkpt lat="42.7579636" lon="12.5746092"><ele>856.0</ele><time>2026-05-03T09:36:23.274Z</time></trkpt><trkpt lat="42.7578757" lon="12.5746611"><ele>856.8</ele><time>2026-05-03T09:36:24.25Z</time></trkpt><trkpt lat="42.7577848" lon="12.5747093"><ele>857.5999999999999</ele><time>2026-05-03T09:36:25.256Z</time></trkpt><trkpt lat="42.7577012" lon="12.5747512"><ele>858.4</ele><time>2026-05-03T09:36:26.259Z</time></trkpt><trkpt lat="42.7576142" lon="12.5747884"><ele>859.2</ele><time>2026-05-03T09:36:27.255Z</time></trkpt><trkpt lat="42.7575317" lon="12.5748284"><ele>860.0</ele><time>2026-05-03T09:36:28.255Z</time></trkpt><trkpt lat="42.7574487" lon="12.5748726"><ele>858.3333333333334</ele><time>2026-05-03T09:36:29.262Z</time></trkpt><trkpt lat="42.7573649" lon="12.5749183"><ele>856.6666666666667</ele><time>2026-05-03T09:36:30.251Z</time></trkpt><trkpt lat="42.7572855" lon="12.5749634"><ele>855.0</ele><time>2026-05-03T09:36:31.242Z</time></trkpt><trkpt lat="42.7572045" lon="12.5750004"><ele>853.3333333333333</ele><time>2026-05-03T09:36:32.26Z</time></trkpt><trkpt lat="42.7571292" lon="12.575034"><ele>851.6666666666666</ele><time>2026-05-03T09:36:33.267Z</time></trkpt><trkpt lat="42.7570488" lon="12.5750699"><ele>850.0</ele><time>2026-05-03T09:36:34.262Z</time></trkpt><trkpt lat="42.7569672" lon="12.5751135"><ele>849.9999999999999</ele><time>2026-05-03T09:36:35.259Z</time></trkpt><trkpt lat="42.7568861" lon="12.5751596"><ele>850.0</ele><time>2026-05-03T09:36:36.258Z</time></trkpt><trkpt lat="42.7568081" lon="12.5752089"><ele>850.0</ele><time>2026-05-03T09:36:37.273Z</time></trkpt><trkpt lat="42.7567292" lon="12.5752516"><ele>850.0</ele><time>2026-05-03T09:36:38.263Z</time></trkpt><trkpt lat="42.7566516" lon="12.5752966"><ele>849.9999999999999</ele><time>2026-05-03T09:36:39.266Z</time></trkpt><trkpt lat="42.7565733" lon="12.5753481"><ele>850.0</ele><time>2026-05-03T09:36:40.266Z</time></trkpt><trkpt lat="42.7565051" lon="12.5754122"><ele>849.3333333333333</ele><time>2026-05-03T09:36:41.26Z</time></trkpt><trkpt lat="42.7564478" lon="12.5754809"><ele>848.6666666666666</ele><time>2026-05-03T09:36:42.257Z</time></trkpt><trkpt lat="42.7564094" lon="12.5755653"><ele>848.0</ele><time>2026-05-03T09:36:43.261Z</time></trkpt><trkpt lat="42.7563808" lon="12.5756665"><ele>847.3333333333333</ele><time>2026-05-03T09:36:44.252Z</time></trkpt><trkpt lat="42.7563651" lon="12.5757737"><ele>846.6666666666666</ele><time>2026-05-03T09:36:45.273Z</time></trkpt><trkpt lat="42.756364" lon="12.5758846"><ele>846.0</ele><time>2026-05-03T09:36:46.277Z</time></trkpt><trkpt lat="42.7563669" lon="12.5760022"><ele>846.0</ele><time>2026-05-03T09:36:47.258Z</time></trkpt><trkpt lat="42.7563736" lon="12.5761217"><ele>846.0</ele><time>2026-05-03T09:36:48.269Z</time></trkpt><trkpt lat="42.7563785" lon="12.576249"><ele>846.0</ele><time>2026-05-03T09:36:49.271Z</time></trkpt><trkpt lat="42.7563844" lon="12.5763866"><ele>846.0</ele><time>2026-05-03T09:36:50.265Z</time></trkpt><trkpt lat="42.7563919" lon="12.5765414"><ele>846.0</ele><time>2026-05-03T09:36:51.257Z</time></trkpt><trkpt lat="42.7564011" lon="12.5767123"><ele>848.0</ele><time>2026-05-03T09:36:52.267Z</time></trkpt><trkpt lat="42.7564085" lon="12.576903"><ele>850.0</ele><time>2026-05-03T09:36:53.259Z</time></trkpt><trkpt lat="42.7564161" lon="12.5771171"><ele>852.0</ele><time>2026-05-03T09:36:54.258Z</time></trkpt><trkpt lat="42.7564218" lon="12.5773462"><ele>853.3333333333333</ele><time>2026-05-03T09:36:55.26Z</time></trkpt><trkpt lat="42.7564284" lon="12.577573"><ele>854.6666666666666</ele><time>2026-05-03T09:36:56.269Z</time></trkpt><trkpt lat="42.7564326" lon="12.5778075"><ele>856.0</ele><time>2026-05-03T09:36:57.271Z</time></trkpt><trkpt lat="42.7564394" lon="12.5780573"><ele>856.0</ele><time>2026-05-03T09:36:58.274Z</time></trkpt><trkpt lat="42.7564435" lon="12.5783377"><ele>856.0</ele><time>2026-05-03T09:36:59.255Z</time></trkpt><trkpt lat="42.7564464" lon="12.578614"><ele>856.0</ele><time>2026-05-03T09:37:00.249Z</time></trkpt><trkpt lat="42.7564496" lon="12.5788718"><ele>856.3333333333333</ele><time>2026-05-03T09:37:01.253Z</time></trkpt><trkpt lat="42.7564559" lon="12.5791204"><ele>856.6666666666667</ele><time>2026-05-03T09:37:02.26Z</time></trkpt><trkpt lat="42.7564669" lon="12.5793639"><ele>857.0</ele><time>2026-05-03T09:37:03.257Z</time></trkpt><trkpt lat="42.7564757" lon="12.5795931"><ele>858.6666666666667</ele><time>2026-05-03T09:37:04.259Z</time></trkpt><trkpt lat="42.7564836" lon="12.5798163"><ele>860.3333333333333</ele><time>2026-05-03T09:37:05.255Z</time></trkpt><trkpt lat="42.7564928" lon="12.5800347"><ele>862.0</ele><time>2026-05-03T09:37:06.274Z</time></trkpt><trkpt lat="42.7565059" lon="12.5802533"><ele>862.0</ele><time>2026-05-03T09:37:07.264Z</time></trkpt><trkpt lat="42.7565101" lon="12.5804732"><ele>862.0</ele><time>2026-05-03T09:37:08.275Z</time></trkpt><trkpt lat="42.7565152" lon="12.5806823"><ele>862.0</ele><time>2026-05-03T09:37:09.274Z</time></trkpt><trkpt lat="42.7565115" lon="12.5808757"><ele>862.0</ele><time>2026-05-03T09:37:10.272Z</time></trkpt><trkpt lat="42.7565059" lon="12.5810521"><ele>862.0</ele><time>2026-05-03T09:37:11.257Z</time></trkpt><trkpt lat="42.7565023" lon="12.5812177"><ele>862.0</ele><time>2026-05-03T09:37:12.279Z</time></trkpt><trkpt lat="42.7564989" lon="12.5813767"><ele>862.0</ele><time>2026-05-03T09:37:13.258Z</time></trkpt><trkpt lat="42.7565113" lon="12.5815403"><ele>862.5</ele><time>2026-05-03T09:37:14.262Z</time></trkpt><trkpt lat="42.7565354" lon="12.5817052"><ele>863.0</ele><time>2026-05-03T09:37:15.26Z</time></trkpt><trkpt lat="42.7565701" lon="12.5818586"><ele>863.5</ele><time>2026-05-03T09:37:16.254Z</time></trkpt><trkpt lat="42.7566127" lon="12.582007"><ele>864.0</ele><time>2026-05-03T09:37:17.263Z</time></trkpt><trkpt lat="42.7566686" lon="12.582151"><ele>865.25</ele><time>2026-05-03T09:37:18.264Z</time></trkpt><trkpt lat="42.7567349" lon="12.5823038"><ele>866.5</ele><time>2026-05-03T09:37:19.259Z</time></trkpt><trkpt lat="42.7568035" lon="12.5824587"><ele>867.75</ele><time>2026-05-03T09:37:20.273Z</time></trkpt><trkpt lat="42.7568756" lon="12.5826215"><ele>869.0</ele><time>2026-05-03T09:37:21.26Z</time></trkpt><trkpt lat="42.7569433" lon="12.5827902"><ele>870.25</ele><time>2026-05-03T09:37:22.263Z</time></trkpt><trkpt lat="42.7570054" lon="12.5829689"><ele>871.5</ele><time>2026-05-03T09:37:23.259Z</time></trkpt><trkpt lat="42.7570642" lon="12.5831559"><ele>872.75</ele><time>2026-05-03T09:37:24.287Z</time></trkpt><trkpt lat="42.757112" lon="12.5833371"><ele>874.0</ele><time>2026-05-03T09:37:25.256Z</time></trkpt><trkpt lat="42.7571491" lon="12.5835049"><ele>874.0</ele><time>2026-05-03T09:37:26.273Z</time></trkpt><trkpt lat="42.7571774" lon="12.5836667"><ele>874.0</ele><time>2026-05-03T09:37:27.261Z</time></trkpt><trkpt lat="42.7571975" lon="12.5838342"><ele>874.0</ele><time>2026-05-03T09:37:28.263Z</time></trkpt><trkpt lat="42.7572084" lon="12.5840105"><ele>874.0</ele><time>2026-05-03T09:37:29.258Z</time></trkpt><trkpt lat="42.7572163" lon="12.5841875"><ele>873.6</ele><time>2026-05-03T09:37:30.276Z</time></trkpt><trkpt lat="42.7572257" lon="12.5843557"><ele>873.2</ele><time>2026-05-03T09:37:31.261Z</time></trkpt><trkpt lat="42.7572315" lon="12.5845028"><ele>872.8000000000001</ele><time>2026-05-03T09:37:32.283Z</time></trkpt><trkpt lat="42.7572351" lon="12.5846343"><ele>872.4000000000001</ele><time>2026-05-03T09:37:33.27Z</time></trkpt><trkpt lat="42.7572386" lon="12.5847519"><ele>872.0</ele><time>2026-05-03T09:37:34.259Z</time></trkpt><trkpt lat="42.7572423" lon="12.5848528"><ele>872.0</ele><time>2026-05-03T09:37:35.273Z</time></trkpt><trkpt lat="42.7572465" lon="12.5849395"><ele>872.0</ele><time>2026-05-03T09:37:36.254Z</time></trkpt><trkpt lat="42.7572608" lon="12.585082"><ele>872.0</ele><time>2026-05-03T09:37:38.269Z</time></trkpt><trkpt lat="42.7573162" lon="12.5852158"><ele>872.0</ele><time>2026-05-03T09:37:40.271Z</time></trkpt><trkpt lat="42.7573664" lon="12.5853611"><ele>872.0</ele><time>2026-05-03T09:37:42.26Z</time></trkpt><trkpt lat="42.7573445" lon="12.5854863"><ele>871.4000000000001</ele><time>2026-05-03T09:37:44.251Z</time></trkpt><trkpt lat="42.7573329" lon="12.5855862"><ele>870.8000000000001</ele><time>2026-05-03T09:37:47.26Z</time></trkpt><trkpt lat="42.7573625" lon="12.5857097"><ele>870.2</ele><time>2026-05-03T09:37:50.274Z</time></trkpt><trkpt lat="42.7574148" lon="12.5857959"><ele>869.6</ele><time>2026-05-03T09:37:52.255Z</time></trkpt><trkpt lat="42.7574951" lon="12.5858636"><ele>869.0</ele><time>2026-05-03T09:37:54.253Z</time></trkpt><trkpt lat="42.757593" lon="12.5859138"><ele>869.0</ele><time>2026-05-03T09:37:56.261Z</time></trkpt><trkpt lat="42.7576963" lon="12.5859708"><ele>869.0000000000001</ele><time>2026-05-03T09:37:58.269Z</time></trkpt><trkpt lat="42.7578005" lon="12.5860411"><ele>869.0000000000001</ele><time>2026-05-03T09:38:00.258Z</time></trkpt><trkpt lat="42.7579174" lon="12.5861177"><ele>869.0</ele><time>2026-05-03T09:38:02.247Z</time></trkpt><trkpt lat="42.7579845" lon="12.5861516"><ele>869.0</ele><time>2026-05-03T09:38:03.27Z</time></trkpt><trkpt lat="42.758047" lon="12.5861827"><ele>870.0</ele><time>2026-05-03T09:38:04.255Z</time></trkpt><trkpt lat="42.7581064" lon="12.586213"><ele>871.0</ele><time>2026-05-03T09:38:05.261Z</time></trkpt><trkpt lat="42.7581689" lon="12.586235"><ele>872.0</ele><time>2026-05-03T09:38:06.25Z</time></trkpt><trkpt lat="42.7582406" lon="12.5862557"><ele>873.0</ele><time>2026-05-03T09:38:07.27Z</time></trkpt><trkpt lat="42.7583178" lon="12.5862753"><ele>874.0</ele><time>2026-05-03T09:38:08.249Z</time></trkpt><trkpt lat="42.7583949" lon="12.5862926"><ele>875.0</ele><time>2026-05-03T09:38:09.249Z</time></trkpt><trkpt lat="42.7584686" lon="12.5863089"><ele>876.0</ele><time>2026-05-03T09:38:10.254Z</time></trkpt><trkpt lat="42.7585314" lon="12.586323"><ele>877.2857142857143</ele><time>2026-05-03T09:38:11.266Z</time></trkpt><trkpt lat="42.7585933" lon="12.5863479"><ele>878.5714285714286</ele><time>2026-05-03T09:38:12.257Z</time></trkpt><trkpt lat="42.7586586" lon="12.5863865"><ele>879.8571428571429</ele><time>2026-05-03T09:38:13.264Z</time></trkpt><trkpt lat="42.7587234" lon="12.5864339"><ele>881.1428571428571</ele><time>2026-05-03T09:38:14.253Z</time></trkpt><trkpt lat="42.758782" lon="12.5864929"><ele>882.4285714285713</ele><time>2026-05-03T09:38:15.245Z</time></trkpt><trkpt lat="42.758842" lon="12.5865442"><ele>883.7142857142857</ele><time>2026-05-03T09:38:16.273Z</time></trkpt><trkpt lat="42.7589037" lon="12.5865888"><ele>885.0</ele><time>2026-05-03T09:38:17.261Z</time></trkpt><trkpt lat="42.7589658" lon="12.5866302"><ele>885.0</ele><time>2026-05-03T09:38:18.257Z</time></trkpt><trkpt lat="42.7590295" lon="12.5866635"><ele>885.0</ele><time>2026-05-03T09:38:19.256Z</time></trkpt><trkpt lat="42.7591436" lon="12.5867104"><ele>885.0</ele><time>2026-05-03T09:38:21.283Z</time></trkpt><trkpt lat="42.7592534" lon="12.5867007"><ele>885.0</ele><time>2026-05-03T09:38:23.25Z</time></trkpt><trkpt lat="42.759371" lon="12.5866505"><ele>885.0</ele><time>2026-05-03T09:38:25.264Z</time></trkpt><trkpt lat="42.7594414" lon="12.5866279"><ele>887.3333333333334</ele><time>2026-05-03T09:38:26.249Z</time></trkpt><trkpt lat="42.7595171" lon="12.5866053"><ele>889.6666666666667</ele><time>2026-05-03T09:38:27.266Z</time></trkpt><trkpt lat="42.759596" lon="12.586583"><ele>892.0</ele><time>2026-05-03T09:38:28.253Z</time></trkpt><trkpt lat="42.7596756" lon="12.5865655"><ele>894.3333333333334</ele><time>2026-05-03T09:38:29.281Z</time></trkpt><trkpt lat="42.759747" lon="12.5865429"><ele>896.6666666666667</ele><time>2026-05-03T09:38:30.256Z</time></trkpt><trkpt lat="42.7598131" lon="12.5865168"><ele>899.0</ele><time>2026-05-03T09:38:31.254Z</time></trkpt><trkpt lat="42.7598841" lon="12.586502"><ele>899.0000000000001</ele><time>2026-05-03T09:38:32.256Z</time></trkpt><trkpt lat="42.7599555" lon="12.5865031"><ele>899.0</ele><time>2026-05-03T09:38:33.256Z</time></trkpt><trkpt lat="42.7600311" lon="12.5865056"><ele>899.0</ele><time>2026-05-03T09:38:34.265Z</time></trkpt><trkpt lat="42.7601106" lon="12.5865009"><ele>899.0</ele><time>2026-05-03T09:38:35.269Z</time></trkpt><trkpt lat="42.7601944" lon="12.586493"><ele>899.0000000000001</ele><time>2026-05-03T09:38:36.28Z</time></trkpt><trkpt lat="42.7602773" lon="12.5864846"><ele>899.0</ele><time>2026-05-03T09:38:37.255Z</time></trkpt><trkpt lat="42.760355" lon="12.5864788"><ele>900.1666666666667</ele><time>2026-05-03T09:38:38.258Z</time></trkpt><trkpt lat="42.7604316" lon="12.5864738"><ele>901.3333333333334</ele><time>2026-05-03T09:38:39.256Z</time></trkpt><trkpt lat="42.7605137" lon="12.5864655"><ele>902.5</ele><time>2026-05-03T09:38:40.271Z</time></trkpt><trkpt lat="42.7605994" lon="12.5864564"><ele>903.6666666666667</ele><time>2026-05-03T09:38:41.253Z</time></trkpt><trkpt lat="42.7606825" lon="12.5864566"><ele>904.8333333333334</ele><time>2026-05-03T09:38:42.266Z</time></trkpt><trkpt lat="42.760763" lon="12.5864579"><ele>906.0</ele><time>2026-05-03T09:38:43.265Z</time></trkpt><trkpt lat="42.7608474" lon="12.5864589"><ele>906.0</ele><time>2026-05-03T09:38:44.268Z</time></trkpt><trkpt lat="42.76094" lon="12.586462"><ele>906.0</ele><time>2026-05-03T09:38:45.267Z</time></trkpt><trkpt lat="42.7610277" lon="12.5864603"><ele>906.0</ele><time>2026-05-03T09:38:46.258Z</time></trkpt><trkpt lat="42.7611128" lon="12.5864579"><ele>906.0</ele><time>2026-05-03T09:38:47.267Z</time></trkpt><trkpt lat="42.761192" lon="12.5864568"><ele>906.0</ele><time>2026-05-03T09:38:48.259Z</time></trkpt><trkpt lat="42.7612666" lon="12.5864528"><ele>906.0</ele><time>2026-05-03T09:38:49.256Z</time></trkpt><trkpt lat="42.7613469" lon="12.58645"><ele>908.8333333333334</ele><time>2026-05-03T09:38:50.268Z</time></trkpt><trkpt lat="42.7614187" lon="12.5864489"><ele>911.6666666666667</ele><time>2026-05-03T09:38:51.272Z</time></trkpt><trkpt lat="42.7615325" lon="12.5864295"><ele>914.5</ele><time>2026-05-03T09:38:53.259Z</time></trkpt><trkpt lat="42.7615975" lon="12.5863951"><ele>917.3333333333334</ele><time>2026-05-03T09:38:54.246Z</time></trkpt><trkpt lat="42.7616628" lon="12.5863484"><ele>920.1666666666667</ele><time>2026-05-03T09:38:55.255Z</time></trkpt><trkpt lat="42.7617242" lon="12.5862994"><ele>923.0</ele><time>2026-05-03T09:38:56.271Z</time></trkpt><trkpt lat="42.761783" lon="12.5862435"><ele>923.0000000000001</ele><time>2026-05-03T09:38:57.273Z</time></trkpt><trkpt lat="42.7618422" lon="12.5861931"><ele>923.0</ele><time>2026-05-03T09:38:58.263Z</time></trkpt><trkpt lat="42.7619041" lon="12.5861384"><ele>923.0</ele><time>2026-05-03T09:38:59.246Z</time></trkpt><trkpt lat="42.761972" lon="12.5860719"><ele>923.0</ele><time>2026-05-03T09:39:00.255Z</time></trkpt><trkpt lat="42.7620332" lon="12.5860091"><ele>923.0000000000001</ele><time>2026-05-03T09:39:01.256Z</time></trkpt><trkpt lat="42.7620908" lon="12.585951"><ele>923.0</ele><time>2026-05-03T09:39:02.261Z</time></trkpt><trkpt lat="42.7621534" lon="12.5858967"><ele>923.5000000000001</ele><time>2026-05-03T09:39:03.247Z</time></trkpt><trkpt lat="42.7622142" lon="12.5858405"><ele>924.0</ele><time>2026-05-03T09:39:04.269Z</time></trkpt><trkpt lat="42.7622814" lon="12.585789"><ele>924.5</ele><time>2026-05-03T09:39:05.258Z</time></trkpt><trkpt lat="42.7623533" lon="12.5857347"><ele>925.0</ele><time>2026-05-03T09:39:06.252Z</time></trkpt><trkpt lat="42.762417" lon="12.5856818"><ele>925.5000000000001</ele><time>2026-05-03T09:39:07.273Z</time></trkpt><trkpt lat="42.7624833" lon="12.5856263"><ele>926.0</ele><time>2026-05-03T09:39:08.253Z</time></trkpt><trkpt lat="42.7625504" lon="12.5855707"><ele>926.0000000000001</ele><time>2026-05-03T09:39:09.267Z</time></trkpt><trkpt lat="42.7626167" lon="12.585515"><ele>926.0</ele><time>2026-05-03T09:39:10.253Z</time></trkpt><trkpt lat="42.7626882" lon="12.5854573"><ele>926.0</ele><time>2026-05-03T09:39:11.25Z</time></trkpt><trkpt lat="42.7627555" lon="12.585404"><ele>926.0</ele><time>2026-05-03T09:39:12.261Z</time></trkpt><trkpt lat="42.7628187" lon="12.5853544"><ele>926.0000000000001</ele><time>2026-05-03T09:39:13.268Z</time></trkpt><trkpt lat="42.7628834" lon="12.5853079"><ele>926.0</ele><time>2026-05-03T09:39:14.265Z</time></trkpt><trkpt lat="42.762955" lon="12.5852579"><ele>926.6666666666667</ele><time>2026-05-03T09:39:15.266Z</time></trkpt><trkpt lat="42.7630301" lon="12.585226"><ele>927.3333333333334</ele><time>2026-05-03T09:39:16.259Z</time></trkpt><trkpt lat="42.7631059" lon="12.5852005"><ele>928.0</ele><time>2026-05-03T09:39:17.26Z</time></trkpt><trkpt lat="42.7631891" lon="12.5851722"><ele>928.6666666666667</ele><time>2026-05-03T09:39:18.265Z</time></trkpt><trkpt lat="42.7632694" lon="12.5851409"><ele>929.3333333333334</ele><time>2026-05-03T09:39:19.259Z</time></trkpt><trkpt lat="42.7633454" lon="12.5851055"><ele>930.0</ele><time>2026-05-03T09:39:20.253Z</time></trkpt><trkpt lat="42.7634248" lon="12.5850589"><ele>930.0</ele><time>2026-05-03T09:39:21.253Z</time></trkpt><trkpt lat="42.7635005" lon="12.5850263"><ele>930.0</ele><time>2026-05-03T09:39:22.265Z</time></trkpt><trkpt lat="42.7636067" lon="12.5849968"><ele>930.0</ele><time>2026-05-03T09:39:24.254Z</time></trkpt><trkpt lat="42.7637085" lon="12.5850327"><ele>930.0</ele><time>2026-05-03T09:39:26.266Z</time></trkpt><trkpt lat="42.763827" lon="12.58508"><ele>930.0</ele><time>2026-05-03T09:39:28.28Z</time></trkpt><trkpt lat="42.7638977" lon="12.5851069"><ele>931.0</ele><time>2026-05-03T09:39:29.266Z</time></trkpt><trkpt lat="42.7639648" lon="12.5851131"><ele>932.0</ele><time>2026-05-03T09:39:30.266Z</time></trkpt><trkpt lat="42.7640886" lon="12.5851047"><ele>933.0</ele><time>2026-05-03T09:39:32.274Z</time></trkpt><trkpt lat="42.7642144" lon="12.5851134"><ele>934.0</ele><time>2026-05-03T09:39:34.262Z</time></trkpt><trkpt lat="42.7642964" lon="12.5851611"><ele>935.0</ele><time>2026-05-03T09:39:36.264Z</time></trkpt><trkpt lat="42.7643578" lon="12.5852652"><ele>938.5000000000001</ele><time>2026-05-03T09:39:38.257Z</time></trkpt><trkpt lat="42.7644127" lon="12.5853772"><ele>942.0</ele><time>2026-05-03T09:39:40.266Z</time></trkpt><trkpt lat="42.7644746" lon="12.5854353"><ele>945.5</ele><time>2026-05-03T09:39:51.285Z</time></trkpt><trkpt lat="42.7645021" lon="12.5855675"><ele>949.0</ele><time>2026-05-03T09:39:54.267Z</time></trkpt><trkpt lat="42.7645192" lon="12.5856997"><ele>952.5000000000001</ele><time>2026-05-03T09:39:56.278Z</time></trkpt><trkpt lat="42.7645352" lon="12.5857853"><ele>956.0</ele><time>2026-05-03T09:39:57.269Z</time></trkpt><trkpt lat="42.7645554" lon="12.5858736"><ele>956.0000000000001</ele><time>2026-05-03T09:39:58.249Z</time></trkpt><trkpt lat="42.764573" lon="12.5859616"><ele>956.0</ele><time>2026-05-03T09:39:59.272Z</time></trkpt><trkpt lat="42.7645867" lon="12.5860519"><ele>956.0000000000001</ele><time>2026-05-03T09:40:00.279Z</time></trkpt><trkpt lat="42.7646043" lon="12.5861458"><ele>956.0000000000001</ele><time>2026-05-03T09:40:01.264Z</time></trkpt><trkpt lat="42.764623" lon="12.586246"><ele>956.0</ele><time>2026-05-03T09:40:02.264Z</time></trkpt><trkpt lat="42.7646369" lon="12.5863422"><ele>956.0000000000001</ele><time>2026-05-03T09:40:03.261Z</time></trkpt><trkpt lat="42.7646513" lon="12.5864432"><ele>956.0000000000001</ele><time>2026-05-03T09:40:04.263Z</time></trkpt><trkpt lat="42.7646782" lon="12.5865411"><ele>956.0000000000001</ele><time>2026-05-03T09:40:05.279Z</time></trkpt><trkpt lat="42.7647129" lon="12.5866395"><ele>956.0</ele><time>2026-05-03T09:40:06.265Z</time></trkpt><trkpt lat="42.7647479" lon="12.586735"><ele>956.0</ele><time>2026-05-03T09:40:07.26Z</time></trkpt><trkpt lat="42.7647715" lon="12.5868359"><ele>956.0</ele><time>2026-05-03T09:40:08.249Z</time></trkpt><trkpt lat="42.7647848" lon="12.5869326"><ele>956.0000000000001</ele><time>2026-05-03T09:40:09.266Z</time></trkpt><trkpt lat="42.7648045" lon="12.5870146"><ele>956.0</ele><time>2026-05-03T09:40:10.269Z</time></trkpt><trkpt lat="42.764825" lon="12.5871802"><ele>957.25</ele><time>2026-05-03T09:40:12.265Z</time></trkpt><trkpt lat="42.7648203" lon="12.5873582"><ele>958.5</ele><time>2026-05-03T09:40:14.265Z</time></trkpt><trkpt lat="42.7647829" lon="12.5875057"><ele>959.75</ele><time>2026-05-03T09:40:16.262Z</time></trkpt><trkpt lat="42.7647617" lon="12.5876501"><ele>961.0</ele><time>2026-05-03T09:40:18.254Z</time></trkpt><trkpt lat="42.7647321" lon="12.5877901"><ele>961.3333333333333</ele><time>2026-05-03T09:40:20.253Z</time></trkpt><trkpt lat="42.7646941" lon="12.5879403"><ele>961.6666666666666</ele><time>2026-05-03T09:40:22.267Z</time></trkpt><trkpt lat="42.7646909" lon="12.5881125"><ele>962.0</ele><time>2026-05-03T09:40:24.266Z</time></trkpt><trkpt lat="42.7647065" lon="12.588205"><ele>962.3333333333333</ele><time>2026-05-03T09:40:25.273Z</time></trkpt><trkpt lat="42.764712" lon="12.5882972"><ele>962.6666666666666</ele><time>2026-05-03T09:40:26.269Z</time></trkpt><trkpt lat="42.7647083" lon="12.5883863"><ele>963.0</ele><time>2026-05-03T09:40:27.265Z</time></trkpt><trkpt lat="42.7647056" lon="12.5884728"><ele>963.0</ele><time>2026-05-03T09:40:28.259Z</time></trkpt><trkpt lat="42.7647074" lon="12.5886391"><ele>963.0</ele><time>2026-05-03T09:40:30.254Z</time></trkpt><trkpt lat="42.7647376" lon="12.5887856"><ele>963.0</ele><time>2026-05-03T09:40:32.27Z</time></trkpt><trkpt lat="42.7647793" lon="12.5889397"><ele>963.0</ele><time>2026-05-03T09:40:34.256Z</time></trkpt><trkpt lat="42.7648027" lon="12.5890198"><ele>963.0</ele><time>2026-05-03T09:40:35.255Z</time></trkpt><trkpt lat="42.7648478" lon="12.5891722"><ele>964.0</ele><time>2026-05-03T09:40:37.277Z</time></trkpt><trkpt lat="42.7648656" lon="12.5892558"><ele>965.0</ele><time>2026-05-03T09:40:38.259Z</time></trkpt><trkpt lat="42.7648836" lon="12.5894181"><ele>966.0</ele><time>2026-05-03T09:40:40.292Z</time></trkpt><trkpt lat="42.7648574" lon="12.589558"><ele>967.0</ele><time>2026-05-03T09:40:42.264Z</time></trkpt><trkpt lat="42.7647859" lon="12.5896443"><ele>968.0</ele><time>2026-05-03T09:40:44.276Z</time></trkpt><trkpt lat="42.7647332" lon="12.5897108"><ele>968.6666666666667</ele><time>2026-05-03T09:40:46.27Z</time></trkpt><trkpt lat="42.7646923" lon="12.5898019"><ele>969.3333333333334</ele><time>2026-05-03T09:40:48.255Z</time></trkpt><trkpt lat="42.7646371" lon="12.5899004"><ele>970.0</ele><time>2026-05-03T09:40:50.265Z</time></trkpt><trkpt lat="42.7645701" lon="12.5900305"><ele>970.6666666666667</ele><time>2026-05-03T09:40:52.26Z</time></trkpt><trkpt lat="42.7645255" lon="12.5901258"><ele>971.3333333333334</ele><time>2026-05-03T09:40:54.269Z</time></trkpt><trkpt lat="42.7645898" lon="12.5901833"><ele>972.0</ele><time>2026-05-03T09:41:42.26Z</time></trkpt><trkpt lat="42.7646699" lon="12.5901577"><ele>972.0</ele><time>2026-05-03T09:41:44.278Z</time></trkpt><trkpt lat="42.7647729" lon="12.5901212"><ele>972.0</ele><time>2026-05-03T09:41:46.279Z</time></trkpt><trkpt lat="42.7648532" lon="12.5901152"><ele>972.0</ele><time>2026-05-03T09:41:48.271Z</time></trkpt><trkpt lat="42.7649136" lon="12.5901411"><ele>972.0</ele><time>2026-05-03T09:41:50.261Z</time></trkpt><trkpt lat="42.7649687" lon="12.5902337"><ele>972.0</ele><time>2026-05-03T09:41:53.266Z</time></trkpt><trkpt lat="42.7649783" lon="12.5903314"><ele>972.0</ele><time>2026-05-03T09:41:55.261Z</time></trkpt><trkpt lat="42.7649759" lon="12.5904319"><ele>971.8333333333334</ele><time>2026-05-03T09:41:57.261Z</time></trkpt><trkpt lat="42.7649782" lon="12.5905375"><ele>971.6666666666667</ele><time>2026-05-03T09:41:59.257Z</time></trkpt><trkpt lat="42.7649863" lon="12.5906454"><ele>971.5</ele><time>2026-05-03T09:42:01.265Z</time></trkpt><trkpt lat="42.7650039" lon="12.5907494"><ele>971.3333333333334</ele><time>2026-05-03T09:42:03.274Z</time></trkpt><trkpt lat="42.7650197" lon="12.5908515"><ele>971.1666666666667</ele><time>2026-05-03T09:42:05.276Z</time></trkpt><trkpt lat="42.765042" lon="12.590956"><ele>971.0</ele><time>2026-05-03T09:42:07.266Z</time></trkpt><trkpt lat="42.7650701" lon="12.5910821"><ele>968.5999999999999</ele><time>2026-05-03T09:42:09.26Z</time></trkpt><trkpt lat="42.7650845" lon="12.5912153"><ele>966.1999999999999</ele><time>2026-05-03T09:42:11.282Z</time></trkpt><trkpt lat="42.7650793" lon="12.5913374"><ele>963.8000000000001</ele><time>2026-05-03T09:42:13.264Z</time></trkpt><trkpt lat="42.765055" lon="12.591447"><ele>961.4000000000001</ele><time>2026-05-03T09:42:15.273Z</time></trkpt><trkpt lat="42.7650118" lon="12.5915716"><ele>959.0</ele><time>2026-05-03T09:42:17.267Z</time></trkpt><trkpt lat="42.764972" lon="12.5917016"><ele>959.0</ele><time>2026-05-03T09:42:19.26Z</time></trkpt><trkpt lat="42.7649503" lon="12.5918458"><ele>959.0000000000001</ele><time>2026-05-03T09:42:21.264Z</time></trkpt><trkpt lat="42.7649575" lon="12.5919854"><ele>959.0000000000001</ele><time>2026-05-03T09:42:23.257Z</time></trkpt><trkpt lat="42.7650039" lon="12.5921205"><ele>959.0</ele><time>2026-05-03T09:42:25.264Z</time></trkpt><trkpt lat="42.7650524" lon="12.5922458"><ele>959.0</ele><time>2026-05-03T09:42:27.265Z</time></trkpt><trkpt lat="42.7650811" lon="12.5923315"><ele>958.5000000000001</ele><time>2026-05-03T09:42:29.277Z</time></trkpt><trkpt lat="42.7651158" lon="12.5924134"><ele>958.0</ele><time>2026-05-03T09:42:31.262Z</time></trkpt><trkpt lat="42.7651646" lon="12.5924938"><ele>957.5</ele><time>2026-05-03T09:42:33.265Z</time></trkpt><trkpt lat="42.7652108" lon="12.5925563"><ele>957.0</ele><time>2026-05-03T09:42:35.278Z</time></trkpt><trkpt lat="42.7652913" lon="12.5925847"><ele>956.5000000000001</ele><time>2026-05-03T09:42:38.247Z</time></trkpt><trkpt lat="42.7653428" lon="12.5926376"><ele>956.0</ele><time>2026-05-03T09:42:41.285Z</time></trkpt><trkpt lat="42.7653569" lon="12.5927803"><ele>953.0</ele><time>2026-05-03T09:42:44.261Z</time></trkpt><trkpt lat="42.765385" lon="12.5928716"><ele>949.9999999999999</ele><time>2026-05-03T09:42:46.263Z</time></trkpt><trkpt lat="42.7654489" lon="12.5929588"><ele>946.9999999999999</ele><time>2026-05-03T09:42:48.252Z</time></trkpt><trkpt lat="42.7655054" lon="12.5930727"><ele>944.0</ele><time>2026-05-03T09:42:50.265Z</time></trkpt><trkpt lat="42.7655344" lon="12.5932094"><ele>941.0</ele><time>2026-05-03T09:42:52.257Z</time></trkpt><trkpt lat="42.7655568" lon="12.5933655"><ele>941.0</ele><time>2026-05-03T09:42:54.278Z</time></trkpt><trkpt lat="42.7655526" lon="12.5935302"><ele>941.0</ele><time>2026-05-03T09:42:56.277Z</time></trkpt><trkpt lat="42.7655488" lon="12.5936973"><ele>941.0</ele><time>2026-05-03T09:42:58.258Z</time></trkpt><trkpt lat="42.7655474" lon="12.5938653"><ele>941.0</ele><time>2026-05-03T09:43:00.259Z</time></trkpt><trkpt lat="42.76555" lon="12.594028"><ele>939.4</ele><time>2026-05-03T09:43:02.265Z</time></trkpt><trkpt lat="42.7655473" lon="12.5941792"><ele>937.8</ele><time>2026-05-03T09:43:04.283Z</time></trkpt><trkpt lat="42.7655468" lon="12.5943313"><ele>936.1999999999999</ele><time>2026-05-03T09:43:06.283Z</time></trkpt><trkpt lat="42.7655727" lon="12.5944928"><ele>934.5999999999999</ele><time>2026-05-03T09:43:08.26Z</time></trkpt><trkpt lat="42.7655872" lon="12.5945764"><ele>933.0</ele><time>2026-05-03T09:43:09.257Z</time></trkpt><trkpt lat="42.7655949" lon="12.5946667"><ele>931.7142857142857</ele><time>2026-05-03T09:43:10.245Z</time></trkpt><trkpt lat="42.7656044" lon="12.5947597"><ele>930.4285714285713</ele><time>2026-05-03T09:43:11.275Z</time></trkpt><trkpt lat="42.7656064" lon="12.5948544"><ele>929.1428571428571</ele><time>2026-05-03T09:43:12.261Z</time></trkpt><trkpt lat="42.7656029" lon="12.5949553"><ele>927.8571428571429</ele><time>2026-05-03T09:43:13.262Z</time></trkpt><trkpt lat="42.7656033" lon="12.5950588"><ele>926.5714285714286</ele><time>2026-05-03T09:43:14.261Z</time></trkpt><trkpt lat="42.7656082" lon="12.5951658"><ele>925.2857142857142</ele><time>2026-05-03T09:43:15.272Z</time></trkpt><trkpt lat="42.7656126" lon="12.5952748"><ele>924.0</ele><time>2026-05-03T09:43:16.269Z</time></trkpt><trkpt lat="42.7656161" lon="12.5953761"><ele>922.8571428571429</ele><time>2026-05-03T09:43:17.257Z</time></trkpt><trkpt lat="42.7656136" lon="12.5954754"><ele>921.7142857142858</ele><time>2026-05-03T09:43:18.261Z</time></trkpt><trkpt lat="42.7656184" lon="12.5955747"><ele>920.5714285714286</ele><time>2026-05-03T09:43:19.257Z</time></trkpt><trkpt lat="42.7656261" lon="12.5956739"><ele>919.4285714285714</ele><time>2026-05-03T09:43:20.269Z</time></trkpt><trkpt lat="42.7656328" lon="12.5957828"><ele>918.2857142857143</ele><time>2026-05-03T09:43:21.262Z</time></trkpt><trkpt lat="42.765636" lon="12.5958789"><ele>917.1428571428571</ele><time>2026-05-03T09:43:22.259Z</time></trkpt><trkpt lat="42.7656361" lon="12.5959725"><ele>916.0</ele><time>2026-05-03T09:43:23.273Z</time></trkpt><trkpt lat="42.7656339" lon="12.5961045"><ele>914.6666666666666</ele><time>2026-05-03T09:43:25.253Z</time></trkpt><trkpt lat="42.7656183" lon="12.5962171"><ele>913.3333333333333</ele><time>2026-05-03T09:43:27.266Z</time></trkpt><trkpt lat="42.765619" lon="12.5963187"><ele>912.0</ele><time>2026-05-03T09:43:29.255Z</time></trkpt><trkpt lat="42.7656282" lon="12.596416"><ele>910.6666666666667</ele><time>2026-05-03T09:43:31.262Z</time></trkpt><trkpt lat="42.7656323" lon="12.5965242"><ele>909.3333333333334</ele><time>2026-05-03T09:43:33.279Z</time></trkpt><trkpt lat="42.7656421" lon="12.5966443"><ele>908.0</ele><time>2026-05-03T09:43:35.274Z</time></trkpt><trkpt lat="42.7656525" lon="12.5967813"><ele>908.0000000000001</ele><time>2026-05-03T09:43:37.259Z</time></trkpt><trkpt lat="42.7656581" lon="12.5968833"><ele>908.0</ele><time>2026-05-03T09:43:40.274Z</time></trkpt><trkpt lat="42.7656975" lon="12.5969873"><ele>908.0</ele><time>2026-05-03T09:43:43.254Z</time></trkpt><trkpt lat="42.7657299" lon="12.5970831"><ele>908.0</ele><time>2026-05-03T09:43:45.271Z</time></trkpt><trkpt lat="42.7657441" lon="12.5971895"><ele>908.0000000000001</ele><time>2026-05-03T09:43:47.255Z</time></trkpt><trkpt lat="42.7657354" lon="12.5973002"><ele>908.0</ele><time>2026-05-03T09:43:49.258Z</time></trkpt><trkpt lat="42.7657188" lon="12.59741"><ele>906.0</ele><time>2026-05-03T09:43:51.28Z</time></trkpt><trkpt lat="42.7657038" lon="12.5975289"><ele>904.0</ele><time>2026-05-03T09:43:53.265Z</time></trkpt><trkpt lat="42.7657075" lon="12.5976711"><ele>902.0</ele><time>2026-05-03T09:43:55.27Z</time></trkpt><trkpt lat="42.7657139" lon="12.5978234"><ele>900.0</ele><time>2026-05-03T09:43:57.255Z</time></trkpt><trkpt lat="42.7657165" lon="12.5979824"><ele>898.0</ele><time>2026-05-03T09:43:59.258Z</time></trkpt><trkpt lat="42.7657218" lon="12.5981371"><ele>895.8333333333333</ele><time>2026-05-03T09:44:01.276Z</time></trkpt><trkpt lat="42.7657164" lon="12.5982732"><ele>893.6666666666666</ele><time>2026-05-03T09:44:03.261Z</time></trkpt><trkpt lat="42.7657072" lon="12.5983764"><ele>891.5</ele><time>2026-05-03T09:44:05.255Z</time></trkpt><trkpt lat="42.7657072" lon="12.5984832"><ele>889.3333333333333</ele><time>2026-05-03T09:44:07.257Z</time></trkpt><trkpt lat="42.765703" lon="12.5985992"><ele>887.1666666666666</ele><time>2026-05-03T09:44:09.248Z</time></trkpt><trkpt lat="42.7656975" lon="12.5986972"><ele>885.0</ele><time>2026-05-03T09:44:11.273Z</time></trkpt><trkpt lat="42.7656739" lon="12.5988257"><ele>881.5</ele><time>2026-05-03T09:44:14.258Z</time></trkpt><trkpt lat="42.7656431" lon="12.5989107"><ele>878.0</ele><time>2026-05-03T09:44:16.272Z</time></trkpt><trkpt lat="42.7656136" lon="12.5990055"><ele>874.5</ele><time>2026-05-03T09:44:18.27Z</time></trkpt><trkpt lat="42.7655699" lon="12.5990917"><ele>871.0</ele><time>2026-05-03T09:44:20.278Z</time></trkpt><trkpt lat="42.7655133" lon="12.599179"><ele>867.5</ele><time>2026-05-03T09:44:22.258Z</time></trkpt><trkpt lat="42.765459" lon="12.5992743"><ele>864.0</ele><time>2026-05-03T09:44:24.274Z</time></trkpt><trkpt lat="42.7654262" lon="12.5993706"><ele>864.0</ele><time>2026-05-03T09:44:26.271Z</time></trkpt><trkpt lat="42.7654049" lon="12.5994704"><ele>864.0</ele><time>2026-05-03T09:44:28.261Z</time></trkpt><trkpt lat="42.7653638" lon="12.5995789"><ele>864.0</ele><time>2026-05-03T09:44:30.271Z</time></trkpt><trkpt lat="42.7653335" lon="12.5996948"><ele>864.0</ele><time>2026-05-03T09:44:32.268Z</time></trkpt><trkpt lat="42.7653067" lon="12.599811"><ele>864.0</ele><time>2026-05-03T09:44:34.265Z</time></trkpt><trkpt lat="42.7652794" lon="12.5999316"><ele>864.0</ele><time>2026-05-03T09:44:36.273Z</time></trkpt><trkpt lat="42.7652601" lon="12.6000303"><ele>861.4285714285714</ele><time>2026-05-03T09:44:38.271Z</time></trkpt><trkpt lat="42.7652388" lon="12.6001451"><ele>858.8571428571429</ele><time>2026-05-03T09:44:40.27Z</time></trkpt><trkpt lat="42.7652309" lon="12.6002491"><ele>856.2857142857142</ele><time>2026-05-03T09:44:42.27Z</time></trkpt><trkpt lat="42.7652395" lon="12.6003429"><ele>853.7142857142858</ele><time>2026-05-03T09:44:44.269Z</time></trkpt><trkpt lat="42.7652535" lon="12.6004331"><ele>851.1428571428572</ele><time>2026-05-03T09:44:46.273Z</time></trkpt><trkpt lat="42.7652687" lon="12.600529"><ele>848.5714285714286</ele><time>2026-05-03T09:44:48.267Z</time></trkpt><trkpt lat="42.7652752" lon="12.6006226"><ele>846.0</ele><time>2026-05-03T09:44:50.269Z</time></trkpt><trkpt lat="42.7652917" lon="12.6007112"><ele>842.8333333333334</ele><time>2026-05-03T09:44:52.276Z</time></trkpt><trkpt lat="42.7653012" lon="12.6008025"><ele>839.6666666666667</ele><time>2026-05-03T09:44:54.255Z</time></trkpt><trkpt lat="42.765321" lon="12.6008927"><ele>836.5</ele><time>2026-05-03T09:44:56.257Z</time></trkpt><trkpt lat="42.7653649" lon="12.6009999"><ele>833.3333333333334</ele><time>2026-05-03T09:44:59.254Z</time></trkpt><trkpt lat="42.7654064" lon="12.6010937"><ele>830.1666666666667</ele><time>2026-05-03T09:45:02.265Z</time></trkpt><trkpt lat="42.7654505" lon="12.6011884"><ele>827.0</ele><time>2026-05-03T09:45:05.266Z</time></trkpt><trkpt lat="42.7654848" lon="12.6012607"><ele>826.5000000000001</ele><time>2026-05-03T09:45:07.283Z</time></trkpt><trkpt lat="42.7655261" lon="12.6013342"><ele>826.0</ele><time>2026-05-03T09:45:09.254Z</time></trkpt><trkpt lat="42.7655653" lon="12.60144"><ele>825.5</ele><time>2026-05-03T09:45:12.258Z</time></trkpt><trkpt lat="42.7655993" lon="12.6015522"><ele>825.0</ele><time>2026-05-03T09:45:15.263Z</time></trkpt><trkpt lat="42.7656284" lon="12.6016587"><ele>824.5000000000001</ele><time>2026-05-03T09:45:18.257Z</time></trkpt><trkpt lat="42.7656597" lon="12.6017654"><ele>824.0</ele><time>2026-05-03T09:45:21.272Z</time></trkpt><trkpt lat="42.7656822" lon="12.6018872"><ele>822.6666666666667</ele><time>2026-05-03T09:45:24.273Z</time></trkpt><trkpt lat="42.765716" lon="12.6020009"><ele>821.3333333333334</ele><time>2026-05-03T09:45:27.26Z</time></trkpt><trkpt lat="42.7657527" lon="12.6020724"><ele>820.0</ele><time>2026-05-03T09:45:29.282Z</time></trkpt><trkpt lat="42.7658073" lon="12.60217"><ele>818.6666666666667</ele><time>2026-05-03T09:45:32.271Z</time></trkpt><trkpt lat="42.7658518" lon="12.6022539"><ele>817.3333333333334</ele><time>2026-05-03T09:45:35.264Z</time></trkpt><trkpt lat="42.7658847" lon="12.6023602"><ele>816.0</ele><time>2026-05-03T09:47:29.265Z</time></trkpt><trkpt lat="42.7658677" lon="12.6024584"><ele>816.0</ele><time>2026-05-03T09:48:03.275Z</time></trkpt><trkpt lat="42.7658528" lon="12.6025478"><ele>816.0</ele><time>2026-05-03T09:48:06.283Z</time></trkpt><trkpt lat="42.7658476" lon="12.6026467"><ele>816.0</ele><time>2026-05-03T09:48:09.258Z</time></trkpt><trkpt lat="42.7658756" lon="12.6027472"><ele>816.0</ele><time>2026-05-03T09:48:13.266Z</time></trkpt><trkpt lat="42.7659346" lon="12.6028253"><ele>816.0</ele><time>2026-05-03T09:48:17.255Z</time></trkpt><trkpt lat="42.7660027" lon="12.6028002"><ele>816.0</ele><time>2026-05-03T09:48:22.262Z</time></trkpt><trkpt lat="42.7660622" lon="12.6027186"><ele>805.0</ele><time>2026-05-03T09:48:26.275Z</time></trkpt><trkpt lat="42.7661172" lon="12.6026383"><ele>794.0</ele><time>2026-05-03T09:48:29.264Z</time></trkpt><trkpt lat="42.766177" lon="12.6025457"><ele>783.0</ele><time>2026-05-03T09:48:32.27Z</time></trkpt><trkpt lat="42.7662275" lon="12.602463"><ele>772.0</ele><time>2026-05-03T09:48:35.267Z</time></trkpt><trkpt lat="42.7662826" lon="12.6023689"><ele>761.0</ele><time>2026-05-03T09:48:38.278Z</time></trkpt><trkpt lat="42.7663204" lon="12.6022867"><ele>750.0</ele><time>2026-05-03T09:48:40.264Z</time></trkpt><trkpt lat="42.7663724" lon="12.6021865"><ele>750.0</ele><time>2026-05-03T09:48:43.253Z</time></trkpt><trkpt lat="42.7664226" lon="12.6021006"><ele>750.0</ele><time>2026-05-03T09:48:46.266Z</time></trkpt><trkpt lat="42.7664652" lon="12.6020156"><ele>750.0</ele><time>2026-05-03T09:48:49.258Z</time></trkpt><trkpt lat="42.7665148" lon="12.6019166"><ele>750.0</ele><time>2026-05-03T09:48:52.272Z</time></trkpt><trkpt lat="42.7665388" lon="12.6018293"><ele>750.0</ele><time>2026-05-03T09:48:54.265Z</time></trkpt><trkpt lat="42.7665659" lon="12.6017324"><ele>750.0</ele><time>2026-05-03T09:48:56.267Z</time></trkpt><trkpt lat="42.7665904" lon="12.6016413"><ele>750.0</ele><time>2026-05-03T09:48:58.276Z</time></trkpt><trkpt lat="42.7666406" lon="12.6015618"><ele>750.0</ele><time>2026-05-03T09:49:01.266Z</time></trkpt><trkpt lat="42.7667038" lon="12.6016221"><ele>750.0</ele><time>2026-05-03T09:49:17.27Z</time></trkpt><trkpt lat="42.7667344" lon="12.6017203"><ele>750.0</ele><time>2026-05-03T09:49:24.271Z</time></trkpt><trkpt lat="42.766758" lon="12.6018267"><ele>750.0</ele><time>2026-05-03T09:49:27.266Z</time></trkpt><trkpt lat="42.7667545" lon="12.6019137"><ele>750.0</ele><time>2026-05-03T09:49:29.261Z</time></trkpt><trkpt lat="42.7667434" lon="12.6020049"><ele>750.0</ele><time>2026-05-03T09:49:31.277Z</time></trkpt><trkpt lat="42.7667111" lon="12.6021257"><ele>750.0</ele><time>2026-05-03T09:49:33.269Z</time></trkpt><trkpt lat="42.7666961" lon="12.6022327"><ele>750.0</ele><time>2026-05-03T09:49:35.264Z</time></trkpt><trkpt lat="42.7667081" lon="12.6023424"><ele>750.0</ele><time>2026-05-03T09:49:38.264Z</time></trkpt><trkpt lat="42.7667454" lon="12.6025018"><ele>750.0</ele><time>2026-05-03T09:49:42.265Z</time></trkpt><trkpt lat="42.7667549" lon="12.6025984"><ele>750.0</ele><time>2026-05-03T09:49:52.273Z</time></trkpt><trkpt lat="42.7667385" lon="12.6026898"><ele>750.0</ele><time>2026-05-03T09:49:56.266Z</time></trkpt><trkpt lat="42.7667284" lon="12.6028084"><ele>746.0</ele><time>2026-05-03T09:49:59.254Z</time></trkpt><trkpt lat="42.766732" lon="12.6029141"><ele>742.0</ele><time>2026-05-03T09:50:02.255Z</time></trkpt><trkpt lat="42.7667932" lon="12.6030127"><ele>738.0</ele><time>2026-05-03T09:50:06.274Z</time></trkpt><trkpt lat="42.7668367" lon="12.6031178"><ele>734.0</ele><time>2026-05-03T09:50:09.27Z</time></trkpt><trkpt lat="42.7668085" lon="12.6032156"><ele>730.0</ele><time>2026-05-03T09:50:12.269Z</time></trkpt><trkpt lat="42.7667703" lon="12.603291"><ele>726.0</ele><time>2026-05-03T09:50:14.286Z</time></trkpt><trkpt lat="42.7667354" lon="12.6033786"><ele>726.0</ele><time>2026-05-03T09:50:16.27Z</time></trkpt><trkpt lat="42.7666927" lon="12.6035193"><ele>726.0</ele><time>2026-05-03T09:50:18.273Z</time></trkpt><trkpt lat="42.7666528" lon="12.6036751"><ele>726.0</ele><time>2026-05-03T09:50:20.275Z</time></trkpt><trkpt lat="42.7666124" lon="12.6038291"><ele>726.0</ele><time>2026-05-03T09:50:22.265Z</time></trkpt><trkpt lat="42.7665731" lon="12.6039811"><ele>722.5</ele><time>2026-05-03T09:50:24.254Z</time></trkpt><trkpt lat="42.7665328" lon="12.6041327"><ele>719.0</ele><time>2026-05-03T09:50:26.265Z</time></trkpt><trkpt lat="42.766514" lon="12.6042201"><ele>715.5</ele><time>2026-05-03T09:50:27.254Z</time></trkpt><trkpt lat="42.7665047" lon="12.6043156"><ele>712.0</ele><time>2026-05-03T09:50:28.254Z</time></trkpt><trkpt lat="42.7664963" lon="12.604413"><ele>708.5</ele><time>2026-05-03T09:50:29.256Z</time></trkpt><trkpt lat="42.7664837" lon="12.6045025"><ele>705.0</ele><time>2026-05-03T09:50:30.265Z</time></trkpt><trkpt lat="42.7664459" lon="12.6046527"><ele>699.8</ele><time>2026-05-03T09:50:32.274Z</time></trkpt><trkpt lat="42.7664014" lon="12.6047949"><ele>694.6</ele><time>2026-05-03T09:50:34.26Z</time></trkpt><trkpt lat="42.7663686" lon="12.6049267"><ele>689.4000000000001</ele><time>2026-05-03T09:50:36.257Z</time></trkpt><trkpt lat="42.7663303" lon="12.6050559"><ele>684.2</ele><time>2026-05-03T09:50:38.272Z</time></trkpt><trkpt lat="42.7662941" lon="12.6051555"><ele>679.0</ele><time>2026-05-03T09:50:40.281Z</time></trkpt><trkpt lat="42.7663604" lon="12.6051093"><ele>679.0</ele><time>2026-05-03T09:50:46.265Z</time></trkpt><trkpt lat="42.7663854" lon="12.6050276"><ele>679.0</ele><time>2026-05-03T09:50:48.269Z</time></trkpt><trkpt lat="42.7664197" lon="12.6049353"><ele>679.0</ele><time>2026-05-03T09:50:50.265Z</time></trkpt><trkpt lat="42.7664745" lon="12.6048505"><ele>679.0</ele><time>2026-05-03T09:50:52.268Z</time></trkpt><trkpt lat="42.7665393" lon="12.604757"><ele>679.0</ele><time>2026-05-03T09:50:54.259Z</time></trkpt><trkpt lat="42.766611" lon="12.6046955"><ele>679.0</ele><time>2026-05-03T09:50:56.275Z</time></trkpt><trkpt lat="42.7666906" lon="12.6046918"><ele>679.0</ele><time>2026-05-03T09:50:59.279Z</time></trkpt><trkpt lat="42.7666973" lon="12.6048473"><ele>679.0</ele><time>2026-05-03T09:51:02.273Z</time></trkpt><trkpt lat="42.7666838" lon="12.6049319"><ele>679.0</ele><time>2026-05-03T09:51:03.257Z</time></trkpt><trkpt lat="42.7666637" lon="12.6050186"><ele>679.0</ele><time>2026-05-03T09:51:04.272Z</time></trkpt><trkpt lat="42.7666437" lon="12.605104"><ele>679.0</ele><time>2026-05-03T09:51:05.27Z</time></trkpt><trkpt lat="42.7666296" lon="12.6051952"><ele>679.0</ele><time>2026-05-03T09:51:06.262Z</time></trkpt><trkpt lat="42.7666042" lon="12.6053578"><ele>676.8333333333334</ele><time>2026-05-03T09:51:08.262Z</time></trkpt><trkpt lat="42.7665744" lon="12.6055052"><ele>674.6666666666667</ele><time>2026-05-03T09:51:10.261Z</time></trkpt><trkpt lat="42.7665629" lon="12.6056308"><ele>672.5</ele><time>2026-05-03T09:51:12.27Z</time></trkpt><trkpt lat="42.7665576" lon="12.6057425"><ele>670.3333333333334</ele><time>2026-05-03T09:51:14.274Z</time></trkpt><trkpt lat="42.7665412" lon="12.6058451"><ele>668.1666666666666</ele><time>2026-05-03T09:51:16.268Z</time></trkpt><trkpt lat="42.7665024" lon="12.6059398"><ele>666.0</ele><time>2026-05-03T09:51:19.258Z</time></trkpt><trkpt lat="42.7665644" lon="12.6059242"><ele>666.0</ele><time>2026-05-03T09:51:23.257Z</time></trkpt><trkpt lat="42.7665996" lon="12.6058357"><ele>666.0</ele><time>2026-05-03T09:51:25.272Z</time></trkpt><trkpt lat="42.7666245" lon="12.6057411"><ele>666.0</ele><time>2026-05-03T09:51:27.275Z</time></trkpt><trkpt lat="42.7666559" lon="12.6056324"><ele>666.0</ele><time>2026-05-03T09:51:29.271Z</time></trkpt><trkpt lat="42.7667312" lon="12.6054864"><ele>666.0</ele><time>2026-05-03T09:51:31.257Z</time></trkpt><trkpt lat="42.766795" lon="12.6054041"><ele>662.0</ele><time>2026-05-03T09:51:32.269Z</time></trkpt><trkpt lat="42.7668634" lon="12.6053449"><ele>658.0</ele><time>2026-05-03T09:51:33.275Z</time></trkpt><trkpt lat="42.7669209" lon="12.6052879"><ele>654.0</ele><time>2026-05-03T09:51:34.274Z</time></trkpt><trkpt lat="42.7669783" lon="12.6052309"><ele>650.0</ele><time>2026-05-03T09:51:35.266Z</time></trkpt><trkpt lat="42.7670759" lon="12.6051407"><ele>646.0</ele><time>2026-05-03T09:51:37.257Z</time></trkpt><trkpt lat="42.7671502" lon="12.6050438"><ele>642.0</ele><time>2026-05-03T09:51:39.266Z</time></trkpt><trkpt lat="42.7672354" lon="12.6049193"><ele>642.0</ele><time>2026-05-03T09:51:41.256Z</time></trkpt><trkpt lat="42.7672938" lon="12.6048433"><ele>642.0</ele><time>2026-05-03T09:51:42.257Z</time></trkpt><trkpt lat="42.7673592" lon="12.6047528"><ele>642.0</ele><time>2026-05-03T09:51:43.278Z</time></trkpt><trkpt lat="42.7674114" lon="12.6046641"><ele>642.0</ele><time>2026-05-03T09:51:44.26Z</time></trkpt><trkpt lat="42.7674461" lon="12.6045798"><ele>642.0</ele><time>2026-05-03T09:51:45.27Z</time></trkpt><trkpt lat="42.7674734" lon="12.6045012"><ele>642.0</ele><time>2026-05-03T09:51:46.261Z</time></trkpt><trkpt lat="42.7675316" lon="12.6043763"><ele>644.6</ele><time>2026-05-03T09:51:48.249Z</time></trkpt><trkpt lat="42.7675891" lon="12.6042959"><ele>647.2</ele><time>2026-05-03T09:51:50.263Z</time></trkpt><trkpt lat="42.7676521" lon="12.6042073"><ele>649.8</ele><time>2026-05-03T09:51:52.272Z</time></trkpt><trkpt lat="42.7677038" lon="12.6040992"><ele>652.4</ele><time>2026-05-03T09:51:54.257Z</time></trkpt><trkpt lat="42.7677377" lon="12.603976"><ele>655.0</ele><time>2026-05-03T09:51:56.265Z</time></trkpt><trkpt lat="42.7677579" lon="12.603851"><ele>647.2</ele><time>2026-05-03T09:51:58.274Z</time></trkpt><trkpt lat="42.7677699" lon="12.603722"><ele>639.4</ele><time>2026-05-03T09:52:00.268Z</time></trkpt><trkpt lat="42.7678355" lon="12.6036142"><ele>631.6</ele><time>2026-05-03T09:52:02.256Z</time></trkpt><trkpt lat="42.7679069" lon="12.6035188"><ele>623.8</ele><time>2026-05-03T09:52:04.28Z</time></trkpt><trkpt lat="42.7679737" lon="12.6034192"><ele>616.0</ele><time>2026-05-03T09:52:06.264Z</time></trkpt><trkpt lat="42.7680272" lon="12.603278"><ele>616.0</ele><time>2026-05-03T09:52:08.27Z</time></trkpt><trkpt lat="42.7680617" lon="12.603136"><ele>616.0</ele><time>2026-05-03T09:52:10.253Z</time></trkpt><trkpt lat="42.7680959" lon="12.6030165"><ele>616.0</ele><time>2026-05-03T09:52:12.264Z</time></trkpt><trkpt lat="42.7681599" lon="12.6029579"><ele>616.0</ele><time>2026-05-03T09:52:15.258Z</time></trkpt><trkpt lat="42.7682198" lon="12.6030382"><ele>616.0</ele><time>2026-05-03T09:52:18.253Z</time></trkpt><trkpt lat="42.7682559" lon="12.6031522"><ele>616.0</ele><time>2026-05-03T09:52:20.274Z</time></trkpt><trkpt lat="42.7682736" lon="12.6032918"><ele>616.0</ele><time>2026-05-03T09:52:22.267Z</time></trkpt><trkpt lat="42.7682834" lon="12.6034539"><ele>616.0</ele><time>2026-05-03T09:52:24.261Z</time></trkpt><trkpt lat="42.7682883" lon="12.6035396"><ele>616.0</ele><time>2026-05-03T09:52:25.271Z</time></trkpt><trkpt lat="42.7683055" lon="12.6036854"><ele>616.0</ele><time>2026-05-03T09:52:27.261Z</time></trkpt><trkpt lat="42.7683261" lon="12.6038113"><ele>614.6666666666667</ele><time>2026-05-03T09:52:29.265Z</time></trkpt><trkpt lat="42.7683452" lon="12.6039152"><ele>613.3333333333334</ele><time>2026-05-03T09:52:31.256Z</time></trkpt><trkpt lat="42.7683353" lon="12.6040088"><ele>612.0</ele><time>2026-05-03T09:52:33.258Z</time></trkpt><trkpt lat="42.7683288" lon="12.6040949"><ele>610.6666666666666</ele><time>2026-05-03T09:52:35.26Z</time></trkpt><trkpt lat="42.7683837" lon="12.6041584"><ele>609.3333333333333</ele><time>2026-05-03T09:52:37.265Z</time></trkpt><trkpt lat="42.7684751" lon="12.604157"><ele>608.0</ele><time>2026-05-03T09:52:39.27Z</time></trkpt><trkpt lat="42.7685808" lon="12.6041339"><ele>605.8</ele><time>2026-05-03T09:52:41.26Z</time></trkpt><trkpt lat="42.7686969" lon="12.6041573"><ele>603.5999999999999</ele><time>2026-05-03T09:52:43.251Z</time></trkpt><trkpt lat="42.7688032" lon="12.6041988"><ele>601.4000000000001</ele><time>2026-05-03T09:52:45.273Z</time></trkpt><trkpt lat="42.7688927" lon="12.6042374"><ele>599.2</ele><time>2026-05-03T09:52:47.269Z</time></trkpt><trkpt lat="42.7689653" lon="12.6042877"><ele>597.0</ele><time>2026-05-03T09:52:49.256Z</time></trkpt><trkpt lat="42.7689928" lon="12.604388"><ele>594.5</ele><time>2026-05-03T09:52:51.259Z</time></trkpt><trkpt lat="42.768971" lon="12.6045053"><ele>592.0</ele><time>2026-05-03T09:52:53.25Z</time></trkpt><trkpt lat="42.7689313" lon="12.6046068"><ele>589.5</ele><time>2026-05-03T09:52:55.254Z</time></trkpt><trkpt lat="42.768886" lon="12.6046893"><ele>587.0</ele><time>2026-05-03T09:52:57.265Z</time></trkpt><trkpt lat="42.7688326" lon="12.6047778"><ele>584.5</ele><time>2026-05-03T09:52:59.262Z</time></trkpt><trkpt lat="42.7687826" lon="12.604862"><ele>582.0</ele><time>2026-05-03T09:53:01.253Z</time></trkpt><trkpt lat="42.7687414" lon="12.6049611"><ele>582.0</ele><time>2026-05-03T09:53:03.261Z</time></trkpt><trkpt lat="42.768752" lon="12.6050727"><ele>582.0</ele><time>2026-05-03T09:53:05.257Z</time></trkpt><trkpt lat="42.7687792" lon="12.6051641"><ele>582.0</ele><time>2026-05-03T09:53:07.262Z</time></trkpt><trkpt lat="42.7687968" lon="12.6052522"><ele>582.0</ele><time>2026-05-03T09:53:09.282Z</time></trkpt><trkpt lat="42.7688144" lon="12.6053378"><ele>582.0</ele><time>2026-05-03T09:53:13.278Z</time></trkpt><trkpt lat="42.7688887" lon="12.6052783"><ele>582.0</ele><time>2026-05-03T09:54:04.264Z</time></trkpt><trkpt lat="42.7689502" lon="12.6051392"><ele>582.0</ele><time>2026-05-03T09:54:06.25Z</time></trkpt><trkpt lat="42.7689945" lon="12.6050592"><ele>582.0</ele><time>2026-05-03T09:54:07.256Z</time></trkpt><trkpt lat="42.7690397" lon="12.6049881"><ele>582.0</ele><time>2026-05-03T09:54:08.264Z</time></trkpt><trkpt lat="42.7691437" lon="12.6048959"><ele>582.0</ele><time>2026-05-03T09:54:10.262Z</time></trkpt><trkpt lat="42.7692203" lon="12.6049059"><ele>582.0</ele><time>2026-05-03T09:54:11.264Z</time></trkpt><trkpt lat="42.7692989" lon="12.6049464"><ele>582.0</ele><time>2026-05-03T09:54:12.264Z</time></trkpt><trkpt lat="42.7693832" lon="12.6050181"><ele>580.25</ele><time>2026-05-03T09:54:13.266Z</time></trkpt><trkpt lat="42.7694661" lon="12.6051019"><ele>578.5</ele><time>2026-05-03T09:54:14.259Z</time></trkpt><trkpt lat="42.769561" lon="12.6051946"><ele>576.75</ele><time>2026-05-03T09:54:15.264Z</time></trkpt><trkpt lat="42.7696572" lon="12.6052923"><ele>575.0</ele><time>2026-05-03T09:54:16.27Z</time></trkpt><trkpt lat="42.7697682" lon="12.6053972"><ele>575.0</ele><time>2026-05-03T09:54:17.262Z</time></trkpt><trkpt lat="42.7698861" lon="12.6055107"><ele>575.0</ele><time>2026-05-03T09:54:18.259Z</time></trkpt><trkpt lat="42.7699979" lon="12.60562"><ele>575.0</ele><time>2026-05-03T09:54:19.266Z</time></trkpt><trkpt lat="42.7701221" lon="12.6057078"><ele>575.0</ele><time>2026-05-03T09:54:20.261Z</time></trkpt><trkpt lat="42.7702623" lon="12.6057818"><ele>579.0</ele><time>2026-05-03T09:54:21.269Z</time></trkpt><trkpt lat="42.7704103" lon="12.6058565"><ele>583.0</ele><time>2026-05-03T09:54:22.269Z</time></trkpt><trkpt lat="42.7705682" lon="12.6059365"><ele>587.0</ele><time>2026-05-03T09:54:23.256Z</time></trkpt><trkpt lat="42.7707279" lon="12.606016"><ele>587.0</ele><time>2026-05-03T09:54:24.255Z</time></trkpt><trkpt lat="42.7708852" lon="12.6061013"><ele>587.0</ele><time>2026-05-03T09:54:25.273Z</time></trkpt><trkpt lat="42.7710339" lon="12.6061891"><ele>587.0</ele><time>2026-05-03T09:54:26.253Z</time></trkpt><trkpt lat="42.7711685" lon="12.6062816"><ele>589.25</ele><time>2026-05-03T09:54:27.253Z</time></trkpt><trkpt lat="42.7712957" lon="12.6063661"><ele>591.5</ele><time>2026-05-03T09:54:28.266Z</time></trkpt><trkpt lat="42.7714281" lon="12.6064582"><ele>593.75</ele><time>2026-05-03T09:54:29.261Z</time></trkpt><trkpt lat="42.7715548" lon="12.6065313"><ele>596.0</ele><time>2026-05-03T09:54:30.265Z</time></trkpt><trkpt lat="42.7716834" lon="12.606578"><ele>596.0</ele><time>2026-05-03T09:54:31.271Z</time></trkpt><trkpt lat="42.7718091" lon="12.6065969"><ele>596.0</ele><time>2026-05-03T09:54:32.258Z</time></trkpt><trkpt lat="42.7719404" lon="12.6066268"><ele>596.0</ele><time>2026-05-03T09:54:33.259Z</time></trkpt><trkpt lat="42.7720636" lon="12.6066519"><ele>596.0</ele><time>2026-05-03T09:54:34.277Z</time></trkpt><trkpt lat="42.7721843" lon="12.606667"><ele>598.6666666666666</ele><time>2026-05-03T09:54:35.259Z</time></trkpt><trkpt lat="42.7723193" lon="12.6066367"><ele>601.3333333333334</ele><time>2026-05-03T09:54:36.294Z</time></trkpt><trkpt lat="42.7724701" lon="12.6065648"><ele>604.0</ele><time>2026-05-03T09:54:37.28Z</time></trkpt><trkpt lat="42.7726249" lon="12.6064735"><ele>603.25</ele><time>2026-05-03T09:54:38.274Z</time></trkpt><trkpt lat="42.7727562" lon="12.6064068"><ele>602.5</ele><time>2026-05-03T09:54:39.267Z</time></trkpt><trkpt lat="42.7728701" lon="12.6063695"><ele>601.75</ele><time>2026-05-03T09:54:40.267Z</time></trkpt><trkpt lat="42.7729764" lon="12.6063421"><ele>601.0</ele><time>2026-05-03T09:54:41.266Z</time></trkpt><trkpt lat="42.7730701" lon="12.6063129"><ele>601.0</ele><time>2026-05-03T09:54:42.273Z</time></trkpt><trkpt lat="42.7731614" lon="12.6062664"><ele>601.0</ele><time>2026-05-03T09:54:43.279Z</time></trkpt><trkpt lat="42.7732514" lon="12.6061848"><ele>601.0</ele><time>2026-05-03T09:54:44.284Z</time></trkpt><trkpt lat="42.7733481" lon="12.6060818"><ele>601.0</ele><time>2026-05-03T09:54:45.265Z</time></trkpt><trkpt lat="42.7734457" lon="12.6059678"><ele>603.5</ele><time>2026-05-03T09:54:46.258Z</time></trkpt><trkpt lat="42.7735502" lon="12.6058547"><ele>606.0</ele><time>2026-05-03T09:54:47.286Z</time></trkpt><trkpt lat="42.7736603" lon="12.6057376"><ele>608.5</ele><time>2026-05-03T09:54:48.256Z</time></trkpt><trkpt lat="42.7737858" lon="12.6056251"><ele>611.0</ele><time>2026-05-03T09:54:49.265Z</time></trkpt><trkpt lat="42.7739134" lon="12.605519"><ele>611.0</ele><time>2026-05-03T09:54:50.263Z</time></trkpt><trkpt lat="42.7740384" lon="12.6054299"><ele>611.0</ele><time>2026-05-03T09:54:51.269Z</time></trkpt><trkpt lat="42.7741657" lon="12.6053472"><ele>611.0</ele><time>2026-05-03T09:54:52.26Z</time></trkpt><trkpt lat="42.774306" lon="12.605282"><ele>611.0</ele><time>2026-05-03T09:54:53.269Z</time></trkpt><trkpt lat="42.7744553" lon="12.6052264"><ele>617.3333333333333</ele><time>2026-05-03T09:54:54.262Z</time></trkpt><trkpt lat="42.7746039" lon="12.6051803"><ele>623.6666666666666</ele><time>2026-05-03T09:54:55.261Z</time></trkpt><trkpt lat="42.7747547" lon="12.6051412"><ele>630.0</ele><time>2026-05-03T09:54:56.274Z</time></trkpt><trkpt lat="42.7748951" lon="12.605096"><ele>630.0</ele><time>2026-05-03T09:54:57.253Z</time></trkpt><trkpt lat="42.7750188" lon="12.6050429"><ele>630.0</ele><time>2026-05-03T09:54:58.266Z</time></trkpt><trkpt lat="42.7751321" lon="12.6049792"><ele>630.0</ele><time>2026-05-03T09:54:59.253Z</time></trkpt><trkpt lat="42.7752443" lon="12.6048759"><ele>630.0</ele><time>2026-05-03T09:55:00.252Z</time></trkpt><trkpt lat="42.775357" lon="12.6047471"><ele>631.0</ele><time>2026-05-03T09:55:01.262Z</time></trkpt><trkpt lat="42.7754701" lon="12.6046016"><ele>632.0</ele><time>2026-05-03T09:55:02.252Z</time></trkpt><trkpt lat="42.7755825" lon="12.6044505"><ele>633.0</ele><time>2026-05-03T09:55:03.265Z</time></trkpt><trkpt lat="42.775698" lon="12.6043143"><ele>633.0</ele><time>2026-05-03T09:55:04.263Z</time></trkpt><trkpt lat="42.7758263" lon="12.6042001"><ele>633.0</ele><time>2026-05-03T09:55:05.279Z</time></trkpt><trkpt lat="42.775971" lon="12.6041084"><ele>633.0</ele><time>2026-05-03T09:55:06.282Z</time></trkpt><trkpt lat="42.7761266" lon="12.6040293"><ele>634.25</ele><time>2026-05-03T09:55:07.276Z</time></trkpt><trkpt lat="42.7762794" lon="12.6039686"><ele>635.5</ele><time>2026-05-03T09:55:08.26Z</time></trkpt><trkpt lat="42.7764201" lon="12.6039064"><ele>636.75</ele><time>2026-05-03T09:55:09.258Z</time></trkpt><trkpt lat="42.7765405" lon="12.60382"><ele>638.0</ele><time>2026-05-03T09:55:10.257Z</time></trkpt><trkpt lat="42.7766428" lon="12.6037265"><ele>638.25</ele><time>2026-05-03T09:55:11.265Z</time></trkpt><trkpt lat="42.7767313" lon="12.6036204"><ele>638.5</ele><time>2026-05-03T09:55:12.251Z</time></trkpt><trkpt lat="42.7768149" lon="12.6034876"><ele>638.75</ele><time>2026-05-03T09:55:13.26Z</time></trkpt><trkpt lat="42.7768894" lon="12.6033365"><ele>639.0</ele><time>2026-05-03T09:55:14.266Z</time></trkpt><trkpt lat="42.7769603" lon="12.6031787"><ele>639.0</ele><time>2026-05-03T09:55:15.278Z</time></trkpt><trkpt lat="42.7770343" lon="12.6030188"><ele>639.0</ele><time>2026-05-03T09:55:16.284Z</time></trkpt><trkpt lat="42.7771111" lon="12.6028653"><ele>639.0</ele><time>2026-05-03T09:55:17.258Z</time></trkpt><trkpt lat="42.7771838" lon="12.6027086"><ele>639.0</ele><time>2026-05-03T09:55:18.255Z</time></trkpt><trkpt lat="42.7772585" lon="12.6025516"><ele>638.75</ele><time>2026-05-03T09:55:19.261Z</time></trkpt><trkpt lat="42.7773204" lon="12.6023814"><ele>638.5</ele><time>2026-05-03T09:55:20.26Z</time></trkpt><trkpt lat="42.7773716" lon="12.6021898"><ele>638.25</ele><time>2026-05-03T09:55:21.264Z</time></trkpt><trkpt lat="42.7774022" lon="12.601982"><ele>638.0</ele><time>2026-05-03T09:55:22.265Z</time></trkpt><trkpt lat="42.7774247" lon="12.6017701"><ele>637.75</ele><time>2026-05-03T09:55:23.265Z</time></trkpt><trkpt lat="42.7774482" lon="12.6015775"><ele>637.5</ele><time>2026-05-03T09:55:24.256Z</time></trkpt><trkpt lat="42.7774703" lon="12.6014004"><ele>637.25</ele><time>2026-05-03T09:55:25.254Z</time></trkpt><trkpt lat="42.7774871" lon="12.6012386"><ele>637.0</ele><time>2026-05-03T09:55:26.259Z</time></trkpt><trkpt lat="42.7775108" lon="12.6010994"><ele>637.0</ele><time>2026-05-03T09:55:27.268Z</time></trkpt><trkpt lat="42.7775431" lon="12.6009708"><ele>637.0</ele><time>2026-05-03T09:55:28.275Z</time></trkpt><trkpt lat="42.7776082" lon="12.6008786"><ele>637.0</ele><time>2026-05-03T09:55:29.263Z</time></trkpt><trkpt lat="42.7776981" lon="12.6008355"><ele>637.0</ele><time>2026-05-03T09:55:30.276Z</time></trkpt><trkpt lat="42.777811" lon="12.6008176"><ele>637.0</ele><time>2026-05-03T09:55:31.275Z</time></trkpt><trkpt lat="42.7779286" lon="12.6007973"><ele>633.3333333333334</ele><time>2026-05-03T09:55:32.268Z</time></trkpt><trkpt lat="42.778052" lon="12.6007294"><ele>629.6666666666666</ele><time>2026-05-03T09:55:33.266Z</time></trkpt><trkpt lat="42.7781846" lon="12.6006251"><ele>626.0</ele><time>2026-05-03T09:55:34.275Z</time></trkpt><trkpt lat="42.7783264" lon="12.6004978"><ele>626.0</ele><time>2026-05-03T09:55:35.262Z</time></trkpt><trkpt lat="42.7784734" lon="12.6003695"><ele>626.0</ele><time>2026-05-03T09:55:36.263Z</time></trkpt><trkpt lat="42.7786146" lon="12.6002488"><ele>626.0</ele><time>2026-05-03T09:55:37.275Z</time></trkpt><trkpt lat="42.7787465" lon="12.6001243"><ele>624.3333333333333</ele><time>2026-05-03T09:55:38.264Z</time></trkpt><trkpt lat="42.7788752" lon="12.5999994"><ele>622.6666666666666</ele><time>2026-05-03T09:55:39.276Z</time></trkpt><trkpt lat="42.7790015" lon="12.5998835"><ele>621.0</ele><time>2026-05-03T09:55:40.275Z</time></trkpt><trkpt lat="42.7791228" lon="12.5997696"><ele>621.0</ele><time>2026-05-03T09:55:41.266Z</time></trkpt><trkpt lat="42.779243" lon="12.5996732"><ele>621.0</ele><time>2026-05-03T09:55:42.26Z</time></trkpt><trkpt lat="42.7793635" lon="12.5995875"><ele>621.0</ele><time>2026-05-03T09:55:43.265Z</time></trkpt><trkpt lat="42.7794759" lon="12.5995051"><ele>621.0</ele><time>2026-05-03T09:55:44.27Z</time></trkpt><trkpt lat="42.7795852" lon="12.5994224"><ele>618.75</ele><time>2026-05-03T09:55:45.274Z</time></trkpt><trkpt lat="42.7796877" lon="12.5993428"><ele>616.5</ele><time>2026-05-03T09:55:46.277Z</time></trkpt><trkpt lat="42.7797918" lon="12.5992576"><ele>614.25</ele><time>2026-05-03T09:55:47.271Z</time></trkpt><trkpt lat="42.7798946" lon="12.5991772"><ele>612.0</ele><time>2026-05-03T09:55:48.262Z</time></trkpt><trkpt lat="42.7800038" lon="12.599093"><ele>612.0</ele><time>2026-05-03T09:55:49.273Z</time></trkpt><trkpt lat="42.7801228" lon="12.5989973"><ele>612.0</ele><time>2026-05-03T09:55:50.264Z</time></trkpt><trkpt lat="42.7802416" lon="12.5989021"><ele>612.0</ele><time>2026-05-03T09:55:51.26Z</time></trkpt><trkpt lat="42.7803624" lon="12.5988183"><ele>612.0</ele><time>2026-05-03T09:55:52.262Z</time></trkpt><trkpt lat="42.7804833" lon="12.5987579"><ele>613.75</ele><time>2026-05-03T09:55:53.283Z</time></trkpt><trkpt lat="42.7806097" lon="12.5987245"><ele>615.5</ele><time>2026-05-03T09:55:54.266Z</time></trkpt><trkpt lat="42.7807382" lon="12.5987028"><ele>617.25</ele><time>2026-05-03T09:55:55.279Z</time></trkpt><trkpt lat="42.7808716" lon="12.598667"><ele>619.0</ele><time>2026-05-03T09:55:56.28Z</time></trkpt><trkpt lat="42.7810006" lon="12.5986362"><ele>619.5</ele><time>2026-05-03T09:55:57.267Z</time></trkpt><trkpt lat="42.781131" lon="12.5986082"><ele>620.0</ele><time>2026-05-03T09:55:58.257Z</time></trkpt><trkpt lat="42.7812497" lon="12.5985846"><ele>620.5</ele><time>2026-05-03T09:55:59.291Z</time></trkpt><trkpt lat="42.7813557" lon="12.5985704"><ele>621.0</ele><time>2026-05-03T09:56:00.279Z</time></trkpt><trkpt lat="42.781458" lon="12.5985868"><ele>621.0</ele><time>2026-05-03T09:56:01.275Z</time></trkpt><trkpt lat="42.7815624" lon="12.5986455"><ele>621.0</ele><time>2026-05-03T09:56:02.254Z</time></trkpt><trkpt lat="42.7816534" lon="12.5987373"><ele>621.0</ele><time>2026-05-03T09:56:03.265Z</time></trkpt><trkpt lat="42.7817497" lon="12.5988387"><ele>621.0</ele><time>2026-05-03T09:56:04.265Z</time></trkpt><trkpt lat="42.7818618" lon="12.5989143"><ele>618.75</ele><time>2026-05-03T09:56:05.273Z</time></trkpt><trkpt lat="42.7819781" lon="12.5989754"><ele>616.5</ele><time>2026-05-03T09:56:06.256Z</time></trkpt><trkpt lat="42.7820912" lon="12.5990141"><ele>614.25</ele><time>2026-05-03T09:56:07.257Z</time></trkpt><trkpt lat="42.7822076" lon="12.5990165"><ele>612.0</ele><time>2026-05-03T09:56:08.261Z</time></trkpt><trkpt lat="42.7823284" lon="12.5989708"><ele>612.0</ele><time>2026-05-03T09:56:09.26Z</time></trkpt><trkpt lat="42.7824645" lon="12.5989009"><ele>612.0</ele><time>2026-05-03T09:56:10.259Z</time></trkpt><trkpt lat="42.7825991" lon="12.5988286"><ele>612.0</ele><time>2026-05-03T09:56:11.266Z</time></trkpt><trkpt lat="42.7827334" lon="12.5987583"><ele>612.0</ele><time>2026-05-03T09:56:12.268Z</time></trkpt><trkpt lat="42.7828667" lon="12.5986924"><ele>613.0</ele><time>2026-05-03T09:56:13.264Z</time></trkpt><trkpt lat="42.7829939" lon="12.5986322"><ele>614.0</ele><time>2026-05-03T09:56:14.262Z</time></trkpt><trkpt lat="42.7831152" lon="12.5985818"><ele>615.0</ele><time>2026-05-03T09:56:15.259Z</time></trkpt><trkpt lat="42.7832233" lon="12.5985343"><ele>616.0</ele><time>2026-05-03T09:56:16.263Z</time></trkpt><trkpt lat="42.7833203" lon="12.5984815"><ele>616.0</ele><time>2026-05-03T09:56:17.267Z</time></trkpt><trkpt lat="42.783407" lon="12.5984257"><ele>616.0</ele><time>2026-05-03T09:56:18.255Z</time></trkpt><trkpt lat="42.7834834" lon="12.5983787"><ele>616.0</ele><time>2026-05-03T09:56:19.29Z</time></trkpt><trkpt lat="42.7835437" lon="12.5983374"><ele>616.0</ele><time>2026-05-03T09:56:20.263Z</time></trkpt><trkpt lat="42.7836029" lon="12.5983038"><ele>616.0</ele><time>2026-05-03T09:56:21.274Z</time></trkpt><trkpt lat="42.7836619" lon="12.5982627"><ele>616.0</ele><time>2026-05-03T09:56:22.265Z</time></trkpt><trkpt lat="42.7837171" lon="12.5982132"><ele>616.0</ele><time>2026-05-03T09:56:23.253Z</time></trkpt><trkpt lat="42.7837691" lon="12.5981544"><ele>613.8333333333334</ele><time>2026-05-03T09:56:24.277Z</time></trkpt><trkpt lat="42.783822" lon="12.5980943"><ele>611.6666666666667</ele><time>2026-05-03T09:56:25.267Z</time></trkpt><trkpt lat="42.783922" lon="12.5979793"><ele>609.5</ele><time>2026-05-03T09:56:27.273Z</time></trkpt><trkpt lat="42.7839869" lon="12.5979469"><ele>607.3333333333334</ele><time>2026-05-03T09:56:28.274Z</time></trkpt><trkpt lat="42.7840622" lon="12.5979559"><ele>605.1666666666666</ele><time>2026-05-03T09:56:29.263Z</time></trkpt><trkpt lat="42.7841391" lon="12.5980188"><ele>603.0</ele><time>2026-05-03T09:56:30.265Z</time></trkpt><trkpt lat="42.7842243" lon="12.5980907"><ele>603.0</ele><time>2026-05-03T09:56:31.255Z</time></trkpt><trkpt lat="42.7843213" lon="12.598152"><ele>603.0</ele><time>2026-05-03T09:56:32.266Z</time></trkpt><trkpt lat="42.7844304" lon="12.5982266"><ele>603.0</ele><time>2026-05-03T09:56:33.271Z</time></trkpt><trkpt lat="42.78455" lon="12.5982959"><ele>603.0</ele><time>2026-05-03T09:56:34.253Z</time></trkpt><trkpt lat="42.7846601" lon="12.598356"><ele>602.1999999999999</ele><time>2026-05-03T09:56:35.259Z</time></trkpt><trkpt lat="42.7847699" lon="12.5983948"><ele>601.4</ele><time>2026-05-03T09:56:36.258Z</time></trkpt><trkpt lat="42.7848819" lon="12.5984077"><ele>600.5999999999999</ele><time>2026-05-03T09:56:37.266Z</time></trkpt><trkpt lat="42.7849933" lon="12.5984086"><ele>599.8</ele><time>2026-05-03T09:56:38.258Z</time></trkpt><trkpt lat="42.7851006" lon="12.598374"><ele>599.0</ele><time>2026-05-03T09:56:39.256Z</time></trkpt><trkpt lat="42.7851923" lon="12.5982798"><ele>597.75</ele><time>2026-05-03T09:56:40.266Z</time></trkpt><trkpt lat="42.7852619" lon="12.598145"><ele>596.5</ele><time>2026-05-03T09:56:41.278Z</time></trkpt><trkpt lat="42.7853356" lon="12.5980077"><ele>595.25</ele><time>2026-05-03T09:56:42.253Z</time></trkpt><trkpt lat="42.7854247" lon="12.5978666"><ele>594.0</ele><time>2026-05-03T09:56:43.277Z</time></trkpt><trkpt lat="42.7855205" lon="12.5977237"><ele>594.0</ele><time>2026-05-03T09:56:44.274Z</time></trkpt><trkpt lat="42.7856244" lon="12.5975867"><ele>594.0</ele><time>2026-05-03T09:56:45.267Z</time></trkpt><trkpt lat="42.785721" lon="12.5974512"><ele>594.0</ele><time>2026-05-03T09:56:46.261Z</time></trkpt><trkpt lat="42.7858065" lon="12.5973411"><ele>594.0</ele><time>2026-05-03T09:56:47.264Z</time></trkpt><trkpt lat="42.7858946" lon="12.5972417"><ele>594.0</ele><time>2026-05-03T09:56:48.262Z</time></trkpt><trkpt lat="42.7859865" lon="12.597159"><ele>594.0</ele><time>2026-05-03T09:56:49.271Z</time></trkpt><trkpt lat="42.7860743" lon="12.5970973"><ele>594.0</ele><time>2026-05-03T09:56:50.257Z</time></trkpt><trkpt lat="42.7861736" lon="12.5970713"><ele>594.0</ele><time>2026-05-03T09:56:51.27Z</time></trkpt><trkpt lat="42.786258" lon="12.5970852"><ele>594.0</ele><time>2026-05-03T09:56:52.257Z</time></trkpt><trkpt lat="42.7863211" lon="12.5971146"><ele>591.8</ele><time>2026-05-03T09:56:53.271Z</time></trkpt><trkpt lat="42.7864148" lon="12.5970946"><ele>589.5999999999999</ele><time>2026-05-03T09:56:55.258Z</time></trkpt><trkpt lat="42.7865376" lon="12.5970407"><ele>587.4</ele><time>2026-05-03T09:56:57.257Z</time></trkpt><trkpt lat="42.7866177" lon="12.5970303"><ele>585.1999999999999</ele><time>2026-05-03T09:56:58.258Z</time></trkpt><trkpt lat="42.7867075" lon="12.5970268"><ele>583.0</ele><time>2026-05-03T09:56:59.264Z</time></trkpt><trkpt lat="42.7868008" lon="12.5970242"><ele>583.0</ele><time>2026-05-03T09:57:00.256Z</time></trkpt><trkpt lat="42.7868984" lon="12.597024"><ele>583.0</ele><time>2026-05-03T09:57:01.255Z</time></trkpt><trkpt lat="42.7869967" lon="12.597021"><ele>583.0</ele><time>2026-05-03T09:57:02.257Z</time></trkpt><trkpt lat="42.7871009" lon="12.5970118"><ele>583.0</ele><time>2026-05-03T09:57:03.266Z</time></trkpt><trkpt lat="42.7872039" lon="12.596992"><ele>583.0</ele><time>2026-05-03T09:57:04.263Z</time></trkpt><trkpt lat="42.7873036" lon="12.5969531"><ele>584.4</ele><time>2026-05-03T09:57:05.275Z</time></trkpt><trkpt lat="42.7873967" lon="12.5968996"><ele>585.8</ele><time>2026-05-03T09:57:06.271Z</time></trkpt><trkpt lat="42.7874878" lon="12.5968236"><ele>587.2</ele><time>2026-05-03T09:57:07.27Z</time></trkpt><trkpt lat="42.7875871" lon="12.5967369"><ele>588.6</ele><time>2026-05-03T09:57:08.252Z</time></trkpt><trkpt lat="42.7876865" lon="12.5966469"><ele>590.0</ele><time>2026-05-03T09:57:09.262Z</time></trkpt><trkpt lat="42.7877825" lon="12.5965658"><ele>590.0</ele><time>2026-05-03T09:57:10.261Z</time></trkpt><trkpt lat="42.7878755" lon="12.5964857"><ele>590.0</ele><time>2026-05-03T09:57:11.266Z</time></trkpt><trkpt lat="42.7879599" lon="12.5964073"><ele>590.0</ele><time>2026-05-03T09:57:12.27Z</time></trkpt><trkpt lat="42.7880347" lon="12.5963353"><ele>590.0</ele><time>2026-05-03T09:57:13.276Z</time></trkpt><trkpt lat="42.7880984" lon="12.5962742"><ele>590.0</ele><time>2026-05-03T09:57:14.275Z</time></trkpt><trkpt lat="42.7881541" lon="12.5962209"><ele>591.8333333333333</ele><time>2026-05-03T09:57:15.269Z</time></trkpt><trkpt lat="42.7882502" lon="12.5961397"><ele>593.6666666666666</ele><time>2026-05-03T09:57:17.255Z</time></trkpt><trkpt lat="42.7883062" lon="12.5960806"><ele>595.5</ele><time>2026-05-03T09:57:19.263Z</time></trkpt><trkpt lat="42.7883744" lon="12.5960057"><ele>597.3333333333334</ele><time>2026-05-03T09:57:23.255Z</time></trkpt><trkpt lat="42.7884271" lon="12.595928"><ele>599.1666666666667</ele><time>2026-05-03T09:57:49.272Z</time></trkpt><trkpt lat="42.788435" lon="12.5958366"><ele>601.0</ele><time>2026-05-03T09:57:51.278Z</time></trkpt><trkpt lat="42.7884194" lon="12.5956824"><ele>601.0</ele><time>2026-05-03T09:57:53.271Z</time></trkpt><trkpt lat="42.7884136" lon="12.5955849"><ele>601.0</ele><time>2026-05-03T09:57:54.277Z</time></trkpt><trkpt lat="42.7884061" lon="12.5954755"><ele>601.0</ele><time>2026-05-03T09:57:55.268Z</time></trkpt><trkpt lat="42.7884012" lon="12.5953544"><ele>601.0</ele><time>2026-05-03T09:57:56.267Z</time></trkpt><trkpt lat="42.7884048" lon="12.5952383"><ele>601.0</ele><time>2026-05-03T09:57:57.26Z</time></trkpt><trkpt lat="42.788417" lon="12.5951251"><ele>601.0</ele><time>2026-05-03T09:57:58.255Z</time></trkpt><trkpt lat="42.788439" lon="12.5950153"><ele>601.0</ele><time>2026-05-03T09:57:59.265Z</time></trkpt><trkpt lat="42.7884792" lon="12.5949188"><ele>601.0</ele><time>2026-05-03T09:58:00.26Z</time></trkpt><trkpt lat="42.7885307" lon="12.5948297"><ele>601.0</ele><time>2026-05-03T09:58:01.26Z</time></trkpt><trkpt lat="42.7885725" lon="12.5947365"><ele>601.0</ele><time>2026-05-03T09:58:02.274Z</time></trkpt><trkpt lat="42.7885935" lon="12.594635"><ele>601.0</ele><time>2026-05-03T09:58:03.259Z</time></trkpt><trkpt lat="42.7885898" lon="12.5945303"><ele>601.0</ele><time>2026-05-03T09:58:04.257Z</time></trkpt><trkpt lat="42.7885645" lon="12.5944176"><ele>601.0</ele><time>2026-05-03T09:58:05.279Z</time></trkpt><trkpt lat="42.7885233" lon="12.5942931"><ele>601.0</ele><time>2026-05-03T09:58:06.271Z</time></trkpt><trkpt lat="42.7884698" lon="12.5941481"><ele>601.0</ele><time>2026-05-03T09:58:07.262Z</time></trkpt><trkpt lat="42.7884158" lon="12.5940048"><ele>601.0</ele><time>2026-05-03T09:58:08.265Z</time></trkpt><trkpt lat="42.7883633" lon="12.5938832"><ele>601.0</ele><time>2026-05-03T09:58:09.25Z</time></trkpt><trkpt lat="42.7883354" lon="12.5937776"><ele>604.6</ele><time>2026-05-03T09:58:10.265Z</time></trkpt><trkpt lat="42.7883269" lon="12.5936819"><ele>608.2</ele><time>2026-05-03T09:58:11.268Z</time></trkpt><trkpt lat="42.7883463" lon="12.5935796"><ele>611.8</ele><time>2026-05-03T09:58:12.273Z</time></trkpt><trkpt lat="42.7883958" lon="12.5934839"><ele>615.4</ele><time>2026-05-03T09:58:13.262Z</time></trkpt><trkpt lat="42.7884799" lon="12.5934101"><ele>619.0</ele><time>2026-05-03T09:58:14.268Z</time></trkpt><trkpt lat="42.7885888" lon="12.593357"><ele>619.0</ele><time>2026-05-03T09:58:15.259Z</time></trkpt><trkpt lat="42.7887076" lon="12.5932938"><ele>619.0</ele><time>2026-05-03T09:58:16.261Z</time></trkpt><trkpt lat="42.7888266" lon="12.5932155"><ele>619.0</ele><time>2026-05-03T09:58:17.278Z</time></trkpt><trkpt lat="42.788943" lon="12.5931158"><ele>619.0</ele><time>2026-05-03T09:58:18.285Z</time></trkpt><trkpt lat="42.7890508" lon="12.5930066"><ele>619.0</ele><time>2026-05-03T09:58:19.251Z</time></trkpt><trkpt lat="42.7891561" lon="12.5929096"><ele>619.0</ele><time>2026-05-03T09:58:20.276Z</time></trkpt><trkpt lat="42.7892592" lon="12.5928333"><ele>619.0</ele><time>2026-05-03T09:58:21.257Z</time></trkpt><trkpt lat="42.7893591" lon="12.592791"><ele>619.0</ele><time>2026-05-03T09:58:22.272Z</time></trkpt><trkpt lat="42.7894638" lon="12.5927844"><ele>623.4</ele><time>2026-05-03T09:58:23.274Z</time></trkpt><trkpt lat="42.7895746" lon="12.5927974"><ele>627.8</ele><time>2026-05-03T09:58:24.259Z</time></trkpt><trkpt lat="42.7896946" lon="12.5928193"><ele>632.1999999999999</ele><time>2026-05-03T09:58:25.28Z</time></trkpt><trkpt lat="42.7897976" lon="12.592825"><ele>636.5999999999999</ele><time>2026-05-03T09:58:26.265Z</time></trkpt><trkpt lat="42.7898931" lon="12.5928132"><ele>641.0</ele><time>2026-05-03T09:58:27.258Z</time></trkpt><trkpt lat="42.7899771" lon="12.5927863"><ele>641.0</ele><time>2026-05-03T09:58:28.264Z</time></trkpt><trkpt lat="42.7900482" lon="12.5927389"><ele>641.0</ele><time>2026-05-03T09:58:29.266Z</time></trkpt><trkpt lat="42.7900994" lon="12.5926861"><ele>641.0</ele><time>2026-05-03T09:58:30.27Z</time></trkpt><trkpt lat="42.7901336" lon="12.5925624"><ele>641.0</ele><time>2026-05-03T09:58:32.267Z</time></trkpt><trkpt lat="42.7900768" lon="12.5924601"><ele>641.0</ele><time>2026-05-03T09:58:34.259Z</time></trkpt><trkpt lat="42.7899713" lon="12.5924612"><ele>641.0</ele><time>2026-05-03T09:58:36.28Z</time></trkpt><trkpt lat="42.7898596" lon="12.5925375"><ele>641.0</ele><time>2026-05-03T09:58:38.269Z</time></trkpt><trkpt lat="42.7897844" lon="12.592562"><ele>641.0</ele><time>2026-05-03T09:58:39.252Z</time></trkpt><trkpt lat="42.7896848" lon="12.5925651"><ele>641.0</ele><time>2026-05-03T09:58:40.267Z</time></trkpt><trkpt lat="42.7895679" lon="12.5925296"><ele>641.0</ele><time>2026-05-03T09:58:41.272Z</time></trkpt><trkpt lat="42.7894448" lon="12.5924791"><ele>641.0</ele><time>2026-05-03T09:58:42.265Z</time></trkpt><trkpt lat="42.7893096" lon="12.592428"><ele>641.5999999999999</ele><time>2026-05-03T09:58:43.261Z</time></trkpt><trkpt lat="42.7891885" lon="12.5923834"><ele>642.2</ele><time>2026-05-03T09:58:44.272Z</time></trkpt><trkpt lat="42.7890818" lon="12.592347"><ele>642.8</ele><time>2026-05-03T09:58:45.257Z</time></trkpt><trkpt lat="42.7889942" lon="12.5923158"><ele>643.4000000000001</ele><time>2026-05-03T09:58:46.254Z</time></trkpt><trkpt lat="42.7889171" lon="12.5922731"><ele>644.0</ele><time>2026-05-03T09:58:47.255Z</time></trkpt><trkpt lat="42.7888573" lon="12.5922214"><ele>644.0</ele><time>2026-05-03T09:58:48.267Z</time></trkpt><trkpt lat="42.7888068" lon="12.592091"><ele>644.0</ele><time>2026-05-03T09:58:50.268Z</time></trkpt><trkpt lat="42.7888611" lon="12.5919643"><ele>644.0</ele><time>2026-05-03T09:58:52.26Z</time></trkpt><trkpt lat="42.7889775" lon="12.5919349"><ele>644.0</ele><time>2026-05-03T09:58:54.27Z</time></trkpt><trkpt lat="42.7890452" lon="12.5919459"><ele>644.0</ele><time>2026-05-03T09:58:55.277Z</time></trkpt><trkpt lat="42.789118" lon="12.5919666"><ele>643.5</ele><time>2026-05-03T09:58:56.261Z</time></trkpt><trkpt lat="42.7891988" lon="12.5919762"><ele>643.0</ele><time>2026-05-03T09:58:57.272Z</time></trkpt><trkpt lat="42.7892844" lon="12.5919793"><ele>642.5</ele><time>2026-05-03T09:58:58.271Z</time></trkpt><trkpt lat="42.7893743" lon="12.5919889"><ele>642.0</ele><time>2026-05-03T09:58:59.274Z</time></trkpt><trkpt lat="42.7894652" lon="12.5920029"><ele>641.5</ele><time>2026-05-03T09:59:00.282Z</time></trkpt><trkpt lat="42.7895516" lon="12.5920117"><ele>641.0</ele><time>2026-05-03T09:59:01.274Z</time></trkpt><trkpt lat="42.7896283" lon="12.5920167"><ele>644.8</ele><time>2026-05-03T09:59:02.282Z</time></trkpt><trkpt lat="42.7896949" lon="12.5920064"><ele>648.5999999999999</ele><time>2026-05-03T09:59:03.271Z</time></trkpt><trkpt lat="42.7897768" lon="12.5919123"><ele>652.4</ele><time>2026-05-03T09:59:05.288Z</time></trkpt><trkpt lat="42.7897584" lon="12.5917839"><ele>656.2</ele><time>2026-05-03T09:59:07.265Z</time></trkpt><trkpt lat="42.7896527" lon="12.5916916"><ele>660.0</ele><time>2026-05-03T09:59:09.274Z</time></trkpt><trkpt lat="42.7895669" lon="12.5916741"><ele>660.0</ele><time>2026-05-03T09:59:10.261Z</time></trkpt><trkpt lat="42.7894721" lon="12.5916724"><ele>660.0</ele><time>2026-05-03T09:59:11.257Z</time></trkpt><trkpt lat="42.7893618" lon="12.5916808"><ele>660.0</ele><time>2026-05-03T09:59:12.268Z</time></trkpt><trkpt lat="42.7892507" lon="12.591688"><ele>660.0</ele><time>2026-05-03T09:59:13.277Z</time></trkpt><trkpt lat="42.7891429" lon="12.5916776"><ele>660.0</ele><time>2026-05-03T09:59:14.265Z</time></trkpt><trkpt lat="42.7890423" lon="12.5916431"><ele>661.6</ele><time>2026-05-03T09:59:15.254Z</time></trkpt><trkpt lat="42.7889523" lon="12.5915933"><ele>663.2</ele><time>2026-05-03T09:59:16.27Z</time></trkpt><trkpt lat="42.7888785" lon="12.5915362"><ele>664.8</ele><time>2026-05-03T09:59:17.272Z</time></trkpt><trkpt lat="42.7888163" lon="12.5914822"><ele>666.4</ele><time>2026-05-03T09:59:18.27Z</time></trkpt><trkpt lat="42.7887509" lon="12.5913601"><ele>668.0</ele><time>2026-05-03T09:59:20.265Z</time></trkpt><trkpt lat="42.7887715" lon="12.5912462"><ele>668.0</ele><time>2026-05-03T09:59:22.25Z</time></trkpt><trkpt lat="42.7888821" lon="12.5912044"><ele>668.0</ele><time>2026-05-03T09:59:24.267Z</time></trkpt><trkpt lat="42.7890058" lon="12.5912854"><ele>668.0</ele><time>2026-05-03T09:59:26.256Z</time></trkpt><trkpt lat="42.7890726" lon="12.5913459"><ele>668.0</ele><time>2026-05-03T09:59:27.274Z</time></trkpt><trkpt lat="42.78914" lon="12.5913769"><ele>668.0</ele><time>2026-05-03T09:59:28.272Z</time></trkpt><trkpt lat="42.7892117" lon="12.5913571"><ele>668.0</ele><time>2026-05-03T09:59:29.274Z</time></trkpt><trkpt lat="42.78928" lon="12.5913015"><ele>668.0</ele><time>2026-05-03T09:59:30.271Z</time></trkpt><trkpt lat="42.7893418" lon="12.591217"><ele>668.0</ele><time>2026-05-03T09:59:31.265Z</time></trkpt><trkpt lat="42.7894012" lon="12.5911048"><ele>668.0</ele><time>2026-05-03T09:59:32.264Z</time></trkpt><trkpt lat="42.7894555" lon="12.5909819"><ele>668.0</ele><time>2026-05-03T09:59:33.273Z</time></trkpt><trkpt lat="42.7895107" lon="12.5908516"><ele>670.5</ele><time>2026-05-03T09:59:34.274Z</time></trkpt><trkpt lat="42.7895668" lon="12.5907201"><ele>673.0</ele><time>2026-05-03T09:59:35.274Z</time></trkpt><trkpt lat="42.7896066" lon="12.5905713"><ele>675.5</ele><time>2026-05-03T09:59:36.259Z</time></trkpt><trkpt lat="42.7896282" lon="12.5904036"><ele>678.0</ele><time>2026-05-03T09:59:37.257Z</time></trkpt><trkpt lat="42.7896365" lon="12.5902221"><ele>681.2</ele><time>2026-05-03T09:59:38.253Z</time></trkpt><trkpt lat="42.7896405" lon="12.5900515"><ele>684.4</ele><time>2026-05-03T09:59:39.278Z</time></trkpt><trkpt lat="42.7896465" lon="12.5899003"><ele>687.6</ele><time>2026-05-03T09:59:40.267Z</time></trkpt><trkpt lat="42.789652" lon="12.5897629"><ele>690.8000000000001</ele><time>2026-05-03T09:59:41.257Z</time></trkpt><trkpt lat="42.7896672" lon="12.589657"><ele>694.0</ele><time>2026-05-03T09:59:42.269Z</time></trkpt><trkpt lat="42.7897022" lon="12.5895774"><ele>694.0</ele><time>2026-05-03T09:59:43.269Z</time></trkpt><trkpt lat="42.7897587" lon="12.5895178"><ele>694.0</ele><time>2026-05-03T09:59:44.252Z</time></trkpt><trkpt lat="42.7898304" lon="12.5895022"><ele>694.0</ele><time>2026-05-03T09:59:45.261Z</time></trkpt><trkpt lat="42.7899171" lon="12.5895244"><ele>694.0</ele><time>2026-05-03T09:59:46.267Z</time></trkpt><trkpt lat="42.7900156" lon="12.5895746"><ele>694.0</ele><time>2026-05-03T09:59:47.258Z</time></trkpt><trkpt lat="42.7901072" lon="12.5896414"><ele>694.0</ele><time>2026-05-03T09:59:48.262Z</time></trkpt><trkpt lat="42.7901779" lon="12.5897233"><ele>695.0</ele><time>2026-05-03T09:59:49.274Z</time></trkpt><trkpt lat="42.7902544" lon="12.5897896"><ele>696.0</ele><time>2026-05-03T09:59:50.27Z</time></trkpt><trkpt lat="42.7903419" lon="12.5898371"><ele>697.0</ele><time>2026-05-03T09:59:51.264Z</time></trkpt><trkpt lat="42.790431" lon="12.5898717"><ele>698.0</ele><time>2026-05-03T09:59:52.272Z</time></trkpt><trkpt lat="42.7905232" lon="12.5898819"><ele>699.0</ele><time>2026-05-03T09:59:53.265Z</time></trkpt><trkpt lat="42.7906245" lon="12.5898665"><ele>699.0</ele><time>2026-05-03T09:59:54.266Z</time></trkpt><trkpt lat="42.7907304" lon="12.5898485"><ele>699.0</ele><time>2026-05-03T09:59:55.271Z</time></trkpt><trkpt lat="42.790839" lon="12.5898162"><ele>699.0</ele><time>2026-05-03T09:59:56.266Z</time></trkpt><trkpt lat="42.7909556" lon="12.589774"><ele>699.0</ele><time>2026-05-03T09:59:57.258Z</time></trkpt><trkpt lat="42.791078" lon="12.5897092"><ele>698.5</ele><time>2026-05-03T09:59:58.277Z</time></trkpt><trkpt lat="42.7912088" lon="12.5896202"><ele>698.0</ele><time>2026-05-03T09:59:59.265Z</time></trkpt><trkpt lat="42.791349" lon="12.5895257"><ele>697.5</ele><time>2026-05-03T10:00:00.267Z</time></trkpt><trkpt lat="42.7914783" lon="12.5894357"><ele>697.0</ele><time>2026-05-03T10:00:01.255Z</time></trkpt><trkpt lat="42.7915871" lon="12.5893534"><ele>698.0</ele><time>2026-05-03T10:00:02.274Z</time></trkpt><trkpt lat="42.7916946" lon="12.5892673"><ele>699.0</ele><time>2026-05-03T10:00:03.283Z</time></trkpt><trkpt lat="42.7918038" lon="12.5891711"><ele>700.0</ele><time>2026-05-03T10:00:04.283Z</time></trkpt><trkpt lat="42.7919117" lon="12.5890678"><ele>701.0</ele><time>2026-05-03T10:00:05.272Z</time></trkpt><trkpt lat="42.7920145" lon="12.5889546"><ele>701.0</ele><time>2026-05-03T10:00:06.275Z</time></trkpt><trkpt lat="42.7921187" lon="12.588828"><ele>701.0</ele><time>2026-05-03T10:00:07.28Z</time></trkpt><trkpt lat="42.7922193" lon="12.5886832"><ele>701.0</ele><time>2026-05-03T10:00:08.279Z</time></trkpt><trkpt lat="42.7923191" lon="12.5885342"><ele>701.0</ele><time>2026-05-03T10:00:09.267Z</time></trkpt><trkpt lat="42.7924165" lon="12.5883844"><ele>703.25</ele><time>2026-05-03T10:00:10.284Z</time></trkpt><trkpt lat="42.7925147" lon="12.5882431"><ele>705.5</ele><time>2026-05-03T10:00:11.269Z</time></trkpt><trkpt lat="42.7926092" lon="12.5881149"><ele>707.75</ele><time>2026-05-03T10:00:12.265Z</time></trkpt><trkpt lat="42.7927012" lon="12.5879995"><ele>710.0</ele><time>2026-05-03T10:00:13.272Z</time></trkpt><trkpt lat="42.7928008" lon="12.5878864"><ele>716.5</ele><time>2026-05-03T10:00:14.253Z</time></trkpt><trkpt lat="42.7929001" lon="12.5878133"><ele>723.0</ele><time>2026-05-03T10:00:15.265Z</time></trkpt><trkpt lat="42.7930089" lon="12.5877802"><ele>729.5</ele><time>2026-05-03T10:00:16.269Z</time></trkpt><trkpt lat="42.7931358" lon="12.5877585"><ele>736.0</ele><time>2026-05-03T10:00:17.266Z</time></trkpt><trkpt lat="42.7932677" lon="12.5877578"><ele>736.0</ele><time>2026-05-03T10:00:18.283Z</time></trkpt><trkpt lat="42.7934017" lon="12.5877367"><ele>736.0</ele><time>2026-05-03T10:00:19.259Z</time></trkpt><trkpt lat="42.7935259" lon="12.587685"><ele>736.0</ele><time>2026-05-03T10:00:20.27Z</time></trkpt><trkpt lat="42.7936475" lon="12.5876216"><ele>736.0</ele><time>2026-05-03T10:00:21.282Z</time></trkpt><trkpt lat="42.7937588" lon="12.5875451"><ele>733.8333333333334</ele><time>2026-05-03T10:00:22.262Z</time></trkpt><trkpt lat="42.793855" lon="12.5874779"><ele>731.6666666666667</ele><time>2026-05-03T10:00:23.256Z</time></trkpt><trkpt lat="42.7939378" lon="12.5874232"><ele>729.5</ele><time>2026-05-03T10:00:24.282Z</time></trkpt><trkpt lat="42.7940081" lon="12.5873702"><ele>727.3333333333334</ele><time>2026-05-03T10:00:25.271Z</time></trkpt><trkpt lat="42.7940607" lon="12.5873158"><ele>725.1666666666666</ele><time>2026-05-03T10:00:26.269Z</time></trkpt><trkpt lat="42.7940983" lon="12.5871933"><ele>723.0</ele><time>2026-05-03T10:00:28.256Z</time></trkpt><trkpt lat="42.7940195" lon="12.5871063"><ele>723.0</ele><time>2026-05-03T10:00:30.264Z</time></trkpt><trkpt lat="42.7939458" lon="12.5871051"><ele>723.0</ele><time>2026-05-03T10:00:31.251Z</time></trkpt><trkpt lat="42.7938623" lon="12.5871368"><ele>723.0</ele><time>2026-05-03T10:00:32.262Z</time></trkpt><trkpt lat="42.7937745" lon="12.5871799"><ele>723.0</ele><time>2026-05-03T10:00:33.271Z</time></trkpt><trkpt lat="42.7936677" lon="12.5872247"><ele>723.0</ele><time>2026-05-03T10:00:34.268Z</time></trkpt><trkpt lat="42.7935434" lon="12.5872673"><ele>726.25</ele><time>2026-05-03T10:00:35.29Z</time></trkpt><trkpt lat="42.7934061" lon="12.5872985"><ele>729.5</ele><time>2026-05-03T10:00:36.268Z</time></trkpt><trkpt lat="42.7932686" lon="12.5873087"><ele>732.75</ele><time>2026-05-03T10:00:37.284Z</time></trkpt><trkpt lat="42.7931491" lon="12.5873031"><ele>736.0</ele><time>2026-05-03T10:00:38.266Z</time></trkpt><trkpt lat="42.7930335" lon="12.5872586"><ele>736.0</ele><time>2026-05-03T10:00:39.257Z</time></trkpt><trkpt lat="42.7929172" lon="12.5871933"><ele>736.0</ele><time>2026-05-03T10:00:40.296Z</time></trkpt><trkpt lat="42.7928159" lon="12.5871424"><ele>736.0</ele><time>2026-05-03T10:00:41.264Z</time></trkpt><trkpt lat="42.7927285" lon="12.5871341"><ele>736.0</ele><time>2026-05-03T10:00:42.26Z</time></trkpt><trkpt lat="42.7926502" lon="12.5871659"><ele>736.0</ele><time>2026-05-03T10:00:43.265Z</time></trkpt><trkpt lat="42.7925757" lon="12.587229"><ele>738.25</ele><time>2026-05-03T10:00:44.255Z</time></trkpt><trkpt lat="42.7925008" lon="12.5873145"><ele>740.5</ele><time>2026-05-03T10:00:45.284Z</time></trkpt><trkpt lat="42.7924191" lon="12.5873949"><ele>742.75</ele><time>2026-05-03T10:00:46.27Z</time></trkpt><trkpt lat="42.7923131" lon="12.5874555"><ele>745.0</ele><time>2026-05-03T10:00:47.267Z</time></trkpt><trkpt lat="42.7921799" lon="12.5874948"><ele>745.0</ele><time>2026-05-03T10:00:48.262Z</time></trkpt><trkpt lat="42.7920254" lon="12.5875241"><ele>745.0</ele><time>2026-05-03T10:00:49.268Z</time></trkpt><trkpt lat="42.7918569" lon="12.5875457"><ele>745.0</ele><time>2026-05-03T10:00:50.267Z</time></trkpt><trkpt lat="42.7916744" lon="12.5875544"><ele>748.75</ele><time>2026-05-03T10:00:51.258Z</time></trkpt><trkpt lat="42.7915103" lon="12.5875706"><ele>752.5</ele><time>2026-05-03T10:00:52.253Z</time></trkpt><trkpt lat="42.7913658" lon="12.5876011"><ele>756.25</ele><time>2026-05-03T10:00:53.266Z</time></trkpt><trkpt lat="42.7912391" lon="12.5876514"><ele>760.0</ele><time>2026-05-03T10:00:54.262Z</time></trkpt><trkpt lat="42.7911131" lon="12.5876914"><ele>762.25</ele><time>2026-05-03T10:00:55.263Z</time></trkpt><trkpt lat="42.7909959" lon="12.5877117"><ele>764.5</ele><time>2026-05-03T10:00:56.269Z</time></trkpt><trkpt lat="42.7908775" lon="12.5877089"><ele>766.75</ele><time>2026-05-03T10:00:57.263Z</time></trkpt><trkpt lat="42.7907493" lon="12.5876833"><ele>769.0</ele><time>2026-05-03T10:00:58.265Z</time></trkpt><trkpt lat="42.7906184" lon="12.5876414"><ele>769.0</ele><time>2026-05-03T10:00:59.274Z</time></trkpt><trkpt lat="42.790482" lon="12.5875796"><ele>769.0</ele><time>2026-05-03T10:01:00.281Z</time></trkpt><trkpt lat="42.7903389" lon="12.5874965"><ele>769.0</ele><time>2026-05-03T10:01:01.281Z</time></trkpt><trkpt lat="42.790199" lon="12.5874052"><ele>767.6666666666666</ele><time>2026-05-03T10:01:02.267Z</time></trkpt><trkpt lat="42.7900605" lon="12.5873228"><ele>766.3333333333333</ele><time>2026-05-03T10:01:03.258Z</time></trkpt><trkpt lat="42.7899209" lon="12.5872612"><ele>765.0</ele><time>2026-05-03T10:01:04.267Z</time></trkpt><trkpt lat="42.7897693" lon="12.5872175"><ele>765.0</ele><time>2026-05-03T10:01:05.266Z</time></trkpt><trkpt lat="42.7896231" lon="12.5871982"><ele>765.0</ele><time>2026-05-03T10:01:06.254Z</time></trkpt><trkpt lat="42.7894914" lon="12.5871893"><ele>765.0</ele><time>2026-05-03T10:01:07.275Z</time></trkpt><trkpt lat="42.789387" lon="12.5871937"><ele>765.0</ele><time>2026-05-03T10:01:08.289Z</time></trkpt><trkpt lat="42.78931" lon="12.5871977"><ele>764.6</ele><time>2026-05-03T10:01:09.274Z</time></trkpt><trkpt lat="42.7892429" lon="12.5872035"><ele>764.2</ele><time>2026-05-03T10:01:10.264Z</time></trkpt><trkpt lat="42.7891348" lon="12.5871627"><ele>763.8</ele><time>2026-05-03T10:01:12.263Z</time></trkpt><trkpt lat="42.789114" lon="12.5870461"><ele>763.4</ele><time>2026-05-03T10:01:14.262Z</time></trkpt><trkpt lat="42.7892061" lon="12.5869548"><ele>763.0</ele><time>2026-05-03T10:01:16.268Z</time></trkpt><trkpt lat="42.7892762" lon="12.586941"><ele>769.25</ele><time>2026-05-03T10:01:17.261Z</time></trkpt><trkpt lat="42.789361" lon="12.5869478"><ele>775.5</ele><time>2026-05-03T10:01:18.259Z</time></trkpt><trkpt lat="42.7894718" lon="12.5869528"><ele>781.75</ele><time>2026-05-03T10:01:19.255Z</time></trkpt><trkpt lat="42.7896022" lon="12.5869597"><ele>788.0</ele><time>2026-05-03T10:01:20.268Z</time></trkpt><trkpt lat="42.7897328" lon="12.5869623"><ele>788.0</ele><time>2026-05-03T10:01:21.278Z</time></trkpt><trkpt lat="42.7898599" lon="12.5869662"><ele>788.0</ele><time>2026-05-03T10:01:22.278Z</time></trkpt><trkpt lat="42.7899798" lon="12.5869677"><ele>788.0</ele><time>2026-05-03T10:01:23.263Z</time></trkpt><trkpt lat="42.7900997" lon="12.5869552"><ele>788.0</ele><time>2026-05-03T10:01:24.261Z</time></trkpt><trkpt lat="42.7902228" lon="12.586931"><ele>789.0</ele><time>2026-05-03T10:01:25.273Z</time></trkpt><trkpt lat="42.7903485" lon="12.5869011"><ele>790.0</ele><time>2026-05-03T10:01:26.267Z</time></trkpt><trkpt lat="42.7904797" lon="12.5868572"><ele>791.0</ele><time>2026-05-03T10:01:27.265Z</time></trkpt><trkpt lat="42.7906121" lon="12.5867894"><ele>792.0</ele><time>2026-05-03T10:01:28.278Z</time></trkpt><trkpt lat="42.7907438" lon="12.5867032"><ele>792.0</ele><time>2026-05-03T10:01:29.26Z</time></trkpt><trkpt lat="42.790884" lon="12.5866086"><ele>792.0</ele><time>2026-05-03T10:01:30.266Z</time></trkpt><trkpt lat="42.7910288" lon="12.586515"><ele>792.0</ele><time>2026-05-03T10:01:31.259Z</time></trkpt><trkpt lat="42.7911712" lon="12.5864225"><ele>790.6666666666667</ele><time>2026-05-03T10:01:32.264Z</time></trkpt><trkpt lat="42.7913155" lon="12.5863574"><ele>789.3333333333334</ele><time>2026-05-03T10:01:33.282Z</time></trkpt><trkpt lat="42.7914645" lon="12.5863076"><ele>788.0</ele><time>2026-05-03T10:01:34.268Z</time></trkpt><trkpt lat="42.7916104" lon="12.5862636"><ele>788.0</ele><time>2026-05-03T10:01:35.264Z</time></trkpt><trkpt lat="42.7917444" lon="12.5862176"><ele>788.0</ele><time>2026-05-03T10:01:36.262Z</time></trkpt><trkpt lat="42.7918685" lon="12.5861708"><ele>788.0</ele><time>2026-05-03T10:01:37.259Z</time></trkpt><trkpt lat="42.7919886" lon="12.5861136"><ele>788.0</ele><time>2026-05-03T10:01:38.266Z</time></trkpt><trkpt lat="42.7921061" lon="12.5860371"><ele>790.5999999999999</ele><time>2026-05-03T10:01:39.251Z</time></trkpt><trkpt lat="42.7922122" lon="12.585953"><ele>793.1999999999999</ele><time>2026-05-03T10:01:40.277Z</time></trkpt><trkpt lat="42.7922996" lon="12.5858693"><ele>795.8</ele><time>2026-05-03T10:01:41.266Z</time></trkpt><trkpt lat="42.7923734" lon="12.5858001"><ele>798.4</ele><time>2026-05-03T10:01:42.264Z</time></trkpt><trkpt lat="42.7924334" lon="12.5857429"><ele>801.0</ele><time>2026-05-03T10:01:43.277Z</time></trkpt><trkpt lat="42.7925008" lon="12.5856261"><ele>801.0</ele><time>2026-05-03T10:01:45.271Z</time></trkpt><trkpt lat="42.7924756" lon="12.5855145"><ele>801.0</ele><time>2026-05-03T10:01:47.26Z</time></trkpt><trkpt lat="42.7923692" lon="12.5854861"><ele>801.0</ele><time>2026-05-03T10:01:49.258Z</time></trkpt><trkpt lat="42.792295" lon="12.5855253"><ele>801.0</ele><time>2026-05-03T10:01:50.266Z</time></trkpt><trkpt lat="42.7922155" lon="12.5855887"><ele>801.0</ele><time>2026-05-03T10:01:51.255Z</time></trkpt><trkpt lat="42.7921185" lon="12.5856611"><ele>801.0</ele><time>2026-05-03T10:01:52.283Z</time></trkpt><trkpt lat="42.7920023" lon="12.5857213"><ele>801.0</ele><time>2026-05-03T10:01:53.267Z</time></trkpt><trkpt lat="42.791869" lon="12.5857564"><ele>801.0</ele><time>2026-05-03T10:01:54.261Z</time></trkpt><trkpt lat="42.7917293" lon="12.5857674"><ele>801.0</ele><time>2026-05-03T10:01:55.28Z</time></trkpt><trkpt lat="42.7915798" lon="12.5857569"><ele>804.25</ele><time>2026-05-03T10:01:56.263Z</time></trkpt><trkpt lat="42.7914357" lon="12.5857353"><ele>807.5</ele><time>2026-05-03T10:01:57.274Z</time></trkpt><trkpt lat="42.7913009" lon="12.5857014"><ele>810.75</ele><time>2026-05-03T10:01:58.266Z</time></trkpt><trkpt lat="42.7911707" lon="12.5856578"><ele>814.0</ele><time>2026-05-03T10:01:59.258Z</time></trkpt><trkpt lat="42.7910404" lon="12.5856025"><ele>814.0</ele><time>2026-05-03T10:02:00.251Z</time></trkpt><trkpt lat="42.7909093" lon="12.5855227"><ele>814.0</ele><time>2026-05-03T10:02:01.262Z</time></trkpt><trkpt lat="42.7907667" lon="12.5854215"><ele>814.0</ele><time>2026-05-03T10:02:02.266Z</time></trkpt><trkpt lat="42.7906289" lon="12.5853171"><ele>821.25</ele><time>2026-05-03T10:02:03.261Z</time></trkpt><trkpt lat="42.7905025" lon="12.5852176"><ele>828.5</ele><time>2026-05-03T10:02:04.253Z</time></trkpt><trkpt lat="42.790404" lon="12.5851359"><ele>835.75</ele><time>2026-05-03T10:02:05.265Z</time></trkpt><trkpt lat="42.7903099" lon="12.5850668"><ele>843.0</ele><time>2026-05-03T10:02:06.276Z</time></trkpt><trkpt lat="42.7902008" lon="12.5850254"><ele>841.4</ele><time>2026-05-03T10:02:07.282Z</time></trkpt><trkpt lat="42.7900686" lon="12.5850027"><ele>839.8</ele><time>2026-05-03T10:02:08.264Z</time></trkpt><trkpt lat="42.7899498" lon="12.5850045"><ele>838.2</ele><time>2026-05-03T10:02:09.283Z</time></trkpt><trkpt lat="42.7898477" lon="12.5850151"><ele>836.6</ele><time>2026-05-03T10:02:10.26Z</time></trkpt><trkpt lat="42.7897726" lon="12.5850073"><ele>835.0</ele><time>2026-05-03T10:02:11.277Z</time></trkpt><trkpt lat="42.7896845" lon="12.5849552"><ele>835.0</ele><time>2026-05-03T10:02:13.261Z</time></trkpt><trkpt lat="42.7896952" lon="12.5848405"><ele>835.0</ele><time>2026-05-03T10:02:15.273Z</time></trkpt><trkpt lat="42.7898182" lon="12.5847768"><ele>835.0</ele><time>2026-05-03T10:02:17.265Z</time></trkpt><trkpt lat="42.7899215" lon="12.5847662"><ele>835.0</ele><time>2026-05-03T10:02:18.282Z</time></trkpt><trkpt lat="42.7900443" lon="12.5847597"><ele>835.0</ele><time>2026-05-03T10:02:19.261Z</time></trkpt><trkpt lat="42.7901754" lon="12.5847613"><ele>837.6666666666666</ele><time>2026-05-03T10:02:20.282Z</time></trkpt><trkpt lat="42.7903246" lon="12.5847775"><ele>840.3333333333333</ele><time>2026-05-03T10:02:21.277Z</time></trkpt><trkpt lat="42.7904776" lon="12.5848221"><ele>843.0</ele><time>2026-05-03T10:02:22.256Z</time></trkpt><trkpt lat="42.7906309" lon="12.5848625"><ele>843.0</ele><time>2026-05-03T10:02:23.271Z</time></trkpt><trkpt lat="42.7907781" lon="12.5848919"><ele>843.0</ele><time>2026-05-03T10:02:24.259Z</time></trkpt><trkpt lat="42.7909164" lon="12.5849081"><ele>843.0</ele><time>2026-05-03T10:02:25.265Z</time></trkpt><trkpt lat="42.7910523" lon="12.5849141"><ele>843.0</ele><time>2026-05-03T10:02:26.251Z</time></trkpt><trkpt lat="42.7911889" lon="12.5849106"><ele>843.25</ele><time>2026-05-03T10:02:27.259Z</time></trkpt><trkpt lat="42.7913217" lon="12.5848957"><ele>843.5</ele><time>2026-05-03T10:02:28.276Z</time></trkpt><trkpt lat="42.7914484" lon="12.5848641"><ele>843.75</ele><time>2026-05-03T10:02:29.294Z</time></trkpt><trkpt lat="42.7915642" lon="12.5848143"><ele>844.0</ele><time>2026-05-03T10:02:30.29Z</time></trkpt><trkpt lat="42.7916737" lon="12.5847397"><ele>844.0</ele><time>2026-05-03T10:02:31.273Z</time></trkpt><trkpt lat="42.7917738" lon="12.5846524"><ele>844.0</ele><time>2026-05-03T10:02:32.272Z</time></trkpt><trkpt lat="42.7918526" lon="12.584544"><ele>844.0</ele><time>2026-05-03T10:02:33.282Z</time></trkpt><trkpt lat="42.7919167" lon="12.5844173"><ele>844.0</ele><time>2026-05-03T10:02:34.26Z</time></trkpt><trkpt lat="42.7919669" lon="12.5842767"><ele>841.75</ele><time>2026-05-03T10:02:35.27Z</time></trkpt><trkpt lat="42.7920114" lon="12.5841187"><ele>839.5</ele><time>2026-05-03T10:02:36.261Z</time></trkpt><trkpt lat="42.792055" lon="12.5839605"><ele>837.25</ele><time>2026-05-03T10:02:37.268Z</time></trkpt><trkpt lat="42.7921071" lon="12.5838015"><ele>835.0</ele><time>2026-05-03T10:02:38.261Z</time></trkpt><trkpt lat="42.792175" lon="12.5836429"><ele>842.25</ele><time>2026-05-03T10:02:39.265Z</time></trkpt><trkpt lat="42.7922556" lon="12.58349"><ele>849.5</ele><time>2026-05-03T10:02:40.285Z</time></trkpt><trkpt lat="42.7923383" lon="12.583345"><ele>856.75</ele><time>2026-05-03T10:02:41.278Z</time></trkpt><trkpt lat="42.7924236" lon="12.5831953"><ele>864.0</ele><time>2026-05-03T10:02:42.276Z</time></trkpt><trkpt lat="42.7925033" lon="12.5830421"><ele>864.0</ele><time>2026-05-03T10:02:43.267Z</time></trkpt><trkpt lat="42.7925808" lon="12.5828985"><ele>864.0</ele><time>2026-05-03T10:02:44.271Z</time></trkpt><trkpt lat="42.7926697" lon="12.5827664"><ele>864.0</ele><time>2026-05-03T10:02:45.264Z</time></trkpt><trkpt lat="42.7927732" lon="12.5826629"><ele>864.0</ele><time>2026-05-03T10:02:46.268Z</time></trkpt><trkpt lat="42.7928792" lon="12.5825488"><ele>866.0</ele><time>2026-05-03T10:02:47.269Z</time></trkpt><trkpt lat="42.793008" lon="12.5824415"><ele>868.0</ele><time>2026-05-03T10:02:48.289Z</time></trkpt><trkpt lat="42.7931462" lon="12.5823356"><ele>870.0</ele><time>2026-05-03T10:02:49.256Z</time></trkpt><trkpt lat="42.7932866" lon="12.5822391"><ele>870.0</ele><time>2026-05-03T10:02:50.258Z</time></trkpt><trkpt lat="42.7934205" lon="12.582152"><ele>870.0</ele><time>2026-05-03T10:02:51.268Z</time></trkpt><trkpt lat="42.793538" lon="12.5820666"><ele>870.0</ele><time>2026-05-03T10:02:52.264Z</time></trkpt><trkpt lat="42.7936477" lon="12.5819931"><ele>870.0</ele><time>2026-05-03T10:02:53.279Z</time></trkpt><trkpt lat="42.7937592" lon="12.5819329"><ele>875.75</ele><time>2026-05-03T10:02:54.263Z</time></trkpt><trkpt lat="42.7938772" lon="12.5818908"><ele>881.5</ele><time>2026-05-03T10:02:55.266Z</time></trkpt><trkpt lat="42.7939998" lon="12.5818702"><ele>887.25</ele><time>2026-05-03T10:02:56.274Z</time></trkpt><trkpt lat="42.7941205" lon="12.5818671"><ele>893.0</ele><time>2026-05-03T10:02:57.274Z</time></trkpt><trkpt lat="42.7942353" lon="12.5818656"><ele>892.0</ele><time>2026-05-03T10:02:58.279Z</time></trkpt><trkpt lat="42.7943442" lon="12.5818461"><ele>891.0</ele><time>2026-05-03T10:02:59.26Z</time></trkpt><trkpt lat="42.7944561" lon="12.5818002"><ele>890.0</ele><time>2026-05-03T10:03:00.262Z</time></trkpt><trkpt lat="42.7945725" lon="12.5817361"><ele>889.0</ele><time>2026-05-03T10:03:01.252Z</time></trkpt><trkpt lat="42.7946931" lon="12.5816577"><ele>889.0</ele><time>2026-05-03T10:03:02.274Z</time></trkpt><trkpt lat="42.7948134" lon="12.5815817"><ele>889.0000000000001</ele><time>2026-05-03T10:03:03.273Z</time></trkpt><trkpt lat="42.7949141" lon="12.5815134"><ele>889.0000000000001</ele><time>2026-05-03T10:03:04.257Z</time></trkpt><trkpt lat="42.7950047" lon="12.5814481"><ele>889.0</ele><time>2026-05-03T10:03:05.273Z</time></trkpt><trkpt lat="42.7950819" lon="12.5813737"><ele>889.0</ele><time>2026-05-03T10:03:06.275Z</time></trkpt><trkpt lat="42.79514" lon="12.5812861"><ele>889.8000000000001</ele><time>2026-05-03T10:03:07.251Z</time></trkpt><trkpt lat="42.7951854" lon="12.5811783"><ele>890.6000000000001</ele><time>2026-05-03T10:03:08.28Z</time></trkpt><trkpt lat="42.7952204" lon="12.5810609"><ele>891.4</ele><time>2026-05-03T10:03:09.289Z</time></trkpt><trkpt lat="42.7952545" lon="12.5809251"><ele>892.2</ele><time>2026-05-03T10:03:10.271Z</time></trkpt><trkpt lat="42.7952893" lon="12.5807731"><ele>893.0</ele><time>2026-05-03T10:03:11.276Z</time></trkpt><trkpt lat="42.7953254" lon="12.5806154"><ele>893.0</ele><time>2026-05-03T10:03:12.28Z</time></trkpt><trkpt lat="42.795356" lon="12.5804649"><ele>893.0</ele><time>2026-05-03T10:03:13.274Z</time></trkpt><trkpt lat="42.7953693" lon="12.5803145"><ele>893.0</ele><time>2026-05-03T10:03:14.269Z</time></trkpt><trkpt lat="42.7953724" lon="12.5801679"><ele>893.0</ele><time>2026-05-03T10:03:15.27Z</time></trkpt><trkpt lat="42.795369" lon="12.5800115"><ele>893.0</ele><time>2026-05-03T10:03:16.275Z</time></trkpt><trkpt lat="42.795357" lon="12.5798546"><ele>896.75</ele><time>2026-05-03T10:03:17.28Z</time></trkpt><trkpt lat="42.7953356" lon="12.5796943"><ele>900.5</ele><time>2026-05-03T10:03:18.263Z</time></trkpt><trkpt lat="42.7953037" lon="12.5795312"><ele>904.25</ele><time>2026-05-03T10:03:19.271Z</time></trkpt><trkpt lat="42.7952662" lon="12.5793621"><ele>908.0</ele><time>2026-05-03T10:03:20.275Z</time></trkpt><trkpt lat="42.7952319" lon="12.5791932"><ele>910.75</ele><time>2026-05-03T10:03:21.272Z</time></trkpt><trkpt lat="42.7951981" lon="12.5790235"><ele>913.5</ele><time>2026-05-03T10:03:22.275Z</time></trkpt><trkpt lat="42.7951691" lon="12.5788571"><ele>916.25</ele><time>2026-05-03T10:03:23.268Z</time></trkpt><trkpt lat="42.7951428" lon="12.5786955"><ele>919.0</ele><time>2026-05-03T10:03:24.264Z</time></trkpt><trkpt lat="42.7951233" lon="12.5785531"><ele>918.9999999999999</ele><time>2026-05-03T10:03:25.272Z</time></trkpt><trkpt lat="42.7951102" lon="12.5784274"><ele>919.0</ele><time>2026-05-03T10:03:26.262Z</time></trkpt><trkpt lat="42.7951013" lon="12.578315"><ele>919.0</ele><time>2026-05-03T10:03:27.266Z</time></trkpt><trkpt lat="42.7951027" lon="12.5782155"><ele>919.0</ele><time>2026-05-03T10:03:28.262Z</time></trkpt><trkpt lat="42.7951243" lon="12.5780583"><ele>918.9999999999999</ele><time>2026-05-03T10:03:30.261Z</time></trkpt><trkpt lat="42.7951581" lon="12.5779731"><ele>919.0</ele><time>2026-05-03T10:03:31.27Z</time></trkpt><trkpt lat="42.7952011" lon="12.5778808"><ele>921.4000000000001</ele><time>2026-05-03T10:03:32.272Z</time></trkpt><trkpt lat="42.7952528" lon="12.577778"><ele>923.8000000000001</ele><time>2026-05-03T10:03:33.253Z</time></trkpt><trkpt lat="42.7953125" lon="12.57766"><ele>926.1999999999999</ele><time>2026-05-03T10:03:34.27Z</time></trkpt><trkpt lat="42.7953779" lon="12.5775381"><ele>928.5999999999999</ele><time>2026-05-03T10:03:35.253Z</time></trkpt><trkpt lat="42.7954392" lon="12.5774299"><ele>931.0</ele><time>2026-05-03T10:03:36.263Z</time></trkpt><trkpt lat="42.7954964" lon="12.5773418"><ele>930.9999999999999</ele><time>2026-05-03T10:03:37.262Z</time></trkpt><trkpt lat="42.7955477" lon="12.5772698"><ele>931.0</ele><time>2026-05-03T10:03:38.275Z</time></trkpt><trkpt lat="42.7956054" lon="12.5772242"><ele>931.0</ele><time>2026-05-03T10:03:39.26Z</time></trkpt><trkpt lat="42.79573" lon="12.5772192"><ele>931.0</ele><time>2026-05-03T10:03:41.281Z</time></trkpt><trkpt lat="42.795794" lon="12.5772798"><ele>930.9999999999999</ele><time>2026-05-03T10:03:42.28Z</time></trkpt><trkpt lat="42.7958296" lon="12.5773793"><ele>931.0</ele><time>2026-05-03T10:03:43.279Z</time></trkpt><trkpt lat="42.7958529" lon="12.577505"><ele>931.0</ele><time>2026-05-03T10:03:44.291Z</time></trkpt><trkpt lat="42.7958582" lon="12.5776536"><ele>931.0</ele><time>2026-05-03T10:03:45.279Z</time></trkpt><trkpt lat="42.7958584" lon="12.5778149"><ele>931.0</ele><time>2026-05-03T10:03:46.259Z</time></trkpt><trkpt lat="42.7958637" lon="12.5779751"><ele>931.0</ele><time>2026-05-03T10:03:47.263Z</time></trkpt><trkpt lat="42.795876" lon="12.5781318"><ele>930.0</ele><time>2026-05-03T10:03:48.257Z</time></trkpt><trkpt lat="42.7958898" lon="12.5782654"><ele>928.9999999999999</ele><time>2026-05-03T10:03:49.275Z</time></trkpt><trkpt lat="42.7959089" lon="12.5783888"><ele>927.9999999999999</ele><time>2026-05-03T10:03:50.246Z</time></trkpt><trkpt lat="42.7959454" lon="12.5785056"><ele>927.0</ele><time>2026-05-03T10:03:51.282Z</time></trkpt><trkpt lat="42.795994" lon="12.5786284"><ele>926.0</ele><time>2026-05-03T10:03:52.273Z</time></trkpt><trkpt lat="42.7960566" lon="12.5787557"><ele>930.25</ele><time>2026-05-03T10:03:53.266Z</time></trkpt><trkpt lat="42.7961291" lon="12.5788949"><ele>934.5</ele><time>2026-05-03T10:03:54.261Z</time></trkpt><trkpt lat="42.7961998" lon="12.5790448"><ele>938.75</ele><time>2026-05-03T10:03:55.287Z</time></trkpt><trkpt lat="42.7962741" lon="12.5791878"><ele>943.0</ele><time>2026-05-03T10:03:56.266Z</time></trkpt><trkpt lat="42.7963407" lon="12.5793123"><ele>942.9999999999999</ele><time>2026-05-03T10:03:57.275Z</time></trkpt><trkpt lat="42.7963992" lon="12.5794241"><ele>943.0</ele><time>2026-05-03T10:03:58.267Z</time></trkpt><trkpt lat="42.7964512" lon="12.5795184"><ele>943.0</ele><time>2026-05-03T10:03:59.264Z</time></trkpt><trkpt lat="42.7965066" lon="12.5795946"><ele>943.0</ele><time>2026-05-03T10:04:00.276Z</time></trkpt><trkpt lat="42.7965717" lon="12.5796512"><ele>942.9999999999999</ele><time>2026-05-03T10:04:01.269Z</time></trkpt><trkpt lat="42.7966441" lon="12.5796853"><ele>943.0</ele><time>2026-05-03T10:04:02.269Z</time></trkpt><trkpt lat="42.796717" lon="12.5796772"><ele>945.2</ele><time>2026-05-03T10:04:03.263Z</time></trkpt><trkpt lat="42.7968047" lon="12.5796504"><ele>947.4</ele><time>2026-05-03T10:04:04.257Z</time></trkpt><trkpt lat="42.7968994" lon="12.579599"><ele>949.6000000000001</ele><time>2026-05-03T10:04:05.289Z</time></trkpt><trkpt lat="42.7970024" lon="12.579528"><ele>951.8000000000001</ele><time>2026-05-03T10:04:06.256Z</time></trkpt><trkpt lat="42.797111" lon="12.579448"><ele>954.0</ele><time>2026-05-03T10:04:07.273Z</time></trkpt><trkpt lat="42.797225" lon="12.5793878"><ele>954.0</ele><time>2026-05-03T10:04:08.275Z</time></trkpt><trkpt lat="42.797338" lon="12.5793574"><ele>954.0</ele><time>2026-05-03T10:04:09.303Z</time></trkpt><trkpt lat="42.7974562" lon="12.579351"><ele>954.0</ele><time>2026-05-03T10:04:10.284Z</time></trkpt><trkpt lat="42.7975883" lon="12.579353"><ele>954.0</ele><time>2026-05-03T10:04:11.263Z</time></trkpt><trkpt lat="42.797721" lon="12.5793725"><ele>951.0</ele><time>2026-05-03T10:04:12.258Z</time></trkpt><trkpt lat="42.7978499" lon="12.5794092"><ele>948.0</ele><time>2026-05-03T10:04:13.264Z</time></trkpt><trkpt lat="42.7979748" lon="12.5794604"><ele>945.0</ele><time>2026-05-03T10:04:14.293Z</time></trkpt><trkpt lat="42.7981097" lon="12.5795133"><ele>942.0</ele><time>2026-05-03T10:04:15.269Z</time></trkpt><trkpt lat="42.7982409" lon="12.5795641"><ele>942.0</ele><time>2026-05-03T10:04:16.269Z</time></trkpt><trkpt lat="42.7983581" lon="12.5795954"><ele>942.0</ele><time>2026-05-03T10:04:17.283Z</time></trkpt><trkpt lat="42.7984617" lon="12.5796116"><ele>942.0</ele><time>2026-05-03T10:04:18.273Z</time></trkpt><trkpt lat="42.7985648" lon="12.5796189"><ele>942.0</ele><time>2026-05-03T10:04:19.268Z</time></trkpt><trkpt lat="42.798667" lon="12.5796114"><ele>942.0</ele><time>2026-05-03T10:04:20.277Z</time></trkpt><trkpt lat="42.7987644" lon="12.579591"><ele>942.2</ele><time>2026-05-03T10:04:21.269Z</time></trkpt><trkpt lat="42.798858" lon="12.5795637"><ele>942.4000000000001</ele><time>2026-05-03T10:04:22.285Z</time></trkpt><trkpt lat="42.7989409" lon="12.5795109"><ele>942.5999999999999</ele><time>2026-05-03T10:04:23.262Z</time></trkpt><trkpt lat="42.7990191" lon="12.579442"><ele>942.8</ele><time>2026-05-03T10:04:24.263Z</time></trkpt><trkpt lat="42.7990899" lon="12.5793527"><ele>943.0</ele><time>2026-05-03T10:04:25.263Z</time></trkpt><trkpt lat="42.7991592" lon="12.5792504"><ele>947.75</ele><time>2026-05-03T10:04:26.278Z</time></trkpt><trkpt lat="42.799219" lon="12.5791291"><ele>952.5</ele><time>2026-05-03T10:04:27.276Z</time></trkpt><trkpt lat="42.7992652" lon="12.5789917"><ele>957.25</ele><time>2026-05-03T10:04:28.259Z</time></trkpt><trkpt lat="42.7993008" lon="12.5788259"><ele>962.0</ele><time>2026-05-03T10:04:29.26Z</time></trkpt><trkpt lat="42.7993405" lon="12.5786469"><ele>962.0</ele><time>2026-05-03T10:04:30.26Z</time></trkpt><trkpt lat="42.7993882" lon="12.5784827"><ele>962.0</ele><time>2026-05-03T10:04:31.276Z</time></trkpt><trkpt lat="42.7994499" lon="12.5783337"><ele>962.0</ele><time>2026-05-03T10:04:32.289Z</time></trkpt><trkpt lat="42.7995153" lon="12.5781951"><ele>962.0</ele><time>2026-05-03T10:04:33.271Z</time></trkpt><trkpt lat="42.799579" lon="12.5780671"><ele>962.0</ele><time>2026-05-03T10:04:34.26Z</time></trkpt><trkpt lat="42.7996439" lon="12.5779591"><ele>962.0</ele><time>2026-05-03T10:04:35.273Z</time></trkpt><trkpt lat="42.7997143" lon="12.577862"><ele>962.0</ele><time>2026-05-03T10:04:36.275Z</time></trkpt><trkpt lat="42.7998018" lon="12.5777829"><ele>962.0</ele><time>2026-05-03T10:04:37.27Z</time></trkpt><trkpt lat="42.7998995" lon="12.5777182"><ele>962.0</ele><time>2026-05-03T10:04:38.26Z</time></trkpt><trkpt lat="42.8000018" lon="12.5776684"><ele>965.0</ele><time>2026-05-03T10:04:39.259Z</time></trkpt><trkpt lat="42.8001059" lon="12.5776485"><ele>968.0</ele><time>2026-05-03T10:04:40.27Z</time></trkpt><trkpt lat="42.800207" lon="12.57765"><ele>971.0</ele><time>2026-05-03T10:04:41.255Z</time></trkpt><trkpt lat="42.8003071" lon="12.5776538"><ele>974.0</ele><time>2026-05-03T10:04:42.283Z</time></trkpt><trkpt lat="42.8004084" lon="12.5776514"><ele>977.0</ele><time>2026-05-03T10:04:43.275Z</time></trkpt><trkpt lat="42.800505" lon="12.5776391"><ele>977.0000000000001</ele><time>2026-05-03T10:04:44.263Z</time></trkpt><trkpt lat="42.8005963" lon="12.5776132"><ele>977.0</ele><time>2026-05-03T10:04:45.274Z</time></trkpt><trkpt lat="42.800679" lon="12.5775755"><ele>977.0</ele><time>2026-05-03T10:04:46.267Z</time></trkpt><trkpt lat="42.8007429" lon="12.5775241"><ele>977.0</ele><time>2026-05-03T10:04:47.262Z</time></trkpt><trkpt lat="42.8007877" lon="12.5774605"><ele>977.0000000000001</ele><time>2026-05-03T10:04:48.274Z</time></trkpt><trkpt lat="42.8008194" lon="12.5773853"><ele>977.0</ele><time>2026-05-03T10:04:49.272Z</time></trkpt><trkpt lat="42.8008223" lon="12.5772099"><ele>977.0</ele><time>2026-05-03T10:04:51.266Z</time></trkpt><trkpt lat="42.8007852" lon="12.5771028"><ele>977.0</ele><time>2026-05-03T10:04:52.278Z</time></trkpt><trkpt lat="42.8007281" lon="12.5769838"><ele>977.0</ele><time>2026-05-03T10:04:53.269Z</time></trkpt><trkpt lat="42.8006599" lon="12.5768488"><ele>977.0</ele><time>2026-05-03T10:04:54.271Z</time></trkpt><trkpt lat="42.8005901" lon="12.5767085"><ele>977.0</ele><time>2026-05-03T10:04:55.26Z</time></trkpt><trkpt lat="42.8005157" lon="12.5765648"><ele>977.8</ele><time>2026-05-03T10:04:56.283Z</time></trkpt><trkpt lat="42.8004444" lon="12.5764301"><ele>978.6</ele><time>2026-05-03T10:04:57.273Z</time></trkpt><trkpt lat="42.8003781" lon="12.5763047"><ele>979.3999999999999</ele><time>2026-05-03T10:04:58.277Z</time></trkpt><trkpt lat="42.8003212" lon="12.5761847"><ele>980.1999999999999</ele><time>2026-05-03T10:04:59.265Z</time></trkpt><trkpt lat="42.8002758" lon="12.5760786"><ele>981.0</ele><time>2026-05-03T10:05:00.272Z</time></trkpt><trkpt lat="42.8002395" lon="12.5759764"><ele>981.8571428571429</ele><time>2026-05-03T10:05:01.261Z</time></trkpt><trkpt lat="42.8002193" lon="12.5758738"><ele>982.7142857142857</ele><time>2026-05-03T10:05:02.248Z</time></trkpt><trkpt lat="42.8002187" lon="12.5757753"><ele>983.5714285714286</ele><time>2026-05-03T10:05:03.274Z</time></trkpt><trkpt lat="42.8002369" lon="12.5756828"><ele>984.4285714285714</ele><time>2026-05-03T10:05:04.271Z</time></trkpt><trkpt lat="42.800277" lon="12.5756163"><ele>985.2857142857142</ele><time>2026-05-03T10:05:05.272Z</time></trkpt><trkpt lat="42.8003379" lon="12.5755662"><ele>986.1428571428571</ele><time>2026-05-03T10:05:06.257Z</time></trkpt><trkpt lat="42.8004206" lon="12.5755487"><ele>987.0</ele><time>2026-05-03T10:05:07.26Z</time></trkpt><trkpt lat="42.8005153" lon="12.5755611"><ele>987.0</ele><time>2026-05-03T10:05:08.262Z</time></trkpt><trkpt lat="42.8006121" lon="12.5755778"><ele>987.0</ele><time>2026-05-03T10:05:09.264Z</time></trkpt><trkpt lat="42.8007205" lon="12.5755954"><ele>987.0</ele><time>2026-05-03T10:05:10.264Z</time></trkpt><trkpt lat="42.8008331" lon="12.5756199"><ele>987.0</ele><time>2026-05-03T10:05:11.258Z</time></trkpt><trkpt lat="42.8009404" lon="12.5756294"><ele>987.0</ele><time>2026-05-03T10:05:12.269Z</time></trkpt><trkpt lat="42.8010417" lon="12.5756159"><ele>988.2</ele><time>2026-05-03T10:05:13.26Z</time></trkpt><trkpt lat="42.801135" lon="12.5755873"><ele>989.4000000000001</ele><time>2026-05-03T10:05:14.266Z</time></trkpt><trkpt lat="42.8012304" lon="12.5755305"><ele>990.5999999999999</ele><time>2026-05-03T10:05:15.28Z</time></trkpt><trkpt lat="42.801324" lon="12.5754467"><ele>991.8</ele><time>2026-05-03T10:05:16.274Z</time></trkpt><trkpt lat="42.8014087" lon="12.5753499"><ele>993.0</ele><time>2026-05-03T10:05:17.265Z</time></trkpt><trkpt lat="42.8014852" lon="12.5752692"><ele>993.0</ele><time>2026-05-03T10:05:18.26Z</time></trkpt><trkpt lat="42.8015602" lon="12.5752089"><ele>993.0</ele><time>2026-05-03T10:05:19.285Z</time></trkpt><trkpt lat="42.8016427" lon="12.5751699"><ele>993.0</ele><time>2026-05-03T10:05:20.275Z</time></trkpt><trkpt lat="42.8017382" lon="12.5751554"><ele>993.0</ele><time>2026-05-03T10:05:21.253Z</time></trkpt><trkpt lat="42.8018418" lon="12.5751628"><ele>993.0</ele><time>2026-05-03T10:05:22.277Z</time></trkpt><trkpt lat="42.8019499" lon="12.575198"><ele>993.0</ele><time>2026-05-03T10:05:23.266Z</time></trkpt><trkpt lat="42.8020645" lon="12.5752448"><ele>993.0</ele><time>2026-05-03T10:05:24.274Z</time></trkpt><trkpt lat="42.8021908" lon="12.5753024"><ele>993.0</ele><time>2026-05-03T10:05:25.258Z</time></trkpt><trkpt lat="42.8023104" lon="12.5753534"><ele>993.0</ele><time>2026-05-03T10:05:26.277Z</time></trkpt><trkpt lat="42.8024246" lon="12.5753893"><ele>989.2</ele><time>2026-05-03T10:05:27.272Z</time></trkpt><trkpt lat="42.8025322" lon="12.5754148"><ele>985.4</ele><time>2026-05-03T10:05:28.259Z</time></trkpt><trkpt lat="42.8026305" lon="12.5754272"><ele>981.6000000000001</ele><time>2026-05-03T10:05:29.265Z</time></trkpt><trkpt lat="42.8027267" lon="12.5754306"><ele>977.8000000000001</ele><time>2026-05-03T10:05:30.266Z</time></trkpt><trkpt lat="42.8028166" lon="12.5754138"><ele>974.0</ele><time>2026-05-03T10:05:31.274Z</time></trkpt><trkpt lat="42.8028995" lon="12.5753863"><ele>974.5000000000001</ele><time>2026-05-03T10:05:32.264Z</time></trkpt><trkpt lat="42.8029762" lon="12.5753421"><ele>975.0</ele><time>2026-05-03T10:05:33.27Z</time></trkpt><trkpt lat="42.8030335" lon="12.5752742"><ele>975.5</ele><time>2026-05-03T10:05:34.289Z</time></trkpt><trkpt lat="42.8030725" lon="12.5751921"><ele>976.0</ele><time>2026-05-03T10:05:35.27Z</time></trkpt><trkpt lat="42.8030945" lon="12.5750872"><ele>976.5000000000001</ele><time>2026-05-03T10:05:36.275Z</time></trkpt><trkpt lat="42.8030923" lon="12.5749698"><ele>977.0</ele><time>2026-05-03T10:05:37.267Z</time></trkpt><trkpt lat="42.8030712" lon="12.5748431"><ele>977.0</ele><time>2026-05-03T10:05:38.268Z</time></trkpt><trkpt lat="42.8030359" lon="12.5747163"><ele>977.0</ele><time>2026-05-03T10:05:39.27Z</time></trkpt><trkpt lat="42.8029955" lon="12.5745777"><ele>977.0</ele><time>2026-05-03T10:05:40.272Z</time></trkpt><trkpt lat="42.8029507" lon="12.5744325"><ele>977.0</ele><time>2026-05-03T10:05:41.269Z</time></trkpt><trkpt lat="42.802902" lon="12.5742788"><ele>977.0</ele><time>2026-05-03T10:05:42.28Z</time></trkpt><trkpt lat="42.8028418" lon="12.5741189"><ele>975.4000000000001</ele><time>2026-05-03T10:05:43.266Z</time></trkpt><trkpt lat="42.8027788" lon="12.5739672"><ele>973.8000000000001</ele><time>2026-05-03T10:05:44.273Z</time></trkpt><trkpt lat="42.8027203" lon="12.5738337"><ele>972.2</ele><time>2026-05-03T10:05:45.277Z</time></trkpt><trkpt lat="42.8026707" lon="12.5737086"><ele>970.6</ele><time>2026-05-03T10:05:46.272Z</time></trkpt><trkpt lat="42.802626" lon="12.5735909"><ele>969.0</ele><time>2026-05-03T10:05:47.27Z</time></trkpt><trkpt lat="42.8025925" lon="12.5734783"><ele>975.0</ele><time>2026-05-03T10:05:48.256Z</time></trkpt><trkpt lat="42.8025686" lon="12.5733635"><ele>981.0000000000001</ele><time>2026-05-03T10:05:49.263Z</time></trkpt><trkpt lat="42.8025533" lon="12.573239"><ele>987.0000000000001</ele><time>2026-05-03T10:05:50.272Z</time></trkpt><trkpt lat="42.8025413" lon="12.573096"><ele>993.0</ele><time>2026-05-03T10:05:51.267Z</time></trkpt><trkpt lat="42.8025233" lon="12.5729467"><ele>999.0</ele><time>2026-05-03T10:05:52.263Z</time></trkpt><trkpt lat="42.8024964" lon="12.5728034"><ele>999.0</ele><time>2026-05-03T10:05:53.268Z</time></trkpt><trkpt lat="42.8024669" lon="12.5726724"><ele>999.0</ele><time>2026-05-03T10:05:54.256Z</time></trkpt><trkpt lat="42.8024506" lon="12.5725575"><ele>999.0</ele><time>2026-05-03T10:05:55.271Z</time></trkpt><trkpt lat="42.8024377" lon="12.572463"><ele>999.0</ele><time>2026-05-03T10:05:56.283Z</time></trkpt><trkpt lat="42.8024422" lon="12.5723761"><ele>999.0</ele><time>2026-05-03T10:05:57.268Z</time></trkpt><trkpt lat="42.8024948" lon="12.5722212"><ele>999.0</ele><time>2026-05-03T10:05:59.271Z</time></trkpt><trkpt lat="42.8025514" lon="12.5721506"><ele>999.0</ele><time>2026-05-03T10:06:00.288Z</time></trkpt><trkpt lat="42.8026271" lon="12.5721031"><ele>999.0000000000001</ele><time>2026-05-03T10:06:01.28Z</time></trkpt><trkpt lat="42.8027082" lon="12.5720887"><ele>999.0000000000001</ele><time>2026-05-03T10:06:02.251Z</time></trkpt><trkpt lat="42.8027955" lon="12.5720921"><ele>999.0</ele><time>2026-05-03T10:06:03.26Z</time></trkpt><trkpt lat="42.8028945" lon="12.5721126"><ele>999.0</ele><time>2026-05-03T10:06:04.268Z</time></trkpt><trkpt lat="42.8030079" lon="12.5721472"><ele>998.75</ele><time>2026-05-03T10:06:05.267Z</time></trkpt><trkpt lat="42.8031334" lon="12.5721838"><ele>998.5</ele><time>2026-05-03T10:06:06.249Z</time></trkpt><trkpt lat="42.8032614" lon="12.5722187"><ele>998.25</ele><time>2026-05-03T10:06:07.273Z</time></trkpt><trkpt lat="42.8033934" lon="12.5722484"><ele>998.0</ele><time>2026-05-03T10:06:08.276Z</time></trkpt><trkpt lat="42.803519" lon="12.5722677"><ele>998.0</ele><time>2026-05-03T10:06:09.266Z</time></trkpt><trkpt lat="42.8036352" lon="12.5722734"><ele>998.0</ele><time>2026-05-03T10:06:10.268Z</time></trkpt><trkpt lat="42.8037498" lon="12.5722703"><ele>998.0</ele><time>2026-05-03T10:06:11.275Z</time></trkpt><trkpt lat="42.8038613" lon="12.5722552"><ele>998.0</ele><time>2026-05-03T10:06:12.27Z</time></trkpt><trkpt lat="42.8039641" lon="12.5722391"><ele>998.0</ele><time>2026-05-03T10:06:13.27Z</time></trkpt><trkpt lat="42.8040627" lon="12.5722201"><ele>998.0</ele><time>2026-05-03T10:06:14.278Z</time></trkpt><trkpt lat="42.8041722" lon="12.5721868"><ele>998.0</ele><time>2026-05-03T10:06:15.282Z</time></trkpt><trkpt lat="42.8042825" lon="12.5721402"><ele>998.0</ele><time>2026-05-03T10:06:16.263Z</time></trkpt><trkpt lat="42.8043871" lon="12.5720867"><ele>998.0</ele><time>2026-05-03T10:06:17.258Z</time></trkpt><trkpt lat="42.8044917" lon="12.5720166"><ele>998.2</ele><time>2026-05-03T10:06:18.266Z</time></trkpt><trkpt lat="42.8045823" lon="12.5719262"><ele>998.4</ele><time>2026-05-03T10:06:19.274Z</time></trkpt><trkpt lat="42.8046507" lon="12.5718286"><ele>998.6000000000001</ele><time>2026-05-03T10:06:20.271Z</time></trkpt><trkpt lat="42.8046931" lon="12.5717251"><ele>998.8000000000001</ele><time>2026-05-03T10:06:21.275Z</time></trkpt><trkpt lat="42.8047226" lon="12.5716136"><ele>999.0</ele><time>2026-05-03T10:06:22.267Z</time></trkpt><trkpt lat="42.804735" lon="12.5714947"><ele>999.0</ele><time>2026-05-03T10:06:23.279Z</time></trkpt><trkpt lat="42.8047218" lon="12.5713645"><ele>999.0000000000001</ele><time>2026-05-03T10:06:24.264Z</time></trkpt><trkpt lat="42.8046962" lon="12.5712244"><ele>999.0000000000001</ele><time>2026-05-03T10:06:25.273Z</time></trkpt><trkpt lat="42.8046732" lon="12.5710769"><ele>999.0</ele><time>2026-05-03T10:06:26.273Z</time></trkpt><trkpt lat="42.8046528" lon="12.5709144"><ele>999.0</ele><time>2026-05-03T10:06:27.278Z</time></trkpt><trkpt lat="42.8046393" lon="12.5707338"><ele>999.0</ele><time>2026-05-03T10:06:28.261Z</time></trkpt><trkpt lat="42.8046323" lon="12.5705673"><ele>999.0000000000001</ele><time>2026-05-03T10:06:29.27Z</time></trkpt><trkpt lat="42.8046336" lon="12.5704139"><ele>999.0000000000001</ele><time>2026-05-03T10:06:30.265Z</time></trkpt><trkpt lat="42.8046325" lon="12.5702668"><ele>999.0</ele><time>2026-05-03T10:06:31.264Z</time></trkpt><trkpt lat="42.8046133" lon="12.5701387"><ele>999.0</ele><time>2026-05-03T10:06:32.276Z</time></trkpt><trkpt lat="42.8045893" lon="12.5700111"><ele>999.4000000000001</ele><time>2026-05-03T10:06:33.273Z</time></trkpt><trkpt lat="42.8045467" lon="12.5698853"><ele>999.8000000000001</ele><time>2026-05-03T10:06:34.281Z</time></trkpt><trkpt lat="42.8044769" lon="12.5697711"><ele>1000.1999999999999</ele><time>2026-05-03T10:06:35.28Z</time></trkpt><trkpt lat="42.80441" lon="12.5696709"><ele>1000.5999999999999</ele><time>2026-05-03T10:06:36.259Z</time></trkpt><trkpt lat="42.8043541" lon="12.5695734"><ele>1001.0</ele><time>2026-05-03T10:06:37.252Z</time></trkpt><trkpt lat="42.8043194" lon="12.569463"><ele>1005.8</ele><time>2026-05-03T10:06:38.251Z</time></trkpt><trkpt lat="42.8043116" lon="12.5693482"><ele>1010.5999999999999</ele><time>2026-05-03T10:06:39.27Z</time></trkpt><trkpt lat="42.8043175" lon="12.5692347"><ele>1015.4</ele><time>2026-05-03T10:06:40.263Z</time></trkpt><trkpt lat="42.8043186" lon="12.5691045"><ele>1020.2</ele><time>2026-05-03T10:06:41.266Z</time></trkpt><trkpt lat="42.8043085" lon="12.5689656"><ele>1025.0</ele><time>2026-05-03T10:06:42.267Z</time></trkpt><trkpt lat="42.8042731" lon="12.5688231"><ele>1025.0</ele><time>2026-05-03T10:06:43.263Z</time></trkpt><trkpt lat="42.8042439" lon="12.5686956"><ele>1025.0</ele><time>2026-05-03T10:06:44.278Z</time></trkpt><trkpt lat="42.804234" lon="12.5685946"><ele>1025.0</ele><time>2026-05-03T10:06:45.256Z</time></trkpt><trkpt lat="42.80425" lon="12.5685051"><ele>1025.0</ele><time>2026-05-03T10:06:46.269Z</time></trkpt><trkpt lat="42.8042976" lon="12.5684221"><ele>1025.0</ele><time>2026-05-03T10:06:47.259Z</time></trkpt><trkpt lat="42.8043698" lon="12.5683626"><ele>1025.0</ele><time>2026-05-03T10:06:48.265Z</time></trkpt><trkpt lat="42.8044564" lon="12.5683297"><ele>1024.0</ele><time>2026-05-03T10:06:49.261Z</time></trkpt><trkpt lat="42.8045545" lon="12.568309"><ele>1023.0</ele><time>2026-05-03T10:06:50.254Z</time></trkpt><trkpt lat="42.8046675" lon="12.5682865"><ele>1022.0</ele><time>2026-05-03T10:06:51.251Z</time></trkpt><trkpt lat="42.8048076" lon="12.5682631"><ele>1021.0</ele><time>2026-05-03T10:06:52.262Z</time></trkpt><trkpt lat="42.8049636" lon="12.5682428"><ele>1021.0</ele><time>2026-05-03T10:06:53.264Z</time></trkpt><trkpt lat="42.8051174" lon="12.5682226"><ele>1021.0</ele><time>2026-05-03T10:06:54.253Z</time></trkpt><trkpt lat="42.8052593" lon="12.5682077"><ele>1021.0</ele><time>2026-05-03T10:06:55.255Z</time></trkpt><trkpt lat="42.8053761" lon="12.5681896"><ele>1021.0</ele><time>2026-05-03T10:06:56.264Z</time></trkpt><trkpt lat="42.8054773" lon="12.5681933"><ele>1020.8</ele><time>2026-05-03T10:06:57.254Z</time></trkpt><trkpt lat="42.8055616" lon="12.5682088"><ele>1020.5999999999999</ele><time>2026-05-03T10:06:58.26Z</time></trkpt><trkpt lat="42.8056449" lon="12.5682264"><ele>1020.4</ele><time>2026-05-03T10:06:59.269Z</time></trkpt><trkpt lat="42.805746" lon="12.5682521"><ele>1020.2</ele><time>2026-05-03T10:07:00.265Z</time></trkpt><trkpt lat="42.805862" lon="12.5682901"><ele>1020.0</ele><time>2026-05-03T10:07:01.256Z</time></trkpt><trkpt lat="42.8059918" lon="12.5683344"><ele>1018.5</ele><time>2026-05-03T10:07:02.259Z</time></trkpt><trkpt lat="42.8061275" lon="12.5683771"><ele>1017.0</ele><time>2026-05-03T10:07:03.256Z</time></trkpt><trkpt lat="42.8062594" lon="12.5684097"><ele>1015.5</ele><time>2026-05-03T10:07:04.273Z</time></trkpt><trkpt lat="42.8063796" lon="12.5684211"><ele>1014.0</ele><time>2026-05-03T10:07:05.259Z</time></trkpt><trkpt lat="42.8064965" lon="12.5683937"><ele>1014.0</ele><time>2026-05-03T10:07:06.276Z</time></trkpt><trkpt lat="42.8066071" lon="12.5683266"><ele>1014.0</ele><time>2026-05-03T10:07:07.271Z</time></trkpt><trkpt lat="42.806702" lon="12.5682227"><ele>1014.0</ele><time>2026-05-03T10:07:08.279Z</time></trkpt><trkpt lat="42.8067885" lon="12.5681161"><ele>1014.0</ele><time>2026-05-03T10:07:09.257Z</time></trkpt><trkpt lat="42.8068586" lon="12.568009"><ele>1011.0</ele><time>2026-05-03T10:07:10.269Z</time></trkpt><trkpt lat="42.8069262" lon="12.5678949"><ele>1008.0000000000001</ele><time>2026-05-03T10:07:11.275Z</time></trkpt><trkpt lat="42.8069824" lon="12.567773"><ele>1005.0000000000001</ele><time>2026-05-03T10:07:12.27Z</time></trkpt><trkpt lat="42.8070373" lon="12.5676464"><ele>1002.0</ele><time>2026-05-03T10:07:13.297Z</time></trkpt><trkpt lat="42.8070793" lon="12.5675153"><ele>999.0</ele><time>2026-05-03T10:07:14.267Z</time></trkpt><trkpt lat="42.8071176" lon="12.5673706"><ele>999.0</ele><time>2026-05-03T10:07:15.252Z</time></trkpt><trkpt lat="42.8071467" lon="12.567213"><ele>999.0000000000001</ele><time>2026-05-03T10:07:16.273Z</time></trkpt><trkpt lat="42.8071686" lon="12.567058"><ele>999.0000000000001</ele><time>2026-05-03T10:07:17.271Z</time></trkpt><trkpt lat="42.8071875" lon="12.5669257"><ele>999.0</ele><time>2026-05-03T10:07:18.272Z</time></trkpt><trkpt lat="42.807217" lon="12.5668098"><ele>999.0</ele><time>2026-05-03T10:07:19.259Z</time></trkpt><trkpt lat="42.8072614" lon="12.56672"><ele>1000.5</ele><time>2026-05-03T10:07:20.265Z</time></trkpt><trkpt lat="42.8073514" lon="12.5666855"><ele>1002.0</ele><time>2026-05-03T10:07:21.268Z</time></trkpt><trkpt lat="42.8074647" lon="12.5667031"><ele>1003.5</ele><time>2026-05-03T10:07:22.266Z</time></trkpt><trkpt lat="42.8075895" lon="12.5667376"><ele>1005.0</ele><time>2026-05-03T10:07:23.262Z</time></trkpt><trkpt lat="42.8077213" lon="12.5667692"><ele>1002.0</ele><time>2026-05-03T10:07:24.271Z</time></trkpt><trkpt lat="42.8078499" lon="12.5667914"><ele>999.0</ele><time>2026-05-03T10:07:25.274Z</time></trkpt><trkpt lat="42.8079725" lon="12.5668127"><ele>996.0</ele><time>2026-05-03T10:07:26.266Z</time></trkpt><trkpt lat="42.808084" lon="12.5668181"><ele>993.0</ele><time>2026-05-03T10:07:27.273Z</time></trkpt><trkpt lat="42.8081843" lon="12.5668109"><ele>993.0</ele><time>2026-05-03T10:07:28.264Z</time></trkpt><trkpt lat="42.8082669" lon="12.5667677"><ele>993.0</ele><time>2026-05-03T10:07:29.28Z</time></trkpt><trkpt lat="42.8083276" lon="12.5666738"><ele>993.0</ele><time>2026-05-03T10:07:30.267Z</time></trkpt><trkpt lat="42.8083492" lon="12.5665362"><ele>993.0</ele><time>2026-05-03T10:07:31.252Z</time></trkpt><trkpt lat="42.808336" lon="12.5663864"><ele>993.0</ele><time>2026-05-03T10:07:32.294Z</time></trkpt><trkpt lat="42.8083003" lon="12.5662227"><ele>992.0</ele><time>2026-05-03T10:07:33.264Z</time></trkpt><trkpt lat="42.808252" lon="12.5660262"><ele>991.0</ele><time>2026-05-03T10:07:34.258Z</time></trkpt><trkpt lat="42.8081941" lon="12.5658013"><ele>990.0</ele><time>2026-05-03T10:07:35.254Z</time></trkpt><trkpt lat="42.8081285" lon="12.5655472"><ele>984.3333333333333</ele><time>2026-05-03T10:07:36.276Z</time></trkpt><trkpt lat="42.8080517" lon="12.5652623"><ele>978.6666666666666</ele><time>2026-05-03T10:07:37.268Z</time></trkpt><trkpt lat="42.80797" lon="12.5649785"><ele>973.0</ele><time>2026-05-03T10:07:38.294Z</time></trkpt><trkpt lat="42.8078914" lon="12.5647244"><ele>968.3333333333333</ele><time>2026-05-03T10:07:39.262Z</time></trkpt><trkpt lat="42.8078228" lon="12.5644768"><ele>963.6666666666667</ele><time>2026-05-03T10:07:40.282Z</time></trkpt><trkpt lat="42.8077635" lon="12.5642401"><ele>959.0</ele><time>2026-05-03T10:07:41.278Z</time></trkpt><trkpt lat="42.8077046" lon="12.5640095"><ele>966.6666666666667</ele><time>2026-05-03T10:07:42.265Z</time></trkpt><trkpt lat="42.8076501" lon="12.5637919"><ele>974.3333333333333</ele><time>2026-05-03T10:07:43.257Z</time></trkpt><trkpt lat="42.8075983" lon="12.5635876"><ele>982.0</ele><time>2026-05-03T10:07:44.264Z</time></trkpt><trkpt lat="42.807545" lon="12.563398"><ele>982.0</ele><time>2026-05-03T10:07:45.283Z</time></trkpt><trkpt lat="42.8075" lon="12.5632337"><ele>982.0</ele><time>2026-05-03T10:07:46.251Z</time></trkpt><trkpt lat="42.8074618" lon="12.5630901"><ele>982.0</ele><time>2026-05-03T10:07:47.275Z</time></trkpt><trkpt lat="42.8074313" lon="12.5629653"><ele>982.0</ele><time>2026-05-03T10:07:48.264Z</time></trkpt><trkpt lat="42.8074079" lon="12.5628468"><ele>982.0</ele><time>2026-05-03T10:07:49.262Z</time></trkpt><trkpt lat="42.8074057" lon="12.5627236"><ele>980.8</ele><time>2026-05-03T10:07:50.278Z</time></trkpt><trkpt lat="42.807425" lon="12.5626065"><ele>979.6</ele><time>2026-05-03T10:07:51.256Z</time></trkpt><trkpt lat="42.8074681" lon="12.5624924"><ele>978.3999999999999</ele><time>2026-05-03T10:07:52.263Z</time></trkpt><trkpt lat="42.8075414" lon="12.5624053"><ele>977.1999999999999</ele><time>2026-05-03T10:07:53.284Z</time></trkpt><trkpt lat="42.8076326" lon="12.5623585"><ele>976.0</ele><time>2026-05-03T10:07:54.269Z</time></trkpt><trkpt lat="42.8077416" lon="12.5623473"><ele>974.5</ele><time>2026-05-03T10:07:55.262Z</time></trkpt><trkpt lat="42.8078478" lon="12.5623816"><ele>973.0</ele><time>2026-05-03T10:07:56.253Z</time></trkpt><trkpt lat="42.8079522" lon="12.562451"><ele>971.5</ele><time>2026-05-03T10:07:57.261Z</time></trkpt><trkpt lat="42.8080617" lon="12.5625365"><ele>970.0</ele><time>2026-05-03T10:07:58.27Z</time></trkpt><trkpt lat="42.808181" lon="12.5626329"><ele>970.0</ele><time>2026-05-03T10:07:59.256Z</time></trkpt><trkpt lat="42.808309" lon="12.5627318"><ele>970.0</ele><time>2026-05-03T10:08:00.259Z</time></trkpt><trkpt lat="42.8084435" lon="12.5628372"><ele>970.0</ele><time>2026-05-03T10:08:01.266Z</time></trkpt><trkpt lat="42.808581" lon="12.5629479"><ele>967.75</ele><time>2026-05-03T10:08:02.273Z</time></trkpt><trkpt lat="42.8087123" lon="12.5630566"><ele>965.5</ele><time>2026-05-03T10:08:03.266Z</time></trkpt><trkpt lat="42.8088408" lon="12.5631575"><ele>963.25</ele><time>2026-05-03T10:08:04.278Z</time></trkpt><trkpt lat="42.8089656" lon="12.5632536"><ele>961.0</ele><time>2026-05-03T10:08:05.259Z</time></trkpt><trkpt lat="42.8090926" lon="12.5633478"><ele>961.0</ele><time>2026-05-03T10:08:06.285Z</time></trkpt><trkpt lat="42.8092237" lon="12.5634432"><ele>961.0</ele><time>2026-05-03T10:08:07.266Z</time></trkpt><trkpt lat="42.8093589" lon="12.5635364"><ele>961.0</ele><time>2026-05-03T10:08:08.285Z</time></trkpt><trkpt lat="42.8094966" lon="12.5636213"><ele>956.0</ele><time>2026-05-03T10:08:09.255Z</time></trkpt><trkpt lat="42.8096362" lon="12.5637011"><ele>951.0</ele><time>2026-05-03T10:08:10.269Z</time></trkpt><trkpt lat="42.8097748" lon="12.5637696"><ele>946.0</ele><time>2026-05-03T10:08:11.28Z</time></trkpt><trkpt lat="42.8099065" lon="12.563828"><ele>941.0</ele><time>2026-05-03T10:08:12.281Z</time></trkpt><trkpt lat="42.8100351" lon="12.5638784"><ele>939.75</ele><time>2026-05-03T10:08:13.264Z</time></trkpt><trkpt lat="42.8101605" lon="12.5639247"><ele>938.5</ele><time>2026-05-03T10:08:14.275Z</time></trkpt><trkpt lat="42.8102809" lon="12.5639663"><ele>937.25</ele><time>2026-05-03T10:08:15.283Z</time></trkpt><trkpt lat="42.8103969" lon="12.5639985"><ele>936.0</ele><time>2026-05-03T10:08:16.264Z</time></trkpt><trkpt lat="42.8105104" lon="12.5640168"><ele>936.0</ele><time>2026-05-03T10:08:17.265Z</time></trkpt><trkpt lat="42.8106235" lon="12.5639993"><ele>935.9999999999999</ele><time>2026-05-03T10:08:18.26Z</time></trkpt><trkpt lat="42.8107243" lon="12.5639419"><ele>935.9999999999999</ele><time>2026-05-03T10:08:19.277Z</time></trkpt><trkpt lat="42.810811" lon="12.5638614"><ele>936.0</ele><time>2026-05-03T10:08:20.275Z</time></trkpt><trkpt lat="42.8108731" lon="12.5637461"><ele>936.0</ele><time>2026-05-03T10:08:21.293Z</time></trkpt><trkpt lat="42.8109094" lon="12.5636182"><ele>937.5999999999999</ele><time>2026-05-03T10:08:22.275Z</time></trkpt><trkpt lat="42.8109139" lon="12.5634802"><ele>939.1999999999999</ele><time>2026-05-03T10:08:23.277Z</time></trkpt><trkpt lat="42.8109118" lon="12.5633436"><ele>940.8000000000001</ele><time>2026-05-03T10:08:24.281Z</time></trkpt><trkpt lat="42.8109123" lon="12.5632126"><ele>942.4000000000001</ele><time>2026-05-03T10:08:25.266Z</time></trkpt><trkpt lat="42.8109345" lon="12.5631064"><ele>944.0</ele><time>2026-05-03T10:08:26.264Z</time></trkpt><trkpt lat="42.8109877" lon="12.5630333"><ele>941.4000000000001</ele><time>2026-05-03T10:08:27.269Z</time></trkpt><trkpt lat="42.8110635" lon="12.5630187"><ele>938.8000000000001</ele><time>2026-05-03T10:08:28.257Z</time></trkpt><trkpt lat="42.8111708" lon="12.5630398"><ele>936.1999999999999</ele><time>2026-05-03T10:08:29.271Z</time></trkpt><trkpt lat="42.8112833" lon="12.5630889"><ele>933.5999999999999</ele><time>2026-05-03T10:08:30.262Z</time></trkpt><trkpt lat="42.8114013" lon="12.5631447"><ele>931.0</ele><time>2026-05-03T10:08:31.269Z</time></trkpt><trkpt lat="42.8115311" lon="12.5632009"><ele>931.0</ele><time>2026-05-03T10:08:32.274Z</time></trkpt><trkpt lat="42.8116646" lon="12.5632513"><ele>931.0</ele><time>2026-05-03T10:08:33.276Z</time></trkpt><trkpt lat="42.8118002" lon="12.5633047"><ele>931.0</ele><time>2026-05-03T10:08:34.283Z</time></trkpt><trkpt lat="42.8119284" lon="12.5633576"><ele>931.0</ele><time>2026-05-03T10:08:35.26Z</time></trkpt><trkpt lat="42.8120488" lon="12.5634113"><ele>929.4</ele><time>2026-05-03T10:08:36.282Z</time></trkpt><trkpt lat="42.8121571" lon="12.5634596"><ele>927.8</ele><time>2026-05-03T10:08:37.281Z</time></trkpt><trkpt lat="42.8122639" lon="12.5634874"><ele>926.1999999999999</ele><time>2026-05-03T10:08:38.262Z</time></trkpt><trkpt lat="42.8123596" lon="12.5634772"><ele>924.5999999999999</ele><time>2026-05-03T10:08:39.262Z</time></trkpt><trkpt lat="42.8124638" lon="12.5634269"><ele>923.0</ele><time>2026-05-03T10:08:40.267Z</time></trkpt><trkpt lat="42.8125604" lon="12.5633531"><ele>923.0</ele><time>2026-05-03T10:08:41.275Z</time></trkpt><trkpt lat="42.8126545" lon="12.5632781"><ele>923.0</ele><time>2026-05-03T10:08:42.263Z</time></trkpt><trkpt lat="42.8127418" lon="12.5631998"><ele>923.0</ele><time>2026-05-03T10:08:43.277Z</time></trkpt><trkpt lat="42.8128112" lon="12.5631027"><ele>923.0</ele><time>2026-05-03T10:08:44.289Z</time></trkpt><trkpt lat="42.812852" lon="12.5629816"><ele>923.0</ele><time>2026-05-03T10:08:45.274Z</time></trkpt><trkpt lat="42.8128633" lon="12.5628428"><ele>917.25</ele><time>2026-05-03T10:08:46.274Z</time></trkpt><trkpt lat="42.8128582" lon="12.5627131"><ele>911.5</ele><time>2026-05-03T10:08:47.279Z</time></trkpt><trkpt lat="42.8128196" lon="12.562561"><ele>905.75</ele><time>2026-05-03T10:08:48.268Z</time></trkpt><trkpt lat="42.812748" lon="12.5624034"><ele>900.0</ele><time>2026-05-03T10:08:49.277Z</time></trkpt><trkpt lat="42.8126771" lon="12.5622464"><ele>902.75</ele><time>2026-05-03T10:08:50.271Z</time></trkpt><trkpt lat="42.8126083" lon="12.5620878"><ele>905.5</ele><time>2026-05-03T10:08:51.28Z</time></trkpt><trkpt lat="42.812541" lon="12.5619331"><ele>908.25</ele><time>2026-05-03T10:08:52.26Z</time></trkpt><trkpt lat="42.8124856" lon="12.5617801"><ele>911.0</ele><time>2026-05-03T10:08:53.271Z</time></trkpt><trkpt lat="42.8124621" lon="12.5616192"><ele>911.0</ele><time>2026-05-03T10:08:54.267Z</time></trkpt><trkpt lat="42.8124702" lon="12.561459"><ele>911.0</ele><time>2026-05-03T10:08:55.296Z</time></trkpt><trkpt lat="42.8124839" lon="12.5613077"><ele>911.0</ele><time>2026-05-03T10:08:56.28Z</time></trkpt><trkpt lat="42.8124849" lon="12.5611568"><ele>911.0</ele><time>2026-05-03T10:08:57.266Z</time></trkpt><trkpt lat="42.8124704" lon="12.5610031"><ele>908.75</ele><time>2026-05-03T10:08:58.273Z</time></trkpt><trkpt lat="42.8124459" lon="12.5608415"><ele>906.5</ele><time>2026-05-03T10:08:59.261Z</time></trkpt><trkpt lat="42.8124081" lon="12.5606701"><ele>904.25</ele><time>2026-05-03T10:09:00.265Z</time></trkpt><trkpt lat="42.8123639" lon="12.5605055"><ele>902.0</ele><time>2026-05-03T10:09:01.275Z</time></trkpt><trkpt lat="42.8123179" lon="12.560345"><ele>900.25</ele><time>2026-05-03T10:09:02.266Z</time></trkpt><trkpt lat="42.8122679" lon="12.5601889"><ele>898.5</ele><time>2026-05-03T10:09:03.276Z</time></trkpt><trkpt lat="42.8122121" lon="12.5600414"><ele>896.75</ele><time>2026-05-03T10:09:04.274Z</time></trkpt><trkpt lat="42.8121494" lon="12.559903"><ele>895.0</ele><time>2026-05-03T10:09:05.259Z</time></trkpt><trkpt lat="42.8120815" lon="12.5597763"><ele>895.0</ele><time>2026-05-03T10:09:06.273Z</time></trkpt><trkpt lat="42.8120115" lon="12.5596802"><ele>895.0</ele><time>2026-05-03T10:09:07.264Z</time></trkpt><trkpt lat="42.8119289" lon="12.5596017"><ele>895.0</ele><time>2026-05-03T10:09:08.277Z</time></trkpt><trkpt lat="42.8118459" lon="12.5595259"><ele>895.0</ele><time>2026-05-03T10:09:09.28Z</time></trkpt><trkpt lat="42.8117699" lon="12.5594503"><ele>895.0</ele><time>2026-05-03T10:09:10.278Z</time></trkpt><trkpt lat="42.8116926" lon="12.5593741"><ele>894.2</ele><time>2026-05-03T10:09:11.275Z</time></trkpt><trkpt lat="42.8116292" lon="12.5593082"><ele>893.4</ele><time>2026-05-03T10:09:12.28Z</time></trkpt><trkpt lat="42.8115864" lon="12.55917"><ele>892.5999999999999</ele><time>2026-05-03T10:09:14.274Z</time></trkpt><trkpt lat="42.8116829" lon="12.559056"><ele>891.8</ele><time>2026-05-03T10:09:16.256Z</time></trkpt><trkpt lat="42.811748" lon="12.5590483"><ele>891.0</ele><time>2026-05-03T10:09:17.265Z</time></trkpt><trkpt lat="42.8118207" lon="12.5590673"><ele>889.1999999999999</ele><time>2026-05-03T10:09:18.276Z</time></trkpt><trkpt lat="42.8119129" lon="12.5590889"><ele>887.3999999999999</ele><time>2026-05-03T10:09:19.264Z</time></trkpt><trkpt lat="42.8120104" lon="12.5591141"><ele>885.6</ele><time>2026-05-03T10:09:20.266Z</time></trkpt><trkpt lat="42.8121191" lon="12.5591436"><ele>883.8</ele><time>2026-05-03T10:09:21.277Z</time></trkpt><trkpt lat="42.812224" lon="12.559165"><ele>882.0</ele><time>2026-05-03T10:09:22.273Z</time></trkpt><trkpt lat="42.8123203" lon="12.5591892"><ele>882.0</ele><time>2026-05-03T10:09:23.273Z</time></trkpt><trkpt lat="42.8124094" lon="12.5592156"><ele>882.0</ele><time>2026-05-03T10:09:24.278Z</time></trkpt><trkpt lat="42.8124982" lon="12.5592449"><ele>882.0</ele><time>2026-05-03T10:09:25.285Z</time></trkpt><trkpt lat="42.8125792" lon="12.5592701"><ele>882.0</ele><time>2026-05-03T10:09:26.257Z</time></trkpt><trkpt lat="42.8126598" lon="12.5592943"><ele>882.0</ele><time>2026-05-03T10:09:27.276Z</time></trkpt><trkpt lat="42.8127368" lon="12.5593078"><ele>882.0</ele><time>2026-05-03T10:09:28.278Z</time></trkpt><trkpt lat="42.8128098" lon="12.5593252"><ele>883.4000000000001</ele><time>2026-05-03T10:09:29.281Z</time></trkpt><trkpt lat="42.8129191" lon="12.5593673"><ele>884.8000000000001</ele><time>2026-05-03T10:09:31.265Z</time></trkpt><trkpt lat="42.8129891" lon="12.5593717"><ele>886.2</ele><time>2026-05-03T10:09:33.273Z</time></trkpt><trkpt lat="42.8130029" lon="12.559257"><ele>887.6</ele><time>2026-05-03T10:09:36.278Z</time></trkpt><trkpt lat="42.8129352" lon="12.5591928"><ele>889.0</ele><time>2026-05-03T10:09:38.276Z</time></trkpt><trkpt lat="42.8127908" lon="12.5591483"><ele>889.0</ele><time>2026-05-03T10:09:40.269Z</time></trkpt><trkpt lat="42.8126917" lon="12.559114"><ele>889.0</ele><time>2026-05-03T10:09:41.262Z</time></trkpt><trkpt lat="42.8125795" lon="12.5590786"><ele>889.0</ele><time>2026-05-03T10:09:42.266Z</time></trkpt><trkpt lat="42.8124689" lon="12.5590293"><ele>889.0</ele><time>2026-05-03T10:09:43.268Z</time></trkpt><trkpt lat="42.8123609" lon="12.5589719"><ele>887.6</ele><time>2026-05-03T10:09:44.28Z</time></trkpt><trkpt lat="42.8122532" lon="12.5589104"><ele>886.2</ele><time>2026-05-03T10:09:45.276Z</time></trkpt><trkpt lat="42.8121556" lon="12.5588478"><ele>884.8000000000001</ele><time>2026-05-03T10:09:46.282Z</time></trkpt><trkpt lat="42.8120604" lon="12.5587917"><ele>883.4000000000001</ele><time>2026-05-03T10:09:47.28Z</time></trkpt><trkpt lat="42.8119616" lon="12.5587354"><ele>882.0</ele><time>2026-05-03T10:09:48.262Z</time></trkpt><trkpt lat="42.8118543" lon="12.5586715"><ele>879.4000000000001</ele><time>2026-05-03T10:09:49.262Z</time></trkpt><trkpt lat="42.8117504" lon="12.5586034"><ele>876.8000000000001</ele><time>2026-05-03T10:09:50.26Z</time></trkpt><trkpt lat="42.8116532" lon="12.5585352"><ele>874.2</ele><time>2026-05-03T10:09:51.281Z</time></trkpt><trkpt lat="42.8115593" lon="12.5584681"><ele>871.6</ele><time>2026-05-03T10:09:52.263Z</time></trkpt><trkpt lat="42.8114676" lon="12.5584018"><ele>869.0</ele><time>2026-05-03T10:09:53.26Z</time></trkpt><trkpt lat="42.8113779" lon="12.558341"><ele>869.0000000000001</ele><time>2026-05-03T10:09:54.262Z</time></trkpt><trkpt lat="42.8112965" lon="12.5582799"><ele>869.0</ele><time>2026-05-03T10:09:55.259Z</time></trkpt><trkpt lat="42.8112261" lon="12.5582315"><ele>869.0</ele><time>2026-05-03T10:09:56.254Z</time></trkpt><trkpt lat="42.8111527" lon="12.5581879"><ele>869.0</ele><time>2026-05-03T10:09:57.275Z</time></trkpt><trkpt lat="42.8110692" lon="12.5581503"><ele>869.0000000000001</ele><time>2026-05-03T10:09:58.278Z</time></trkpt><trkpt lat="42.8109781" lon="12.5581258"><ele>869.0</ele><time>2026-05-03T10:09:59.277Z</time></trkpt><trkpt lat="42.8108917" lon="12.5581164"><ele>870.3333333333334</ele><time>2026-05-03T10:10:00.259Z</time></trkpt><trkpt lat="42.810798" lon="12.558114"><ele>871.6666666666667</ele><time>2026-05-03T10:10:01.253Z</time></trkpt><trkpt lat="42.8107033" lon="12.5581149"><ele>873.0</ele><time>2026-05-03T10:10:02.271Z</time></trkpt><trkpt lat="42.8106161" lon="12.5581188"><ele>874.3333333333333</ele><time>2026-05-03T10:10:03.28Z</time></trkpt><trkpt lat="42.8105374" lon="12.558127"><ele>875.6666666666666</ele><time>2026-05-03T10:10:04.257Z</time></trkpt><trkpt lat="42.8104661" lon="12.5581217"><ele>877.0</ele><time>2026-05-03T10:10:05.277Z</time></trkpt><trkpt lat="42.8104" lon="12.5581022"><ele>876.9999999999999</ele><time>2026-05-03T10:10:06.27Z</time></trkpt><trkpt lat="42.8103138" lon="12.5579869"><ele>877.0</ele><time>2026-05-03T10:10:08.269Z</time></trkpt><trkpt lat="42.810318" lon="12.5579004"><ele>877.0</ele><time>2026-05-03T10:10:09.264Z</time></trkpt><trkpt lat="42.8103478" lon="12.5578159"><ele>877.0</ele><time>2026-05-03T10:10:10.259Z</time></trkpt><trkpt lat="42.8103874" lon="12.5577248"><ele>876.9999999999999</ele><time>2026-05-03T10:10:11.26Z</time></trkpt><trkpt lat="42.810428" lon="12.5576391"><ele>877.0</ele><time>2026-05-03T10:10:12.258Z</time></trkpt><trkpt lat="42.8104647" lon="12.557548"><ele>872.8</ele><time>2026-05-03T10:10:13.277Z</time></trkpt><trkpt lat="42.8104943" lon="12.5574632"><ele>868.6</ele><time>2026-05-03T10:10:14.276Z</time></trkpt><trkpt lat="42.8105275" lon="12.5573104"><ele>864.3999999999999</ele><time>2026-05-03T10:10:16.28Z</time></trkpt><trkpt lat="42.8105309" lon="12.5571754"><ele>860.1999999999999</ele><time>2026-05-03T10:10:18.273Z</time></trkpt><trkpt lat="42.8104799" lon="12.5570414"><ele>856.0</ele><time>2026-05-03T10:10:20.258Z</time></trkpt><trkpt lat="42.810423" lon="12.5568959"><ele>852.1999999999999</ele><time>2026-05-03T10:10:22.284Z</time></trkpt><trkpt lat="42.8103671" lon="12.5567593"><ele>848.3999999999999</ele><time>2026-05-03T10:10:24.277Z</time></trkpt><trkpt lat="42.8102989" lon="12.5566325"><ele>844.6</ele><time>2026-05-03T10:10:26.282Z</time></trkpt><trkpt lat="42.8102438" lon="12.5565189"><ele>840.8</ele><time>2026-05-03T10:10:28.263Z</time></trkpt><trkpt lat="42.8102039" lon="12.5564154"><ele>837.0</ele><time>2026-05-03T10:10:30.253Z</time></trkpt><trkpt lat="42.810166" lon="12.5563068"><ele>838.0</ele><time>2026-05-03T10:10:32.253Z</time></trkpt><trkpt lat="42.810118" lon="12.5562014"><ele>839.0</ele><time>2026-05-03T10:10:34.28Z</time></trkpt><trkpt lat="42.810068" lon="12.556108"><ele>840.0</ele><time>2026-05-03T10:10:36.292Z</time></trkpt><trkpt lat="42.8100146" lon="12.5559832"><ele>841.0</ele><time>2026-05-03T10:10:38.274Z</time></trkpt><trkpt lat="42.8099445" lon="12.5558558"><ele>842.0</ele><time>2026-05-03T10:10:40.274Z</time></trkpt><trkpt lat="42.8099087" lon="12.555785"><ele>842.0</ele><time>2026-05-03T10:10:41.265Z</time></trkpt><trkpt lat="42.8098423" lon="12.5556437"><ele>842.0</ele><time>2026-05-03T10:10:43.263Z</time></trkpt><trkpt lat="42.8097772" lon="12.5554984"><ele>842.0</ele><time>2026-05-03T10:10:45.262Z</time></trkpt><trkpt lat="42.8097419" lon="12.5554234"><ele>842.0</ele><time>2026-05-03T10:10:46.266Z</time></trkpt><trkpt lat="42.8097038" lon="12.5553343"><ele>842.0</ele><time>2026-05-03T10:10:47.261Z</time></trkpt><trkpt lat="42.8096586" lon="12.555229"><ele>837.8333333333334</ele><time>2026-05-03T10:10:48.271Z</time></trkpt><trkpt lat="42.8096119" lon="12.5551266"><ele>833.6666666666667</ele><time>2026-05-03T10:10:49.272Z</time></trkpt><trkpt lat="42.8095663" lon="12.5550245"><ele>829.5</ele><time>2026-05-03T10:10:50.259Z</time></trkpt><trkpt lat="42.809517" lon="12.5549235"><ele>825.3333333333333</ele><time>2026-05-03T10:10:51.276Z</time></trkpt><trkpt lat="42.8094691" lon="12.5548296"><ele>821.1666666666666</ele><time>2026-05-03T10:10:52.272Z</time></trkpt><trkpt lat="42.8094207" lon="12.5547359"><ele>817.0</ele><time>2026-05-03T10:10:53.264Z</time></trkpt><trkpt lat="42.8093788" lon="12.5546455"><ele>816.9999999999999</ele><time>2026-05-03T10:10:54.274Z</time></trkpt><trkpt lat="42.8093399" lon="12.5545544"><ele>817.0</ele><time>2026-05-03T10:10:55.262Z</time></trkpt><trkpt lat="42.8092969" lon="12.5544658"><ele>817.0</ele><time>2026-05-03T10:10:56.278Z</time></trkpt><trkpt lat="42.809255" lon="12.5543753"><ele>817.0</ele><time>2026-05-03T10:10:57.265Z</time></trkpt><trkpt lat="42.8092158" lon="12.5542891"><ele>816.9999999999999</ele><time>2026-05-03T10:10:58.285Z</time></trkpt><trkpt lat="42.8091723" lon="12.5541962"><ele>817.0</ele><time>2026-05-03T10:10:59.278Z</time></trkpt><trkpt lat="42.8091341" lon="12.5540998"><ele>818.4999999999999</ele><time>2026-05-03T10:11:00.262Z</time></trkpt><trkpt lat="42.809098" lon="12.5540072"><ele>820.0</ele><time>2026-05-03T10:11:01.275Z</time></trkpt><trkpt lat="42.8090608" lon="12.5539081"><ele>821.5</ele><time>2026-05-03T10:11:02.261Z</time></trkpt><trkpt lat="42.8090247" lon="12.5538047"><ele>823.0</ele><time>2026-05-03T10:11:03.275Z</time></trkpt><trkpt lat="42.808983" lon="12.553697"><ele>824.4999999999999</ele><time>2026-05-03T10:11:04.269Z</time></trkpt><trkpt lat="42.8089525" lon="12.5535907"><ele>826.0</ele><time>2026-05-03T10:11:05.278Z</time></trkpt><trkpt lat="42.8089208" lon="12.553487"><ele>822.1666666666666</ele><time>2026-05-03T10:11:06.281Z</time></trkpt><trkpt lat="42.8088852" lon="12.553388"><ele>818.3333333333333</ele><time>2026-05-03T10:11:07.285Z</time></trkpt><trkpt lat="42.8088561" lon="12.5532937"><ele>814.5</ele><time>2026-05-03T10:11:08.267Z</time></trkpt><trkpt lat="42.80883" lon="12.5532119"><ele>810.6666666666667</ele><time>2026-05-03T10:11:09.267Z</time></trkpt><trkpt lat="42.808778" lon="12.5530723"><ele>806.8333333333334</ele><time>2026-05-03T10:11:11.276Z</time></trkpt><trkpt lat="42.8087385" lon="12.5529537"><ele>803.0</ele><time>2026-05-03T10:11:13.277Z</time></trkpt><trkpt lat="42.8086976" lon="12.5528558"><ele>802.8</ele><time>2026-05-03T10:11:15.26Z</time></trkpt><trkpt lat="42.8086566" lon="12.5527581"><ele>802.5999999999999</ele><time>2026-05-03T10:12:36.27Z</time></trkpt><trkpt lat="42.8085934" lon="12.55264"><ele>802.4000000000001</ele><time>2026-05-03T10:12:38.254Z</time></trkpt><trkpt lat="42.8085368" lon="12.5525263"><ele>802.2</ele><time>2026-05-03T10:12:40.283Z</time></trkpt><trkpt lat="42.8084811" lon="12.5524126"><ele>802.0</ele><time>2026-05-03T10:12:42.271Z</time></trkpt><trkpt lat="42.8084341" lon="12.5523103"><ele>801.9999999999999</ele><time>2026-05-03T10:12:44.283Z</time></trkpt><trkpt lat="42.8084217" lon="12.5522054"><ele>802.0</ele><time>2026-05-03T10:12:46.3Z</time></trkpt><trkpt lat="42.8084624" lon="12.5521315"><ele>802.0</ele><time>2026-05-03T10:12:48.257Z</time></trkpt><trkpt lat="42.808544" lon="12.5521582"><ele>802.0</ele><time>2026-05-03T10:12:50.266Z</time></trkpt><trkpt lat="42.8086341" lon="12.5522301"><ele>801.9999999999999</ele><time>2026-05-03T10:12:52.272Z</time></trkpt><trkpt lat="42.8086859" lon="12.5522939"><ele>802.0</ele><time>2026-05-03T10:12:53.274Z</time></trkpt><trkpt lat="42.8087559" lon="12.5523774"><ele>802.25</ele><time>2026-05-03T10:12:54.257Z</time></trkpt><trkpt lat="42.8088481" lon="12.5524991"><ele>802.5</ele><time>2026-05-03T10:12:55.278Z</time></trkpt><trkpt lat="42.8089462" lon="12.552645"><ele>802.75</ele><time>2026-05-03T10:12:56.263Z</time></trkpt><trkpt lat="42.8090449" lon="12.5528026"><ele>803.0</ele><time>2026-05-03T10:12:57.265Z</time></trkpt><trkpt lat="42.8091412" lon="12.5529487"><ele>803.0</ele><time>2026-05-03T10:12:58.27Z</time></trkpt><trkpt lat="42.8092289" lon="12.5530729"><ele>803.0</ele><time>2026-05-03T10:12:59.265Z</time></trkpt><trkpt lat="42.8093081" lon="12.5531813"><ele>803.0</ele><time>2026-05-03T10:13:00.257Z</time></trkpt><trkpt lat="42.8093821" lon="12.5532745"><ele>803.0</ele><time>2026-05-03T10:13:01.28Z</time></trkpt><trkpt lat="42.8094514" lon="12.5533647"><ele>803.0</ele><time>2026-05-03T10:13:02.267Z</time></trkpt><trkpt lat="42.8095168" lon="12.5534413"><ele>802.5000000000001</ele><time>2026-05-03T10:13:03.265Z</time></trkpt><trkpt lat="42.8095685" lon="12.5535064"><ele>802.0</ele><time>2026-05-03T10:13:04.289Z</time></trkpt><trkpt lat="42.8096145" lon="12.5535718"><ele>801.5</ele><time>2026-05-03T10:13:05.263Z</time></trkpt><trkpt lat="42.8096962" lon="12.5536811"><ele>801.0</ele><time>2026-05-03T10:13:07.264Z</time></trkpt><trkpt lat="42.8097747" lon="12.5537229"><ele>800.5000000000001</ele><time>2026-05-03T10:13:09.276Z</time></trkpt><trkpt lat="42.8098034" lon="12.5536092"><ele>800.0</ele><time>2026-05-03T10:13:11.255Z</time></trkpt><trkpt lat="42.8097572" lon="12.5534511"><ele>798.5000000000001</ele><time>2026-05-03T10:13:13.28Z</time></trkpt><trkpt lat="42.8097161" lon="12.5533575"><ele>797.0</ele><time>2026-05-03T10:13:14.267Z</time></trkpt><trkpt lat="42.8096759" lon="12.5532563"><ele>795.5</ele><time>2026-05-03T10:13:15.276Z</time></trkpt><trkpt lat="42.8096376" lon="12.5531523"><ele>794.0</ele><time>2026-05-03T10:13:16.256Z</time></trkpt><trkpt lat="42.8095987" lon="12.5530347"><ele>792.5000000000001</ele><time>2026-05-03T10:13:17.28Z</time></trkpt><trkpt lat="42.8095584" lon="12.5529078"><ele>791.0</ele><time>2026-05-03T10:13:18.266Z</time></trkpt><trkpt lat="42.8095204" lon="12.5527806"><ele>790.8</ele><time>2026-05-03T10:13:19.253Z</time></trkpt><trkpt lat="42.8094756" lon="12.5526549"><ele>790.5999999999999</ele><time>2026-05-03T10:13:20.29Z</time></trkpt><trkpt lat="42.8094321" lon="12.552529"><ele>790.4</ele><time>2026-05-03T10:13:21.257Z</time></trkpt><trkpt lat="42.8093895" lon="12.5524085"><ele>790.2</ele><time>2026-05-03T10:13:22.27Z</time></trkpt><trkpt lat="42.8093461" lon="12.5522862"><ele>790.0</ele><time>2026-05-03T10:13:23.25Z</time></trkpt><trkpt lat="42.809305" lon="12.5521586"><ele>788.2</ele><time>2026-05-03T10:13:24.256Z</time></trkpt><trkpt lat="42.8092674" lon="12.5520487"><ele>786.4</ele><time>2026-05-03T10:13:25.261Z</time></trkpt><trkpt lat="42.8092287" lon="12.5519482"><ele>784.5999999999999</ele><time>2026-05-03T10:13:26.265Z</time></trkpt><trkpt lat="42.8091867" lon="12.551841"><ele>782.8</ele><time>2026-05-03T10:13:27.264Z</time></trkpt><trkpt lat="42.809146" lon="12.5517255"><ele>781.0</ele><time>2026-05-03T10:13:28.256Z</time></trkpt><trkpt lat="42.8091027" lon="12.5516092"><ele>778.1999999999999</ele><time>2026-05-03T10:13:29.261Z</time></trkpt><trkpt lat="42.8090577" lon="12.5514848"><ele>775.4</ele><time>2026-05-03T10:13:30.254Z</time></trkpt><trkpt lat="42.8090159" lon="12.5513643"><ele>772.6</ele><time>2026-05-03T10:13:31.266Z</time></trkpt><trkpt lat="42.8089753" lon="12.551241"><ele>769.8</ele><time>2026-05-03T10:13:32.271Z</time></trkpt><trkpt lat="42.8089343" lon="12.5511188"><ele>767.0</ele><time>2026-05-03T10:13:33.247Z</time></trkpt><trkpt lat="42.8088963" lon="12.5509969"><ele>765.8</ele><time>2026-05-03T10:13:34.255Z</time></trkpt><trkpt lat="42.8088622" lon="12.5508784"><ele>764.6</ele><time>2026-05-03T10:13:35.261Z</time></trkpt><trkpt lat="42.8088311" lon="12.5507602"><ele>763.4</ele><time>2026-05-03T10:13:36.272Z</time></trkpt><trkpt lat="42.8088025" lon="12.5506386"><ele>762.1999999999999</ele><time>2026-05-03T10:13:37.267Z</time></trkpt><trkpt lat="42.8087723" lon="12.5505172"><ele>761.0</ele><time>2026-05-03T10:13:38.257Z</time></trkpt><trkpt lat="42.8087464" lon="12.5503959"><ele>761.1999999999999</ele><time>2026-05-03T10:13:39.257Z</time></trkpt><trkpt lat="42.8087166" lon="12.5502771"><ele>761.4</ele><time>2026-05-03T10:13:40.254Z</time></trkpt><trkpt lat="42.8086823" lon="12.5501577"><ele>761.6</ele><time>2026-05-03T10:13:41.277Z</time></trkpt><trkpt lat="42.8086485" lon="12.550046"><ele>761.8</ele><time>2026-05-03T10:13:42.267Z</time></trkpt><trkpt lat="42.8086129" lon="12.5499335"><ele>762.0</ele><time>2026-05-03T10:13:43.261Z</time></trkpt><trkpt lat="42.8085746" lon="12.5498176"><ele>762.0</ele><time>2026-05-03T10:13:44.261Z</time></trkpt><trkpt lat="42.8085309" lon="12.5497054"><ele>762.0</ele><time>2026-05-03T10:13:45.265Z</time></trkpt><trkpt lat="42.8084872" lon="12.5495949"><ele>762.0</ele><time>2026-05-03T10:13:46.257Z</time></trkpt><trkpt lat="42.8084361" lon="12.5494875"><ele>762.0</ele><time>2026-05-03T10:13:47.249Z</time></trkpt><trkpt lat="42.808383" lon="12.549379"><ele>762.0</ele><time>2026-05-03T10:13:48.265Z</time></trkpt><trkpt lat="42.8083342" lon="12.5492666"><ele>757.6</ele><time>2026-05-03T10:13:49.259Z</time></trkpt><trkpt lat="42.8082883" lon="12.5491462"><ele>753.2</ele><time>2026-05-03T10:13:50.256Z</time></trkpt><trkpt lat="42.8082443" lon="12.5490256"><ele>748.8</ele><time>2026-05-03T10:13:51.274Z</time></trkpt><trkpt lat="42.8082016" lon="12.5489036"><ele>744.4</ele><time>2026-05-03T10:13:52.262Z</time></trkpt><trkpt lat="42.8081636" lon="12.54878"><ele>740.0</ele><time>2026-05-03T10:13:53.263Z</time></trkpt><trkpt lat="42.8081373" lon="12.5486516"><ele>738.8</ele><time>2026-05-03T10:13:54.271Z</time></trkpt><trkpt lat="42.8081175" lon="12.5485332"><ele>737.6</ele><time>2026-05-03T10:13:55.257Z</time></trkpt><trkpt lat="42.8080854" lon="12.5484248"><ele>736.4000000000001</ele><time>2026-05-03T10:13:56.267Z</time></trkpt><trkpt lat="42.8080464" lon="12.5483172"><ele>735.2</ele><time>2026-05-03T10:13:57.262Z</time></trkpt><trkpt lat="42.8080068" lon="12.5482009"><ele>734.0</ele><time>2026-05-03T10:13:58.259Z</time></trkpt><trkpt lat="42.8079774" lon="12.5480782"><ele>734.0</ele><time>2026-05-03T10:13:59.264Z</time></trkpt><trkpt lat="42.8079586" lon="12.5479576"><ele>734.0</ele><time>2026-05-03T10:14:00.266Z</time></trkpt><trkpt lat="42.8079472" lon="12.547833"><ele>734.0</ele><time>2026-05-03T10:14:01.262Z</time></trkpt><trkpt lat="42.8079443" lon="12.547706"><ele>734.0</ele><time>2026-05-03T10:14:02.284Z</time></trkpt><trkpt lat="42.8079468" lon="12.547592"><ele>734.0</ele><time>2026-05-03T10:14:03.27Z</time></trkpt><trkpt lat="42.8079461" lon="12.5474764"><ele>734.0</ele><time>2026-05-03T10:14:04.245Z</time></trkpt><trkpt lat="42.8079413" lon="12.5473556"><ele>732.8000000000001</ele><time>2026-05-03T10:14:05.267Z</time></trkpt><trkpt lat="42.8079377" lon="12.5472353"><ele>731.6</ele><time>2026-05-03T10:14:06.263Z</time></trkpt><trkpt lat="42.8079405" lon="12.5471139"><ele>730.4</ele><time>2026-05-03T10:14:07.274Z</time></trkpt><trkpt lat="42.8079406" lon="12.5469838"><ele>729.2</ele><time>2026-05-03T10:14:08.269Z</time></trkpt><trkpt lat="42.8079403" lon="12.5468493"><ele>728.0</ele><time>2026-05-03T10:14:09.25Z</time></trkpt><trkpt lat="42.8079397" lon="12.5467224"><ele>727.6666666666666</ele><time>2026-05-03T10:14:10.258Z</time></trkpt><trkpt lat="42.8079361" lon="12.5466036"><ele>727.3333333333333</ele><time>2026-05-03T10:14:11.277Z</time></trkpt><trkpt lat="42.8079227" lon="12.5464896"><ele>727.0</ele><time>2026-05-03T10:14:12.266Z</time></trkpt><trkpt lat="42.8078931" lon="12.5463764"><ele>726.6666666666666</ele><time>2026-05-03T10:14:13.285Z</time></trkpt><trkpt lat="42.8078574" lon="12.5462653"><ele>726.3333333333334</ele><time>2026-05-03T10:14:14.257Z</time></trkpt><trkpt lat="42.8078157" lon="12.5461496"><ele>726.0</ele><time>2026-05-03T10:14:15.263Z</time></trkpt><trkpt lat="42.8077714" lon="12.5460367"><ele>726.0</ele><time>2026-05-03T10:14:16.263Z</time></trkpt><trkpt lat="42.8077308" lon="12.5459192"><ele>726.0</ele><time>2026-05-03T10:14:17.263Z</time></trkpt><trkpt lat="42.8076881" lon="12.5458041"><ele>726.0</ele><time>2026-05-03T10:14:18.271Z</time></trkpt><trkpt lat="42.8076546" lon="12.5456896"><ele>726.0</ele><time>2026-05-03T10:14:19.267Z</time></trkpt><trkpt lat="42.8076262" lon="12.5455739"><ele>726.0</ele><time>2026-05-03T10:14:20.263Z</time></trkpt><trkpt lat="42.8075973" lon="12.5454518"><ele>718.5999999999999</ele><time>2026-05-03T10:14:21.261Z</time></trkpt><trkpt lat="42.8075767" lon="12.5453307"><ele>711.2</ele><time>2026-05-03T10:14:22.263Z</time></trkpt><trkpt lat="42.807561" lon="12.5452087"><ele>703.8</ele><time>2026-05-03T10:14:23.267Z</time></trkpt><trkpt lat="42.8075594" lon="12.5450891"><ele>696.4000000000001</ele><time>2026-05-03T10:14:24.266Z</time></trkpt><trkpt lat="42.8075626" lon="12.5449645"><ele>689.0</ele><time>2026-05-03T10:14:25.26Z</time></trkpt><trkpt lat="42.8075702" lon="12.5448444"><ele>689.0</ele><time>2026-05-03T10:14:26.262Z</time></trkpt><trkpt lat="42.807575" lon="12.5447274"><ele>689.0</ele><time>2026-05-03T10:14:27.26Z</time></trkpt><trkpt lat="42.8075793" lon="12.5446037"><ele>689.0</ele><time>2026-05-03T10:14:28.248Z</time></trkpt><trkpt lat="42.8075836" lon="12.5444694"><ele>689.0</ele><time>2026-05-03T10:14:29.269Z</time></trkpt><trkpt lat="42.8075875" lon="12.5443258"><ele>689.0</ele><time>2026-05-03T10:14:30.279Z</time></trkpt><trkpt lat="42.8075875" lon="12.5441845"><ele>687.6</ele><time>2026-05-03T10:14:31.258Z</time></trkpt><trkpt lat="42.8075793" lon="12.5440472"><ele>686.2</ele><time>2026-05-03T10:14:32.266Z</time></trkpt><trkpt lat="42.8075629" lon="12.5439099"><ele>684.8000000000001</ele><time>2026-05-03T10:14:33.27Z</time></trkpt><trkpt lat="42.8075493" lon="12.5437815"><ele>683.4000000000001</ele><time>2026-05-03T10:14:34.264Z</time></trkpt><trkpt lat="42.8075341" lon="12.543662"><ele>682.0</ele><time>2026-05-03T10:14:35.266Z</time></trkpt><trkpt lat="42.8075181" lon="12.5435453"><ele>680.5</ele><time>2026-05-03T10:14:36.261Z</time></trkpt><trkpt lat="42.807515" lon="12.5434253"><ele>679.0</ele><time>2026-05-03T10:14:37.264Z</time></trkpt><trkpt lat="42.8075205" lon="12.5433033"><ele>677.5</ele><time>2026-05-03T10:14:38.252Z</time></trkpt><trkpt lat="42.8075329" lon="12.5431832"><ele>676.0</ele><time>2026-05-03T10:14:39.265Z</time></trkpt><trkpt lat="42.8075522" lon="12.5430744"><ele>674.5</ele><time>2026-05-03T10:14:40.262Z</time></trkpt><trkpt lat="42.8075751" lon="12.5429758"><ele>673.0</ele><time>2026-05-03T10:14:41.27Z</time></trkpt><trkpt lat="42.8075986" lon="12.542885"><ele>671.3333333333334</ele><time>2026-05-03T10:14:42.265Z</time></trkpt><trkpt lat="42.8076064" lon="12.5427936"><ele>669.6666666666667</ele><time>2026-05-03T10:14:43.265Z</time></trkpt><trkpt lat="42.8076017" lon="12.5426999"><ele>668.0</ele><time>2026-05-03T10:14:44.261Z</time></trkpt><trkpt lat="42.8075728" lon="12.542592"><ele>666.3333333333334</ele><time>2026-05-03T10:14:45.264Z</time></trkpt><trkpt lat="42.8075397" lon="12.5424791"><ele>664.6666666666666</ele><time>2026-05-03T10:14:46.263Z</time></trkpt><trkpt lat="42.8075044" lon="12.5423604"><ele>663.0</ele><time>2026-05-03T10:14:47.266Z</time></trkpt><trkpt lat="42.8074721" lon="12.5422441"><ele>663.0</ele><time>2026-05-03T10:14:48.269Z</time></trkpt><trkpt lat="42.8074486" lon="12.5421228"><ele>663.0</ele><time>2026-05-03T10:14:49.262Z</time></trkpt><trkpt lat="42.8074253" lon="12.5420099"><ele>663.0</ele><time>2026-05-03T10:14:50.257Z</time></trkpt><trkpt lat="42.8074181" lon="12.5418918"><ele>663.0</ele><time>2026-05-03T10:14:51.264Z</time></trkpt><trkpt lat="42.8074321" lon="12.5417692"><ele>663.0</ele><time>2026-05-03T10:14:52.275Z</time></trkpt><trkpt lat="42.8074674" lon="12.5416437"><ele>662.1666666666666</ele><time>2026-05-03T10:14:53.29Z</time></trkpt><trkpt lat="42.807496" lon="12.5415242"><ele>661.3333333333334</ele><time>2026-05-03T10:14:54.276Z</time></trkpt><trkpt lat="42.8075177" lon="12.5414051"><ele>660.5</ele><time>2026-05-03T10:14:55.252Z</time></trkpt><trkpt lat="42.8075327" lon="12.5412842"><ele>659.6666666666667</ele><time>2026-05-03T10:14:56.261Z</time></trkpt><trkpt lat="42.8075451" lon="12.5411677"><ele>658.8333333333334</ele><time>2026-05-03T10:14:57.275Z</time></trkpt><trkpt lat="42.8075532" lon="12.5410521"><ele>658.0</ele><time>2026-05-03T10:14:58.268Z</time></trkpt><trkpt lat="42.8075548" lon="12.5409388"><ele>656.6666666666667</ele><time>2026-05-03T10:14:59.261Z</time></trkpt><trkpt lat="42.8075421" lon="12.5408325"><ele>655.3333333333334</ele><time>2026-05-03T10:15:00.283Z</time></trkpt><trkpt lat="42.8075157" lon="12.5407311"><ele>654.0</ele><time>2026-05-03T10:15:01.269Z</time></trkpt><trkpt lat="42.8074854" lon="12.5406336"><ele>652.6666666666666</ele><time>2026-05-03T10:15:02.273Z</time></trkpt><trkpt lat="42.807475" lon="12.5405342"><ele>651.3333333333333</ele><time>2026-05-03T10:15:03.27Z</time></trkpt><trkpt lat="42.8074897" lon="12.5404279"><ele>650.0</ele><time>2026-05-03T10:15:04.262Z</time></trkpt><trkpt lat="42.8075015" lon="12.540329"><ele>648.6</ele><time>2026-05-03T10:15:05.267Z</time></trkpt><trkpt lat="42.8075002" lon="12.5402207"><ele>647.2</ele><time>2026-05-03T10:15:06.264Z</time></trkpt><trkpt lat="42.8074864" lon="12.5401005"><ele>645.8</ele><time>2026-05-03T10:15:07.267Z</time></trkpt><trkpt lat="42.807471" lon="12.5399714"><ele>644.4</ele><time>2026-05-03T10:15:08.272Z</time></trkpt><trkpt lat="42.8074672" lon="12.5398439"><ele>643.0</ele><time>2026-05-03T10:15:09.262Z</time></trkpt><trkpt lat="42.8074663" lon="12.5397178"><ele>643.0</ele><time>2026-05-03T10:15:10.251Z</time></trkpt><trkpt lat="42.8074564" lon="12.5395918"><ele>643.0</ele><time>2026-05-03T10:15:11.262Z</time></trkpt><trkpt lat="42.8074406" lon="12.5394799"><ele>643.0</ele><time>2026-05-03T10:15:12.264Z</time></trkpt><trkpt lat="42.8074253" lon="12.539372"><ele>643.0</ele><time>2026-05-03T10:15:13.28Z</time></trkpt><trkpt lat="42.8074068" lon="12.5392561"><ele>643.0</ele><time>2026-05-03T10:15:14.264Z</time></trkpt><trkpt lat="42.807403" lon="12.5391495"><ele>643.0</ele><time>2026-05-03T10:15:15.268Z</time></trkpt><trkpt lat="42.8074068" lon="12.5390342"><ele>642.8</ele><time>2026-05-03T10:15:16.262Z</time></trkpt><trkpt lat="42.8074148" lon="12.5389174"><ele>642.5999999999999</ele><time>2026-05-03T10:15:17.261Z</time></trkpt><trkpt lat="42.807424" lon="12.5387955"><ele>642.4000000000001</ele><time>2026-05-03T10:15:18.263Z</time></trkpt><trkpt lat="42.8074463" lon="12.5386667"><ele>642.2</ele><time>2026-05-03T10:15:19.281Z</time></trkpt><trkpt lat="42.8074735" lon="12.5385337"><ele>642.0</ele><time>2026-05-03T10:15:20.294Z</time></trkpt><trkpt lat="42.8075094" lon="12.5384081"><ele>641.4</ele><time>2026-05-03T10:15:21.257Z</time></trkpt><trkpt lat="42.8075494" lon="12.5382805"><ele>640.8000000000001</ele><time>2026-05-03T10:15:22.276Z</time></trkpt><trkpt lat="42.8075916" lon="12.538161"><ele>640.2</ele><time>2026-05-03T10:15:23.263Z</time></trkpt><trkpt lat="42.8076284" lon="12.5380383"><ele>639.6</ele><time>2026-05-03T10:15:24.268Z</time></trkpt><trkpt lat="42.8076601" lon="12.5379143"><ele>639.0</ele><time>2026-05-03T10:15:25.263Z</time></trkpt><trkpt lat="42.8076912" lon="12.5377939"><ele>636.3333333333334</ele><time>2026-05-03T10:15:26.282Z</time></trkpt><trkpt lat="42.8077266" lon="12.5376768"><ele>633.6666666666666</ele><time>2026-05-03T10:15:27.255Z</time></trkpt><trkpt lat="42.8077666" lon="12.53757"><ele>631.0</ele><time>2026-05-03T10:15:28.265Z</time></trkpt><trkpt lat="42.8078125" lon="12.5374672"><ele>628.3333333333333</ele><time>2026-05-03T10:15:29.279Z</time></trkpt><trkpt lat="42.8078584" lon="12.5373672"><ele>625.6666666666666</ele><time>2026-05-03T10:15:30.269Z</time></trkpt><trkpt lat="42.8079078" lon="12.5372657"><ele>623.0</ele><time>2026-05-03T10:15:31.265Z</time></trkpt><trkpt lat="42.8079647" lon="12.5371614"><ele>623.0</ele><time>2026-05-03T10:15:32.273Z</time></trkpt><trkpt lat="42.8080297" lon="12.5370629"><ele>623.0</ele><time>2026-05-03T10:15:33.279Z</time></trkpt><trkpt lat="42.8080967" lon="12.5369728"><ele>623.0</ele><time>2026-05-03T10:15:34.26Z</time></trkpt><trkpt lat="42.8081654" lon="12.536896"><ele>623.0</ele><time>2026-05-03T10:15:35.264Z</time></trkpt><trkpt lat="42.8082408" lon="12.5368225"><ele>623.0</ele><time>2026-05-03T10:15:36.25Z</time></trkpt><trkpt lat="42.8083206" lon="12.5367495"><ele>623.6666666666666</ele><time>2026-05-03T10:15:37.267Z</time></trkpt><trkpt lat="42.8083938" lon="12.5366834"><ele>624.3333333333333</ele><time>2026-05-03T10:15:38.259Z</time></trkpt><trkpt lat="42.8084734" lon="12.5366381"><ele>625.0</ele><time>2026-05-03T10:15:39.267Z</time></trkpt><trkpt lat="42.8085585" lon="12.5366124"><ele>625.6666666666666</ele><time>2026-05-03T10:15:40.26Z</time></trkpt><trkpt lat="42.808643" lon="12.5365999"><ele>626.3333333333334</ele><time>2026-05-03T10:15:41.266Z</time></trkpt><trkpt lat="42.8087364" lon="12.536604"><ele>627.0</ele><time>2026-05-03T10:15:42.26Z</time></trkpt><trkpt lat="42.8088414" lon="12.5366029"><ele>625.0</ele><time>2026-05-03T10:15:43.276Z</time></trkpt><trkpt lat="42.8089535" lon="12.536592"><ele>623.0</ele><time>2026-05-03T10:15:44.297Z</time></trkpt><trkpt lat="42.8090628" lon="12.5365837"><ele>621.0</ele><time>2026-05-03T10:15:45.26Z</time></trkpt><trkpt lat="42.8091667" lon="12.5365871"><ele>619.0</ele><time>2026-05-03T10:15:46.265Z</time></trkpt><trkpt lat="42.8092726" lon="12.5365928"><ele>617.0</ele><time>2026-05-03T10:15:47.262Z</time></trkpt><trkpt lat="42.8093782" lon="12.5365939"><ele>615.6</ele><time>2026-05-03T10:15:48.27Z</time></trkpt><trkpt lat="42.8094763" lon="12.536591"><ele>614.2</ele><time>2026-05-03T10:15:49.258Z</time></trkpt><trkpt lat="42.8095733" lon="12.5365855"><ele>612.8</ele><time>2026-05-03T10:15:50.252Z</time></trkpt><trkpt lat="42.8096642" lon="12.536573"><ele>611.4</ele><time>2026-05-03T10:15:51.272Z</time></trkpt><trkpt lat="42.8097547" lon="12.5365484"><ele>610.0</ele><time>2026-05-03T10:15:52.278Z</time></trkpt><trkpt lat="42.8098429" lon="12.5365018"><ele>610.0</ele><time>2026-05-03T10:15:53.256Z</time></trkpt><trkpt lat="42.8099338" lon="12.5364579"><ele>610.0</ele><time>2026-05-03T10:15:54.254Z</time></trkpt><trkpt lat="42.8100254" lon="12.5364105"><ele>610.0</ele><time>2026-05-03T10:15:55.265Z</time></trkpt><trkpt lat="42.8101136" lon="12.5363553"><ele>610.0</ele><time>2026-05-03T10:15:56.263Z</time></trkpt><trkpt lat="42.8102012" lon="12.5362879"><ele>610.0</ele><time>2026-05-03T10:15:57.259Z</time></trkpt><trkpt lat="42.8102945" lon="12.5362296"><ele>609.6</ele><time>2026-05-03T10:15:58.255Z</time></trkpt><trkpt lat="42.8103988" lon="12.5361865"><ele>609.2</ele><time>2026-05-03T10:15:59.257Z</time></trkpt><trkpt lat="42.8105037" lon="12.5361374"><ele>608.8</ele><time>2026-05-03T10:16:00.247Z</time></trkpt><trkpt lat="42.8106023" lon="12.5360865"><ele>608.4</ele><time>2026-05-03T10:16:01.277Z</time></trkpt><trkpt lat="42.8106964" lon="12.5360421"><ele>608.0</ele><time>2026-05-03T10:16:02.273Z</time></trkpt><trkpt lat="42.8107849" lon="12.536009"><ele>608.0</ele><time>2026-05-03T10:16:03.266Z</time></trkpt><trkpt lat="42.8108704" lon="12.5359924"><ele>608.0</ele><time>2026-05-03T10:16:04.265Z</time></trkpt><trkpt lat="42.8109562" lon="12.535992"><ele>608.0</ele><time>2026-05-03T10:16:05.264Z</time></trkpt><trkpt lat="42.8110452" lon="12.5360006"><ele>608.0</ele><time>2026-05-03T10:16:06.253Z</time></trkpt><trkpt lat="42.81113" lon="12.5359996"><ele>608.0</ele><time>2026-05-03T10:16:07.259Z</time></trkpt><trkpt lat="42.8112153" lon="12.5359727"><ele>608.0</ele><time>2026-05-03T10:16:08.268Z</time></trkpt><trkpt lat="42.8112973" lon="12.5359228"><ele>606.0</ele><time>2026-05-03T10:16:09.256Z</time></trkpt><trkpt lat="42.8113785" lon="12.5358653"><ele>604.0</ele><time>2026-05-03T10:16:10.28Z</time></trkpt><trkpt lat="42.8114571" lon="12.5357977"><ele>602.0</ele><time>2026-05-03T10:16:11.26Z</time></trkpt><trkpt lat="42.8115321" lon="12.5357268"><ele>600.0</ele><time>2026-05-03T10:16:12.258Z</time></trkpt><trkpt lat="42.8116042" lon="12.5356632"><ele>598.0</ele><time>2026-05-03T10:16:13.276Z</time></trkpt><trkpt lat="42.8116907" lon="12.535612"><ele>598.0</ele><time>2026-05-03T10:16:14.266Z</time></trkpt><trkpt lat="42.8117886" lon="12.5355594"><ele>598.0</ele><time>2026-05-03T10:16:15.259Z</time></trkpt><trkpt lat="42.8118869" lon="12.5354935"><ele>598.0</ele><time>2026-05-03T10:16:16.26Z</time></trkpt><trkpt lat="42.8119796" lon="12.5354224"><ele>598.0</ele><time>2026-05-03T10:16:17.26Z</time></trkpt><trkpt lat="42.8120678" lon="12.5353526"><ele>598.0</ele><time>2026-05-03T10:16:18.263Z</time></trkpt><trkpt lat="42.8121566" lon="12.5352959"><ele>597.1999999999999</ele><time>2026-05-03T10:16:19.265Z</time></trkpt><trkpt lat="42.8122469" lon="12.5352418"><ele>596.4</ele><time>2026-05-03T10:16:20.272Z</time></trkpt><trkpt lat="42.8123428" lon="12.5351836"><ele>595.5999999999999</ele><time>2026-05-03T10:16:21.264Z</time></trkpt><trkpt lat="42.8124479" lon="12.5351172"><ele>594.8</ele><time>2026-05-03T10:16:22.254Z</time></trkpt><trkpt lat="42.8125459" lon="12.5350481"><ele>594.0</ele><time>2026-05-03T10:16:23.262Z</time></trkpt><trkpt lat="42.8126412" lon="12.5349802"><ele>593.4</ele><time>2026-05-03T10:16:24.251Z</time></trkpt><trkpt lat="42.8127333" lon="12.5349095"><ele>592.8</ele><time>2026-05-03T10:16:25.253Z</time></trkpt><trkpt lat="42.8128209" lon="12.5348416"><ele>592.2</ele><time>2026-05-03T10:16:26.258Z</time></trkpt><trkpt lat="42.8129073" lon="12.5347789"><ele>591.6</ele><time>2026-05-03T10:16:27.255Z</time></trkpt><trkpt lat="42.8129857" lon="12.5347151"><ele>591.0</ele><time>2026-05-03T10:16:28.273Z</time></trkpt><trkpt lat="42.8130659" lon="12.5346481"><ele>591.0</ele><time>2026-05-03T10:16:29.266Z</time></trkpt><trkpt lat="42.8131416" lon="12.5345809"><ele>591.0</ele><time>2026-05-03T10:16:30.266Z</time></trkpt><trkpt lat="42.8132194" lon="12.5345022"><ele>591.0</ele><time>2026-05-03T10:16:31.285Z</time></trkpt><trkpt lat="42.8132977" lon="12.5344189"><ele>591.0</ele><time>2026-05-03T10:16:32.311Z</time></trkpt><trkpt lat="42.8133762" lon="12.5343139"><ele>591.0</ele><time>2026-05-03T10:16:33.26Z</time></trkpt><trkpt lat="42.8134511" lon="12.5341976"><ele>594.0</ele><time>2026-05-03T10:16:34.269Z</time></trkpt><trkpt lat="42.8135196" lon="12.5340809"><ele>597.0</ele><time>2026-05-03T10:16:35.271Z</time></trkpt><trkpt lat="42.8135841" lon="12.5339688"><ele>600.0</ele><time>2026-05-03T10:16:36.27Z</time></trkpt><trkpt lat="42.8136514" lon="12.533867"><ele>603.0</ele><time>2026-05-03T10:16:37.256Z</time></trkpt><trkpt lat="42.8137267" lon="12.5337902"><ele>606.0</ele><time>2026-05-03T10:16:38.264Z</time></trkpt><trkpt lat="42.8138029" lon="12.533729"><ele>602.4</ele><time>2026-05-03T10:16:39.267Z</time></trkpt><trkpt lat="42.81388" lon="12.5336755"><ele>598.8</ele><time>2026-05-03T10:16:40.263Z</time></trkpt><trkpt lat="42.8139502" lon="12.5335933"><ele>595.1999999999999</ele><time>2026-05-03T10:16:41.276Z</time></trkpt><trkpt lat="42.8140099" lon="12.5334768"><ele>591.6</ele><time>2026-05-03T10:16:42.265Z</time></trkpt><trkpt lat="42.814067" lon="12.5333301"><ele>588.0</ele><time>2026-05-03T10:16:43.27Z</time></trkpt><trkpt lat="42.8141231" lon="12.5331631"><ele>588.0</ele><time>2026-05-03T10:16:44.25Z</time></trkpt><trkpt lat="42.8141855" lon="12.5329857"><ele>588.0</ele><time>2026-05-03T10:16:45.274Z</time></trkpt><trkpt lat="42.8142417" lon="12.5328114"><ele>588.0</ele><time>2026-05-03T10:16:46.279Z</time></trkpt><trkpt lat="42.8142918" lon="12.5326479"><ele>588.0</ele><time>2026-05-03T10:16:47.274Z</time></trkpt><trkpt lat="42.8143392" lon="12.5324946"><ele>589.25</ele><time>2026-05-03T10:16:48.267Z</time></trkpt><trkpt lat="42.8143863" lon="12.5323496"><ele>590.5</ele><time>2026-05-03T10:16:49.266Z</time></trkpt><trkpt lat="42.81444" lon="12.5322108"><ele>591.75</ele><time>2026-05-03T10:16:50.261Z</time></trkpt><trkpt lat="42.8145013" lon="12.5320593"><ele>593.0</ele><time>2026-05-03T10:16:51.266Z</time></trkpt><trkpt lat="42.8145741" lon="12.5319078"><ele>586.75</ele><time>2026-05-03T10:16:52.261Z</time></trkpt><trkpt lat="42.8146518" lon="12.5317479"><ele>580.5</ele><time>2026-05-03T10:16:53.258Z</time></trkpt><trkpt lat="42.8147334" lon="12.5315901"><ele>574.25</ele><time>2026-05-03T10:16:54.266Z</time></trkpt><trkpt lat="42.8148102" lon="12.5314398"><ele>568.0</ele><time>2026-05-03T10:16:55.263Z</time></trkpt><trkpt lat="42.8148816" lon="12.5312993"><ele>567.0</ele><time>2026-05-03T10:16:56.28Z</time></trkpt><trkpt lat="42.8149469" lon="12.5311691"><ele>566.0</ele><time>2026-05-03T10:16:57.277Z</time></trkpt><trkpt lat="42.8150087" lon="12.5310472"><ele>565.0</ele><time>2026-05-03T10:16:58.262Z</time></trkpt><trkpt lat="42.8150632" lon="12.5309249"><ele>564.0</ele><time>2026-05-03T10:16:59.258Z</time></trkpt><trkpt lat="42.8151165" lon="12.5308071"><ele>563.0</ele><time>2026-05-03T10:17:00.278Z</time></trkpt><trkpt lat="42.8151634" lon="12.530702"><ele>563.0</ele><time>2026-05-03T10:17:01.268Z</time></trkpt><trkpt lat="42.8152135" lon="12.5306157"><ele>563.0</ele><time>2026-05-03T10:17:02.274Z</time></trkpt><trkpt lat="42.8152501" lon="12.530531"><ele>563.0</ele><time>2026-05-03T10:17:03.263Z</time></trkpt><trkpt lat="42.815279" lon="12.5303749"><ele>563.0</ele><time>2026-05-03T10:17:05.255Z</time></trkpt><trkpt lat="42.8152716" lon="12.5302313"><ele>563.0</ele><time>2026-05-03T10:17:07.281Z</time></trkpt><trkpt lat="42.815247" lon="12.5301108"><ele>561.4</ele><time>2026-05-03T10:17:11.256Z</time></trkpt><trkpt lat="42.8152148" lon="12.5300266"><ele>559.8</ele><time>2026-05-03T10:17:12.26Z</time></trkpt><trkpt lat="42.815165" lon="12.5299251"><ele>558.2</ele><time>2026-05-03T10:17:13.263Z</time></trkpt><trkpt lat="42.8151129" lon="12.5297965"><ele>556.6</ele><time>2026-05-03T10:17:14.275Z</time></trkpt><trkpt lat="42.8150778" lon="12.5296208"><ele>555.0</ele><time>2026-05-03T10:17:15.262Z</time></trkpt><trkpt lat="42.8150751" lon="12.5294342"><ele>555.0</ele><time>2026-05-03T10:17:16.27Z</time></trkpt><trkpt lat="42.81512" lon="12.5292293"><ele>555.0</ele><time>2026-05-03T10:17:17.275Z</time></trkpt><trkpt lat="42.8151801" lon="12.5290293"><ele>555.0</ele><time>2026-05-03T10:17:18.268Z</time></trkpt><trkpt lat="42.8152366" lon="12.5288409"><ele>555.0</ele><time>2026-05-03T10:17:19.281Z</time></trkpt><trkpt lat="42.8152805" lon="12.5286729"><ele>555.0</ele><time>2026-05-03T10:17:20.273Z</time></trkpt><trkpt lat="42.815327" lon="12.5285067"><ele>555.0</ele><time>2026-05-03T10:17:21.28Z</time></trkpt><trkpt lat="42.81538" lon="12.5283426"><ele>555.0</ele><time>2026-05-03T10:17:22.27Z</time></trkpt><trkpt lat="42.8154497" lon="12.5281809"><ele>555.0</ele><time>2026-05-03T10:17:23.269Z</time></trkpt><trkpt lat="42.815532" lon="12.5280304"><ele>555.0</ele><time>2026-05-03T10:17:24.264Z</time></trkpt><trkpt lat="42.8156085" lon="12.5278895"><ele>555.0</ele><time>2026-05-03T10:17:25.292Z</time></trkpt><trkpt lat="42.8156829" lon="12.5277486"><ele>555.0</ele><time>2026-05-03T10:17:26.271Z</time></trkpt><trkpt lat="42.8157492" lon="12.5276302"><ele>555.0</ele><time>2026-05-03T10:17:27.286Z</time></trkpt><trkpt lat="42.8158142" lon="12.5275235"><ele>555.0</ele><time>2026-05-03T10:17:28.274Z</time></trkpt><trkpt lat="42.8158764" lon="12.5274124"><ele>555.0</ele><time>2026-05-03T10:17:29.281Z</time></trkpt><trkpt lat="42.8159326" lon="12.5272956"><ele>555.0</ele><time>2026-05-03T10:17:30.264Z</time></trkpt><trkpt lat="42.8159837" lon="12.5271747"><ele>555.0</ele><time>2026-05-03T10:17:31.263Z</time></trkpt><trkpt lat="42.8160389" lon="12.5270466"><ele>553.0</ele><time>2026-05-03T10:17:32.276Z</time></trkpt><trkpt lat="42.8160909" lon="12.5269089"><ele>551.0</ele><time>2026-05-03T10:17:33.258Z</time></trkpt><trkpt lat="42.8161284" lon="12.5267557"><ele>549.0</ele><time>2026-05-03T10:17:34.288Z</time></trkpt><trkpt lat="42.816155" lon="12.5266019"><ele>547.0</ele><time>2026-05-03T10:17:35.272Z</time></trkpt><trkpt lat="42.8161809" lon="12.5264626"><ele>547.0</ele><time>2026-05-03T10:17:36.277Z</time></trkpt><trkpt lat="42.816197" lon="12.5263344"><ele>547.0</ele><time>2026-05-03T10:17:37.279Z</time></trkpt><trkpt lat="42.8162171" lon="12.5262264"><ele>547.0</ele><time>2026-05-03T10:17:38.277Z</time></trkpt><trkpt lat="42.8162352" lon="12.5261366"><ele>547.0</ele><time>2026-05-03T10:17:39.261Z</time></trkpt><trkpt lat="42.8162942" lon="12.5259778"><ele>547.0</ele><time>2026-05-03T10:17:41.275Z</time></trkpt><trkpt lat="42.8163383" lon="12.5258739"><ele>547.0</ele><time>2026-05-03T10:17:42.266Z</time></trkpt><trkpt lat="42.8163844" lon="12.5257558"><ele>547.0</ele><time>2026-05-03T10:17:43.271Z</time></trkpt><trkpt lat="42.8164319" lon="12.5255939"><ele>547.0</ele><time>2026-05-03T10:17:44.256Z</time></trkpt><trkpt lat="42.8164664" lon="12.5253954"><ele>547.0</ele><time>2026-05-03T10:17:45.275Z</time></trkpt><trkpt lat="42.8164853" lon="12.5251613"><ele>547.3333333333334</ele><time>2026-05-03T10:17:46.276Z</time></trkpt><trkpt lat="42.8164756" lon="12.5249015"><ele>547.6666666666666</ele><time>2026-05-03T10:17:47.276Z</time></trkpt><trkpt lat="42.8164296" lon="12.5246173"><ele>548.0</ele><time>2026-05-03T10:17:48.272Z</time></trkpt><trkpt lat="42.8163678" lon="12.5243459"><ele>548.0</ele><time>2026-05-03T10:17:49.269Z</time></trkpt><trkpt lat="42.8163168" lon="12.5240909"><ele>548.0</ele><time>2026-05-03T10:17:50.263Z</time></trkpt><trkpt lat="42.816277" lon="12.5238393"><ele>548.0</ele><time>2026-05-03T10:17:51.258Z</time></trkpt><trkpt lat="42.8162509" lon="12.5235828"><ele>546.0</ele><time>2026-05-03T10:17:52.258Z</time></trkpt><trkpt lat="42.8162543" lon="12.5232864"><ele>544.0</ele><time>2026-05-03T10:17:53.276Z</time></trkpt><trkpt lat="42.8162797" lon="12.5229555"><ele>542.3333333333334</ele><time>2026-05-03T10:17:54.261Z</time></trkpt><trkpt lat="42.8163101" lon="12.5226394"><ele>540.6666666666666</ele><time>2026-05-03T10:17:55.255Z</time></trkpt><trkpt lat="42.8163434" lon="12.5223509"><ele>539.0</ele><time>2026-05-03T10:17:56.26Z</time></trkpt><trkpt lat="42.8163896" lon="12.5220779"><ele>537.0</ele><time>2026-05-03T10:17:57.261Z</time></trkpt><trkpt lat="42.8164718" lon="12.5218064"><ele>535.0</ele><time>2026-05-03T10:17:58.271Z</time></trkpt><trkpt lat="42.8165908" lon="12.5215244"><ele>533.0</ele><time>2026-05-03T10:17:59.257Z</time></trkpt><trkpt lat="42.8167306" lon="12.5212025"><ele>531.0</ele><time>2026-05-03T10:18:00.257Z</time></trkpt><trkpt lat="42.8168769" lon="12.5208617"><ele>528.5</ele><time>2026-05-03T10:18:01.254Z</time></trkpt><trkpt lat="42.8170292" lon="12.5205455"><ele>526.0</ele><time>2026-05-03T10:18:02.289Z</time></trkpt><trkpt lat="42.8171866" lon="12.5202376"><ele>524.5</ele><time>2026-05-03T10:18:03.268Z</time></trkpt><trkpt lat="42.8173621" lon="12.5199313"><ele>523.0</ele><time>2026-05-03T10:18:04.251Z</time></trkpt><trkpt lat="42.8175392" lon="12.5196028"><ele>517.0</ele><time>2026-05-03T10:18:05.253Z</time></trkpt><trkpt lat="42.8177141" lon="12.5192755"><ele>511.0</ele><time>2026-05-03T10:18:06.26Z</time></trkpt><trkpt lat="42.8178796" lon="12.5189646"><ele>511.0</ele><time>2026-05-03T10:18:07.261Z</time></trkpt><trkpt lat="42.818041" lon="12.5186646"><ele>511.0</ele><time>2026-05-03T10:18:08.272Z</time></trkpt><trkpt lat="42.8181951" lon="12.5183718"><ele>511.0</ele><time>2026-05-03T10:18:09.284Z</time></trkpt><trkpt lat="42.818346" lon="12.5181047"><ele>511.0</ele><time>2026-05-03T10:18:10.277Z</time></trkpt><trkpt lat="42.8184913" lon="12.5178421"><ele>509.0</ele><time>2026-05-03T10:18:11.272Z</time></trkpt><trkpt lat="42.8186299" lon="12.5175724"><ele>507.0</ele><time>2026-05-03T10:18:12.273Z</time></trkpt><trkpt lat="42.818754" lon="12.5172864"><ele>507.0</ele><time>2026-05-03T10:18:13.266Z</time></trkpt><trkpt lat="42.8188629" lon="12.5169736"><ele>507.0</ele><time>2026-05-03T10:18:14.271Z</time></trkpt><trkpt lat="42.8189535" lon="12.5166304"><ele>507.0</ele><time>2026-05-03T10:18:15.281Z</time></trkpt><trkpt lat="42.8190376" lon="12.5162611"><ele>507.0</ele><time>2026-05-03T10:18:16.271Z</time></trkpt><trkpt lat="42.8191171" lon="12.5158887"><ele>504.5</ele><time>2026-05-03T10:18:17.265Z</time></trkpt><trkpt lat="42.8191906" lon="12.515529"><ele>502.0</ele><time>2026-05-03T10:18:18.275Z</time></trkpt><trkpt lat="42.8192763" lon="12.5151992"><ele>496.5</ele><time>2026-05-03T10:18:19.286Z</time></trkpt><trkpt lat="42.8193795" lon="12.5148927"><ele>491.0</ele><time>2026-05-03T10:18:20.273Z</time></trkpt><trkpt lat="42.8195082" lon="12.514599"><ele>491.0</ele><time>2026-05-03T10:18:21.272Z</time></trkpt><trkpt lat="42.819659" lon="12.514294"><ele>491.0</ele><time>2026-05-03T10:18:22.275Z</time></trkpt><trkpt lat="42.8198113" lon="12.5139667"><ele>489.5</ele><time>2026-05-03T10:18:23.273Z</time></trkpt><trkpt lat="42.8199573" lon="12.5136052"><ele>488.0</ele><time>2026-05-03T10:18:24.274Z</time></trkpt><trkpt lat="42.8200976" lon="12.5132151"><ele>486.5</ele><time>2026-05-03T10:18:25.26Z</time></trkpt><trkpt lat="42.8202383" lon="12.5128032"><ele>485.0</ele><time>2026-05-03T10:18:26.281Z</time></trkpt><trkpt lat="42.8203756" lon="12.5124066"><ele>485.0</ele><time>2026-05-03T10:18:27.273Z</time></trkpt><trkpt lat="42.8205068" lon="12.5120394"><ele>485.0</ele><time>2026-05-03T10:18:28.273Z</time></trkpt><trkpt lat="42.8206285" lon="12.5116977"><ele>485.0</ele><time>2026-05-03T10:18:29.266Z</time></trkpt><trkpt lat="42.820741" lon="12.5113724"><ele>485.0</ele><time>2026-05-03T10:18:30.278Z</time></trkpt><trkpt lat="42.8208461" lon="12.5110544"><ele>484.0</ele><time>2026-05-03T10:18:31.272Z</time></trkpt><trkpt lat="42.8209544" lon="12.5107335"><ele>483.0</ele><time>2026-05-03T10:18:32.257Z</time></trkpt><trkpt lat="42.8210574" lon="12.510431"><ele>481.5</ele><time>2026-05-03T10:18:33.267Z</time></trkpt><trkpt lat="42.8211547" lon="12.5101389"><ele>480.0</ele><time>2026-05-03T10:18:34.274Z</time></trkpt><trkpt lat="42.8212515" lon="12.5098564"><ele>480.0</ele><time>2026-05-03T10:18:35.27Z</time></trkpt><trkpt lat="42.8213513" lon="12.5095947"><ele>480.0</ele><time>2026-05-03T10:18:36.264Z</time></trkpt><trkpt lat="42.8214597" lon="12.509369"><ele>480.0</ele><time>2026-05-03T10:18:37.261Z</time></trkpt><trkpt lat="42.8215845" lon="12.5091805"><ele>479.66666666666663</ele><time>2026-05-03T10:18:38.269Z</time></trkpt><trkpt lat="42.8217178" lon="12.5090292"><ele>479.3333333333333</ele><time>2026-05-03T10:18:39.271Z</time></trkpt><trkpt lat="42.8218777" lon="12.5089126"><ele>479.0</ele><time>2026-05-03T10:18:40.263Z</time></trkpt><trkpt lat="42.8220507" lon="12.5088288"><ele>478.66666666666663</ele><time>2026-05-03T10:18:41.274Z</time></trkpt><trkpt lat="42.8222342" lon="12.5087637"><ele>478.33333333333337</ele><time>2026-05-03T10:18:42.287Z</time></trkpt><trkpt lat="42.8224" lon="12.508704"><ele>478.0</ele><time>2026-05-03T10:18:43.285Z</time></trkpt><trkpt lat="42.8225573" lon="12.5086329"><ele>478.25</ele><time>2026-05-03T10:18:44.27Z</time></trkpt><trkpt lat="42.8227066" lon="12.5085633"><ele>478.5</ele><time>2026-05-03T10:18:45.275Z</time></trkpt><trkpt lat="42.8228444" lon="12.5085068"><ele>478.75</ele><time>2026-05-03T10:18:46.275Z</time></trkpt><trkpt lat="42.8229837" lon="12.5084496"><ele>479.0</ele><time>2026-05-03T10:18:47.272Z</time></trkpt><trkpt lat="42.8231206" lon="12.508389"><ele>479.0</ele><time>2026-05-03T10:18:48.275Z</time></trkpt><trkpt lat="42.8232494" lon="12.5083371"><ele>479.0</ele><time>2026-05-03T10:18:49.271Z</time></trkpt><trkpt lat="42.8233593" lon="12.5082947"><ele>479.0</ele><time>2026-05-03T10:18:50.269Z</time></trkpt><trkpt lat="42.8234519" lon="12.5082558"><ele>479.0</ele><time>2026-05-03T10:18:51.267Z</time></trkpt><trkpt lat="42.8235178" lon="12.5082357"><ele>479.0</ele><time>2026-05-03T10:18:52.286Z</time></trkpt><trkpt lat="42.8236259" lon="12.5082388"><ele>479.0</ele><time>2026-05-03T10:18:54.279Z</time></trkpt><trkpt lat="42.8237624" lon="12.5081822"><ele>479.0</ele><time>2026-05-03T10:18:56.257Z</time></trkpt><trkpt lat="42.8238621" lon="12.5081305"><ele>479.0</ele><time>2026-05-03T10:18:57.272Z</time></trkpt><trkpt lat="42.8239883" lon="12.5080573"><ele>479.0</ele><time>2026-05-03T10:18:58.275Z</time></trkpt><trkpt lat="42.8241379" lon="12.5079857"><ele>479.0</ele><time>2026-05-03T10:18:59.286Z</time></trkpt><trkpt lat="42.824288" lon="12.507894"><ele>479.0</ele><time>2026-05-03T10:19:00.272Z</time></trkpt><trkpt lat="42.824432" lon="12.5077693"><ele>479.0</ele><time>2026-05-03T10:19:01.291Z</time></trkpt><trkpt lat="42.8245673" lon="12.5076009"><ele>479.0</ele><time>2026-05-03T10:19:02.275Z</time></trkpt><trkpt lat="42.8247061" lon="12.5074155"><ele>479.0</ele><time>2026-05-03T10:19:03.271Z</time></trkpt><trkpt lat="42.8248601" lon="12.5072202"><ele>479.0</ele><time>2026-05-03T10:19:04.272Z</time></trkpt><trkpt lat="42.8250322" lon="12.5070185"><ele>480.5</ele><time>2026-05-03T10:19:05.27Z</time></trkpt><trkpt lat="42.8252092" lon="12.5068073"><ele>482.0</ele><time>2026-05-03T10:19:06.27Z</time></trkpt><trkpt lat="42.8253833" lon="12.5065876"><ele>482.0</ele><time>2026-05-03T10:19:07.258Z</time></trkpt><trkpt lat="42.8255441" lon="12.5063788"><ele>482.0</ele><time>2026-05-03T10:19:08.286Z</time></trkpt><trkpt lat="42.8256944" lon="12.506186"><ele>482.0</ele><time>2026-05-03T10:19:09.288Z</time></trkpt><trkpt lat="42.8258352" lon="12.5060037"><ele>482.3333333333333</ele><time>2026-05-03T10:19:10.272Z</time></trkpt><trkpt lat="42.8259768" lon="12.5058341"><ele>482.66666666666663</ele><time>2026-05-03T10:19:11.264Z</time></trkpt><trkpt lat="42.8261265" lon="12.5056874"><ele>483.0</ele><time>2026-05-03T10:19:12.285Z</time></trkpt><trkpt lat="42.8262963" lon="12.5055687"><ele>483.0</ele><time>2026-05-03T10:19:13.269Z</time></trkpt><trkpt lat="42.8264845" lon="12.5054757"><ele>483.0</ele><time>2026-05-03T10:19:14.265Z</time></trkpt><trkpt lat="42.8266953" lon="12.5053727"><ele>483.0</ele><time>2026-05-03T10:19:15.27Z</time></trkpt><trkpt lat="42.8269264" lon="12.5052525"><ele>483.5</ele><time>2026-05-03T10:19:16.273Z</time></trkpt><trkpt lat="42.8271586" lon="12.5051245"><ele>484.0</ele><time>2026-05-03T10:19:17.266Z</time></trkpt><trkpt lat="42.8274099" lon="12.5049802"><ele>485.0</ele><time>2026-05-03T10:19:18.267Z</time></trkpt><trkpt lat="42.8276873" lon="12.5048216"><ele>486.0</ele><time>2026-05-03T10:19:19.266Z</time></trkpt><trkpt lat="42.8279541" lon="12.504674"><ele>485.5</ele><time>2026-05-03T10:19:20.266Z</time></trkpt><trkpt lat="42.8281986" lon="12.5045388"><ele>485.0</ele><time>2026-05-03T10:19:21.272Z</time></trkpt><trkpt lat="42.8284268" lon="12.5044174"><ele>486.0</ele><time>2026-05-03T10:19:22.276Z</time></trkpt><trkpt lat="42.828636" lon="12.5043089"><ele>487.0</ele><time>2026-05-03T10:19:23.256Z</time></trkpt><trkpt lat="42.8288378" lon="12.5042034"><ele>488.0</ele><time>2026-05-03T10:19:24.257Z</time></trkpt><trkpt lat="42.829031" lon="12.5041029"><ele>488.0</ele><time>2026-05-03T10:19:25.258Z</time></trkpt><trkpt lat="42.829207" lon="12.5040115"><ele>488.0</ele><time>2026-05-03T10:19:26.278Z</time></trkpt><trkpt lat="42.8293699" lon="12.5039272"><ele>488.0</ele><time>2026-05-03T10:19:27.271Z</time></trkpt><trkpt lat="42.8295212" lon="12.5038271"><ele>487.3333333333333</ele><time>2026-05-03T10:19:28.269Z</time></trkpt><trkpt lat="42.8296544" lon="12.5036965"><ele>486.66666666666663</ele><time>2026-05-03T10:19:29.259Z</time></trkpt><trkpt lat="42.8297646" lon="12.5035347"><ele>486.0</ele><time>2026-05-03T10:19:30.271Z</time></trkpt><trkpt lat="42.8298608" lon="12.50335"><ele>486.0</ele><time>2026-05-03T10:19:31.271Z</time></trkpt><trkpt lat="42.8299402" lon="12.5031609"><ele>486.0</ele><time>2026-05-03T10:19:32.267Z</time></trkpt><trkpt lat="42.8300103" lon="12.5029799"><ele>486.0</ele><time>2026-05-03T10:19:33.266Z</time></trkpt><trkpt lat="42.8300842" lon="12.5028139"><ele>486.25</ele><time>2026-05-03T10:19:34.281Z</time></trkpt><trkpt lat="42.8301744" lon="12.5026675"><ele>486.5</ele><time>2026-05-03T10:19:35.263Z</time></trkpt><trkpt lat="42.8302974" lon="12.5025661"><ele>486.75</ele><time>2026-05-03T10:19:36.279Z</time></trkpt><trkpt lat="42.8304368" lon="12.5025075"><ele>487.0</ele><time>2026-05-03T10:19:37.258Z</time></trkpt><trkpt lat="42.8306014" lon="12.5025258"><ele>487.0</ele><time>2026-05-03T10:19:38.267Z</time></trkpt><trkpt lat="42.8307832" lon="12.5025692"><ele>487.0</ele><time>2026-05-03T10:19:39.265Z</time></trkpt><trkpt lat="42.8309755" lon="12.5026072"><ele>487.0</ele><time>2026-05-03T10:19:40.283Z</time></trkpt><trkpt lat="42.8311663" lon="12.5026465"><ele>489.0</ele><time>2026-05-03T10:19:41.264Z</time></trkpt><trkpt lat="42.831344" lon="12.5026826"><ele>491.0</ele><time>2026-05-03T10:19:42.282Z</time></trkpt><trkpt lat="42.8315087" lon="12.5027172"><ele>493.0</ele><time>2026-05-03T10:19:43.272Z</time></trkpt><trkpt lat="42.831652" lon="12.5027744"><ele>493.0</ele><time>2026-05-03T10:19:44.284Z</time></trkpt><trkpt lat="42.8317753" lon="12.5028586"><ele>493.0</ele><time>2026-05-03T10:19:45.284Z</time></trkpt><trkpt lat="42.8318752" lon="12.502987"><ele>493.0</ele><time>2026-05-03T10:19:46.27Z</time></trkpt><trkpt lat="42.8319428" lon="12.5031646"><ele>493.0</ele><time>2026-05-03T10:19:47.273Z</time></trkpt><trkpt lat="42.8319896" lon="12.5033788"><ele>493.6666666666667</ele><time>2026-05-03T10:19:48.26Z</time></trkpt><trkpt lat="42.8320451" lon="12.5036014"><ele>494.33333333333337</ele><time>2026-05-03T10:19:49.256Z</time></trkpt><trkpt lat="42.8321249" lon="12.5038195"><ele>495.0</ele><time>2026-05-03T10:19:50.268Z</time></trkpt><trkpt lat="42.8322279" lon="12.5040095"><ele>493.33333333333337</ele><time>2026-05-03T10:19:51.257Z</time></trkpt><trkpt lat="42.8323512" lon="12.5041719"><ele>491.6666666666667</ele><time>2026-05-03T10:19:52.248Z</time></trkpt><trkpt lat="42.8324935" lon="12.5043078"><ele>490.0</ele><time>2026-05-03T10:19:53.262Z</time></trkpt><trkpt lat="42.8326645" lon="12.5043941"><ele>490.0</ele><time>2026-05-03T10:19:54.264Z</time></trkpt><trkpt lat="42.8328564" lon="12.5044194"><ele>490.0</ele><time>2026-05-03T10:19:55.254Z</time></trkpt><trkpt lat="42.8330772" lon="12.5044058"><ele>490.0</ele><time>2026-05-03T10:19:56.28Z</time></trkpt><trkpt lat="42.833296" lon="12.504394"><ele>488.33333333333337</ele><time>2026-05-03T10:19:57.269Z</time></trkpt><trkpt lat="42.8335094" lon="12.5043921"><ele>486.66666666666663</ele><time>2026-05-03T10:19:58.264Z</time></trkpt><trkpt lat="42.8337022" lon="12.504375"><ele>485.0</ele><time>2026-05-03T10:19:59.264Z</time></trkpt><trkpt lat="42.8338789" lon="12.5043344"><ele>485.0</ele><time>2026-05-03T10:20:00.268Z</time></trkpt><trkpt lat="42.8340504" lon="12.5042512"><ele>485.0</ele><time>2026-05-03T10:20:01.266Z</time></trkpt><trkpt lat="42.8342106" lon="12.5041243"><ele>485.0</ele><time>2026-05-03T10:20:02.272Z</time></trkpt><trkpt lat="42.8343608" lon="12.5039607"><ele>484.66666666666663</ele><time>2026-05-03T10:20:03.289Z</time></trkpt><trkpt lat="42.834509" lon="12.5037625"><ele>484.33333333333337</ele><time>2026-05-03T10:20:04.266Z</time></trkpt><trkpt lat="42.8346525" lon="12.5035379"><ele>484.0</ele><time>2026-05-03T10:20:05.253Z</time></trkpt><trkpt lat="42.8347982" lon="12.5032985"><ele>484.0</ele><time>2026-05-03T10:20:06.267Z</time></trkpt><trkpt lat="42.8349475" lon="12.5030634"><ele>484.0</ele><time>2026-05-03T10:20:07.28Z</time></trkpt><trkpt lat="42.8350908" lon="12.5028295"><ele>480.0</ele><time>2026-05-03T10:20:08.266Z</time></trkpt><trkpt lat="42.8352219" lon="12.5026199"><ele>476.0</ele><time>2026-05-03T10:20:09.264Z</time></trkpt><trkpt lat="42.835335" lon="12.5024196"><ele>472.0</ele><time>2026-05-03T10:20:10.276Z</time></trkpt><trkpt lat="42.8354422" lon="12.5022363"><ele>474.33333333333337</ele><time>2026-05-03T10:20:11.258Z</time></trkpt><trkpt lat="42.8355412" lon="12.5020522"><ele>476.66666666666663</ele><time>2026-05-03T10:20:12.283Z</time></trkpt><trkpt lat="42.8356384" lon="12.5018783"><ele>479.0</ele><time>2026-05-03T10:20:13.279Z</time></trkpt><trkpt lat="42.8357317" lon="12.501716"><ele>479.0</ele><time>2026-05-03T10:20:14.287Z</time></trkpt><trkpt lat="42.8358262" lon="12.5015721"><ele>479.0</ele><time>2026-05-03T10:20:15.266Z</time></trkpt><trkpt lat="42.8359236" lon="12.5014423"><ele>479.0</ele><time>2026-05-03T10:20:16.27Z</time></trkpt><trkpt lat="42.8360346" lon="12.5013363"><ele>479.0</ele><time>2026-05-03T10:20:17.288Z</time></trkpt><trkpt lat="42.83616" lon="12.5012547"><ele>478.0</ele><time>2026-05-03T10:20:18.274Z</time></trkpt><trkpt lat="42.8362828" lon="12.5011892"><ele>477.0</ele><time>2026-05-03T10:20:19.276Z</time></trkpt><trkpt lat="42.8364057" lon="12.5011331"><ele>476.0</ele><time>2026-05-03T10:20:20.266Z</time></trkpt><trkpt lat="42.8365155" lon="12.5010805"><ele>475.0</ele><time>2026-05-03T10:20:21.258Z</time></trkpt><trkpt lat="42.8366036" lon="12.5010301"><ele>475.00000000000006</ele><time>2026-05-03T10:20:22.266Z</time></trkpt><trkpt lat="42.8366773" lon="12.5009922"><ele>475.0</ele><time>2026-05-03T10:20:23.263Z</time></trkpt><trkpt lat="42.8367646" lon="12.5009242"><ele>475.0</ele><time>2026-05-03T10:20:25.269Z</time></trkpt><trkpt lat="42.8368008" lon="12.500828"><ele>475.0</ele><time>2026-05-03T10:20:28.265Z</time></trkpt><trkpt lat="42.8367762" lon="12.5007136"><ele>475.00000000000006</ele><time>2026-05-03T10:20:30.267Z</time></trkpt><trkpt lat="42.8367788" lon="12.5006253"><ele>475.0</ele><time>2026-05-03T10:20:32.269Z</time></trkpt><trkpt lat="42.8367626" lon="12.500537"><ele>475.0</ele><time>2026-05-03T10:21:19.265Z</time></trkpt><trkpt lat="42.836696" lon="12.5005561"><ele>475.0</ele><time>2026-05-03T10:21:25.26Z</time></trkpt></trkseg></trk></gpx>